GFSGBSN_sfc_wetblb_000.txt.gz
Wetbulb
54.61 54.15 54.24 54.41 54.42 55.11 55.77 56.26 57.92 57.87 60.06 59.79 60.54 60.56 60.49 59.62 58.63 57.54 57.18 57.15 57.19 57.57 57.22 58.24 59.14 59.18 56.66 50.56 50.06 54.71 59.72 57.98 58.22 57.56 54.83 53.01 47.62 45.23 41.45 42.71 43.88 43.36 45.36 48.20 49.37 49.90 50.02
53.56 53.70 53.35 53.67 54.02 54.04 54.30 55.62 55.75 56.64 57.56 60.07 59.71 60.30 60.41 59.96 58.90 58.32 57.48 56.90 57.13 57.20 57.84 57.36 58.40 57.49 49.79 41.20 50.98 51.83 52.07 52.56 54.37 55.55 53.66 52.76 49.66 49.32 44.55 44.13 42.35 44.50 45.05 45.33 46.84 47.71 48.35
52.84 52.56 52.64 52.97 52.83 52.60 53.29 54.02 54.50 55.23 56.16 58.29 59.49 59.97 60.16 59.98 59.25 58.27 57.85 57.25 57.43 57.26 57.46 57.06 57.61 53.97 47.82 44.72 50.62 50.40 51.67 49.07 50.50 52.06 51.32 53.11 52.37 48.60 48.09 43.83 46.28 45.14 41.19 43.13 44.22 45.66 45.49
52.28 52.08 52.06 51.79 51.34 51.51 51.97 52.51 52.88 53.57 54.73 55.70 57.17 58.73 59.06 59.42 59.26 58.88 58.30 57.72 57.80 57.66 57.90 57.27 57.33 51.22 43.22 52.10 51.52 50.81 50.08 48.29 49.32 51.13 49.89 52.62 53.03 49.45 46.62 46.59 44.26 42.25 40.07 34.87 41.00 44.03 45.71
51.64 51.84 51.80 51.23 51.44 51.77 51.41 50.59 51.50 52.32 53.26 54.68 55.33 56.46 58.30 58.82 59.08 58.73 58.56 57.93 57.27 56.26 56.73 56.78 49.62 45.69 40.26 52.53 49.26 50.25 49.82 46.95 47.00 47.70 48.43 51.48 47.56 42.86 42.60 38.62 35.21 37.66 30.40 33.46 37.25 43.50 43.71
52.08 51.21 50.97 50.76 50.75 51.28 50.64 50.54 50.67 51.71 51.90 53.05 54.09 54.29 56.09 58.14 58.80 58.39 58.31 57.32 56.65 55.45 54.25 52.75 50.64 42.96 44.91 43.74 48.22 49.27 49.56 49.08 45.40 45.69 45.09 44.03 42.22 37.98 38.93 35.33 25.90 30.12 32.14 35.51 36.63 41.09 40.89
50.84 50.55 50.86 50.86 50.51 50.15 50.13 49.86 50.34 51.35 51.43 51.63 53.20 54.90 54.85 56.85 58.17 58.14 55.70 50.94 45.02 45.19 48.61 41.98 42.62 42.08 44.65 48.19 49.84 47.71 48.73 46.57 44.55 41.80 36.81 39.82 36.16 33.91 35.77 36.90 36.63 35.23 34.04 34.01 37.32 41.52 40.05
50.11 50.67 50.73 50.60 50.37 50.33 49.78 49.40 50.12 50.51 50.97 51.23 52.21 53.00 54.94 55.12 58.28 57.60 52.39 45.76 43.55 44.01 39.03 45.69 45.60 45.38 47.45 48.05 43.04 45.88 48.66 42.12 40.30 35.05 36.29 36.83 32.29 36.39 38.51 37.83 37.98 37.18 35.07 34.21 36.57 40.01 39.68
51.12 51.09 50.94 50.38 50.21 49.96 49.83 49.65 49.42 50.13 50.59 51.35 51.77 52.31 54.10 54.33 57.54 54.18 49.39 45.94 48.86 47.10 36.75 39.61 44.15 43.65 44.38 46.15 42.16 42.82 45.58 41.81 37.17 34.67 36.51 31.94 33.90 38.54 37.69 35.50 33.99 32.80 32.08 31.60 31.94 36.06 37.41
51.11 50.94 50.80 50.51 50.18 49.44 49.24 48.85 49.54 49.94 50.42 50.78 51.20 51.70 53.16 54.22 53.75 51.38 47.49 49.81 48.97 46.04 24.54 31.31 39.17 42.49 44.44 45.16 40.11 47.25 46.85 42.39 37.87 35.18 35.56 34.87 38.15 36.35 34.07 33.37 34.43 30.25 35.79 35.76 34.33 31.23 25.11
50.87 50.62 50.14 50.17 49.66 49.29 48.59 49.02 49.42 49.69 50.02 50.40 50.55 51.21 52.80 53.06 51.18 47.86 49.25 49.45 48.73 40.52 12.71 35.06 39.15 47.72 45.76 40.63 42.40 41.85 46.73 43.95 35.66 34.81 34.97 31.27 33.30 33.43 32.73 33.65 35.36 32.17 36.74 35.03 34.78 32.06 28.67
50.84 50.72 50.25 49.72 49.29 48.74 48.75 49.13 49.05 49.69 49.37 49.28 50.57 51.26 52.59 50.37 51.74 50.44 51.24 51.47 46.35 23.92 12.94 33.46 39.35 40.47 39.89 40.55 42.71 43.14 43.28 46.12 44.10 37.93 37.15 33.48 37.71 36.38 34.26 36.30 36.70 37.32 33.45 32.87 32.27 32.09 24.01
50.57 50.14 49.90 49.53 49.12 48.91 48.87 48.69 48.58 49.11 48.93 50.44 50.96 51.63 51.64 50.49 47.18 51.98 51.81 45.90 29.83 19.65 34.53 33.13 35.19 39.06 38.77 37.72 39.06 40.15 38.15 37.21 35.16 30.74 30.72 35.73 34.99 37.94 38.33 32.75 35.60 34.77 31.14 22.63 23.07 22.84 20.46
50.14 49.80 49.47 49.16 48.96 48.60 48.63 48.19 48.82 48.83 49.08 49.66 50.64 51.44 50.90 50.12 52.64 52.05 47.96 36.33 21.83 29.24 30.38 37.72 36.51 37.05 34.33 37.65 37.65 38.70 37.30 34.73 38.20 36.12 31.76 25.46 21.70 33.96 36.66 34.27 31.32 31.77 30.60 22.54 15.76 20.07 19.07
49.80 49.46 49.16 48.80 48.61 48.55 48.27 48.29 48.63 49.15 49.00 50.42 51.41 48.81 47.99 48.06 52.49 50.92 40.74 29.42 26.44 30.31 36.38 34.61 35.69 32.27 32.67 35.53 35.86 36.18 35.93 34.82 36.23 37.59 30.41 28.56 25.24 34.61 36.22 37.66 37.15 33.40 28.57 32.39 26.87 26.72 23.41
49.06 48.90 48.76 48.57 48.34 48.30 47.82 48.25 48.72 50.08 49.64 50.75 47.20 44.59 44.88 49.57 52.69 47.37 36.89 30.80 30.92 37.28 37.89 36.60 30.59 33.62 30.34 32.62 32.15 33.86 32.83 33.76 36.39 38.48 38.30 32.72 26.94 32.40 35.37 37.57 37.53 35.21 36.16 28.22 28.10 18.80 15.36
48.58 48.70 48.47 48.20 47.84 47.79 47.59 47.79 48.78 49.67 49.74 50.78 45.49 39.49 46.41 50.38 50.34 41.69 32.05 31.23 33.84 40.54 40.02 36.21 33.86 32.99 34.24 32.95 33.99 32.98 29.43 33.07 36.26 35.63 37.67 34.56 31.89 28.40 35.07 32.37 30.61 32.30 30.77 30.97 30.42 27.69 17.13
48.33 48.21 48.18 47.80 47.52 47.46 47.13 47.42 48.56 49.35 49.84 48.45 42.85 35.51 49.28 50.94 37.88 38.54 32.18 33.79 39.04 39.18 40.85 41.27 38.67 38.04 34.98 33.40 31.62 28.85 28.98 32.66 37.75 37.58 33.48 37.00 34.56 27.04 28.67 34.75 36.91 34.54 31.46 30.57 24.68 18.63 24.09
48.00 47.87 47.53 47.57 47.24 47.23 46.71 47.56 48.34 49.25 49.96 45.75 40.30 42.81 49.65 48.05 33.07 34.66 35.94 36.30 38.51 39.35 39.76 39.75 37.95 39.24 39.74 35.68 30.64 31.64 32.74 37.65 38.75 37.48 34.91 36.78 32.74 26.35 26.84 31.94 35.71 33.50 33.37 32.67 31.45 30.22 22.32
47.66 47.60 47.16 47.23 47.22 46.87 46.48 47.07 47.96 49.36 50.35 47.74 40.97 36.03 41.86 43.71 42.36 37.00 34.89 34.65 34.23 40.61 40.00 41.51 40.32 39.65 37.77 36.43 35.25 31.96 32.80 37.68 38.79 38.68 42.17 40.41 35.10 30.42 24.63 29.43 33.53 31.27 32.30 33.12 31.32 26.23 25.96
47.42 47.43 47.02 47.01 47.05 46.84 46.36 46.59 47.68 49.31 49.84 48.08 43.40 37.25 38.52 32.51 37.60 37.06 37.80 36.39 34.61 35.45 40.23 41.68 40.19 39.29 38.21 35.80 35.31 33.46 34.79 35.94 38.84 41.33 40.95 38.61 31.25 33.03 33.61 33.86 34.07 34.39 33.54 32.67 30.48 30.40 26.23
47.19 47.22 47.15 47.18 47.03 46.80 46.10 47.18 47.53 49.14 50.07 44.99 41.19 39.31 39.77 37.38 39.26 35.11 35.25 35.49 35.53 37.20 39.61 38.39 37.06 39.11 39.59 37.35 36.35 31.87 35.44 35.63 35.66 37.93 37.84 39.34 31.57 33.06 31.33 35.18 34.28 32.76 34.53 35.43 34.47 32.79 31.88
46.95 46.93 47.07 47.01 46.94 46.03 46.06 47.39 48.04 48.73 49.13 42.18 42.97 45.31 41.26 39.49 38.77 34.82 34.61 35.83 36.42 40.63 40.81 41.20 41.23 40.29 38.89 40.35 42.56 42.56 41.58 39.91 40.14 39.11 37.35 35.57 32.57 31.90 28.25 34.72 34.44 28.92 32.38 33.92 35.20 36.11 34.28
46.90 46.75 46.87 46.83 46.65 45.83 45.92 46.40 47.15 48.49 48.99 45.23 44.21 44.30 40.92 36.09 38.21 36.38 38.57 37.77 38.61 40.74 38.50 40.60 42.65 40.85 43.57 46.76 45.83 42.39 39.31 39.43 39.69 40.26 41.12 34.73 32.57 32.94 29.32 32.91 27.42 35.67 39.50 37.36 35.37 37.72 38.12
46.94 46.63 46.57 46.50 46.67 45.80 45.84 46.31 46.85 48.18 49.04 46.01 45.92 44.08 43.68 37.02 39.44 37.92 40.00 38.77 40.23 41.49 40.80 41.11 42.43 44.33 46.67 44.77 40.08 35.82 35.44 35.50 36.30 39.22 39.40 39.59 35.12 32.61 30.22 30.44 33.67 36.04 39.60 35.39 34.09 35.04 39.82
46.82 46.66 46.47 46.32 46.20 46.01 45.56 46.32 46.53 47.83 48.59 46.59 45.61 47.65 45.31 39.85 37.44 41.40 40.35 40.81 39.35 39.20 39.85 41.73 42.97 44.72 46.59 42.47 38.56 32.74 26.04 31.94 28.98 32.84 34.87 38.88 38.35 33.92 32.54 28.73 23.58 31.07 40.43 43.61 42.19 34.78 41.57
46.24 46.45 46.23 46.01 45.90 46.11 45.62 46.18 46.31 47.33 48.00 46.84 45.74 47.88 45.37 41.97 42.73 44.28 40.63 40.35 42.49 40.49 38.18 38.48 38.85 40.88 43.66 39.42 35.93 34.41 31.73 33.64 27.81 28.42 32.80 34.40 33.51 31.67 31.71 30.67 30.77 35.51 36.52 42.26 33.79 34.18 37.45
46.41 46.04 46.04 45.86 45.86 45.94 45.77 46.10 46.01 46.83 47.93 47.03 44.61 48.38 46.40 42.94 43.81 45.32 45.00 41.85 40.80 41.22 38.09 41.53 40.65 41.56 40.43 37.22 36.30 36.37 35.09 32.64 29.21 30.69 31.12 31.65 29.65 30.10 29.09 27.24 23.98 37.50 36.73 33.06 36.75 36.60 36.15
46.42 46.04 46.06 45.85 45.61 45.80 45.55 46.01 45.74 46.05 47.47 48.00 42.38 46.69 47.80 44.98 42.37 45.95 46.33 45.86 46.35 45.97 43.35 42.84 41.49 41.97 42.59 40.22 37.77 39.33 36.23 32.13 31.66 27.98 32.62 31.52 34.77 32.14 32.62 31.63 36.86 37.10 37.34 38.81 37.85 37.14 35.10

GFSGBSN_sfc_wetblb_003.txt.gz
Wetbulb
53.70 53.35 53.13 53.22 53.36 53.25 52.87 53.39 53.89 54.26 55.42 57.02 58.03 59.24 59.73 60.21 60.43 59.29 57.89 57.01 57.54 57.41 57.43 57.20 58.35 58.79 56.77 51.27 50.46 55.57 58.21 57.56 58.69 57.55 55.40 52.85 48.86 46.27 43.12 44.58 45.90 45.67 46.97 49.31 50.28 49.95 50.44
53.23 52.98 52.88 52.83 52.37 52.06 52.50 51.97 52.18 52.81 53.47 54.82 56.29 57.75 58.40 59.32 60.07 59.84 58.86 57.47 57.44 57.33 57.62 57.02 57.89 56.60 50.47 44.25 51.56 51.40 52.94 52.95 55.64 57.31 54.25 53.43 50.73 50.04 46.09 45.60 44.27 45.57 45.77 46.15 47.30 48.07 48.91
52.86 52.92 52.66 52.58 52.00 51.80 52.27 52.44 51.68 51.11 52.12 53.20 54.67 56.14 56.47 58.55 58.84 59.70 58.22 57.97 57.35 57.42 57.60 57.25 57.44 53.15 47.46 44.93 51.19 50.92 51.28 49.64 50.93 53.66 52.55 53.89 52.97 50.14 49.29 45.65 47.71 46.16 42.86 44.25 45.15 46.60 46.32
52.32 52.44 51.69 51.87 51.43 51.49 51.36 51.20 50.75 50.99 51.07 52.18 52.84 53.93 55.15 55.81 58.27 59.23 59.03 58.25 57.68 57.96 57.69 57.12 57.24 50.88 42.82 52.05 52.25 51.04 50.64 48.89 50.15 52.00 51.21 53.58 53.90 50.45 48.25 47.99 44.24 42.34 42.25 37.59 42.59 44.74 46.13
51.23 51.32 51.74 51.32 52.15 51.88 51.61 51.00 50.67 50.61 50.54 51.73 51.79 52.35 53.95 55.00 56.13 58.34 58.76 58.93 58.26 57.08 56.91 57.40 50.69 45.72 40.34 52.37 49.47 50.74 49.70 46.99 47.84 48.72 49.59 51.53 48.64 44.17 45.26 40.00 36.48 38.29 32.52 36.04 38.35 44.76 44.47
51.12 51.06 51.29 51.68 51.67 51.56 51.51 51.21 50.83 50.36 50.33 51.41 50.94 51.33 52.74 54.10 55.19 57.24 58.57 58.24 57.43 55.53 53.43 52.32 51.11 43.97 45.18 43.60 48.46 48.80 50.32 48.69 46.09 46.24 45.66 45.03 42.82 38.88 38.96 36.12 27.62 30.37 33.14 34.98 35.48 41.16 41.96
52.11 52.08 51.96 51.65 51.38 51.52 51.29 51.00 50.50 50.45 50.58 50.03 50.86 51.45 52.44 53.38 55.23 56.59 56.68 52.38 46.35 44.22 47.52 41.80 42.21 42.65 44.82 48.39 49.86 47.28 48.97 46.64 45.36 43.11 37.83 41.14 36.72 33.27 35.63 37.16 36.19 36.26 34.92 34.32 37.52 40.95 39.18
51.96 51.87 51.61 51.37 51.33 51.03 50.72 50.70 50.28 50.15 50.05 50.46 50.70 51.32 51.93 52.81 55.07 55.62 53.96 46.69 44.29 44.82 39.24 46.02 45.81 45.37 47.61 48.30 42.92 45.59 48.60 42.16 40.75 36.21 38.30 37.29 32.63 37.03 38.46 37.87 36.96 36.17 34.12 33.69 37.07 39.90 38.99
51.54 51.72 51.63 51.71 51.44 51.19 50.59 50.34 49.92 49.99 49.84 50.36 50.75 51.17 51.35 51.86 54.05 53.12 50.32 47.73 48.95 46.93 36.99 39.74 44.51 43.98 44.65 46.61 42.69 42.86 45.55 42.05 38.18 35.45 36.19 32.81 34.82 38.69 37.33 36.24 35.21 35.00 33.59 33.47 33.16 36.69 38.07
51.59 51.89 51.91 51.63 51.20 50.75 50.32 49.96 49.46 49.83 49.56 50.13 50.08 49.79 50.91 51.49 49.01 51.42 48.05 50.76 50.01 45.88 25.71 32.42 38.58 42.87 44.70 45.27 40.01 47.28 47.02 42.93 38.66 35.51 36.87 35.45 38.49 36.58 35.10 34.46 35.71 30.90 36.34 35.91 34.49 32.58 26.85
52.01 51.68 51.46 51.30 50.84 50.24 50.04 49.79 49.42 49.75 49.16 49.29 49.49 50.32 51.01 51.32 47.48 48.65 50.08 50.84 47.97 42.22 13.13 34.87 38.86 47.73 45.66 40.97 41.44 42.26 46.93 43.63 35.76 35.39 35.83 32.15 33.95 34.23 33.45 34.24 36.25 32.90 36.61 34.84 34.70 32.68 30.88
51.35 51.34 51.17 50.86 50.31 49.82 49.67 49.61 49.76 49.44 49.23 48.70 48.78 49.66 50.52 49.23 49.36 49.39 51.89 50.55 45.55 29.22 14.47 33.19 39.63 40.27 39.64 40.02 42.20 43.17 43.35 46.22 43.62 37.48 37.62 34.40 38.06 36.39 35.03 36.69 37.02 37.76 34.50 33.70 32.93 31.32 23.68
50.45 50.53 50.67 50.15 49.91 49.50 49.54 49.20 49.26 49.26 49.07 48.90 48.37 48.63 48.44 49.33 44.19 52.22 51.91 46.05 30.13 21.45 34.05 33.31 35.36 40.18 38.58 36.66 38.93 39.70 38.12 37.11 35.05 30.19 30.08 34.65 35.17 37.31 37.93 33.31 35.76 35.43 32.04 24.80 22.72 22.85 20.95
49.20 49.32 49.83 49.69 49.59 49.21 49.11 49.10 49.02 48.90 49.23 49.44 49.17 50.09 49.35 49.61 51.14 52.03 47.85 36.60 25.32 29.08 30.18 37.96 37.06 38.68 35.37 37.01 37.78 38.36 36.23 34.44 38.14 35.64 30.95 23.71 22.75 34.29 37.28 34.86 31.60 32.20 31.42 24.84 17.16 18.11 21.55
48.97 48.74 49.21 49.16 49.09 48.95 48.83 48.59 48.50 49.69 49.67 49.90 50.74 46.56 47.52 48.51 50.76 49.91 41.08 30.44 27.21 30.24 36.23 35.30 36.12 33.26 33.35 35.93 36.62 36.74 36.19 35.27 37.44 37.67 31.23 26.80 26.92 34.80 35.76 37.12 36.54 33.21 29.06 33.79 26.90 27.04 23.24
48.69 48.96 48.98 48.85 48.46 48.71 48.47 48.36 47.94 48.83 50.03 50.72 47.05 45.47 44.97 49.53 50.97 47.30 36.63 32.01 31.78 37.85 38.16 37.16 31.50 33.96 30.53 33.11 33.16 34.68 34.56 35.09 35.99 38.92 39.66 34.20 27.26 32.53 35.28 36.90 37.03 35.10 36.26 27.48 28.31 19.76 17.58
49.17 48.82 48.73 48.43 47.97 48.22 47.99 48.16 47.94 48.82 49.98 50.61 44.93 39.71 45.80 50.34 50.39 41.23 32.01 34.14 34.49 40.00 39.70 36.02 33.77 32.81 32.87 33.03 33.22 32.77 30.82 33.14 36.68 36.16 38.68 36.66 32.23 29.87 35.39 32.39 30.84 32.85 31.32 32.03 31.06 28.56 21.13
48.90 48.59 48.45 48.05 47.78 47.97 47.73 47.64 47.83 48.78 50.39 48.15 41.82 35.50 47.39 49.64 36.29 34.70 33.76 34.28 39.83 38.36 41.09 40.45 38.62 36.61 33.81 34.18 33.15 32.55 29.69 32.14 37.55 37.65 34.73 36.36 33.87 28.34 28.70 35.08 37.23 35.26 32.30 31.79 25.55 22.85 26.52
48.64 48.46 48.25 47.77 47.71 47.60 47.46 46.95 47.73 48.77 50.00 45.59 39.28 42.42 48.38 45.64 32.86 34.30 37.00 37.22 39.13 39.66 39.40 39.47 37.68 39.00 38.32 34.52 31.39 32.36 32.56 37.47 38.61 37.01 34.37 36.56 32.97 24.41 24.24 32.09 35.12 32.88 33.31 33.40 32.46 30.61 24.83
48.39 48.25 47.95 47.90 47.62 47.47 46.95 47.10 47.42 48.56 49.84 47.53 41.09 36.13 41.88 43.43 42.12 35.00 33.77 34.58 35.08 40.67 40.38 41.25 39.37 39.50 37.52 36.03 36.09 32.68 32.92 37.48 38.23 38.60 41.74 40.31 34.61 27.49 25.35 29.17 33.20 30.93 32.26 33.35 31.79 26.82 25.83
48.31 48.17 47.95 47.83 47.53 47.46 46.76 47.35 48.45 49.01 50.50 47.68 43.34 36.70 38.64 33.73 37.16 36.79 37.33 36.58 34.82 34.61 39.55 40.70 38.67 39.24 37.10 35.50 35.66 34.85 34.50 35.71 37.89 40.29 39.96 38.32 30.47 32.68 33.65 34.09 33.45 33.61 32.87 32.74 31.26 30.59 26.16
48.17 48.02 47.77 47.69 47.58 47.58 46.47 47.27 48.49 49.11 50.28 44.77 38.61 39.42 37.94 37.08 39.25 36.17 35.20 32.64 33.69 36.03 39.19 38.17 36.42 39.44 39.97 37.10 36.07 32.56 34.85 34.64 34.87 37.34 38.24 39.78 32.66 33.45 31.19 34.84 34.15 31.69 34.50 33.43 33.33 32.70 31.39
47.91 47.65 47.61 47.44 47.27 47.51 46.39 47.54 48.06 48.85 48.95 42.34 43.12 44.44 42.06 39.17 37.41 34.38 32.67 34.99 36.06 39.05 39.96 41.44 40.49 39.77 38.61 39.94 42.08 42.21 42.34 40.96 40.16 37.81 36.71 36.25 33.05 31.64 27.55 34.31 34.00 28.65 32.98 33.66 34.32 35.27 33.28
47.34 47.41 47.43 47.37 47.23 47.17 46.64 46.58 47.34 48.56 48.45 45.41 44.02 43.05 40.52 35.79 36.80 35.90 36.02 37.41 37.89 38.67 37.92 41.50 42.07 40.72 43.46 46.02 45.79 44.46 42.44 40.07 39.35 38.32 39.73 36.55 32.96 32.64 29.22 32.10 25.58 35.99 40.25 38.34 35.41 35.88 37.14
47.47 46.93 47.25 47.23 46.88 46.90 46.75 46.50 46.93 47.49 48.31 45.31 45.61 42.78 41.65 35.88 39.03 37.72 37.43 36.25 36.84 38.82 40.51 40.62 42.05 43.22 47.18 43.77 38.69 36.70 35.99 34.78 35.57 37.94 37.85 39.44 36.10 32.22 29.11 30.52 34.03 34.48 38.43 35.59 34.28 33.82 38.66
47.55 47.37 47.05 47.03 46.72 46.68 46.63 46.41 46.67 47.03 47.73 45.84 45.48 46.98 43.97 39.94 36.88 40.81 38.32 38.77 37.91 38.34 40.23 41.98 44.54 45.55 45.14 41.60 38.32 32.87 26.04 29.08 28.57 30.73 35.89 38.93 38.64 34.26 32.50 28.65 26.62 32.22 39.01 40.36 40.62 33.26 39.98
47.26 47.21 47.02 46.97 46.82 46.44 46.57 46.24 46.72 46.55 47.09 46.00 44.94 46.74 43.16 40.64 41.73 40.36 37.53 38.21 42.80 40.93 39.09 39.90 40.78 38.96 43.44 39.15 35.07 34.04 30.82 31.33 27.77 29.10 31.57 34.09 33.88 31.50 31.46 30.77 31.42 36.53 38.30 41.88 32.25 34.32 36.92
46.59 46.31 46.36 46.29 46.27 46.38 46.21 46.08 46.62 46.12 46.53 45.93 43.58 46.71 41.17 41.34 43.83 44.75 43.91 40.79 40.08 39.73 38.89 41.51 40.73 41.27 40.36 36.01 36.27 35.87 32.93 32.35 29.04 30.35 31.50 31.00 29.98 29.27 30.89 28.65 24.07 37.12 38.08 34.77 37.27 37.04 37.35
45.99 45.83 46.06 46.11 46.13 46.01 45.93 46.21 45.82 45.61 46.15 47.11 41.64 45.23 44.73 41.48 43.62 46.69 46.79 46.57 46.57 46.07 43.81 43.22 41.36 41.64 42.41 39.52 38.58 38.99 36.27 33.92 30.67 28.13 32.98 31.67 33.83 32.09 32.70 31.67 36.81 37.74 37.59 39.01 38.21 36.82 36.85

GFSGBSN_sfc_wetblb_006.txt.gz
Wetbulb
53.57 53.61 53.39 53.16 53.29 52.52 52.74 53.15 53.05 52.63 52.43 52.62 53.51 54.86 56.68 57.67 58.89 59.92 59.99 58.78 57.62 58.15 57.97 56.90 57.97 57.99 58.46 52.58 51.41 57.43 57.82 59.44 61.97 60.94 56.71 54.71 51.66 50.16 46.89 48.08 49.40 48.56 49.56 51.24 52.70 52.81 52.97
53.25 53.15 52.76 52.30 52.47 52.36 52.45 52.19 51.94 51.54 51.60 52.03 52.50 53.37 54.60 56.31 57.00 58.96 59.78 59.32 57.94 58.03 57.72 57.34 57.66 56.69 53.14 47.57 54.97 54.82 55.87 58.12 59.55 59.26 55.98 54.65 52.82 52.82 48.95 47.56 47.38 48.64 49.17 49.67 50.77 50.87 51.66
52.42 52.18 52.55 52.63 52.36 52.81 52.71 52.48 51.96 51.56 51.41 51.52 51.87 52.85 53.13 53.99 55.75 56.71 59.03 58.85 58.13 57.87 57.94 57.63 56.95 55.15 49.68 47.98 54.37 55.09 54.52 54.36 55.81 58.58 54.35 55.30 55.25 51.86 51.20 47.32 50.36 48.99 45.37 47.64 48.36 49.25 48.83
52.02 52.13 52.23 52.13 52.50 52.27 52.36 52.17 51.97 51.75 51.78 51.26 50.99 52.12 52.20 52.80 54.60 55.91 58.03 59.19 58.52 58.33 58.01 57.48 56.93 52.84 45.86 53.43 56.04 53.55 54.05 52.98 55.00 55.80 56.91 57.73 57.06 51.98 49.19 50.46 47.48 44.61 44.82 40.93 46.36 47.37 48.41
52.23 52.86 52.90 52.31 52.31 52.42 52.00 51.97 51.80 51.42 51.33 51.25 51.24 50.76 51.56 51.75 53.33 54.78 55.94 58.73 58.34 58.27 57.40 57.52 51.90 48.88 44.56 53.83 50.23 53.44 53.94 51.55 52.34 52.90 54.40 55.65 52.02 47.72 47.76 43.08 40.83 42.22 37.96 39.37 41.81 47.18 46.88
52.97 52.37 52.37 52.50 52.55 52.47 52.53 51.95 51.61 51.25 50.94 51.03 50.85 50.75 50.89 51.86 52.68 53.83 55.04 58.37 57.84 56.77 55.62 53.77 51.45 45.58 47.88 45.34 50.19 51.43 53.04 52.29 49.64 50.13 48.32 47.90 47.02 43.37 43.28 41.14 35.04 36.85 36.85 38.52 38.49 43.33 44.82
52.25 52.40 52.75 52.72 52.64 52.00 51.94 51.54 51.31 50.99 50.73 50.53 50.44 50.40 50.90 51.55 52.35 53.25 53.84 54.71 47.42 46.68 49.37 44.79 45.36 44.62 46.43 50.08 51.86 49.34 51.38 49.79 49.34 47.42 41.77 44.49 39.99 36.95 40.20 41.81 41.18 38.82 37.99 37.85 40.93 43.69 41.59
52.40 52.81 52.90 52.70 52.38 52.28 51.71 51.26 51.16 50.53 50.38 50.07 49.97 50.49 50.87 51.34 52.11 52.66 52.55 46.97 46.86 49.59 42.15 47.54 47.30 47.13 48.96 50.19 44.29 47.27 51.28 44.82 43.87 39.83 42.76 39.72 35.70 41.65 41.71 41.20 39.49 38.55 36.87 37.00 40.43 42.27 41.02
52.73 52.70 52.49 52.40 52.14 51.78 51.17 50.88 50.60 50.43 50.01 49.81 49.13 49.85 50.51 51.01 51.32 50.63 48.92 49.17 51.11 49.04 41.97 43.78 46.69 45.83 46.53 48.58 44.47 44.81 48.06 45.43 42.20 39.52 40.00 37.85 38.37 40.94 39.67 38.63 37.05 37.85 36.55 36.68 36.39 40.01 41.11
51.79 51.41 51.40 51.91 51.48 50.91 50.62 50.29 50.21 50.12 49.98 49.63 49.19 49.56 49.75 50.16 47.73 48.42 46.50 52.27 51.23 47.99 34.21 36.48 41.38 44.70 46.60 47.74 42.52 49.36 49.48 45.59 41.45 38.48 39.61 39.05 42.11 38.31 37.69 36.82 38.54 34.17 39.41 37.80 36.42 34.74 30.98
51.08 51.00 50.93 50.85 50.63 50.24 50.15 50.02 49.99 49.87 49.54 48.95 49.26 49.22 49.28 49.33 45.19 44.88 49.81 52.12 48.70 45.16 26.61 37.93 39.70 49.63 47.32 42.63 43.67 43.93 49.60 45.38 39.10 38.67 39.08 36.39 37.08 36.78 34.66 36.26 39.30 35.79 39.07 37.33 36.97 35.01 33.19
50.95 50.48 49.84 50.20 49.99 49.83 49.68 49.67 49.47 49.29 49.21 49.17 48.92 49.07 49.03 47.46 47.15 48.52 51.70 50.08 46.38 31.63 25.56 34.63 40.57 40.14 40.06 41.39 42.51 44.39 44.19 46.58 44.83 39.56 39.77 38.99 41.32 39.68 38.93 40.04 40.18 40.05 37.19 36.51 35.83 33.21 26.41
49.65 49.61 49.84 49.79 49.76 49.52 49.18 49.16 49.23 49.23 49.22 48.95 49.02 49.08 47.53 47.02 41.41 50.17 51.53 44.84 30.50 28.59 36.75 33.75 35.63 38.80 38.12 36.97 39.38 40.66 39.52 37.72 36.28 31.62 32.33 35.88 36.97 39.80 40.32 36.07 39.17 38.17 33.58 27.37 24.83 24.99 25.01
50.18 50.06 49.71 49.52 49.38 49.00 48.93 48.83 48.92 48.93 48.67 49.41 49.31 50.94 49.93 47.18 50.03 49.85 47.78 36.47 28.18 32.84 33.95 38.74 38.54 38.09 35.61 37.72 38.73 38.44 37.25 35.05 38.80 36.69 33.35 30.39 29.96 36.80 39.71 36.94 35.03 34.93 34.40 28.17 21.02 23.68 27.41
50.06 49.76 49.38 49.12 48.82 48.74 48.94 48.56 48.64 48.58 49.82 50.25 50.39 49.13 48.13 49.67 51.02 49.62 39.01 30.60 32.54 34.40 37.88 35.94 37.44 34.12 34.23 36.46 38.22 36.85 36.05 35.63 38.21 38.87 32.55 30.62 29.08 37.57 38.96 40.01 39.03 33.84 30.13 36.98 29.50 30.78 25.79
49.72 49.46 49.05 48.85 48.81 48.67 48.68 48.42 48.14 48.40 49.81 50.51 44.23 46.66 46.52 51.53 50.96 45.97 35.80 33.66 34.22 39.76 40.04 39.15 33.02 35.47 31.36 33.90 35.29 35.29 35.87 39.36 38.52 41.19 41.73 35.99 29.81 36.21 37.78 39.74 39.37 36.80 38.03 29.41 30.69 21.45 20.68
49.23 49.20 49.02 48.74 48.56 48.43 48.29 47.87 47.87 48.51 49.60 49.99 44.05 39.40 46.51 51.03 47.40 38.55 33.21 33.89 37.67 41.71 41.90 38.46 35.88 34.95 35.92 34.72 35.81 35.05 35.58 37.87 40.52 40.31 41.81 38.48 33.55 32.69 35.84 33.40 33.64 33.21 31.13 33.39 32.76 30.60 23.07
49.17 49.21 48.96 48.73 48.14 48.16 48.15 47.30 48.12 48.49 49.54 47.99 42.08 33.99 48.43 49.22 36.32 36.08 35.21 35.56 41.46 40.26 43.69 41.39 40.84 38.97 36.89 37.05 35.14 35.31 35.12 36.76 41.34 41.53 36.65 39.52 35.20 30.04 32.48 39.07 40.02 38.39 34.62 33.29 27.46 25.95 29.37
49.30 49.05 48.76 48.39 48.22 47.99 47.93 47.26 48.00 48.39 49.51 45.36 38.73 39.51 47.80 47.04 34.42 35.40 37.63 37.71 41.55 40.55 41.37 40.89 39.18 40.32 40.15 37.05 33.62 36.53 36.70 40.64 41.36 40.74 38.59 39.67 34.03 27.88 31.30 34.80 37.26 34.01 35.84 35.59 34.13 32.85 28.12
48.76 48.73 48.43 48.21 48.31 48.09 47.72 47.01 47.85 48.64 49.65 47.99 39.10 33.99 40.98 41.41 43.46 38.05 37.21 37.09 37.86 43.12 42.36 42.49 40.51 41.61 39.14 36.73 38.27 35.79 36.09 39.65 41.54 41.43 42.06 41.72 35.95 32.44 28.72 32.67 35.97 33.23 33.85 34.87 33.39 28.67 29.68
48.54 48.43 48.45 48.17 48.12 48.10 47.73 47.16 48.36 49.71 50.29 47.29 40.96 37.75 39.76 34.50 38.30 39.90 39.88 39.04 37.32 36.95 42.35 43.34 39.68 39.43 38.30 35.22 36.16 35.63 37.61 38.24 39.79 41.46 41.49 40.09 32.32 34.13 34.28 34.94 34.93 34.55 33.92 35.12 31.82 32.89 29.22
47.43 47.81 47.83 47.95 47.77 47.72 47.55 47.22 48.78 49.51 49.70 44.00 36.93 39.18 42.28 39.94 40.10 39.69 38.93 37.25 37.10 39.08 39.75 38.34 38.70 40.43 39.87 37.17 37.52 36.10 38.24 38.38 37.89 40.54 39.23 40.72 32.90 34.63 31.61 35.23 35.28 33.13 35.36 35.63 35.31 34.73 34.18
48.21 48.04 48.01 47.86 47.50 47.67 47.40 47.70 48.41 49.04 48.20 42.63 43.30 43.80 43.55 38.72 38.58 37.98 37.66 37.77 37.94 40.84 41.41 42.42 41.38 40.36 39.08 40.54 42.88 43.85 43.01 42.37 41.01 39.71 38.31 37.01 34.62 32.41 29.10 35.97 35.12 31.54 34.78 35.48 35.53 36.49 35.79
47.94 48.01 47.89 47.71 47.56 47.31 47.20 46.94 47.53 48.08 48.22 44.94 44.47 42.86 41.39 36.59 38.29 37.89 38.76 39.77 38.92 40.08 40.39 41.76 41.94 40.46 44.07 47.74 46.64 45.19 44.70 42.58 42.26 42.16 42.43 37.11 34.55 33.24 29.94 33.39 28.26 38.30 39.81 39.20 36.99 37.74 38.78
47.88 47.54 47.52 47.59 47.50 47.07 47.10 46.82 47.39 47.08 47.96 45.82 45.58 42.88 40.69 38.30 39.56 39.13 39.69 39.18 41.70 43.02 41.32 41.78 43.17 45.53 47.84 44.96 39.59 36.63 36.69 37.11 39.18 41.34 41.36 41.83 37.30 33.65 30.88 31.03 35.35 37.91 38.77 38.89 36.49 37.04 41.01
47.34 46.86 46.67 46.64 46.54 46.72 46.62 46.51 47.35 46.63 47.33 46.46 45.74 45.43 42.91 39.34 39.13 42.27 40.71 40.35 38.85 39.44 41.04 42.17 46.08 47.95 46.84 42.00 38.45 32.84 31.71 33.78 33.10 35.69 40.49 40.04 39.38 35.35 33.12 28.84 28.70 36.93 40.64 41.75 41.32 35.64 41.71
46.86 46.40 46.37 46.46 46.48 46.47 46.29 46.51 46.81 46.01 46.50 46.27 44.97 44.80 41.86 38.76 44.89 43.59 40.91 41.18 44.88 43.10 39.71 41.27 42.08 42.40 46.06 39.79 35.82 33.27 33.92 36.59 32.98 33.21 33.62 33.84 34.27 31.98 32.48 31.35 35.51 40.75 40.75 44.22 34.87 35.90 41.38
46.40 46.12 46.01 45.77 45.16 45.17 45.24 45.30 45.32 45.42 45.72 45.90 44.68 45.38 40.74 37.48 39.61 46.46 46.36 44.00 43.87 44.24 40.33 42.51 41.53 41.92 40.95 35.96 35.27 35.48 34.57 37.20 35.63 37.22 36.69 35.55 34.03 32.20 34.53 31.03 30.98 41.98 42.17 38.67 42.16 43.20 41.40
46.13 45.88 45.69 45.10 44.82 44.57 44.47 44.39 44.72 45.19 45.30 45.88 41.83 46.38 44.80 38.87 41.78 48.14 48.63 48.93 48.39 48.19 45.42 44.76 42.73 42.13 42.69 39.01 38.86 38.39 35.71 38.16 36.91 34.93 39.46 35.56 39.29 38.36 38.26 39.09 42.60 43.82 44.16 45.55 43.86 42.14 41.93

GFSGBSN_sfc_wetblb_009.txt.gz
Wetbulb
53.16 52.85 52.88 53.43 52.85 53.28 53.26 53.01 52.70 52.50 52.41 52.29 52.31 52.28 53.20 54.11 55.13 56.32 57.86 59.39 59.66 58.21 58.37 58.04 57.50 58.59 58.27 53.10 51.88 59.73 59.38 60.70 62.60 60.92 57.03 55.20 52.69 51.99 48.34 50.36 51.26 49.26 50.56 51.63 52.59 52.89 53.00
53.19 52.86 53.04 53.07 53.00 53.29 52.98 53.18 52.88 52.32 52.46 52.58 52.14 51.67 52.29 52.84 53.50 54.50 56.47 58.09 59.70 58.21 58.18 57.97 57.27 58.06 54.49 48.03 57.61 57.61 58.24 59.33 59.57 59.70 56.13 56.09 53.11 53.82 50.69 50.13 48.79 50.62 50.53 50.96 52.17 52.03 52.70
53.43 53.18 53.65 53.27 53.23 52.67 53.00 52.54 52.67 52.45 52.42 52.10 52.19 52.11 51.46 51.82 52.27 53.26 54.84 57.03 58.91 58.32 58.09 58.45 57.49 55.76 51.02 50.53 56.69 57.38 57.88 57.60 59.98 59.74 54.77 56.51 55.21 52.85 52.33 48.37 51.91 50.28 46.65 48.85 49.49 50.44 49.74
53.62 53.74 53.70 53.15 53.39 53.04 53.11 52.92 52.55 52.41 52.42 52.09 51.86 51.67 51.55 51.46 51.77 52.43 53.56 55.64 56.69 58.82 58.07 58.11 57.25 53.67 47.28 55.10 57.08 54.22 57.24 57.04 59.58 60.05 57.89 58.14 56.49 52.74 50.71 51.50 48.76 45.60 46.78 42.61 48.69 48.99 49.84
53.46 53.30 52.92 53.43 53.25 53.22 52.98 52.84 52.30 52.30 52.37 52.12 51.44 51.11 51.36 51.32 50.98 51.74 52.95 54.26 55.69 58.42 58.22 57.81 53.21 51.13 46.07 54.39 51.34 54.47 56.20 54.02 55.09 56.53 57.69 57.37 54.82 49.72 48.75 44.31 42.28 44.16 40.04 42.52 44.78 49.04 47.95
53.24 52.94 53.18 53.54 53.73 53.53 53.26 52.70 52.10 51.81 51.66 51.51 50.98 50.68 50.78 51.03 51.06 51.72 52.56 53.52 54.84 57.01 56.10 54.83 52.52 46.76 49.39 47.27 51.95 53.27 55.24 55.11 52.09 51.81 50.46 49.35 47.79 44.42 44.53 42.63 36.55 39.42 39.54 41.49 40.73 44.88 46.01
53.26 53.20 53.73 53.19 53.22 53.04 52.89 52.40 51.82 51.34 51.09 50.87 50.20 50.16 49.76 50.60 51.12 51.84 51.85 50.18 49.37 47.67 50.39 46.53 46.85 46.34 48.35 51.83 53.51 51.07 53.05 52.19 51.30 48.74 41.99 44.82 40.02 38.84 42.82 44.36 44.37 41.95 39.55 39.24 42.78 45.47 42.94
52.46 52.22 52.56 52.41 52.38 52.01 52.01 51.50 51.30 51.01 50.74 50.42 49.95 49.96 50.16 50.22 50.76 51.33 50.95 44.35 47.27 47.91 42.72 48.95 47.97 48.40 50.87 51.82 45.67 48.80 52.60 46.66 45.82 41.46 44.36 40.22 37.18 43.74 45.51 43.90 42.33 40.92 38.86 38.76 42.03 44.17 42.51
51.79 52.21 52.13 51.88 51.37 51.22 51.08 50.84 50.91 50.50 50.52 50.21 50.02 49.75 49.74 50.22 50.27 49.96 47.45 45.28 51.25 49.46 43.00 44.42 47.40 47.18 47.70 49.75 45.82 45.95 49.15 47.02 43.67 41.37 41.01 39.20 41.00 42.62 42.42 40.77 38.82 39.60 38.21 38.67 38.60 41.80 42.46
51.69 51.12 50.96 51.02 50.88 50.73 50.42 50.21 50.02 49.95 49.99 49.70 49.50 49.32 49.37 49.26 47.14 45.46 44.48 50.91 50.75 49.14 33.90 38.91 41.75 45.62 47.78 48.76 43.71 50.31 50.60 47.12 43.28 40.16 41.24 40.98 44.35 39.96 39.48 38.30 40.16 36.12 42.15 40.54 38.37 36.41 33.35
51.41 51.15 51.18 51.07 50.53 50.21 50.01 49.74 49.69 49.70 49.36 49.11 49.09 49.05 49.27 48.48 45.58 43.65 47.60 51.56 50.26 46.73 26.86 39.10 41.36 50.40 48.42 44.21 45.16 44.97 50.95 46.32 40.37 40.64 41.16 38.39 38.32 38.79 37.03 38.47 41.20 37.61 40.48 38.53 38.00 35.52 33.96
50.89 51.25 50.96 50.58 50.03 49.65 49.32 49.48 49.53 49.37 49.34 49.67 48.82 49.22 49.44 47.66 46.87 47.68 49.97 50.42 46.80 31.42 26.40 35.57 40.36 40.34 40.14 42.88 43.29 45.04 44.92 47.82 46.13 40.90 41.06 40.17 43.20 41.42 40.57 41.42 41.52 41.32 38.06 36.85 36.24 32.78 26.65
50.90 50.84 50.55 50.14 49.86 49.32 49.20 49.19 49.16 49.24 48.83 48.99 49.60 49.86 48.52 47.76 42.25 49.22 49.57 44.69 29.96 26.42 37.16 33.52 35.15 39.59 38.51 37.14 39.41 41.09 39.29 38.20 36.67 32.04 32.24 37.04 37.81 40.95 42.06 37.52 40.15 38.47 33.25 29.24 26.73 25.89 26.36
50.47 50.47 50.15 49.96 49.62 49.32 49.17 48.91 48.90 48.48 49.19 49.54 50.59 50.21 50.02 49.92 48.10 48.05 44.66 37.36 28.06 34.77 35.35 39.46 38.19 38.13 35.15 37.39 37.97 38.83 37.43 34.98 39.86 38.55 35.17 31.09 31.42 37.87 40.60 38.24 36.24 34.78 34.43 29.53 22.97 25.95 29.41
50.28 50.17 49.93 49.75 49.30 49.18 49.04 48.90 48.16 49.02 49.50 50.41 49.63 48.67 48.22 48.85 48.70 48.09 37.39 29.81 30.15 36.50 39.03 36.98 36.72 33.77 34.30 36.84 38.37 37.93 37.20 36.68 39.38 40.24 34.16 33.16 31.64 39.95 40.75 41.12 40.16 35.67 31.60 38.09 30.48 31.71 26.89
50.12 50.09 49.80 49.49 49.21 48.93 48.95 48.43 48.28 48.85 49.74 50.39 46.09 45.66 45.97 50.31 50.89 45.32 36.34 33.74 35.33 41.43 41.53 39.74 33.49 36.05 31.15 33.88 35.13 35.89 35.81 40.48 38.34 41.82 42.93 37.28 30.80 37.77 39.60 40.93 41.02 38.07 39.56 29.76 31.12 22.09 22.19
49.86 50.13 49.48 49.35 48.89 48.61 48.74 47.85 48.63 49.26 49.74 49.71 45.24 39.42 47.16 51.69 49.36 39.59 33.50 34.20 38.21 43.03 43.20 39.46 37.14 36.01 36.19 34.58 37.04 35.55 36.67 40.40 42.69 41.96 42.55 39.59 35.23 33.71 36.90 34.59 35.05 34.65 32.88 33.48 33.44 31.44 24.92
49.71 49.82 49.54 49.05 48.75 48.54 48.64 47.90 48.77 49.32 50.46 47.83 42.84 35.19 48.22 50.45 35.78 38.09 36.53 36.54 41.56 40.61 43.75 41.74 41.86 40.25 38.96 38.64 37.46 37.59 37.44 38.69 43.51 43.25 37.16 40.43 35.94 30.93 33.30 39.84 41.28 39.04 35.07 33.94 28.45 27.55 29.89
48.78 49.06 48.69 48.66 48.46 48.45 48.37 48.02 48.74 49.51 50.76 46.97 40.31 39.51 48.03 47.38 34.33 36.19 37.08 38.14 41.48 40.60 42.02 41.63 39.88 41.66 42.19 39.22 35.57 38.73 39.15 42.49 42.79 42.02 39.46 39.99 34.58 28.98 32.19 36.50 39.61 35.62 37.51 37.18 35.85 33.85 29.23
48.25 48.57 48.75 48.49 48.57 48.38 48.12 47.82 48.43 49.37 50.55 48.28 37.57 34.94 40.60 42.05 43.25 39.91 36.96 37.72 38.50 43.98 42.93 43.39 41.77 42.65 40.52 38.78 40.50 37.75 37.74 40.80 42.69 42.74 43.13 43.42 36.53 33.25 29.51 34.25 36.79 33.26 35.10 36.59 34.51 30.23 30.54
48.38 48.91 48.78 48.45 48.28 48.28 48.02 47.70 48.47 49.87 49.84 47.38 39.78 38.36 41.51 36.28 38.31 39.99 40.49 39.90 38.01 37.87 43.19 43.72 40.53 40.56 39.55 36.18 37.19 36.65 39.29 40.01 41.56 43.32 41.93 40.13 33.05 35.13 35.66 36.54 36.60 35.64 34.93 35.27 32.61 34.33 30.19
48.26 48.48 48.60 48.35 48.41 48.02 47.88 47.98 49.11 49.54 49.96 44.52 37.85 38.66 41.88 40.74 42.27 40.90 40.25 39.10 38.76 39.76 40.76 38.90 39.25 40.90 40.92 38.18 39.02 36.75 39.50 39.22 38.34 40.91 39.77 40.63 33.77 35.23 31.68 36.11 36.51 34.73 36.94 37.11 36.82 35.96 35.41
48.10 47.99 47.91 48.20 48.20 47.72 47.72 48.36 48.72 49.09 49.16 43.01 44.41 44.50 41.76 39.29 40.19 39.24 39.85 39.69 39.78 42.15 42.67 43.62 42.43 41.59 40.06 41.46 44.03 44.06 44.55 43.55 42.60 40.26 38.28 37.53 34.95 32.42 30.00 36.51 35.56 33.27 36.68 37.18 37.10 37.79 36.82
47.76 47.43 47.12 47.06 47.11 47.24 47.14 47.36 47.61 47.81 48.45 45.57 44.22 43.06 41.04 36.76 39.59 39.01 40.22 40.77 40.32 42.10 40.96 42.57 43.82 41.78 45.01 48.66 47.31 45.63 44.14 43.44 42.42 40.93 41.53 37.34 34.47 33.66 30.98 33.71 29.34 39.17 42.39 41.50 38.55 39.74 40.88
47.36 47.01 46.77 46.99 46.89 47.09 46.85 47.31 47.22 46.73 47.59 45.91 45.62 42.42 40.51 38.75 41.56 40.73 40.92 41.46 42.48 42.97 41.91 42.52 43.67 45.98 48.43 45.54 40.68 37.11 37.22 37.22 39.11 41.26 40.56 41.23 37.53 33.06 30.57 30.34 35.09 39.38 41.11 39.97 37.78 37.92 41.91
47.18 46.84 46.43 46.50 45.74 45.62 45.80 45.90 46.09 46.22 46.56 46.76 45.83 45.31 41.39 39.07 40.78 43.43 41.65 42.17 40.99 41.04 41.36 42.66 47.15 49.33 47.47 43.38 38.48 32.84 32.41 35.36 34.01 36.10 41.21 41.22 40.14 34.84 33.29 28.80 27.89 39.34 42.40 43.88 42.38 35.69 42.63
47.04 46.71 46.36 46.06 45.48 45.23 44.97 44.87 45.07 45.68 46.11 45.86 46.21 45.36 42.03 38.63 44.88 45.17 41.57 42.01 44.61 43.23 40.91 42.26 43.02 42.59 45.92 40.13 35.60 34.85 33.48 38.29 33.54 33.90 33.42 35.10 35.29 31.54 31.32 30.85 35.30 43.73 43.52 45.51 35.32 36.86 43.02
46.68 46.38 46.13 45.91 45.34 45.17 44.91 44.80 44.80 45.07 45.02 44.80 43.94 45.91 41.11 37.16 39.85 45.43 47.18 44.79 46.08 45.26 40.74 43.48 42.26 42.32 41.46 36.66 36.01 36.05 35.85 38.12 36.78 39.22 36.96 35.20 33.23 32.53 32.91 30.38 29.62 44.83 44.42 39.32 43.29 45.44 44.14
46.14 46.39 45.91 45.78 45.36 45.23 45.01 44.74 44.75 44.63 44.72 44.80 39.85 45.79 45.59 37.88 39.50 44.97 47.62 50.45 49.52 49.72 46.80 45.33 44.21 43.42 43.53 38.81 38.78 38.47 36.55 39.12 38.24 33.96 41.80 36.40 40.68 39.12 38.85 39.70 46.49 47.55 45.48 47.46 46.33 44.16 44.52

GFSGBSN_sfc_wetblb_012.txt.gz
Wetbulb
54.42 54.14 54.02 54.26 54.29 54.28 53.66 53.87 53.34 53.34 53.25 53.38 52.87 53.00 52.98 52.46 52.60 53.11 54.24 55.71 57.96 59.56 58.92 58.68 58.21 57.93 56.24 52.35 51.76 60.51 61.42 61.71 62.12 60.37 56.97 53.64 51.05 49.76 46.30 48.10 48.54 46.75 48.24 50.13 50.86 50.97 50.34
53.97 54.20 54.35 54.11 53.99 53.82 53.71 53.81 53.78 53.58 53.37 53.37 53.24 52.93 52.65 52.53 52.29 52.18 52.81 54.19 56.51 58.69 59.09 58.56 57.85 57.80 52.43 46.94 58.58 58.19 58.38 58.72 58.85 58.83 56.61 55.26 52.91 53.29 49.75 48.76 47.69 49.63 49.44 49.54 50.53 50.20 50.60
54.01 54.31 53.98 53.98 53.48 54.03 53.99 53.93 53.72 53.19 53.31 53.59 53.54 53.14 52.44 52.20 52.32 52.26 52.07 53.50 54.75 57.23 59.05 58.47 58.09 55.29 49.81 49.35 57.75 57.80 57.32 56.59 58.79 58.85 55.29 56.61 55.94 52.50 51.15 48.08 51.04 49.21 44.96 47.33 47.96 48.65 48.06
54.93 54.09 54.07 54.11 54.37 54.37 54.19 53.73 53.59 53.31 53.06 53.00 52.81 52.56 52.18 51.70 51.76 51.82 51.76 52.27 53.93 55.08 56.98 58.21 58.13 53.24 46.20 55.78 56.32 54.59 57.23 56.20 58.53 60.16 57.94 57.73 56.53 52.46 49.94 50.78 48.40 44.56 44.52 39.03 46.16 48.05 48.33
53.88 54.37 53.79 53.88 53.57 53.44 53.70 53.24 53.15 52.96 52.35 52.18 52.07 51.84 51.60 51.38 51.19 51.41 51.48 52.19 53.29 54.43 57.17 57.93 52.86 50.27 44.40 54.01 51.48 53.60 56.05 54.34 56.20 57.01 57.62 57.77 55.21 49.87 48.77 42.49 39.30 41.66 35.59 38.69 42.45 47.58 46.48
54.29 53.41 53.02 53.29 52.93 53.10 52.63 52.54 52.16 51.90 51.77 51.48 51.20 51.11 51.01 50.60 50.69 51.15 51.56 52.35 53.12 53.27 56.48 55.38 52.71 46.18 48.46 46.97 51.22 52.85 54.87 55.67 52.14 53.21 51.12 50.65 48.08 42.76 42.35 39.51 31.77 35.73 36.54 39.04 38.42 43.00 43.46
52.72 52.63 52.78 52.29 52.23 52.16 52.02 51.85 51.59 51.50 51.28 51.08 50.88 50.82 50.57 50.40 50.53 50.80 50.16 49.13 46.12 47.41 50.47 45.36 45.56 45.98 47.37 51.86 53.46 51.01 53.29 52.37 51.15 48.87 41.56 45.14 39.17 36.28 40.19 41.79 42.13 40.89 38.66 36.42 39.58 43.52 40.35
52.58 52.43 52.25 52.31 52.21 51.93 51.51 51.36 51.18 50.92 50.75 50.55 50.54 50.34 50.36 50.38 50.58 50.95 49.13 43.11 45.41 48.08 41.89 48.83 48.42 48.36 50.68 51.42 45.64 48.55 52.96 46.54 45.16 40.56 43.21 39.93 35.45 41.72 44.31 43.70 41.26 40.20 37.25 36.01 39.80 42.85 40.09
52.41 52.08 52.45 52.34 51.91 51.33 50.93 50.76 50.51 50.45 50.38 50.19 50.01 50.06 50.09 49.77 49.98 48.89 45.29 44.91 50.62 48.23 42.72 43.95 47.49 47.11 47.57 49.67 45.43 45.60 49.08 47.41 43.00 40.23 40.42 37.13 39.92 44.10 42.18 40.51 38.21 37.14 35.88 35.88 35.92 39.74 40.02
52.02 52.00 52.32 51.90 51.37 50.66 50.26 50.12 50.18 50.14 49.85 49.81 49.78 49.69 49.28 49.52 46.52 46.05 43.65 49.57 49.98 48.70 33.96 38.31 41.56 45.73 47.79 48.65 43.62 49.86 50.32 47.04 43.54 39.62 40.95 39.66 43.27 40.68 39.11 38.49 39.21 33.68 39.82 39.29 38.21 33.79 27.77
52.02 51.61 51.73 51.43 50.94 50.20 50.09 50.10 50.13 49.87 49.61 49.51 49.39 49.32 49.24 49.02 44.93 42.35 46.12 50.44 48.93 44.80 25.01 39.47 41.32 50.99 48.30 44.20 44.62 45.03 50.62 46.65 40.51 40.62 40.89 37.05 38.42 38.36 36.58 37.79 40.10 36.24 40.24 37.71 36.93 32.74 29.72
51.51 51.28 51.37 51.06 50.63 49.95 49.92 49.90 49.68 49.38 49.06 49.71 49.81 50.16 50.32 47.52 46.93 46.44 49.08 49.11 44.14 29.37 25.20 34.83 40.58 40.59 40.95 43.28 43.33 45.06 45.33 47.79 46.42 41.13 41.68 39.77 42.80 40.89 39.56 41.48 40.88 40.79 37.89 35.46 33.93 30.60 20.21
50.86 51.03 51.13 50.81 50.45 49.96 49.82 49.74 49.44 48.77 49.52 49.79 50.23 50.61 49.75 49.34 41.46 48.55 47.58 42.30 29.56 24.89 36.96 34.40 36.80 39.90 39.08 38.31 39.57 40.83 39.20 37.95 34.99 31.63 31.56 36.47 37.09 40.35 41.63 36.68 39.37 38.72 33.52 22.53 20.73 21.42 19.72
50.35 50.82 50.82 50.37 50.15 49.66 49.69 49.74 48.67 49.36 49.55 50.61 51.22 51.14 49.58 49.41 48.48 48.00 43.92 35.08 25.11 32.45 35.15 38.29 38.74 38.91 35.15 38.25 38.05 38.67 37.34 34.83 38.70 36.71 33.23 28.06 28.82 36.82 40.09 37.05 34.66 35.06 33.68 24.15 19.32 18.50 22.96
50.29 50.57 50.38 50.03 49.97 49.75 49.78 49.53 48.49 49.42 50.44 50.75 51.06 48.61 46.73 48.97 49.79 46.80 37.13 28.26 29.17 35.27 38.08 36.11 37.63 34.54 33.76 37.11 37.27 36.80 35.89 34.83 37.27 38.58 31.53 30.84 31.37 39.95 40.27 40.41 38.99 34.10 28.53 34.29 28.42 27.39 21.36
50.44 49.80 49.87 49.55 49.64 49.51 49.47 48.73 49.01 49.98 50.63 51.25 46.82 46.16 44.17 48.37 48.54 43.87 35.28 32.87 34.02 39.19 40.41 39.20 32.25 35.59 30.88 33.77 34.72 35.30 35.01 38.89 37.60 40.48 40.84 37.38 27.99 36.95 38.80 40.05 39.40 35.99 37.79 29.12 28.10 13.83 17.10
49.63 49.34 49.37 49.49 49.24 48.70 49.12 48.47 49.18 50.06 50.83 51.07 45.91 40.25 46.01 50.07 49.05 40.67 32.27 33.42 37.16 42.12 42.04 39.28 36.07 34.82 34.97 33.74 35.87 34.31 34.69 39.50 40.51 39.93 41.66 38.46 32.64 32.80 35.85 33.52 32.64 33.47 31.62 32.36 30.78 28.26 19.40
49.71 49.58 49.56 49.49 49.01 48.81 48.79 48.41 48.91 49.99 51.10 48.94 42.75 35.63 47.61 49.97 36.91 37.10 35.18 35.78 41.40 40.74 44.55 42.10 42.10 39.34 36.01 36.09 35.43 35.18 35.85 38.80 42.79 41.99 36.70 39.10 35.74 26.07 31.08 37.74 38.97 37.21 33.35 32.91 27.07 21.31 27.03
49.10 49.40 49.74 49.07 49.10 48.85 48.55 48.39 48.84 49.42 50.88 46.53 40.08 40.46 48.60 47.82 33.39 35.12 37.53 38.48 40.84 40.62 41.75 41.37 39.88 42.04 40.71 37.33 34.59 37.44 38.72 41.23 42.39 40.77 37.91 39.08 32.57 23.68 26.87 34.17 37.06 34.96 35.25 35.89 34.04 32.21 26.82
48.89 49.09 48.95 48.81 48.94 49.01 48.56 48.38 49.55 49.47 50.79 48.32 40.84 34.31 40.37 42.67 42.14 37.78 36.13 37.88 38.49 43.89 42.73 43.30 41.33 42.37 40.12 37.96 39.78 36.45 37.22 40.70 41.44 41.99 44.11 42.70 36.19 28.02 23.41 27.65 33.42 30.22 33.88 35.99 34.16 29.20 28.36
48.47 48.83 48.21 48.77 48.50 48.25 48.15 48.51 49.04 49.88 50.70 47.05 41.51 38.41 41.07 36.71 39.25 38.99 39.56 39.54 38.02 37.60 43.39 43.72 40.54 40.57 39.05 35.64 36.27 36.19 38.65 38.83 40.83 42.76 41.23 38.45 30.67 30.88 33.98 35.08 34.31 33.23 33.37 34.54 33.08 33.90 30.15
48.20 48.49 47.79 47.61 47.59 47.77 47.55 48.87 49.02 49.19 50.05 45.24 39.64 38.69 41.11 40.64 41.73 38.94 40.07 38.60 38.29 39.93 40.94 38.91 39.01 40.72 40.11 37.10 38.20 35.88 38.55 38.48 37.61 39.78 37.81 38.85 31.71 33.52 28.38 34.17 33.91 31.64 34.42 35.57 36.37 36.66 36.91
48.12 47.93 47.49 47.58 47.32 47.45 47.55 48.45 48.43 48.47 48.14 43.26 43.96 44.73 41.57 39.27 40.10 38.62 38.88 39.39 40.02 42.12 42.55 43.32 42.42 40.93 39.84 41.22 43.17 43.08 42.86 42.88 42.01 39.01 37.26 36.76 34.90 31.63 24.50 34.04 32.73 30.58 34.90 36.74 37.91 38.63 37.70
47.68 47.83 47.30 47.32 46.68 46.35 46.26 46.25 46.58 47.15 47.29 45.10 43.90 42.78 39.85 36.77 39.17 38.81 40.58 41.31 40.70 41.97 40.09 42.50 43.47 41.71 44.36 47.12 46.07 44.37 42.93 41.99 42.22 39.60 41.14 36.80 34.14 32.99 29.29 30.10 22.59 35.67 41.55 41.53 39.27 39.65 40.79
47.59 47.54 47.38 47.03 46.67 46.05 45.67 45.49 45.81 46.46 46.82 43.68 45.23 41.34 39.86 37.57 40.30 40.29 40.98 40.99 41.57 41.93 41.67 42.61 43.58 45.30 47.10 44.29 39.29 36.65 37.18 36.76 38.11 40.38 39.77 40.27 36.09 32.25 29.04 24.58 31.55 35.84 39.60 39.22 37.02 36.68 40.99
47.79 47.08 47.28 46.84 46.42 45.92 45.59 45.31 45.39 45.73 45.86 43.30 45.48 45.22 41.05 37.93 39.14 43.52 40.82 41.71 39.10 39.27 39.94 42.74 46.22 47.39 45.60 42.41 37.53 32.17 31.26 33.88 32.36 35.47 40.94 40.43 39.00 34.29 32.31 27.32 24.04 35.50 40.15 42.98 41.41 33.60 39.32
48.19 46.91 47.22 46.61 46.43 46.00 45.68 45.24 45.17 45.30 45.21 43.18 44.14 45.52 41.87 38.34 42.35 42.01 40.66 40.92 42.79 41.99 39.64 41.82 42.86 42.66 44.28 38.83 35.37 34.10 32.50 37.43 31.21 32.01 33.00 34.90 35.53 31.67 31.46 29.67 32.06 39.28 40.56 43.42 32.09 33.33 40.46
47.91 46.86 46.82 46.71 46.25 46.09 45.92 45.67 45.19 44.93 44.89 43.13 41.24 46.06 41.19 36.93 38.74 42.68 44.97 43.36 43.97 43.63 39.33 42.42 41.21 41.37 40.57 35.73 35.03 35.46 35.01 36.42 33.74 36.35 34.27 32.90 31.87 31.74 32.30 29.87 25.82 40.98 40.61 35.89 39.66 40.88 41.31
47.74 46.42 45.85 46.70 46.11 45.97 45.82 45.70 45.50 45.10 44.63 43.98 38.35 43.13 44.82 38.57 38.54 43.12 43.70 44.95 46.14 47.94 45.35 44.01 43.12 42.37 43.04 38.89 38.34 38.55 35.46 37.16 35.84 31.20 38.60 33.93 36.54 35.39 33.92 34.02 41.32 43.51 42.58 42.69 42.42 40.61 40.63

GFSGBSN_sfc_wetblb_015.txt.gz
Wetbulb
55.11 54.88 54.60 54.46 54.55 54.35 54.35 54.67 54.52 54.45 54.44 54.30 54.09 54.06 53.96 53.51 53.03 53.17 52.78 52.90 53.67 55.98 58.55 60.00 59.11 58.29 55.48 50.80 50.23 60.58 63.41 63.84 61.37 59.79 55.21 53.14 49.27 47.00 43.86 44.87 45.71 43.71 45.92 48.78 49.34 49.20 48.20
55.03 55.42 54.76 54.53 54.81 55.22 54.83 54.80 54.56 54.59 54.45 54.50 53.83 53.53 53.50 53.18 52.82 52.06 52.57 52.65 52.47 54.92 56.49 58.94 58.80 58.17 52.03 45.27 57.47 59.19 58.67 59.15 59.12 58.01 55.53 54.73 49.92 50.14 46.95 46.26 44.83 46.65 47.25 47.13 48.13 48.00 48.30
54.52 54.73 54.59 53.98 54.15 54.03 54.14 54.02 53.55 53.55 53.67 53.75 53.07 52.87 52.86 52.66 52.58 52.40 51.69 52.15 52.38 52.93 55.44 56.91 58.72 54.90 48.94 47.79 56.79 56.44 57.26 56.37 57.83 57.71 54.43 56.64 55.08 51.91 48.44 45.81 48.86 47.66 43.13 45.00 45.82 47.05 46.08
54.64 54.78 53.73 53.55 53.59 53.06 53.27 53.23 52.54 52.64 52.71 52.52 52.43 52.14 52.19 51.99 51.86 51.54 51.45 51.90 51.94 52.38 54.02 56.21 58.43 52.66 45.14 55.16 54.53 56.25 56.70 55.91 56.62 58.02 57.34 57.46 56.22 51.90 49.57 47.91 46.49 42.97 42.15 37.12 44.06 46.50 47.02
53.91 53.43 53.25 53.29 53.30 53.28 52.97 52.47 52.11 52.11 51.97 52.03 51.73 51.50 51.32 51.44 51.16 51.04 51.20 51.57 52.16 52.56 53.92 55.88 53.89 49.14 43.56 54.61 50.95 52.59 55.28 53.83 56.69 56.79 57.42 57.68 54.80 48.78 48.71 43.16 37.97 38.63 32.92 36.19 39.81 46.18 45.64
53.59 53.34 52.77 53.54 53.36 53.04 52.53 52.03 51.73 51.62 51.53 51.22 51.06 50.91 50.87 50.89 50.74 50.79 51.04 51.54 51.63 52.09 52.10 54.73 53.01 45.19 47.80 46.20 51.17 52.06 52.73 56.15 53.05 53.94 52.54 51.54 49.12 42.64 42.40 39.69 31.98 32.62 33.59 35.99 36.15 41.60 42.61
52.90 52.73 53.09 53.14 52.85 52.30 51.83 51.51 51.20 51.14 51.12 50.75 50.71 50.62 50.58 50.72 50.63 50.67 48.78 45.50 42.41 44.34 47.26 45.26 43.57 44.51 46.96 51.31 52.97 50.49 51.85 52.75 51.87 49.23 41.54 45.33 39.79 36.43 36.81 38.69 38.89 37.59 35.70 34.38 37.19 41.46 38.29
52.93 52.92 52.81 52.66 52.38 51.90 51.36 51.18 51.07 50.89 50.80 50.67 50.43 50.44 50.59 50.47 50.27 50.50 47.61 40.57 43.37 45.86 40.23 48.32 47.53 47.91 50.20 51.06 45.27 48.14 52.04 46.09 45.64 40.69 41.55 38.10 34.21 39.12 42.70 42.10 40.34 37.60 35.38 33.29 37.02 40.53 38.28
52.43 52.17 52.40 52.39 52.06 51.62 51.00 50.79 50.87 50.88 50.42 50.23 50.04 50.12 50.20 49.88 50.13 47.24 43.65 43.10 49.04 47.53 39.46 44.20 47.71 46.67 47.25 49.76 44.81 44.87 48.79 46.02 42.03 39.92 39.44 35.04 38.30 42.50 40.74 38.75 37.29 34.41 33.34 33.51 33.56 37.31 36.53
52.38 51.72 52.27 52.24 51.87 51.27 50.70 50.53 50.55 50.44 50.02 49.45 49.42 49.67 49.88 49.74 44.94 44.14 42.66 48.44 49.40 47.26 31.64 38.02 42.08 45.93 47.78 48.25 43.08 49.30 49.61 46.83 43.63 39.47 40.03 39.85 42.25 40.39 38.55 37.70 37.63 31.63 37.89 37.31 35.85 31.50 25.78
51.66 51.56 52.11 51.88 51.29 50.84 50.59 50.53 50.55 50.35 49.44 50.31 49.98 50.30 50.47 50.09 44.63 40.87 45.30 48.98 46.86 42.53 22.23 38.80 41.19 50.77 47.75 43.90 44.11 44.57 49.91 46.87 40.46 39.88 40.31 36.58 37.96 38.49 35.40 36.80 38.28 34.50 38.69 36.01 35.14 30.04 26.97
50.89 51.26 51.75 51.34 50.93 50.58 50.29 50.60 50.59 49.47 49.84 50.48 50.40 50.63 50.87 48.34 47.17 44.85 47.61 48.08 44.01 27.86 21.55 35.47 41.18 41.19 40.76 42.68 43.12 44.39 45.02 47.60 46.12 41.50 41.03 38.48 41.08 39.39 38.33 40.07 39.13 39.70 35.41 33.76 32.08 28.44 17.81
51.05 51.35 50.77 50.82 50.56 50.43 50.28 50.28 49.73 49.72 50.45 50.87 50.82 51.00 50.43 49.35 42.21 47.22 46.91 41.98 27.37 21.31 36.23 34.04 37.48 39.87 38.88 38.20 39.25 40.96 39.80 37.04 33.56 30.08 31.25 36.23 35.90 38.55 40.23 35.11 37.32 35.98 29.20 16.84 20.34 22.39 18.67
50.72 50.00 50.04 50.42 50.27 49.88 49.68 50.06 49.03 49.74 50.23 50.33 50.66 51.72 48.65 48.89 48.02 46.28 42.70 34.57 22.29 32.53 33.66 39.58 39.53 38.84 35.59 38.39 37.89 38.89 37.41 33.77 36.99 34.30 27.85 24.47 23.54 34.97 38.41 35.42 32.64 32.41 30.68 21.01 17.93 17.37 21.55
50.69 49.94 50.39 50.29 50.05 49.50 50.03 49.43 49.23 49.72 50.72 51.00 51.23 45.46 45.92 48.42 47.74 44.15 37.30 24.54 26.84 32.84 37.98 36.96 37.72 35.03 34.28 37.44 36.77 36.94 36.03 34.83 35.39 35.44 27.26 24.84 27.46 38.03 38.33 39.17 37.61 32.13 27.21 32.53 23.97 23.94 15.88
50.37 49.68 50.55 50.09 50.05 49.59 49.53 49.26 49.55 50.39 51.02 51.70 45.84 43.20 43.72 48.34 46.86 42.00 34.70 31.97 32.19 36.16 40.29 39.07 31.59 34.35 31.39 34.32 32.94 34.72 34.69 37.30 36.33 38.25 37.55 35.37 26.29 35.88 37.95 38.93 38.11 34.29 35.93 23.73 21.29 12.76 15.80
49.81 49.85 49.72 49.75 49.75 49.22 49.27 49.19 49.36 50.04 51.94 51.33 43.00 38.67 44.52 47.27 46.33 38.78 32.11 32.53 36.31 40.92 42.02 38.31 33.75 33.29 33.50 34.17 34.34 33.85 33.34 37.28 38.76 38.08 38.72 37.99 31.90 31.24 36.98 32.15 30.98 31.62 28.06 29.47 28.07 24.67 16.90
49.59 49.58 49.31 49.48 49.41 48.87 48.89 49.10 49.39 50.59 51.33 47.41 40.81 34.78 44.67 48.15 36.61 36.71 34.22 36.31 40.98 39.25 42.43 41.71 40.01 36.42 33.66 35.54 32.87 31.99 31.69 35.99 40.93 40.94 35.01 38.92 34.18 25.91 28.94 35.59 37.39 34.84 31.44 31.09 22.31 18.75 23.73
49.27 49.57 48.71 48.71 48.97 49.10 48.71 49.11 48.99 50.66 51.30 43.48 38.25 39.24 46.87 46.10 33.17 34.20 37.34 39.01 40.96 41.39 41.67 41.06 39.71 40.04 38.97 34.43 33.00 35.61 36.86 39.34 41.93 40.20 35.94 38.25 30.84 21.19 28.01 32.11 36.39 32.78 33.41 33.77 31.81 30.10 24.79
49.36 49.10 48.25 48.14 48.08 48.72 48.53 48.88 49.56 49.54 51.27 42.33 36.79 30.22 36.94 40.00 40.97 37.49 36.00 37.97 37.00 42.71 41.79 42.82 40.47 39.79 36.96 36.98 37.46 35.48 34.95 39.06 40.00 41.05 44.26 41.79 33.96 24.63 22.42 24.96 32.22 27.91 32.39 34.00 32.87 28.37 27.04
49.17 48.77 48.07 48.16 47.71 47.30 47.41 47.73 48.88 49.68 50.34 43.82 39.49 35.41 36.31 28.56 35.20 36.10 39.77 39.15 37.23 37.31 42.18 42.22 39.44 39.29 37.49 33.94 34.81 34.14 36.40 36.74 39.12 42.68 41.18 39.10 26.37 27.96 32.09 33.66 33.03 31.67 32.04 33.08 31.12 32.42 29.40
49.14 48.44 48.05 47.87 47.71 47.02 46.36 46.45 48.31 49.05 49.32 42.74 38.07 37.84 39.18 36.37 38.24 37.01 38.00 36.99 38.27 39.16 40.02 37.57 37.55 39.43 39.68 35.84 36.31 33.92 37.55 36.09 34.43 37.10 36.25 37.20 29.25 32.72 28.45 32.89 32.75 30.42 33.03 33.40 33.46 33.58 34.07
48.96 48.11 47.94 47.65 47.58 46.90 46.30 45.95 47.28 48.23 46.88 42.56 43.04 43.91 41.11 36.65 35.98 35.90 35.83 38.85 38.75 40.40 41.13 41.92 40.35 39.79 39.17 40.04 41.63 40.97 42.61 41.21 39.47 37.58 36.86 36.56 32.20 25.65 19.65 31.82 30.98 27.70 32.29 33.53 35.44 38.19 38.28
48.47 47.79 48.05 47.57 47.24 46.68 46.28 45.81 45.93 46.34 45.99 43.86 42.74 41.56 38.92 33.39 35.96 38.13 38.50 39.43 39.79 39.84 38.58 41.37 42.25 40.97 42.83 45.35 44.09 42.37 40.60 40.51 41.33 39.76 40.16 34.15 33.48 28.07 24.34 27.50 20.47 34.26 39.37 39.80 37.47 38.66 39.73
47.99 48.77 47.51 47.58 47.02 46.50 46.26 45.86 45.68 45.78 46.06 39.44 44.52 40.21 38.74 35.39 36.70 37.35 38.70 38.56 39.01 40.25 39.70 41.36 42.53 43.80 45.49 42.66 37.52 35.89 36.22 34.21 36.84 39.20 39.11 39.85 35.65 30.55 26.56 22.81 28.89 34.45 38.01 37.66 36.01 35.58 38.96
47.90 48.99 47.39 47.51 46.51 46.20 46.06 46.14 45.62 45.46 45.42 39.02 44.50 44.60 40.24 36.74 37.61 41.19 39.64 40.71 35.28 34.77 37.08 41.65 44.70 45.32 43.96 40.58 35.86 27.84 29.88 33.30 30.83 35.37 40.19 39.56 38.89 33.71 31.66 25.16 22.80 33.17 38.40 41.63 40.19 33.06 39.46
47.39 48.53 47.27 46.70 47.28 46.26 46.24 45.87 45.78 45.48 45.01 39.86 39.90 44.72 40.95 37.11 40.67 39.34 39.56 39.63 42.45 39.68 37.71 41.14 40.83 41.06 42.11 36.25 33.47 31.08 29.52 34.74 29.84 29.46 33.40 34.85 34.81 31.29 31.00 29.23 30.02 37.16 39.54 41.66 30.43 31.57 39.21
46.83 47.84 46.70 46.33 46.66 46.51 46.16 45.95 45.72 45.41 45.05 39.79 36.99 43.38 40.17 36.45 36.58 39.75 41.68 41.68 40.80 40.37 35.86 39.10 38.53 39.78 37.86 34.68 33.62 33.76 32.86 35.39 31.40 33.86 32.96 31.82 30.86 31.84 32.67 29.35 24.38 39.15 39.83 35.88 38.82 39.74 39.64
46.24 47.06 46.16 45.60 45.81 46.47 45.63 45.45 45.90 45.77 45.13 43.42 34.02 39.35 41.30 37.08 37.03 40.55 40.89 41.51 42.17 43.82 44.93 40.82 41.07 39.78 40.62 37.11 36.36 37.91 35.32 34.92 32.92 29.18 36.08 33.08 34.03 32.14 32.73 31.72 38.13 40.90 41.67 41.25 40.99 39.71 38.93

GFSGBSN_sfc_wetblb_018.txt.gz
Wetbulb
55.37 55.07 55.94 54.75 54.35 54.24 53.86 53.55 54.31 53.79 54.06 54.26 54.54 54.50 53.90 53.68 53.41 53.46 52.69 51.95 52.65 53.07 53.40 55.52 57.22 59.34 55.07 48.89 49.66 59.13 63.56 64.31 61.03 57.65 54.17 51.98 48.54 46.50 42.60 44.11 45.21 41.94 44.51 47.29 48.69 48.75 47.32
54.72 55.32 54.46 54.02 54.07 53.78 54.11 53.97 53.54 53.20 53.28 53.38 53.43 52.93 52.77 53.09 53.09 52.81 52.46 52.16 52.17 52.45 52.58 53.78 55.98 58.28 51.37 42.96 56.22 59.40 59.61 59.52 59.12 57.15 54.19 52.79 50.25 49.30 45.94 44.80 43.42 44.86 45.98 45.91 46.85 46.98 47.15
54.68 54.16 54.30 54.00 53.91 54.24 53.93 53.52 52.88 52.70 52.67 52.75 52.82 52.60 52.36 52.39 52.20 52.04 51.88 51.78 52.02 52.26 52.46 53.28 55.17 55.50 48.70 46.01 55.95 57.51 58.82 57.31 58.81 57.34 53.39 55.18 53.94 49.77 48.23 44.86 47.87 46.43 42.04 43.83 44.73 45.66 45.06
54.59 54.23 53.91 53.54 54.24 53.72 53.19 52.51 52.17 52.08 52.15 52.10 52.08 51.77 51.68 51.55 51.53 51.38 51.47 51.50 51.70 51.66 52.34 53.25 55.20 54.04 44.24 54.27 54.12 55.21 56.28 55.03 56.46 57.81 56.78 56.92 54.59 49.86 46.99 46.91 45.00 42.06 41.49 36.43 42.96 44.99 45.86
53.84 53.45 53.73 53.73 53.71 53.36 52.77 52.08 51.83 51.68 51.77 51.78 51.46 51.17 51.06 51.07 51.23 51.08 51.17 51.29 51.57 52.13 52.68 52.89 51.99 50.00 42.41 55.43 50.64 54.68 55.51 53.41 55.82 56.87 56.92 57.40 54.54 48.37 45.92 40.96 36.70 37.65 31.78 35.11 39.07 44.90 44.22
54.15 53.85 53.48 53.28 53.29 52.96 52.53 51.87 51.69 51.69 51.52 51.28 51.18 51.01 50.92 50.85 50.88 50.89 50.90 51.15 51.40 51.10 50.34 51.20 52.67 44.33 45.84 45.81 50.98 51.65 52.48 55.42 53.02 53.61 51.89 51.65 49.09 44.09 41.38 39.54 30.89 32.10 31.91 34.71 35.29 40.22 41.36
53.68 53.63 52.70 52.92 52.93 52.52 52.12 51.75 51.25 51.44 51.35 50.95 50.70 50.53 50.64 50.78 50.73 50.55 48.36 44.22 40.14 40.29 44.67 43.02 44.65 44.16 45.14 50.82 52.69 49.92 51.59 52.94 52.65 49.42 43.77 46.66 41.50 38.62 39.26 38.77 38.33 38.97 35.56 33.36 36.34 40.80 37.47
52.95 52.71 52.43 53.06 52.77 52.22 51.74 51.43 51.44 51.30 50.90 50.47 50.20 49.93 50.21 50.41 50.29 50.31 46.67 39.21 41.81 42.73 36.85 45.69 46.81 47.01 49.62 50.69 45.43 48.22 52.39 47.07 47.15 40.71 42.47 40.11 37.87 41.39 41.80 41.76 39.30 38.66 34.69 32.77 36.22 38.84 36.85
52.72 52.06 52.36 52.67 52.38 51.81 51.37 50.88 51.22 51.32 50.72 49.83 49.56 50.03 50.22 50.51 50.56 46.19 43.55 42.69 47.95 46.40 37.93 40.69 46.47 45.62 47.42 49.11 44.47 45.05 49.18 46.60 43.76 40.20 39.43 35.94 37.95 42.06 40.35 37.84 37.13 34.11 32.61 32.26 32.92 36.05 34.61
52.24 52.10 51.92 52.27 51.89 51.44 51.11 51.00 51.10 50.95 49.76 49.98 50.40 50.36 50.50 50.44 45.38 43.04 41.85 48.16 49.15 45.64 27.53 36.56 40.84 45.21 47.59 48.17 42.69 49.05 50.87 45.97 43.62 39.18 39.31 38.54 41.00 39.56 37.76 36.90 36.70 30.91 36.35 36.35 34.71 30.86 25.23
51.76 52.09 50.74 51.12 51.20 50.87 50.52 50.40 50.83 49.94 49.78 50.30 50.76 50.97 50.94 50.88 45.50 41.78 44.88 46.25 46.70 41.38 19.77 38.80 41.66 50.95 47.76 43.50 43.73 44.69 50.08 46.94 39.99 39.75 40.55 36.16 37.39 36.74 35.24 36.90 38.08 34.16 37.94 35.24 33.71 28.66 25.84
51.04 51.21 50.77 50.95 51.05 50.62 49.82 50.71 50.04 49.70 50.16 50.32 50.55 51.02 51.42 49.03 47.72 46.06 46.66 46.08 42.59 27.16 18.76 34.56 41.51 41.16 41.10 42.12 42.49 44.73 45.29 47.42 46.48 41.85 40.49 36.88 40.35 39.04 37.75 38.94 38.60 39.35 34.54 32.20 30.50 26.48 17.02
51.06 50.82 50.85 51.16 50.76 50.35 50.00 50.19 49.82 50.07 50.13 50.53 51.27 50.86 49.51 49.50 42.80 47.53 47.18 41.36 23.50 19.82 32.95 34.14 37.17 39.75 38.84 38.24 39.19 41.49 39.79 37.88 35.70 31.97 33.13 36.23 34.77 38.09 39.73 34.86 37.11 34.92 28.87 17.70 14.73 12.90 17.71
50.92 50.40 50.38 50.76 50.27 50.37 49.75 49.77 49.80 50.25 50.74 51.42 50.70 49.14 48.50 48.13 47.48 45.45 43.53 32.41 21.03 29.82 33.03 39.92 38.75 38.51 35.79 37.73 38.67 39.37 37.53 34.60 37.33 33.37 31.54 26.22 23.09 34.56 37.75 34.90 32.43 31.53 29.46 20.24 16.57 16.31 19.55
50.78 50.44 50.24 49.90 50.30 49.78 49.77 49.47 50.15 50.63 52.23 51.84 49.67 46.56 46.88 46.75 46.70 44.02 38.04 25.51 26.32 31.07 38.48 37.22 37.51 33.81 34.31 36.36 37.75 36.90 35.99 35.23 35.11 35.10 27.69 24.99 26.90 37.00 37.43 38.08 36.63 31.15 24.61 31.06 22.50 20.64 14.73
50.07 49.95 49.72 49.76 49.10 49.03 49.19 49.74 49.90 52.11 52.50 51.27 41.69 41.83 42.92 47.21 46.00 42.44 34.87 31.42 32.43 36.19 39.97 38.69 31.74 34.32 31.18 33.22 33.03 34.67 34.30 36.62 35.35 37.47 36.83 32.90 25.02 35.13 36.84 38.17 36.85 33.11 34.55 22.52 17.95 9.02 14.16
50.11 49.85 49.40 48.97 48.39 48.55 49.00 49.28 49.67 51.54 52.21 50.00 40.16 35.86 43.25 48.41 46.33 38.38 31.83 32.24 36.30 42.12 41.86 37.97 33.30 32.80 33.23 32.91 33.14 32.14 32.67 35.70 37.50 36.91 37.73 34.62 29.57 29.12 34.60 31.19 30.12 30.68 26.31 27.42 26.38 22.69 16.33
50.06 49.61 49.03 48.85 48.09 47.96 48.17 48.35 49.13 50.72 52.00 45.85 38.84 28.71 44.70 48.54 36.69 37.05 33.01 34.83 39.95 40.00 41.51 40.58 37.50 35.47 33.94 34.63 32.41 31.68 31.75 34.37 39.36 38.69 33.84 36.25 31.30 20.42 28.71 33.96 35.70 33.51 30.70 29.03 18.90 17.44 21.17
49.72 49.37 48.78 48.70 47.89 47.40 47.28 47.73 48.56 49.88 51.41 41.31 34.98 35.20 44.27 44.03 33.12 35.07 37.40 39.15 41.09 41.03 40.53 40.02 37.20 37.96 37.90 33.95 30.66 32.91 34.75 38.71 40.32 39.04 35.28 36.79 29.90 19.60 25.05 32.09 34.34 31.17 32.15 32.22 30.08 26.93 17.85
49.63 48.92 48.66 48.37 48.10 47.33 47.05 47.25 48.17 48.95 50.72 41.25 34.75 27.84 34.89 40.29 38.72 36.25 36.75 35.96 36.57 41.44 40.48 40.58 37.42 39.30 36.50 34.26 35.78 33.82 34.14 38.44 41.38 41.16 43.60 40.60 31.73 23.65 21.06 23.12 30.31 26.22 31.21 32.14 30.51 25.78 24.61
49.43 48.60 48.68 48.23 48.18 47.39 46.95 46.77 47.30 48.81 49.45 41.99 37.03 36.40 38.61 30.76 34.25 37.38 38.99 38.29 36.29 36.58 40.87 40.46 37.91 37.42 36.23 33.18 33.65 33.37 35.59 35.96 39.33 43.50 41.53 37.77 25.69 26.68 30.72 32.35 31.67 30.88 31.05 31.65 28.60 30.84 27.74
48.89 48.41 48.49 48.32 47.95 47.44 46.82 46.37 46.98 47.99 48.28 41.41 38.13 37.51 38.79 34.67 37.20 35.74 36.30 34.76 36.77 37.97 38.55 37.33 37.40 39.01 38.02 35.60 35.34 33.17 35.50 34.18 33.74 35.90 35.68 37.95 30.71 32.13 29.62 31.33 31.68 28.83 31.70 32.15 32.66 32.83 33.21
48.06 49.09 47.94 48.30 47.62 47.33 46.77 46.23 46.22 46.72 44.91 39.46 38.77 42.64 40.69 35.68 34.63 33.79 33.83 36.36 37.73 39.13 39.87 40.88 39.47 39.11 38.34 39.32 40.83 39.66 39.13 38.72 37.37 35.20 33.79 33.75 31.17 28.11 18.78 29.41 29.52 25.92 30.34 32.06 32.45 33.86 33.64
47.86 48.78 47.84 47.95 47.56 47.20 46.73 46.46 46.00 45.93 44.84 41.77 41.20 41.25 38.13 32.90 33.93 35.25 37.34 38.89 38.32 38.77 37.20 40.37 41.76 39.69 41.71 43.94 43.43 41.18 40.51 40.90 40.07 39.18 40.35 35.40 31.27 26.83 20.27 26.53 18.20 32.28 35.99 37.35 34.60 36.74 38.19
47.51 48.46 48.04 47.33 47.40 46.69 46.73 46.42 46.22 45.78 45.62 38.12 44.17 37.59 37.61 32.99 36.96 36.87 37.95 37.58 38.17 39.08 38.48 39.79 41.85 43.00 44.63 41.97 36.78 35.66 35.89 35.02 37.23 38.78 38.39 38.83 35.19 23.83 22.73 22.76 28.53 33.31 37.01 36.27 35.20 34.72 39.01
46.95 47.91 48.44 46.84 46.93 47.17 46.47 46.28 46.15 45.83 45.41 37.06 42.76 43.96 39.71 34.96 33.97 39.12 37.54 39.05 34.63 33.16 35.80 39.84 43.13 44.12 42.93 39.79 34.76 28.59 29.70 33.21 32.94 35.77 39.75 38.40 38.24 32.90 30.57 24.71 22.47 31.40 37.35 40.77 39.03 31.30 39.42
46.46 47.32 48.09 46.67 46.17 46.83 46.17 45.81 45.99 45.43 45.29 38.05 36.85 42.18 39.94 36.15 38.98 36.70 37.26 39.20 40.12 36.51 34.40 37.63 39.57 38.86 40.31 35.05 32.44 29.73 27.28 35.96 30.68 30.83 33.54 34.59 34.67 31.62 31.28 28.72 29.05 35.62 37.39 40.88 28.85 30.97 39.01
46.52 46.61 47.41 46.52 45.27 45.47 46.21 45.38 45.33 45.81 45.09 38.82 35.70 39.03 35.41 35.54 35.76 38.16 40.09 39.81 40.81 38.82 34.23 37.13 37.18 38.04 36.56 34.09 32.03 33.43 32.88 35.08 33.56 34.61 33.34 32.64 31.46 32.30 32.03 28.74 24.62 38.46 38.80 34.55 38.19 39.05 39.60
46.52 46.41 46.81 47.36 45.96 45.42 46.21 45.75 45.28 45.68 44.92 43.47 33.84 38.14 39.51 33.96 33.15 39.48 40.79 41.52 40.47 42.26 41.54 40.92 38.28 37.54 38.44 34.32 32.89 35.96 35.05 34.98 32.13 30.44 34.85 32.71 33.46 31.79 33.02 31.79 38.10 39.83 39.74 41.47 40.38 38.88 38.85

GFSGBSN_sfc_wetblb_021.txt.gz
Wetbulb
55.07 54.92 54.31 54.44 54.07 54.64 54.84 54.43 53.72 53.30 53.43 53.52 53.39 53.37 53.33 52.74 52.90 53.25 53.10 52.75 52.54 52.65 52.73 53.00 53.77 55.26 55.53 47.34 47.19 57.27 62.76 63.59 60.90 58.56 54.06 50.99 47.63 46.33 42.67 44.19 44.39 41.93 43.71 46.55 47.89 48.15 46.64
55.22 54.88 54.37 54.34 54.19 54.65 54.29 53.61 52.99 52.54 52.64 52.65 52.72 52.70 52.52 52.65 52.40 52.28 52.30 52.16 52.32 52.35 52.46 52.84 53.23 54.19 51.30 41.30 53.66 57.15 59.32 59.60 58.86 56.19 52.75 51.43 48.56 48.47 44.74 43.51 43.63 44.56 45.27 45.37 45.98 45.92 46.30
54.33 54.36 54.28 54.14 53.96 54.11 53.85 53.02 52.55 52.01 52.09 52.29 52.56 52.13 51.78 51.68 51.79 51.76 51.85 51.92 51.81 51.94 52.28 52.48 52.94 51.83 49.33 45.45 54.13 55.08 59.24 58.46 58.24 56.25 52.14 52.96 52.43 48.51 47.10 44.05 46.82 45.66 41.23 42.70 44.24 45.25 44.69
54.36 54.54 54.15 54.10 53.61 53.72 53.27 52.64 52.18 51.74 52.21 51.66 51.89 51.75 51.44 51.27 51.31 51.35 51.50 51.61 51.70 51.68 51.77 52.08 52.82 50.87 44.90 53.66 53.92 51.83 56.03 55.97 58.28 57.89 55.70 56.00 55.26 49.49 46.38 46.36 43.93 41.68 40.27 36.06 41.92 44.52 45.25
54.29 54.00 54.01 53.39 53.44 53.69 52.96 52.28 51.87 51.67 51.71 52.00 51.49 51.25 51.23 51.15 51.18 51.10 51.12 51.37 51.59 51.59 52.03 52.32 48.89 50.20 42.72 55.38 50.58 52.03 55.28 52.94 54.23 56.12 56.23 56.94 53.35 46.86 45.00 40.16 36.03 37.85 31.59 34.58 38.36 43.96 43.24
53.72 53.92 52.88 53.23 53.66 53.39 52.71 52.18 51.77 51.97 51.93 51.54 50.78 50.54 50.48 50.71 50.94 50.77 50.83 51.18 51.27 50.68 49.48 49.74 49.63 44.73 46.52 45.06 50.60 52.30 54.46 55.76 53.07 53.04 51.89 51.22 48.54 41.11 39.04 36.58 30.43 31.45 31.73 33.72 34.41 38.53 39.78
52.98 53.21 52.48 52.81 53.14 52.83 52.41 52.06 51.52 51.64 51.73 51.24 50.52 49.92 50.01 50.17 50.54 50.41 47.97 43.29 38.56 37.97 42.47 40.37 44.40 43.56 45.44 50.70 52.49 49.73 52.05 52.63 52.27 49.88 44.63 46.48 42.51 38.82 38.88 37.64 36.75 35.81 34.46 32.40 35.47 39.80 36.74
53.07 52.80 52.95 51.94 52.29 52.22 52.03 51.84 51.63 51.74 51.52 50.09 49.92 49.84 50.29 50.55 50.56 50.57 45.30 38.56 41.65 43.05 34.09 42.85 46.48 46.81 49.17 50.70 44.83 47.72 53.53 47.94 47.08 41.81 43.35 41.66 38.68 43.38 43.68 41.48 39.80 39.77 36.95 32.22 35.66 37.95 35.88
52.26 52.13 51.93 51.61 52.13 52.02 51.56 50.93 50.83 51.26 50.37 49.40 50.32 50.78 50.57 50.54 50.16 46.71 43.36 41.87 46.76 46.48 36.89 40.21 44.27 45.50 46.91 49.19 44.32 44.98 49.89 47.64 42.94 41.18 40.87 38.77 39.40 43.21 41.70 39.60 37.93 33.48 32.59 31.47 32.19 35.12 33.63
52.06 52.29 51.72 52.33 51.83 51.59 50.72 50.61 50.76 50.34 50.00 49.99 50.36 50.62 50.57 50.55 45.59 44.65 40.78 47.11 47.57 44.76 24.28 34.29 38.73 44.93 47.35 47.25 41.95 49.04 50.89 46.56 43.78 39.14 40.41 39.08 41.24 41.60 38.22 36.38 36.15 30.45 35.64 35.53 33.63 30.15 25.21
51.86 52.04 51.30 51.85 51.10 51.23 50.82 49.92 50.60 50.48 50.61 50.38 50.31 50.33 50.78 50.21 44.78 41.62 43.87 46.12 46.89 41.57 10.85 36.97 39.34 50.33 47.62 42.52 43.15 44.68 49.99 47.26 40.36 40.23 40.43 35.74 37.14 37.36 35.82 36.80 37.65 33.78 36.81 34.08 32.54 28.07 24.69
51.27 51.50 51.16 50.99 50.56 51.16 50.18 50.31 50.50 51.34 51.50 51.87 51.42 50.72 50.27 48.71 47.00 46.46 46.00 45.28 42.97 20.55 20.88 33.92 41.68 41.52 40.89 41.62 42.42 45.03 45.13 46.96 46.45 41.44 39.90 36.65 39.72 38.66 36.75 38.04 38.05 38.14 33.47 30.60 28.84 26.01 17.28
51.20 51.11 51.01 50.43 50.34 49.44 49.76 50.18 51.13 52.22 52.02 50.91 50.20 50.51 48.43 48.58 42.57 46.50 45.34 40.88 20.91 17.87 33.08 33.71 37.41 39.99 38.90 38.55 40.23 41.30 39.68 37.06 35.99 33.29 32.89 35.50 34.39 37.66 39.23 34.59 36.82 34.09 28.42 17.04 14.80 13.55 17.21
51.04 50.70 50.59 49.88 49.21 49.45 49.77 50.21 50.78 52.14 51.75 50.33 50.62 49.51 48.18 46.67 46.20 45.11 41.34 31.06 21.26 29.95 29.69 39.88 39.16 38.74 35.71 38.37 39.26 39.55 37.05 34.08 36.24 34.30 31.46 28.47 25.06 34.50 37.10 34.71 32.83 30.20 29.13 19.19 15.38 14.36 18.89
50.81 50.44 49.98 49.42 48.97 49.13 49.29 49.50 50.59 52.02 52.58 50.60 48.83 45.01 44.86 44.68 45.28 43.58 37.32 26.54 27.05 30.62 35.18 37.49 37.51 34.06 34.72 36.40 38.04 37.56 36.47 34.35 35.40 34.17 28.27 24.59 26.88 36.38 36.94 37.34 35.86 30.23 23.23 29.76 22.49 19.97 14.36
50.72 50.16 49.59 49.58 48.81 48.56 48.62 49.15 50.30 51.11 52.63 50.96 42.62 40.05 40.54 45.90 45.88 41.91 34.81 31.33 32.03 36.26 39.72 36.65 30.83 33.68 31.16 33.01 34.27 34.49 34.31 36.92 35.99 36.83 35.95 31.84 25.22 34.41 35.94 37.35 36.44 32.61 33.80 23.12 17.68 9.12 14.02
50.63 49.98 49.46 49.41 48.67 48.20 48.17 48.63 49.70 50.45 52.21 49.28 41.27 35.42 42.34 47.67 46.11 36.94 31.26 31.76 37.58 42.40 41.32 36.24 33.05 32.48 32.69 32.41 33.76 32.38 32.24 34.42 37.21 35.83 36.56 33.88 29.73 31.23 34.02 31.07 30.15 30.76 26.61 26.75 25.44 21.67 14.72
50.26 49.97 49.56 49.05 48.73 48.10 47.88 48.08 48.80 49.83 51.56 44.67 37.10 28.97 42.54 46.87 34.30 35.81 33.48 35.13 39.74 40.31 40.56 39.34 36.41 35.79 34.33 34.05 31.82 30.60 30.88 33.80 38.28 37.41 33.15 35.67 30.24 21.98 28.83 33.39 35.01 32.79 30.11 28.11 19.18 15.72 19.43
49.68 49.71 49.54 48.87 48.50 47.92 47.69 47.66 48.12 48.92 50.45 39.85 34.32 34.15 42.43 41.86 33.12 35.25 36.84 38.76 39.86 39.39 39.22 38.71 35.65 37.79 37.00 33.08 30.37 31.79 33.65 37.84 39.17 37.15 34.24 35.73 27.09 17.99 25.20 30.27 33.19 30.37 30.99 30.39 27.84 24.53 17.09
49.12 49.70 49.15 49.03 48.40 47.82 47.47 47.26 47.52 48.15 49.94 40.58 33.93 28.76 35.53 37.38 39.27 37.10 35.26 34.79 35.75 40.26 39.40 38.27 36.96 38.29 35.51 33.74 34.33 32.40 33.11 37.79 39.08 39.79 42.99 39.82 30.03 23.57 20.31 23.00 28.36 25.39 29.58 30.86 28.53 22.44 23.62
48.72 49.84 48.92 48.92 48.42 47.92 47.34 46.99 47.00 47.50 48.51 40.80 35.38 35.31 38.75 33.76 37.12 38.35 37.40 36.93 35.29 35.78 39.43 39.16 36.00 36.37 35.11 31.67 32.85 32.28 34.36 35.42 39.97 42.93 39.47 35.91 25.51 26.22 29.77 31.46 30.04 30.09 30.23 30.67 26.31 30.09 24.49
48.47 49.27 48.75 48.62 48.33 47.87 47.32 46.90 46.60 47.04 47.24 38.65 34.94 37.39 39.24 34.69 34.68 34.07 35.23 33.97 35.73 36.86 37.73 36.43 35.56 37.54 36.44 33.87 33.93 32.46 34.68 33.44 34.31 37.64 37.16 37.08 29.94 30.25 27.63 30.70 30.43 28.59 30.99 31.42 31.60 31.72 31.12
48.21 48.59 49.49 48.32 48.18 47.68 47.20 46.83 46.46 46.34 44.26 36.60 36.59 40.19 37.60 34.61 32.95 31.97 32.78 35.33 37.16 37.91 38.84 40.06 38.75 37.83 37.22 38.46 39.30 37.77 37.62 37.75 36.59 35.17 33.53 32.85 30.90 28.09 21.37 27.65 28.74 25.59 29.42 30.91 31.48 32.66 32.32
47.83 48.27 49.22 47.98 47.60 47.66 47.11 46.77 46.51 46.19 43.38 40.82 41.22 40.79 37.09 31.19 32.67 34.07 35.91 38.21 37.51 37.70 36.08 39.64 40.65 37.96 41.17 43.45 41.83 40.83 39.59 37.76 37.10 35.95 38.19 34.69 32.51 30.45 19.60 25.28 17.31 30.37 34.54 35.45 33.47 34.36 35.03
47.38 47.84 48.56 48.27 47.10 47.23 47.02 46.71 46.37 46.24 45.70 39.65 42.87 35.76 37.35 32.61 35.69 35.07 36.48 36.22 36.85 37.80 37.29 38.92 40.65 41.83 43.31 40.74 35.53 33.82 35.21 35.16 36.98 38.17 38.10 38.32 34.88 24.31 22.57 23.48 26.17 31.53 36.07 35.41 34.24 33.99 37.56
47.34 47.09 47.92 48.10 46.57 46.49 46.77 45.92 46.27 45.67 45.58 36.09 40.27 40.58 37.17 35.07 32.16 38.32 36.14 36.47 33.49 32.05 34.73 38.46 41.97 43.24 42.21 38.12 33.64 27.88 29.06 32.14 32.01 35.12 39.03 38.02 37.27 32.09 29.54 25.05 20.44 29.89 36.42 39.20 38.42 29.91 38.21
47.11 46.65 47.02 47.95 46.58 45.40 45.85 46.08 45.36 45.89 45.55 37.38 35.24 37.23 36.13 33.86 35.97 35.65 33.76 36.36 38.16 34.66 33.00 35.39 36.95 37.77 39.49 34.09 31.61 28.94 27.76 35.49 29.87 31.37 33.40 34.06 34.74 30.67 30.19 28.82 28.04 34.67 36.50 39.68 27.46 30.77 37.85
46.59 46.95 46.79 47.25 47.77 46.47 45.76 46.58 45.65 45.41 45.50 38.41 35.43 37.59 33.32 31.92 32.75 36.84 38.26 35.65 38.81 37.35 34.33 36.24 36.27 37.02 35.70 32.00 31.52 30.98 30.82 34.80 33.47 34.52 34.27 32.97 31.39 31.71 32.47 29.04 23.82 38.34 37.85 33.76 37.57 37.75 38.65
46.10 47.11 46.37 46.44 47.07 47.47 46.06 45.17 45.21 45.89 45.81 43.34 33.88 37.52 38.63 32.35 29.66 36.56 37.55 38.03 39.16 41.45 38.86 41.25 36.72 36.17 37.78 33.57 32.29 33.00 32.43 35.08 32.36 30.71 33.37 32.58 32.92 30.51 31.96 30.94 36.85 38.68 38.65 40.57 39.74 38.59 37.72

GFSGBSN_sfc_wetblb_024.txt.gz
Wetbulb
55.16 55.10 55.09 55.21 54.80 54.36 54.82 54.51 53.71 53.11 52.65 53.00 52.76 53.03 52.93 52.78 52.92 52.83 52.68 52.82 53.06 53.08 52.84 52.75 52.76 53.71 51.83 48.58 45.35 55.56 60.41 62.73 58.51 58.06 55.35 52.84 48.44 45.33 42.27 43.91 44.29 42.32 43.53 46.25 47.58 47.78 46.41
55.20 54.99 55.33 55.15 54.37 53.91 54.48 54.21 53.33 52.59 52.58 52.73 52.55 52.38 52.21 52.03 51.96 51.84 51.91 51.95 52.08 52.34 52.12 52.30 52.46 53.11 49.27 42.88 53.44 53.71 56.73 59.04 57.08 56.93 53.23 50.79 48.58 48.19 44.82 43.44 42.92 44.68 45.21 45.16 45.54 45.50 45.56
55.00 54.91 55.14 54.49 53.74 53.96 54.35 53.93 53.05 52.52 52.11 52.29 52.72 52.18 51.88 51.83 51.73 51.55 51.71 51.69 51.82 51.94 51.98 51.64 51.84 50.20 46.83 46.48 53.48 52.18 57.86 57.67 58.87 56.70 51.71 51.49 50.75 47.79 46.01 43.12 46.05 44.77 40.76 42.15 43.56 44.76 44.26
54.80 54.73 54.49 53.65 53.22 54.02 53.87 53.35 52.63 52.51 52.40 52.22 52.24 51.70 51.14 51.37 51.14 51.25 51.36 51.51 51.44 51.58 51.55 51.39 50.98 49.39 43.68 54.09 54.99 52.62 53.94 56.70 58.07 56.97 55.18 54.47 53.61 48.56 45.54 45.56 43.36 41.22 39.89 35.56 41.74 44.15 44.78
54.46 54.21 53.82 53.73 53.30 53.46 53.23 52.93 52.49 52.25 52.11 52.55 51.89 51.44 50.92 50.60 50.90 51.01 51.12 51.20 51.28 51.51 51.53 51.33 46.98 46.01 42.86 54.21 49.99 52.29 53.63 53.58 55.76 55.98 55.62 56.26 53.44 47.88 43.98 38.89 37.52 37.92 31.42 33.79 38.13 42.94 42.38
54.18 53.78 53.76 53.28 52.40 52.93 53.00 52.53 52.29 52.17 52.32 52.04 51.44 50.77 50.22 50.21 50.40 50.67 50.79 51.13 50.83 49.58 48.77 49.19 47.57 44.25 47.00 44.78 50.16 52.09 54.83 55.47 53.08 53.28 51.03 50.00 48.44 42.16 38.17 39.07 29.39 31.63 31.33 32.93 33.93 37.39 39.16
54.13 53.05 53.28 52.46 52.64 52.47 52.56 52.00 51.40 51.60 51.51 51.20 50.35 50.44 50.64 50.23 50.56 50.56 47.99 42.24 37.60 35.94 41.59 37.30 40.57 43.21 45.67 49.73 52.27 50.42 53.41 53.02 52.30 49.50 42.02 46.58 41.34 38.18 39.11 37.74 36.53 35.25 33.56 32.35 35.14 39.24 36.29
53.46 52.88 53.24 52.50 52.83 52.53 52.22 51.76 50.66 51.20 51.12 50.58 50.20 50.28 50.65 50.85 50.29 50.17 44.34 37.87 41.39 41.30 33.05 40.72 41.64 46.18 48.82 50.22 44.06 47.97 53.54 48.18 47.15 42.52 44.00 42.29 38.92 41.67 41.43 40.32 38.44 36.86 34.18 31.57 35.58 37.06 34.90
52.39 52.74 52.52 52.11 52.03 51.48 52.19 51.07 51.28 51.71 51.82 51.73 50.50 50.27 50.20 50.51 50.02 46.74 41.50 40.84 45.82 46.26 34.74 40.33 44.35 45.40 46.73 48.77 44.24 44.86 50.62 47.94 43.93 41.64 41.66 38.77 40.50 45.13 42.33 39.75 39.07 36.79 35.83 32.08 32.59 34.43 32.75
52.12 52.57 52.43 51.88 51.55 51.08 50.41 50.80 51.76 52.34 52.43 52.33 52.24 51.07 50.10 49.73 44.59 44.60 40.04 45.94 47.22 43.75 21.23 31.20 39.53 44.73 47.30 47.43 42.00 49.18 51.49 47.13 43.62 38.08 38.51 39.05 41.49 42.18 40.49 38.98 37.68 33.03 35.25 34.93 32.93 29.65 25.91
51.72 52.14 51.93 51.00 50.42 50.14 50.60 51.40 51.78 52.59 52.37 51.30 50.88 50.89 50.97 49.62 43.86 40.79 43.26 46.93 44.64 40.13 6.75 34.82 38.49 49.80 47.48 42.08 43.19 44.71 50.16 46.82 40.23 40.05 39.60 36.00 37.72 39.77 37.42 38.05 37.93 34.31 36.31 33.42 31.48 27.67 23.83
51.49 51.65 51.69 50.68 49.94 50.03 50.35 50.82 51.78 52.48 51.45 51.35 51.23 51.23 50.26 47.02 46.08 46.24 45.10 44.02 40.78 19.52 15.85 33.52 40.74 41.18 39.63 41.19 42.03 44.66 45.10 47.51 46.57 40.36 39.42 37.36 40.82 39.53 37.29 37.87 38.91 36.70 32.67 29.79 27.69 25.60 17.37
51.43 51.08 51.28 50.52 49.81 49.55 49.64 50.48 51.54 51.93 51.67 50.84 50.39 50.17 47.60 47.08 41.56 46.33 44.15 37.28 20.04 18.04 32.67 33.47 36.32 39.24 37.91 38.75 40.38 41.25 39.56 37.64 36.70 32.74 32.35 35.32 34.95 37.45 38.47 34.33 36.48 33.77 28.46 17.93 14.58 13.66 17.57
50.93 51.38 50.66 50.38 49.85 49.36 49.41 50.14 51.14 51.38 52.37 51.62 49.59 48.52 46.82 45.31 45.42 44.05 40.26 28.40 22.83 29.59 30.53 39.48 38.87 37.96 35.31 38.47 38.98 39.24 37.04 34.07 36.10 34.85 30.38 28.39 28.20 35.22 36.95 34.30 32.44 30.32 28.45 19.53 14.16 12.92 17.79
50.61 50.63 50.41 50.01 49.80 49.23 49.21 49.66 50.48 50.96 51.86 52.19 49.18 42.12 42.03 43.89 44.95 42.16 33.68 21.94 23.48 30.55 34.59 37.04 37.13 34.39 35.06 37.17 38.18 37.81 35.51 33.35 34.33 33.02 27.75 25.05 26.38 35.67 36.52 36.59 34.98 30.12 23.81 28.79 20.73 17.81 14.23
50.44 50.79 50.33 49.73 49.74 49.03 48.99 49.14 49.81 50.31 51.52 51.14 40.33 38.29 39.85 46.66 47.38 39.77 32.57 31.72 33.00 36.48 39.32 35.77 30.94 32.94 30.99 33.96 34.04 35.50 33.53 35.84 34.75 35.57 34.64 30.46 25.48 33.92 35.54 37.04 36.05 32.94 33.53 23.78 18.79 10.25 14.23
50.17 50.87 50.31 49.72 49.29 48.67 48.55 48.70 49.22 49.81 50.73 49.17 38.73 34.73 41.46 45.33 43.27 38.16 31.09 32.70 38.40 42.16 40.57 35.10 32.05 31.81 32.14 32.11 33.56 31.88 32.40 33.79 35.89 34.90 36.22 32.70 29.39 31.41 33.89 30.99 30.18 30.74 27.61 26.73 24.74 20.90 14.79
49.82 50.65 50.03 49.80 49.03 48.56 48.23 48.23 48.52 49.18 50.79 43.35 35.84 29.87 41.69 44.57 35.31 36.86 34.54 36.64 40.13 39.26 39.91 38.32 35.87 34.53 32.20 32.73 29.88 29.71 30.81 32.75 37.73 37.12 32.63 34.34 29.66 21.33 29.39 32.97 34.42 32.15 29.43 27.04 18.01 16.10 20.74
49.59 50.32 49.84 49.62 48.95 48.55 48.05 47.93 47.98 48.50 49.53 39.23 33.34 33.44 41.30 40.94 33.56 34.97 36.03 37.46 38.97 38.64 38.15 37.63 34.82 37.00 35.70 32.36 29.83 31.21 32.95 36.88 38.44 36.45 34.03 35.20 26.93 18.28 25.45 29.88 32.61 29.30 30.03 28.93 26.45 23.22 16.45
49.39 49.53 49.78 49.30 49.05 48.35 47.97 47.71 47.53 47.87 49.10 39.68 33.73 29.38 35.87 40.55 40.25 37.60 35.17 34.05 34.80 39.54 38.37 37.29 35.86 36.53 34.28 32.70 34.19 31.69 32.12 37.41 37.98 38.24 42.20 38.90 29.39 24.08 19.80 22.47 28.62 26.06 29.28 29.44 27.30 18.41 22.05
48.86 49.00 49.92 49.28 49.08 48.39 47.80 47.51 47.29 47.26 48.15 40.05 35.13 35.19 38.69 32.41 33.41 36.52 35.91 35.77 34.14 34.73 38.42 37.96 34.95 34.94 33.78 30.46 31.85 31.48 33.60 34.82 38.54 42.02 38.18 35.15 24.56 25.69 29.31 30.69 30.22 29.87 29.86 29.55 25.88 26.93 21.61
48.67 48.68 49.26 49.52 48.74 48.42 47.68 47.26 47.05 47.02 46.75 38.43 34.88 35.05 38.72 33.73 33.20 32.23 33.65 33.22 34.98 35.89 36.64 34.87 34.56 37.87 35.30 32.23 33.05 31.80 33.67 32.62 33.36 36.91 34.82 35.30 28.35 27.57 23.39 29.60 29.86 27.86 30.11 30.44 29.94 30.14 30.31
48.35 48.45 49.05 49.49 48.20 48.28 47.79 47.06 46.91 46.49 43.85 35.60 35.98 40.98 39.14 33.35 31.53 30.24 31.33 34.18 36.27 37.02 37.98 39.27 37.77 36.88 35.84 37.16 37.94 36.85 37.39 37.45 35.92 34.43 33.33 34.30 30.86 24.87 21.05 27.07 27.63 24.19 28.29 30.34 30.80 31.91 32.20
47.89 48.11 48.40 49.08 47.80 47.42 47.80 46.99 46.60 46.56 43.37 41.13 41.51 40.25 36.77 29.52 30.61 33.09 35.05 35.76 36.57 37.01 35.10 38.33 39.75 38.79 40.51 42.42 39.81 39.41 37.29 35.93 36.55 34.71 36.72 33.44 31.96 30.17 20.13 24.46 16.46 29.08 33.85 34.47 32.77 33.30 33.92
48.13 48.13 47.94 48.23 47.89 46.76 46.92 46.90 46.47 46.24 45.76 36.36 38.46 36.95 36.56 32.15 34.89 33.48 34.79 34.99 36.39 35.71 35.93 37.65 39.86 41.02 42.67 39.60 34.96 32.26 34.65 34.74 34.96 36.99 36.65 36.59 33.35 25.81 22.31 24.46 26.02 30.51 34.91 32.84 32.68 33.02 35.52
48.03 47.98 47.62 47.54 48.27 46.05 45.93 46.41 45.95 45.89 45.79 35.98 35.70 36.16 35.85 32.80 29.36 36.58 35.50 35.59 32.21 30.78 33.31 37.17 41.08 42.27 40.92 37.00 33.19 27.61 27.20 28.14 29.73 34.48 38.28 37.59 35.38 31.08 28.72 24.07 20.05 29.02 36.25 38.83 36.75 30.19 37.68
47.91 47.53 47.52 47.79 47.55 47.93 46.03 46.09 46.42 45.77 45.41 37.32 34.79 36.41 32.75 32.04 33.85 34.62 32.68 35.77 37.45 33.33 31.58 34.10 36.33 37.03 38.25 34.48 30.86 28.30 26.32 32.08 29.17 29.25 32.93 33.94 34.38 30.08 29.61 26.42 28.02 33.79 36.73 38.41 28.05 30.15 36.85
47.53 46.98 47.36 46.76 46.84 47.21 47.37 46.19 45.40 45.51 45.83 39.57 35.32 37.20 32.77 27.20 29.11 33.21 36.46 34.90 36.86 39.66 31.87 35.00 35.71 35.93 34.20 31.64 31.66 29.96 28.79 32.15 30.06 31.47 33.18 32.14 29.74 30.70 30.46 26.03 22.97 37.64 37.76 34.10 36.69 36.59 38.29
46.70 46.69 46.72 46.54 46.11 46.80 47.17 47.60 46.73 45.43 45.39 43.91 36.73 38.92 39.47 34.06 29.68 34.05 35.73 36.08 35.75 36.89 36.26 39.65 36.56 34.71 36.51 31.99 31.24 31.54 30.65 31.30 32.36 28.82 31.75 30.95 31.60 29.86 30.57 29.54 35.17 39.27 38.35 40.33 39.31 38.31 37.61

GFSGBSN_sfc_wetblb_027.txt.gz
Wetbulb
55.41 55.38 55.35 55.68 55.17 54.69 54.62 54.99 54.69 54.03 53.65 53.36 53.11 52.88 52.79 52.64 52.52 52.19 52.14 52.30 52.29 52.58 52.89 52.77 52.54 51.80 50.79 46.82 47.11 55.01 58.52 58.98 58.32 57.66 55.39 52.71 49.45 47.70 44.57 45.24 45.50 43.99 45.09 47.42 48.69 48.62 48.25
55.32 55.53 55.13 54.77 54.56 54.41 54.31 54.66 54.09 53.57 53.31 53.18 52.77 52.98 52.25 52.01 52.00 52.00 51.69 51.97 51.85 51.99 52.16 52.08 51.41 51.59 47.03 41.06 53.77 54.26 53.47 58.12 56.01 56.31 54.72 53.16 50.56 49.07 46.07 45.39 44.74 46.19 46.31 46.32 47.13 47.05 47.46
54.75 55.20 55.04 54.59 54.65 53.52 53.84 53.86 53.38 53.09 53.05 53.01 52.77 52.68 52.05 51.41 51.58 51.49 51.61 51.47 51.41 51.57 51.82 52.12 51.60 48.76 44.90 44.10 53.05 54.40 53.50 56.31 56.49 56.78 53.34 53.66 52.64 49.05 46.57 43.75 47.16 45.46 42.52 44.20 44.62 45.70 45.52
54.44 54.89 54.57 54.36 53.47 53.54 53.69 53.15 52.96 52.78 52.70 52.71 52.64 52.35 51.94 51.55 50.88 51.16 51.16 51.45 51.28 51.26 51.23 51.26 51.09 47.79 39.86 53.72 54.73 53.75 53.14 55.81 57.63 58.09 56.21 54.41 52.94 49.49 47.63 47.08 44.79 42.39 42.74 38.15 43.63 44.68 45.66
54.29 54.41 53.70 53.95 53.51 54.05 53.62 52.93 52.66 51.80 52.00 52.25 51.77 51.18 50.30 50.83 50.35 50.66 51.08 51.26 51.24 51.25 51.08 51.02 46.58 44.43 40.65 54.50 49.61 52.98 53.21 51.83 55.72 55.79 55.28 55.78 52.77 48.45 46.23 41.06 38.82 39.78 33.96 36.01 39.65 44.73 44.10
54.47 54.14 53.59 53.29 53.10 53.31 52.71 53.26 52.41 51.99 51.95 52.16 51.73 50.98 50.33 50.41 50.39 50.57 51.00 51.12 50.30 49.33 48.72 48.88 46.96 40.73 44.81 44.33 50.36 51.47 53.75 55.35 53.10 53.24 51.03 50.34 48.21 43.38 42.18 39.26 31.54 34.06 34.29 36.19 36.48 40.10 41.33
53.79 53.33 53.41 53.60 52.53 52.50 52.51 51.82 52.18 52.86 53.03 52.91 52.60 50.37 50.63 50.55 50.43 50.26 47.31 41.69 37.08 35.85 41.72 35.91 37.78 41.13 45.72 49.92 52.36 50.89 53.92 53.38 52.43 49.00 42.93 46.39 41.08 36.64 40.02 40.30 37.82 37.08 35.76 35.60 37.86 40.24 38.69
53.61 53.00 53.37 52.67 52.15 51.68 51.69 52.41 52.87 53.07 53.04 52.36 52.07 51.50 49.17 50.17 49.63 49.37 44.11 37.86 39.01 40.82 32.63 39.73 40.37 42.03 46.04 50.31 44.82 48.42 53.75 48.68 43.12 40.74 44.11 42.12 38.35 41.89 42.36 40.21 38.13 37.20 34.91 34.45 37.55 38.76 37.58
52.83 52.93 52.66 52.20 51.56 51.33 51.91 52.08 52.67 53.27 52.61 52.23 51.70 50.90 47.44 49.34 49.14 45.96 41.23 40.19 45.50 44.83 34.88 40.01 44.26 41.60 45.80 48.50 44.38 45.07 50.84 48.60 40.89 37.72 39.32 38.34 41.24 43.20 41.82 39.49 38.00 36.84 35.09 34.10 35.03 36.24 35.67
52.29 52.45 52.52 51.60 51.28 50.78 51.14 51.69 52.49 53.05 51.96 51.79 51.94 51.39 50.12 48.77 44.49 43.13 39.26 45.94 45.73 43.15 21.15 34.16 39.37 44.38 47.22 47.02 42.54 50.13 51.50 47.03 43.57 38.41 41.08 39.67 42.56 42.02 40.79 38.87 39.70 35.20 38.51 36.52 34.25 32.96 29.62
52.15 52.30 52.23 51.22 50.96 50.37 50.76 51.72 52.27 52.60 52.43 51.15 51.06 51.16 50.66 48.59 42.96 39.93 43.09 46.82 43.99 37.12 10.13 34.77 38.91 48.21 47.75 42.14 43.77 44.74 49.67 47.53 39.72 38.23 39.85 35.51 39.02 40.70 39.21 39.87 39.69 35.74 37.26 34.42 32.92 30.24 29.09
51.85 52.41 51.50 50.97 50.76 50.14 50.36 51.13 51.75 52.42 52.65 51.44 50.34 50.65 49.76 45.67 44.40 44.77 44.43 43.74 38.97 20.07 12.90 32.73 39.07 40.26 39.86 42.29 42.63 45.08 44.65 47.74 46.06 40.43 39.68 37.54 42.98 40.17 39.01 40.45 39.58 36.96 33.29 31.09 29.87 28.42 23.47
51.46 51.53 51.16 50.84 50.80 49.92 50.02 50.46 51.17 52.15 52.40 52.75 50.50 49.54 46.62 46.08 40.58 44.78 43.49 36.14 20.34 19.70 32.23 33.39 36.33 39.40 38.61 38.61 39.78 41.01 39.48 37.46 36.89 32.85 32.41 36.09 35.38 38.70 39.27 35.41 37.71 35.75 31.81 23.43 20.78 20.76 22.99
51.09 51.49 51.14 50.84 50.55 49.95 49.76 49.86 50.48 51.21 51.69 51.98 51.38 47.84 46.04 45.09 44.36 42.56 39.16 27.58 17.88 29.36 29.62 39.01 38.69 37.60 36.27 38.12 38.50 38.90 37.32 34.74 35.63 34.94 32.10 30.01 28.95 35.28 37.88 36.23 33.57 32.40 31.63 24.33 19.28 18.34 21.67
50.78 51.22 50.91 50.61 50.29 49.95 49.64 49.54 49.81 50.43 50.99 51.61 48.38 40.83 40.97 43.80 46.09 42.79 34.48 24.83 20.74 30.00 34.79 36.87 36.86 32.87 34.47 37.43 38.08 37.82 34.55 33.74 34.51 34.13 30.30 28.36 28.28 36.01 36.46 37.15 36.33 31.87 26.89 30.22 22.02 20.07 19.86
50.51 51.13 50.56 50.47 50.08 49.85 49.44 49.36 49.31 49.72 51.23 50.51 39.59 37.63 38.50 44.40 45.67 40.00 35.18 32.59 34.26 37.26 38.49 35.56 30.67 33.12 30.10 34.69 34.54 34.86 33.06 35.42 34.85 35.76 35.26 31.72 26.99 34.60 35.64 37.41 36.22 33.77 33.35 26.18 22.67 14.40 17.10
50.19 50.65 50.57 50.38 49.87 49.38 49.18 49.09 49.01 49.26 50.39 47.78 37.70 34.54 40.93 45.27 42.40 37.04 31.77 33.67 37.81 41.05 39.31 34.52 31.49 30.92 31.83 32.08 32.86 32.23 32.52 35.10 36.96 35.79 35.56 33.00 30.71 31.72 35.32 32.05 30.38 31.21 28.84 27.31 26.64 23.91 20.30
50.01 50.20 50.78 50.02 49.57 49.30 48.91 48.66 48.71 48.67 49.71 42.75 35.01 31.06 41.67 43.33 35.25 37.98 35.13 36.90 40.48 38.89 39.82 36.47 35.70 33.89 31.73 31.78 30.11 30.09 31.29 33.44 38.19 37.74 33.10 34.61 30.46 26.91 30.39 33.98 35.35 33.39 30.52 28.14 22.50 20.34 22.30
49.58 49.65 50.75 50.14 49.79 49.06 48.66 48.43 48.32 48.30 49.16 38.69 32.82 32.69 40.77 41.16 33.57 34.88 36.89 37.11 38.34 37.68 37.36 36.90 34.22 36.27 34.76 32.01 29.55 31.34 33.17 37.29 38.43 36.86 34.61 35.22 27.83 21.21 27.38 31.07 33.44 31.09 31.07 29.89 27.16 25.75 22.09
49.16 49.30 49.63 50.68 49.55 49.34 48.54 48.13 47.94 47.82 49.21 38.90 33.02 29.27 35.62 37.71 38.04 34.97 33.59 33.05 34.19 38.85 37.12 36.68 35.24 35.74 33.30 32.26 33.73 31.35 32.02 37.38 37.74 38.04 42.39 38.38 29.78 25.28 21.50 24.51 30.02 28.34 30.08 30.04 28.78 23.48 23.62
49.06 48.95 49.21 50.08 49.31 49.18 48.63 47.88 47.61 47.12 48.15 39.38 34.61 35.54 38.47 31.41 32.65 32.94 33.93 34.43 32.80 33.97 37.79 37.04 34.20 34.18 32.82 29.72 30.95 30.63 33.41 34.96 37.83 41.91 37.80 35.63 26.07 25.71 29.71 30.58 30.60 30.55 30.47 29.71 26.70 28.20 24.77
48.72 48.59 49.23 49.52 49.37 48.64 48.34 47.59 47.33 46.74 46.38 38.30 34.27 35.63 38.19 33.13 32.30 30.68 32.03 31.11 33.58 34.96 35.46 33.71 33.74 36.46 33.90 31.69 32.01 30.94 33.28 32.35 32.62 35.70 34.86 35.15 28.71 28.04 24.35 30.46 30.63 28.96 30.72 30.51 30.48 30.63 29.58
48.36 48.46 48.61 48.97 49.00 48.21 47.94 47.28 47.04 46.71 43.84 39.00 39.77 40.85 38.92 33.22 30.10 28.98 30.78 32.80 34.88 35.78 37.10 38.28 37.84 37.49 35.17 36.31 37.36 36.59 35.90 36.38 36.36 34.72 33.21 34.28 30.73 23.45 21.54 28.23 28.13 24.84 28.54 30.50 31.38 31.64 32.34
48.31 48.61 48.50 48.60 48.76 47.53 47.01 47.15 46.55 46.68 42.38 37.37 38.94 39.73 36.23 29.09 29.85 31.39 33.23 34.17 35.70 36.61 34.25 37.42 38.21 37.55 39.97 40.92 39.34 38.16 36.26 35.53 35.98 34.44 36.68 32.90 31.80 27.82 20.10 24.94 17.50 29.18 33.92 34.14 32.63 33.33 33.96
48.34 48.41 48.44 48.38 47.97 47.53 47.09 46.80 46.71 46.32 44.45 37.17 35.45 36.90 35.89 30.94 33.09 31.03 33.45 33.41 34.93 35.42 34.80 36.76 38.59 39.77 41.31 38.17 33.86 31.44 34.26 34.56 35.59 35.78 34.67 37.52 33.61 26.76 22.75 24.03 25.42 30.43 33.58 32.13 31.70 33.55 35.62
48.50 48.35 48.29 48.08 47.92 47.61 47.36 47.00 47.15 46.33 44.36 37.10 35.05 35.21 33.23 30.43 27.48 35.29 34.37 36.10 32.11 29.26 32.85 35.98 39.78 41.10 39.34 35.92 32.56 26.92 24.03 27.99 28.23 33.98 37.54 35.82 34.75 30.38 27.08 21.69 19.98 29.10 36.79 38.62 38.09 31.82 38.36
48.74 48.44 47.98 47.81 47.12 47.16 47.14 46.85 46.58 46.03 44.63 37.85 35.80 35.76 32.09 27.52 30.81 34.46 31.70 33.78 39.21 34.23 30.28 32.26 34.98 36.00 37.21 33.21 30.93 28.07 25.45 30.89 27.53 28.46 32.28 33.65 34.24 30.44 28.65 27.43 27.25 33.45 38.32 39.74 30.71 32.61 37.92
48.58 48.34 47.48 47.50 47.24 46.56 46.52 46.64 47.34 46.53 45.47 40.22 36.39 36.95 33.26 27.57 28.57 31.56 34.84 32.07 33.22 37.67 34.64 34.37 34.84 35.15 34.94 33.15 33.59 32.24 27.82 30.75 28.48 30.16 31.95 30.70 29.95 29.33 29.67 26.41 22.50 36.88 37.10 33.66 37.60 38.35 38.85
48.65 47.70 47.39 47.24 47.24 46.75 46.16 46.40 47.27 45.75 45.47 43.15 36.59 39.17 39.35 32.43 31.37 33.58 34.87 35.75 34.93 34.55 32.69 36.73 36.64 33.52 35.69 31.88 30.19 30.02 29.91 29.96 30.26 29.70 31.58 29.48 30.79 29.76 30.02 28.99 34.78 39.67 40.10 41.36 39.95 38.47 38.32

GFSGBSN_sfc_wetblb_030.txt.gz
Wetbulb
55.76 55.56 55.89 55.67 55.71 55.29 54.16 54.31 54.37 54.33 54.30 54.17 53.90 53.52 53.28 52.47 51.99 52.33 52.01 51.95 52.33 52.14 52.43 52.36 52.69 51.30 49.61 44.71 44.06 56.09 57.77 58.42 59.47 57.60 55.52 53.71 51.64 51.13 47.49 48.87 49.08 47.30 48.52 50.17 51.09 51.73 51.77
55.07 55.64 55.63 54.57 55.13 54.35 54.48 54.83 54.23 53.83 53.76 53.62 53.36 53.10 53.00 52.56 52.07 51.90 51.78 51.48 51.93 51.73 51.79 51.96 51.99 51.03 46.47 38.66 52.26 55.43 54.95 55.80 58.19 56.06 55.16 54.82 51.67 53.33 49.84 48.92 47.70 49.47 48.81 49.58 50.83 50.54 50.56
54.97 55.81 55.23 54.79 54.40 54.04 54.20 53.84 53.97 53.67 53.47 53.01 52.87 52.51 52.13 51.37 52.42 51.96 51.55 51.37 51.67 51.61 51.45 51.68 51.34 49.63 44.07 42.07 54.65 56.35 55.36 54.32 58.25 56.54 53.93 55.96 55.24 51.90 51.09 47.22 51.05 49.27 45.77 47.68 48.27 49.19 48.82
55.27 54.82 54.61 54.71 54.56 53.45 53.69 53.46 52.92 53.15 53.24 53.56 53.18 52.54 51.34 50.47 50.42 51.09 51.00 51.28 51.43 51.52 51.46 51.48 51.55 47.92 39.11 50.88 53.04 53.94 54.91 54.81 57.48 58.30 57.19 57.29 55.99 52.22 50.10 50.62 48.08 45.58 45.45 40.44 46.64 48.44 48.77
54.80 54.31 54.26 54.23 53.46 53.26 53.18 52.70 53.23 53.47 54.12 53.88 53.40 52.94 51.09 51.08 50.62 50.50 50.73 51.29 51.55 51.51 51.28 50.53 47.63 45.30 39.25 53.64 49.93 53.68 55.04 51.98 54.90 56.31 57.31 56.85 54.33 50.45 48.93 44.60 41.40 43.02 37.73 39.39 41.92 47.81 46.77
54.69 54.07 53.83 53.78 52.94 52.78 53.19 53.54 53.36 53.98 53.57 53.15 52.70 52.48 50.40 50.36 50.32 50.30 50.53 50.13 50.23 50.46 49.96 49.57 48.15 40.78 44.16 44.41 51.02 52.95 54.66 53.91 52.64 52.89 52.06 50.96 49.18 46.24 45.60 42.56 34.23 36.71 37.69 39.55 39.24 43.60 45.38
54.38 53.61 53.61 52.99 52.57 52.26 52.94 52.98 53.54 54.02 53.06 52.79 52.72 52.23 49.98 49.82 49.79 49.28 48.75 47.33 42.82 41.25 43.80 38.16 38.69 39.96 45.21 50.43 53.72 50.97 53.31 51.81 52.85 50.23 42.98 47.31 42.71 39.87 42.29 44.00 42.33 41.82 39.23 38.70 41.34 42.84 42.55
53.36 53.51 53.21 52.53 52.37 51.90 52.26 52.84 53.60 53.59 52.23 52.23 52.35 51.28 48.88 49.96 49.57 49.22 47.66 42.44 42.17 43.11 35.53 41.60 41.65 41.12 44.78 48.06 45.70 49.04 54.40 47.49 46.93 41.92 45.11 42.83 39.10 44.47 45.29 43.88 42.25 41.81 38.72 38.35 41.13 41.69 41.94
52.94 53.38 52.93 52.31 52.07 51.48 51.70 52.47 53.19 53.39 52.28 51.77 51.77 49.94 47.65 50.04 49.88 48.01 44.62 43.44 48.80 47.05 37.65 40.67 42.37 41.99 43.19 49.03 44.81 46.36 49.63 45.99 44.26 41.56 42.29 38.74 42.03 44.81 43.42 41.35 40.70 40.81 38.62 37.64 38.37 40.47 40.58
52.71 53.36 52.64 52.07 51.99 51.02 51.23 51.88 52.45 53.10 53.04 51.32 51.86 51.28 50.03 49.50 46.34 46.28 43.24 48.27 49.10 46.81 33.21 34.37 39.16 43.25 46.77 47.11 44.01 50.42 49.83 46.94 41.83 37.83 41.42 40.32 43.65 42.43 41.27 40.42 41.97 37.35 42.41 40.52 37.94 38.32 35.64
52.27 52.84 52.16 51.95 51.61 50.82 50.82 51.33 52.04 52.31 52.85 52.12 51.12 50.59 49.73 49.10 45.92 43.47 45.40 48.96 47.91 43.91 23.72 36.42 38.15 47.52 47.44 43.61 44.61 44.61 50.74 47.02 39.38 37.15 40.31 35.78 40.70 41.59 40.04 41.05 43.68 38.94 42.14 39.75 37.89 36.73 35.29
51.96 52.38 51.97 51.80 51.25 50.69 50.53 50.72 51.22 51.54 51.71 52.51 50.33 49.69 49.09 48.78 48.47 46.98 48.37 47.46 44.63 31.87 23.60 34.19 39.66 40.65 41.07 43.56 43.23 44.94 45.38 47.23 45.43 39.54 39.97 38.69 42.44 40.64 39.79 41.39 43.27 40.52 38.98 37.72 37.13 35.78 30.88
51.46 51.95 51.68 51.54 51.21 50.79 50.38 50.30 50.44 50.85 51.14 51.57 52.37 49.21 48.04 48.82 43.66 48.38 48.08 44.06 32.84 27.63 34.20 34.59 36.59 40.59 40.30 39.55 39.86 40.43 39.50 38.71 37.33 33.36 33.36 36.00 36.24 39.29 40.59 37.17 38.91 38.51 36.63 31.91 29.56 30.03 30.34
51.26 51.52 51.31 51.27 51.10 50.78 50.39 50.09 50.07 50.30 50.74 51.12 51.69 48.28 47.47 48.08 49.57 47.74 45.41 37.74 29.42 31.49 32.83 39.55 39.79 40.24 37.02 39.66 38.74 39.50 38.72 36.15 38.85 38.13 36.25 33.25 30.76 36.02 38.72 37.82 35.68 37.09 37.39 33.70 25.41 26.15 28.91
50.97 51.29 51.18 51.05 50.91 50.59 50.31 50.01 49.76 49.56 50.75 50.92 48.51 47.79 47.51 47.94 48.38 47.70 41.31 32.23 30.90 32.18 37.09 37.57 38.14 34.67 35.66 38.84 39.02 38.86 38.37 37.14 38.01 39.08 34.32 32.60 30.81 38.24 38.29 39.27 40.21 35.82 34.47 35.16 29.71 27.29 29.19
50.53 50.69 51.51 50.80 50.78 50.48 50.16 49.93 49.62 49.26 50.56 50.45 46.74 45.59 45.54 47.94 48.99 46.13 41.23 33.56 35.25 37.79 39.87 39.14 33.35 36.01 31.92 34.88 35.64 37.29 36.96 39.02 37.53 39.46 40.07 35.90 30.77 36.66 37.35 39.99 39.38 38.32 38.38 31.70 32.99 25.12 25.14
50.05 50.41 51.50 51.09 50.62 50.05 49.87 49.70 49.35 49.04 49.95 48.61 45.34 43.54 46.46 48.66 48.25 45.18 34.46 35.77 39.10 42.64 41.92 37.88 35.81 35.05 36.07 34.62 36.98 35.99 35.52 38.42 40.08 38.73 40.13 38.42 36.33 33.32 37.36 35.98 34.96 34.49 34.32 32.95 34.08 31.02 28.72
49.72 50.17 50.52 51.50 50.42 50.12 49.47 49.29 48.96 48.59 49.88 46.60 43.06 42.19 47.41 48.42 43.16 42.59 38.12 38.03 40.97 41.44 43.17 39.87 39.88 38.07 36.90 36.67 35.69 35.84 34.88 38.07 41.89 41.39 37.18 37.99 35.56 30.91 32.93 37.05 38.54 37.13 35.35 35.01 31.50 27.60 29.75
49.51 49.67 49.84 50.55 50.11 49.67 49.53 49.05 48.70 48.31 48.91 45.99 41.71 41.96 48.28 48.14 38.71 39.24 40.08 39.52 40.55 40.55 40.32 39.46 38.05 39.62 39.21 36.72 33.96 35.99 36.84 39.85 41.51 40.60 38.38 39.21 34.05 28.05 29.32 34.35 36.69 34.69 35.44 34.54 32.58 32.46 28.81
49.12 49.24 49.36 49.67 50.39 49.62 49.13 48.56 48.20 48.03 48.29 45.63 42.21 39.34 44.44 45.72 43.06 40.22 38.21 38.18 38.09 42.05 40.22 40.07 39.20 39.91 38.06 36.37 38.30 35.29 35.59 39.37 40.46 40.53 42.16 41.69 34.22 31.87 29.07 31.41 35.01 31.93 34.00 34.38 34.09 30.53 30.33
49.22 49.19 49.06 49.28 49.72 49.34 48.77 48.17 47.83 47.57 47.51 45.12 42.50 36.73 39.39 38.76 39.62 39.20 39.11 38.69 37.30 37.52 41.44 40.92 38.63 38.33 37.42 34.56 35.50 35.12 37.37 37.81 39.65 42.10 40.35 39.65 33.35 32.49 33.48 33.88 33.98 33.78 33.50 33.36 31.25 34.03 31.41
48.80 48.83 48.96 48.94 49.39 49.26 48.10 47.83 47.39 47.24 46.64 43.42 37.71 37.07 40.34 38.49 37.01 37.70 37.50 38.15 37.49 38.73 39.42 37.59 37.42 38.75 39.09 36.62 37.30 35.24 37.94 38.09 37.04 39.98 38.77 38.83 33.03 32.90 30.49 32.93 33.42 31.71 34.40 34.84 34.29 34.61 34.28
48.56 48.95 49.02 48.88 48.98 48.79 48.12 47.58 47.28 47.07 45.48 41.04 41.49 41.90 39.60 36.38 36.66 37.44 37.66 37.71 38.46 39.95 41.09 41.70 41.24 40.40 38.98 40.15 42.38 42.29 42.38 42.48 41.69 38.87 37.42 37.18 33.90 32.14 28.93 31.35 31.44 28.80 32.35 34.21 34.88 35.95 35.63
48.56 48.54 48.97 48.84 48.75 48.46 48.44 47.81 47.68 46.92 43.73 42.37 40.36 40.33 36.65 34.77 36.37 36.74 35.99 37.14 38.02 39.47 38.71 41.94 42.99 41.24 42.39 44.27 43.61 43.64 42.63 41.31 41.27 39.62 41.54 36.71 35.11 33.33 29.95 30.33 24.54 33.86 37.79 37.58 35.87 37.36 38.11
48.77 48.59 48.81 48.61 48.45 47.98 47.74 47.46 47.68 47.04 44.67 40.85 40.40 38.84 36.98 32.87 35.48 34.89 35.98 35.50 38.51 39.90 40.15 41.24 43.41 44.59 46.69 43.48 39.33 35.90 36.41 36.66 37.06 39.28 39.30 40.26 36.91 31.35 29.08 27.80 31.87 34.53 35.26 35.41 34.96 36.99 39.58
48.51 48.95 48.66 48.19 48.07 47.50 47.14 47.38 47.40 47.06 44.69 41.53 40.75 40.41 37.46 32.42 32.05 35.14 35.13 36.38 35.12 37.91 39.40 41.15 45.22 46.78 45.01 42.16 38.59 32.04 30.05 32.93 32.36 35.24 39.79 38.76 39.44 34.16 30.55 25.78 25.12 35.03 41.01 42.64 40.92 35.32 41.62
48.46 48.94 48.61 47.96 47.69 47.34 46.90 47.23 47.38 47.48 46.17 41.61 40.46 40.03 37.43 31.03 33.75 35.60 33.65 35.11 39.48 38.19 37.35 38.35 41.45 42.74 43.71 39.98 35.54 33.66 32.47 35.48 31.07 30.31 32.71 34.20 34.38 31.22 30.53 28.66 32.76 39.33 42.25 43.60 33.64 37.05 43.01
48.62 48.84 47.97 47.80 47.57 47.57 47.34 46.81 47.01 47.24 46.09 43.08 41.22 40.83 37.87 32.98 33.49 33.79 36.49 34.68 34.73 36.27 35.99 38.90 40.18 39.90 39.43 36.80 35.53 34.46 34.08 35.98 34.14 35.55 33.69 32.93 30.99 31.06 32.38 28.07 25.77 41.05 40.02 36.55 41.77 43.06 43.46
49.12 48.36 47.52 47.60 47.64 47.74 47.15 46.55 46.17 46.70 46.41 44.87 39.97 41.00 40.86 35.65 34.26 36.78 37.42 38.36 37.38 37.36 35.41 35.62 37.18 38.74 41.63 39.17 38.76 37.88 35.37 36.24 36.00 31.38 38.49 31.92 36.56 33.98 34.97 34.52 40.74 42.64 43.28 45.17 44.37 43.43 43.21

GFSGBSN_sfc_wetblb_033.txt.gz
Wetbulb
55.76 55.99 56.18 55.78 55.36 54.89 54.63 54.82 54.57 54.51 54.67 54.50 54.41 53.63 53.31 53.08 52.65 52.33 52.66 52.47 52.39 52.28 52.04 52.23 52.42 52.45 50.16 44.25 44.79 58.01 58.46 61.28 59.66 58.04 54.50 53.73 50.53 51.12 47.74 49.17 49.96 47.65 49.33 50.82 51.68 51.78 51.54
55.64 55.70 55.07 55.25 54.86 54.63 54.47 54.16 53.64 53.75 54.15 54.42 54.39 54.16 52.89 52.32 51.55 51.58 52.53 51.99 52.03 51.72 51.42 52.11 52.09 51.71 46.78 39.54 51.12 55.96 55.41 55.43 56.69 56.78 54.37 54.37 51.16 53.85 49.81 48.95 48.45 49.99 50.08 49.96 50.73 51.01 51.65
55.46 55.37 54.95 54.84 55.03 53.84 53.82 53.84 54.18 54.30 54.61 54.69 54.21 53.89 53.07 51.40 50.26 50.12 51.01 51.79 51.63 51.79 51.41 51.81 51.91 50.74 45.00 43.57 53.09 56.58 55.18 53.86 55.25 56.51 52.46 55.15 54.72 52.04 51.45 47.65 51.67 50.02 46.62 48.48 48.72 49.84 49.42
55.18 55.02 54.80 54.58 53.59 53.37 53.60 53.81 53.88 54.38 54.48 53.87 53.78 53.44 52.80 51.55 51.14 50.73 50.96 50.61 51.34 51.40 51.45 51.46 51.50 48.91 40.51 50.37 52.59 50.64 54.55 53.56 55.21 57.34 55.22 56.25 56.18 52.40 50.00 51.41 49.46 45.92 46.26 41.37 46.73 48.43 49.70
54.94 54.41 54.52 54.28 53.44 53.28 53.44 53.51 54.07 54.36 53.45 53.11 53.50 53.07 52.49 50.55 50.05 50.16 50.38 50.71 51.47 51.58 51.01 50.61 48.45 46.21 39.85 53.15 47.07 49.90 53.61 51.97 53.03 55.92 55.95 57.48 55.05 50.34 49.63 44.84 42.30 44.08 37.67 40.82 42.75 47.97 47.90
54.38 54.25 53.86 53.68 53.34 53.00 53.48 53.70 54.01 54.44 53.15 53.00 53.03 52.73 51.77 50.46 50.11 49.76 49.86 49.81 50.33 50.48 50.44 50.12 48.62 40.74 44.22 43.27 48.87 51.98 54.87 53.13 52.19 52.68 51.46 50.76 49.68 45.01 44.79 42.49 34.45 37.57 37.97 40.46 40.88 45.17 46.19
54.06 54.07 53.93 53.18 53.17 52.53 52.99 53.43 53.63 54.31 53.39 52.66 52.41 51.53 50.82 50.58 50.19 49.97 49.65 49.38 44.30 41.85 44.70 39.66 39.73 40.90 43.67 48.11 52.49 50.49 52.82 52.29 51.96 49.53 43.93 48.90 43.72 40.22 42.40 43.73 43.47 42.44 40.33 38.96 42.51 44.67 43.81
53.75 53.89 53.63 53.04 52.75 52.32 52.34 52.86 53.20 54.02 53.70 52.83 51.69 49.89 50.94 50.65 50.48 49.14 49.75 43.10 43.14 44.37 37.15 42.63 42.30 42.29 45.11 47.09 45.18 48.76 53.09 45.45 46.01 42.55 45.18 42.21 40.40 44.77 46.01 45.12 43.32 42.20 39.89 38.66 42.69 44.70 43.13
53.32 53.52 53.20 53.02 52.53 52.22 51.76 52.16 52.72 53.34 53.42 52.16 51.45 49.36 50.26 50.25 48.97 49.07 46.59 45.17 50.18 48.32 38.40 39.63 42.59 41.12 44.31 48.52 44.56 45.70 48.47 45.10 42.66 41.89 42.12 39.95 41.69 46.16 44.17 42.69 41.18 41.25 39.48 39.37 38.65 42.02 43.64
52.86 53.27 53.05 52.86 52.39 51.95 51.46 51.34 51.63 52.31 52.37 52.75 51.47 50.67 50.04 49.68 47.57 48.26 44.40 48.95 49.78 48.01 33.81 35.47 39.07 42.84 46.96 47.64 43.30 49.40 49.30 44.31 39.51 40.90 42.37 40.75 44.84 43.53 42.46 41.17 42.30 37.71 43.43 41.84 39.75 38.31 34.73
52.57 52.62 52.51 52.50 52.10 51.74 51.35 51.20 51.20 51.16 51.51 51.83 52.40 50.94 50.36 50.69 47.97 45.20 46.07 49.52 49.77 45.91 25.33 38.08 37.68 47.87 47.17 44.02 43.70 43.56 49.83 46.93 37.43 37.86 40.38 36.04 40.46 41.57 40.27 41.45 44.06 40.27 44.40 41.98 40.80 38.18 37.44
52.04 52.34 52.24 52.16 51.75 51.38 51.30 51.06 50.98 50.81 50.69 51.13 51.58 52.08 50.19 50.20 50.33 48.04 50.04 49.57 46.37 32.52 25.65 34.19 39.89 40.75 41.21 43.45 43.08 44.88 44.65 46.95 44.31 39.44 39.38 38.81 42.76 41.45 40.82 43.83 44.66 44.27 41.48 40.65 40.41 37.88 31.52
51.56 51.98 52.12 51.97 51.61 51.68 51.43 51.00 50.77 50.60 50.40 50.69 51.21 51.87 49.37 50.19 45.96 50.27 49.86 46.16 32.98 29.31 35.46 34.87 37.38 41.16 41.21 39.25 40.09 41.07 38.13 37.44 35.00 32.46 32.45 34.64 35.38 39.88 41.21 39.29 42.12 42.20 38.90 32.34 30.10 30.59 30.33
51.31 51.37 52.10 51.62 51.50 51.20 51.28 51.06 50.67 50.45 50.06 50.31 51.16 51.50 50.40 49.72 51.80 50.29 47.93 39.52 30.76 33.22 35.40 40.87 40.40 41.14 37.88 39.21 38.22 40.11 38.93 36.86 40.52 39.79 35.49 33.84 29.90 35.82 37.80 38.82 36.88 38.48 39.72 34.45 26.67 28.74 31.34
50.84 51.02 51.97 51.62 51.65 51.18 50.86 50.85 50.52 50.09 50.57 50.63 50.48 50.75 48.96 51.25 50.56 49.71 43.07 34.11 33.06 34.46 38.68 38.28 39.61 36.59 36.46 39.05 40.33 40.14 39.80 37.54 39.98 40.55 34.88 33.65 32.00 38.61 37.89 40.25 42.38 37.79 34.99 38.22 32.13 32.77 31.53
50.29 50.68 51.24 51.96 51.41 50.87 50.68 50.35 50.18 50.03 50.06 50.71 48.44 48.35 48.72 50.43 50.80 46.80 41.95 34.17 36.48 39.39 41.33 40.90 34.89 37.22 33.06 36.41 37.95 39.32 38.95 40.88 39.35 41.05 42.28 38.30 31.39 37.55 37.47 40.59 39.84 38.89 41.29 33.04 34.57 27.17 26.67
49.99 50.53 50.73 50.96 51.01 50.49 50.23 50.26 49.76 49.35 49.58 50.23 47.91 45.17 49.53 50.90 50.30 46.12 35.73 37.60 39.99 43.87 43.26 39.55 37.72 36.78 36.52 35.52 38.23 37.63 37.68 40.22 42.14 40.18 42.54 41.26 37.97 34.47 37.98 36.68 35.93 35.51 34.78 35.54 35.78 33.27 29.82
49.82 50.00 50.19 50.41 51.08 50.28 49.92 49.66 49.26 48.92 49.30 49.94 46.87 43.70 50.10 51.41 44.89 45.34 40.02 39.64 41.25 42.50 44.25 41.64 41.55 39.78 38.85 38.96 37.69 37.79 37.22 40.23 43.78 42.94 38.45 39.90 38.18 31.87 34.19 38.95 40.42 39.67 37.93 38.12 32.46 30.07 32.89
49.61 49.62 49.81 49.82 50.22 49.97 49.57 49.15 48.76 48.55 47.98 45.47 44.29 45.46 51.10 50.86 40.86 40.13 42.16 41.35 42.52 41.63 41.53 40.76 39.48 41.18 41.47 38.91 35.79 38.63 38.87 42.00 43.23 42.15 39.86 40.50 35.67 29.14 29.69 35.96 38.38 35.89 37.83 37.72 35.59 35.08 31.41
49.44 49.34 49.47 49.31 49.63 49.74 48.99 48.69 48.40 48.25 48.05 47.33 44.66 40.70 47.45 48.69 46.51 42.94 40.36 39.95 39.77 43.71 41.72 41.91 40.92 41.84 40.18 38.23 40.27 37.43 38.04 40.77 42.39 42.41 42.14 43.29 36.67 33.29 30.90 33.48 37.64 33.35 36.38 37.15 35.15 31.46 32.76
49.07 48.39 49.42 49.30 49.36 49.46 48.86 48.41 48.17 47.63 47.39 47.18 44.02 38.67 40.86 41.23 42.61 42.45 42.15 41.06 39.02 38.87 43.02 42.68 40.26 40.08 39.09 36.25 37.19 36.74 39.26 39.23 41.06 42.02 42.05 41.26 34.55 33.84 35.11 35.91 35.81 35.61 35.50 35.67 32.71 34.70 32.80
48.29 49.12 49.31 49.24 49.36 49.18 49.03 48.45 48.22 47.12 47.49 44.70 38.03 37.78 41.07 41.91 41.22 40.95 39.54 40.06 39.25 40.26 40.75 38.96 38.79 40.35 40.56 38.00 38.78 36.89 39.14 39.26 38.03 41.28 40.10 40.88 33.49 34.84 32.34 35.14 35.01 32.89 35.72 36.58 35.90 35.58 35.82
47.88 49.02 49.23 49.21 49.15 48.89 48.45 48.21 47.98 47.01 46.17 40.92 42.23 42.69 39.45 39.63 40.37 40.09 40.58 40.07 40.01 42.00 42.58 43.11 42.56 41.23 39.81 41.32 43.76 44.21 44.48 43.89 42.81 39.99 38.73 38.12 35.52 32.98 30.37 33.27 32.82 29.60 33.89 35.56 36.65 38.03 37.55
48.47 48.68 49.11 49.13 48.68 48.45 47.87 47.94 47.94 47.30 45.16 41.78 40.16 39.80 36.28 38.00 39.15 39.33 38.71 39.52 39.92 40.84 40.34 43.22 44.54 42.47 42.70 46.50 46.08 45.50 44.40 43.41 43.06 41.85 42.62 37.74 36.08 34.89 31.12 31.53 24.73 35.37 40.02 39.57 37.68 38.86 39.91
48.59 49.30 49.36 48.80 48.55 48.07 47.50 47.53 47.94 47.64 45.83 42.68 41.87 38.82 36.62 33.00 36.43 37.61 38.39 38.27 40.55 42.45 41.35 42.56 44.83 46.45 47.57 45.05 40.35 37.03 36.77 37.64 38.69 40.69 40.63 41.77 37.83 33.08 29.77 29.72 34.01 36.20 37.22 36.08 35.77 37.03 40.73
48.30 49.03 48.92 48.40 47.99 47.71 47.26 47.25 48.05 47.69 47.30 44.51 41.85 42.12 37.82 32.22 34.67 36.51 35.88 38.15 37.73 40.05 40.96 42.52 46.69 48.74 46.88 43.73 39.61 32.02 30.93 34.51 32.64 35.91 41.28 40.51 40.41 34.85 31.35 27.06 26.05 36.02 40.96 42.76 42.21 36.07 42.76
48.27 48.90 48.60 47.88 47.97 47.99 47.68 47.24 47.55 47.19 46.21 44.39 42.50 42.02 38.55 32.43 35.45 36.11 34.72 35.55 39.44 39.46 38.42 41.29 42.87 43.83 46.10 40.64 35.76 33.42 33.07 37.08 31.77 31.43 32.36 34.25 34.73 31.61 30.50 29.06 33.55 40.68 43.62 44.14 34.32 36.90 44.08
48.65 49.01 48.15 47.83 48.00 48.01 47.59 46.87 46.40 46.64 46.48 45.23 43.25 43.37 38.64 34.23 35.54 36.63 36.53 34.62 34.98 36.44 35.82 39.89 41.11 42.24 41.52 37.07 36.47 36.23 34.80 37.01 35.14 37.02 34.95 33.25 31.34 30.94 32.32 29.04 26.22 42.50 42.76 37.84 42.21 44.79 44.83
49.19 49.24 48.39 47.88 47.80 47.53 47.73 47.21 47.20 46.80 46.88 45.76 40.54 43.33 42.62 37.04 35.65 39.98 39.36 39.56 38.13 37.79 35.32 38.56 37.85 39.71 41.57 40.19 40.25 39.77 35.76 37.98 37.07 32.31 39.93 33.16 37.08 35.02 36.18 35.90 42.38 43.99 44.22 46.38 46.16 45.10 45.39

GFSGBSN_sfc_wetblb_036.txt.gz
Wetbulb
56.17 56.27 55.67 55.65 55.47 54.67 54.66 54.74 54.92 55.02 55.41 55.31 54.85 54.65 54.50 54.03 53.20 52.78 52.49 52.61 52.54 52.31 52.13 51.88 52.04 52.88 49.63 43.14 43.00 55.61 59.85 60.93 59.91 58.30 53.97 53.02 48.38 49.71 46.81 48.20 48.44 46.47 47.83 49.63 50.77 50.57 49.84
55.77 55.99 55.40 55.25 54.79 54.50 54.58 54.58 54.63 54.94 55.06 54.37 54.36 54.14 54.07 53.38 51.96 51.18 51.41 51.07 52.36 51.34 51.39 51.47 51.83 52.41 46.10 37.93 51.40 55.72 56.49 57.17 57.29 55.87 53.15 53.74 49.22 51.84 49.22 48.69 46.79 48.60 48.90 48.97 49.26 49.50 50.56
55.76 55.53 55.21 55.13 54.20 54.08 54.41 54.51 54.62 54.86 54.73 54.32 54.47 53.70 53.42 52.46 50.39 50.43 49.93 50.47 51.58 51.45 51.61 51.16 51.52 50.13 43.99 41.77 52.96 55.78 54.55 52.96 55.79 55.48 52.18 53.49 53.47 50.33 50.56 47.40 50.73 49.29 44.71 47.12 46.90 48.63 48.35
55.38 55.20 55.01 54.59 54.07 53.61 53.96 54.17 54.45 54.86 54.96 54.29 54.12 53.67 53.17 52.15 50.45 50.29 50.73 50.37 50.68 51.17 51.28 51.33 51.23 48.21 39.29 49.85 50.96 49.77 53.88 52.97 54.26 55.64 55.37 55.49 54.89 50.90 50.32 50.03 48.03 45.19 44.18 39.54 45.99 47.45 48.58
55.10 54.96 55.02 54.29 53.89 53.50 53.62 53.65 54.34 54.80 54.58 54.25 53.15 53.08 52.21 51.39 50.80 50.26 50.39 50.40 50.73 51.39 50.96 50.82 47.43 44.89 38.25 52.92 45.71 48.71 50.36 49.95 52.16 54.26 54.46 55.40 53.68 48.63 49.26 42.99 41.10 42.57 35.97 38.82 41.99 47.79 46.84
54.86 54.66 54.29 53.87 53.55 53.34 53.27 53.32 54.03 54.53 54.28 53.66 52.22 52.03 51.79 51.26 50.65 50.32 49.91 50.18 50.68 50.56 50.07 49.72 47.74 40.13 43.11 41.38 47.36 48.02 51.15 53.20 50.27 51.21 48.74 49.68 48.37 43.67 43.98 40.54 33.02 36.45 36.40 38.85 38.85 44.22 45.26
54.52 54.35 54.01 53.69 53.34 53.08 52.76 52.89 53.15 54.05 54.09 52.95 51.28 51.44 52.04 51.19 50.92 49.93 49.43 48.86 43.88 41.66 44.20 39.44 39.42 39.46 42.29 46.77 50.93 48.19 52.47 50.91 49.40 48.20 42.98 46.88 40.56 37.35 40.14 42.24 42.17 40.91 39.00 37.36 41.06 45.26 42.51
53.79 54.04 53.90 53.59 53.24 52.98 52.50 52.38 52.33 53.08 53.23 53.41 52.11 51.23 51.38 51.34 50.61 51.07 49.82 42.61 42.66 44.36 36.68 42.86 42.24 41.83 44.71 46.53 42.48 46.84 51.72 43.77 44.75 41.66 44.68 42.34 37.24 42.66 44.93 43.34 41.80 40.14 37.86 37.02 39.88 43.53 41.47
53.47 53.64 53.55 53.54 53.32 52.78 52.44 52.10 51.97 52.01 52.13 52.33 52.82 51.74 51.21 51.28 51.15 49.88 46.11 44.53 49.68 48.26 38.09 40.28 42.58 42.02 43.95 46.55 42.65 44.03 47.26 43.02 42.17 41.41 41.18 38.35 41.17 45.58 42.86 40.99 39.57 38.30 37.33 36.72 36.62 40.56 41.42
53.04 53.23 53.21 53.06 52.59 52.65 52.25 51.85 51.72 51.59 51.13 51.05 51.70 52.30 51.77 51.34 47.23 47.80 43.98 48.79 50.16 48.58 32.70 35.29 39.57 43.16 45.93 47.15 42.38 49.15 48.85 44.65 41.93 40.12 41.67 40.40 44.76 43.39 42.39 40.73 41.44 35.32 41.68 40.79 39.11 35.88 30.16
52.59 52.85 52.89 52.75 52.64 52.31 52.36 52.47 51.94 51.47 50.92 50.53 51.06 51.91 52.33 50.72 47.61 45.17 46.36 49.64 49.53 45.64 22.56 37.73 39.13 47.85 47.12 43.12 42.91 44.30 50.00 44.45 38.54 40.66 41.22 36.76 40.86 40.92 40.34 40.98 43.39 39.39 42.91 40.60 39.51 35.80 32.58
52.07 52.47 52.70 52.49 51.95 51.76 51.68 51.82 51.91 51.37 50.76 50.62 50.53 51.62 51.82 50.39 49.76 48.31 50.12 49.56 46.25 32.01 24.95 34.32 40.02 40.31 41.35 43.23 42.81 43.52 44.03 45.50 43.80 40.49 39.97 39.06 42.87 41.39 40.83 43.71 44.21 44.77 40.12 39.19 37.62 34.99 24.94
51.70 51.81 52.73 52.43 52.29 51.94 51.60 51.45 51.40 51.48 50.63 50.06 50.36 50.93 50.53 49.15 45.51 50.73 49.90 45.13 32.00 26.66 35.76 34.87 37.95 41.10 40.09 39.01 40.07 40.37 37.75 36.71 34.54 32.05 32.09 35.75 35.08 40.17 41.45 39.30 42.25 41.57 34.96 27.79 24.42 24.25 23.23
51.25 51.55 51.99 52.41 52.36 51.54 51.48 51.33 50.96 50.98 50.35 50.63 51.08 50.61 51.54 49.16 51.03 50.44 46.62 38.29 26.99 33.22 34.88 41.12 40.60 40.43 36.77 39.47 38.88 39.09 36.92 35.07 39.91 38.18 34.34 31.92 27.70 35.57 38.86 39.22 37.04 37.40 35.45 28.43 21.56 22.21 23.50
50.89 51.26 51.48 51.75 51.76 51.48 51.11 50.96 50.67 50.48 50.76 50.13 51.15 50.40 49.12 51.25 51.26 48.99 41.64 31.52 31.04 32.63 38.83 38.48 39.75 36.48 36.30 39.25 39.63 39.37 38.15 37.60 39.70 39.68 34.40 32.81 31.19 37.64 38.60 40.13 41.07 36.94 32.60 34.85 28.13 27.44 22.77
50.59 50.86 51.16 51.28 51.13 51.14 50.73 50.54 50.29 50.42 50.24 50.08 46.90 48.08 48.66 51.22 51.07 46.38 40.55 32.99 36.48 39.95 41.51 40.82 34.57 37.26 33.78 36.93 37.50 38.39 37.47 40.29 38.43 40.87 41.25 36.79 31.07 37.11 38.01 41.04 40.53 38.17 39.82 30.21 28.39 19.38 20.63
50.12 50.50 50.47 50.80 50.60 50.38 50.15 50.04 49.99 49.51 49.88 50.39 47.01 44.06 48.06 51.67 50.01 43.63 34.91 37.45 39.73 43.63 43.30 39.01 37.61 36.70 36.11 35.51 37.54 36.76 36.90 39.54 41.65 39.92 41.73 39.98 35.18 34.80 37.09 35.14 34.29 34.47 32.62 33.76 31.96 28.75 23.51
49.90 49.87 50.04 49.95 50.11 50.32 50.08 49.60 49.61 49.12 49.29 48.54 46.46 40.75 49.44 51.09 43.14 43.69 38.85 40.74 42.15 42.43 44.49 41.88 41.54 39.85 37.92 38.07 36.18 36.05 36.15 38.82 42.92 41.88 37.21 38.63 35.40 30.90 34.00 38.87 40.87 39.26 36.82 36.21 30.24 25.82 26.11
49.53 49.64 49.77 49.80 49.79 50.03 49.78 49.49 49.52 48.81 47.99 44.35 42.41 44.11 50.44 49.66 38.20 38.09 41.53 41.24 42.97 41.76 41.81 41.11 39.73 41.26 41.10 37.84 34.83 37.41 37.93 41.53 42.87 41.18 37.79 38.82 32.81 27.20 29.84 34.56 36.95 34.19 36.53 37.62 34.26 32.85 28.54
49.30 48.83 49.56 49.77 49.76 49.82 49.54 49.37 49.19 48.32 48.20 45.42 43.43 38.33 45.66 47.31 45.30 41.92 39.70 39.65 39.65 44.02 42.25 42.27 41.01 41.64 39.39 37.24 38.73 36.16 36.98 41.00 41.43 41.61 42.96 41.43 35.15 29.61 23.76 26.99 34.14 30.72 34.55 35.37 32.02 26.29 28.48
48.75 48.92 49.77 49.69 49.64 49.65 48.98 48.94 48.80 48.11 48.66 46.08 42.58 37.78 40.25 38.06 40.43 41.20 41.89 41.16 39.40 39.07 43.14 42.77 40.01 39.86 38.71 34.96 35.85 35.43 38.03 38.29 40.77 41.29 40.17 38.82 28.24 29.01 32.95 35.11 34.19 33.52 33.83 34.61 30.15 33.16 26.79
48.08 49.23 49.43 49.65 49.30 49.26 48.55 48.57 48.56 48.18 48.50 42.71 37.14 36.46 39.22 38.90 41.16 39.96 38.70 39.62 39.25 40.23 40.43 38.89 38.41 40.54 39.29 36.90 37.19 35.26 37.66 36.29 35.09 38.49 36.98 38.51 30.16 30.37 27.49 34.44 32.91 30.10 34.16 34.81 35.05 34.14 33.68
48.05 48.87 49.41 49.50 48.94 48.74 48.25 48.26 48.43 47.65 46.72 38.35 38.90 42.02 38.90 39.78 39.72 38.19 38.29 39.19 39.47 41.79 42.38 43.12 42.03 40.71 38.85 40.08 42.50 42.12 41.15 40.86 39.41 37.25 35.59 35.21 30.78 26.66 23.46 31.82 30.35 25.57 31.38 33.49 34.55 35.48 34.88
48.93 49.39 49.60 49.15 48.78 48.36 48.00 48.14 48.44 47.91 46.32 41.40 39.10 38.93 35.69 35.00 36.87 37.55 38.50 39.51 39.35 40.05 39.12 42.81 43.90 41.86 41.58 44.80 43.62 41.95 39.68 39.98 40.32 38.47 39.66 34.99 33.27 31.09 24.85 27.02 17.67 32.50 37.21 37.44 35.64 37.02 37.05
48.16 49.24 49.27 48.78 48.50 48.33 48.19 47.80 48.02 48.17 47.33 42.42 41.03 37.65 34.29 30.12 32.88 35.21 35.38 37.39 39.44 41.27 40.38 42.13 44.32 45.03 45.25 43.05 37.87 35.69 35.16 35.70 37.40 37.90 37.23 38.33 34.44 30.61 23.98 24.30 30.46 33.32 35.21 34.46 34.21 34.41 39.26
47.89 48.86 49.16 48.43 48.35 48.37 48.12 47.66 47.85 47.64 46.58 44.17 41.54 41.50 36.93 30.50 29.35 33.74 32.16 34.16 34.51 36.48 39.29 41.88 45.42 46.70 44.27 41.14 37.49 30.97 29.09 31.94 31.70 34.82 38.61 38.42 37.59 32.94 30.80 23.78 22.49 34.78 37.64 40.24 39.31 32.04 40.23
47.97 48.67 48.97 48.15 48.28 48.19 47.96 47.27 47.01 47.28 47.21 44.80 42.27 42.35 38.05 32.00 34.56 33.82 32.13 33.17 36.73 36.79 36.07 39.99 41.40 41.98 43.53 37.50 34.16 32.09 30.57 34.13 29.02 29.84 31.59 33.19 32.53 28.02 30.09 27.34 29.49 39.56 41.35 41.57 31.39 33.57 40.11
48.80 49.01 49.00 48.22 48.19 47.70 47.90 47.68 47.58 47.56 46.84 45.32 43.17 43.06 37.83 33.59 34.70 36.88 36.31 32.39 32.46 32.37 29.88 35.73 37.53 40.06 39.51 35.97 33.63 34.42 32.72 34.05 30.92 33.41 31.90 29.94 29.63 29.94 30.94 27.63 22.06 41.45 40.15 34.90 38.99 41.06 42.15
49.31 49.69 49.89 48.83 47.96 47.52 47.79 47.36 47.24 47.00 46.98 46.48 40.20 43.04 42.36 36.33 34.81 39.18 39.14 39.50 37.60 36.33 32.62 33.49 34.90 36.35 38.74 36.68 36.09 35.56 32.01 32.34 32.17 28.20 35.44 30.40 33.24 30.15 31.48 30.94 38.73 40.49 39.71 42.66 43.00 42.02 41.37

GFSGBSN_sfc_wetblb_039.txt.gz
Wetbulb
56.38 56.13 55.78 55.78 54.75 54.94 54.79 55.03 54.84 55.27 55.97 55.11 55.44 54.95 54.28 54.17 53.47 52.38 51.96 51.76 52.29 52.03 51.76 51.88 52.25 53.42 49.34 42.03 41.86 52.15 57.87 59.46 59.61 57.43 53.46 51.59 47.40 48.14 45.67 47.38 47.72 45.47 47.43 50.26 51.06 50.61 50.50
56.15 55.87 55.67 55.17 54.63 54.47 54.74 55.02 55.25 55.45 55.28 55.19 54.56 54.55 53.96 53.45 52.27 51.67 51.25 50.88 51.67 51.65 51.60 51.93 52.26 53.06 45.91 38.05 50.63 54.86 56.48 56.23 56.98 55.89 52.62 52.36 46.56 50.17 47.07 47.36 45.61 47.65 48.28 48.33 48.77 49.07 49.95
55.92 55.62 55.67 54.90 54.33 54.14 54.35 54.57 54.97 55.10 54.51 54.23 54.38 54.13 53.65 52.46 51.97 51.15 51.05 51.00 51.37 51.54 51.54 51.45 51.67 50.05 43.98 41.38 49.89 53.69 54.61 53.16 55.96 55.40 51.96 52.89 51.34 48.79 48.07 45.87 49.77 47.66 44.37 46.07 46.73 47.87 47.74
55.58 55.41 54.91 54.73 54.25 53.97 53.53 53.98 54.30 54.93 54.28 53.39 53.27 52.81 52.70 52.20 51.65 51.32 51.31 50.80 50.65 51.15 51.19 51.26 51.24 47.37 38.58 48.92 47.60 48.08 52.56 52.10 54.30 55.01 55.03 54.60 52.95 49.26 46.87 48.41 46.80 44.32 43.23 38.31 44.60 46.89 47.97
55.27 55.17 54.78 54.55 54.21 53.91 53.45 53.55 53.44 54.26 54.61 53.43 52.58 53.05 52.45 51.96 51.46 51.25 50.92 50.65 50.72 51.11 51.20 50.76 46.58 43.15 37.62 51.64 45.70 47.13 48.34 48.94 51.48 53.59 54.85 55.32 52.32 47.00 46.77 41.35 39.06 41.03 34.66 37.08 41.28 46.57 46.15
54.98 54.92 54.61 54.41 54.11 53.81 53.36 52.95 52.93 53.38 53.93 54.03 52.64 51.92 52.52 52.17 51.67 50.88 51.22 51.33 50.70 50.01 49.48 49.49 47.18 39.59 42.37 40.97 46.88 46.77 50.27 52.69 49.85 50.68 49.22 49.07 47.18 40.62 41.21 40.29 32.87 35.67 35.21 37.35 37.99 43.05 44.80
54.38 54.45 54.36 54.17 54.09 53.65 53.28 52.86 52.59 52.51 52.65 53.00 53.58 52.27 51.82 51.79 51.89 51.88 49.44 45.76 41.74 38.91 42.50 39.12 39.43 39.17 41.23 46.53 50.34 45.97 51.96 49.84 49.19 46.74 40.56 45.31 41.76 36.50 39.13 40.10 39.42 39.43 37.85 36.19 39.77 44.05 42.66
53.97 54.13 53.93 53.56 53.31 53.65 53.46 53.22 52.47 52.42 51.98 51.61 52.05 52.74 52.51 51.76 52.14 52.41 48.91 39.96 42.39 42.87 35.98 42.92 42.65 41.44 43.49 46.76 42.01 46.51 51.31 43.10 43.86 39.73 43.33 40.64 36.57 40.63 42.64 42.11 40.60 37.88 36.32 35.82 38.70 43.49 41.57
53.58 53.70 53.70 53.66 53.33 52.96 52.62 52.91 53.40 52.53 51.97 51.37 50.81 51.66 52.38 52.39 52.11 48.19 44.91 44.52 48.98 47.21 37.68 40.17 42.69 41.82 43.71 45.81 41.71 43.20 46.77 43.28 40.87 39.66 40.84 36.60 39.09 43.65 42.09 39.39 38.23 35.92 33.97 34.90 35.96 39.27 39.22
53.04 53.30 53.13 53.15 52.75 52.78 52.52 52.25 52.24 52.70 51.71 51.15 50.77 50.93 51.64 52.58 46.44 44.43 42.43 47.79 48.24 46.72 31.53 35.43 39.30 42.51 43.99 43.94 40.56 47.80 48.27 45.03 42.71 38.36 40.37 39.47 43.54 41.51 39.33 38.18 38.31 32.24 39.24 38.85 37.89 34.94 29.53
52.59 52.89 53.09 52.75 52.94 52.49 52.52 52.39 52.32 51.79 51.53 50.80 50.58 50.73 51.32 51.84 44.00 43.09 45.16 47.48 47.02 43.08 20.51 37.45 39.77 48.14 45.89 41.76 41.40 41.93 49.45 45.00 39.77 39.98 41.38 37.29 39.75 39.80 38.35 38.89 40.68 37.14 41.05 38.68 37.74 34.13 32.41
52.21 52.38 52.87 52.52 53.11 51.90 52.21 52.13 51.97 51.69 51.36 50.53 50.09 50.63 50.83 48.09 46.63 48.00 47.45 46.22 45.10 29.10 22.23 34.09 40.65 38.98 40.80 40.74 41.43 42.78 44.19 45.66 44.66 40.45 39.96 39.27 41.66 40.40 39.66 43.01 43.24 42.69 38.55 37.12 35.81 33.12 25.01
51.59 52.09 52.33 52.28 51.98 52.34 51.69 51.71 51.52 51.34 50.92 50.27 49.99 50.95 49.41 48.95 43.81 48.41 46.84 43.58 28.68 20.79 34.94 34.60 37.46 40.54 39.95 38.97 39.42 39.54 38.25 38.19 36.19 30.69 32.57 36.02 35.87 40.13 41.02 37.79 41.64 39.66 32.70 24.26 23.33 22.02 21.93
51.22 51.75 51.60 51.93 51.89 51.71 51.50 51.30 51.05 51.08 50.54 50.71 50.83 51.82 49.87 49.08 47.25 47.13 44.57 35.97 23.47 33.27 34.22 40.24 40.50 39.91 36.50 39.47 38.45 38.28 37.29 35.97 38.96 35.55 34.18 31.06 29.58 37.08 38.96 37.33 35.07 35.62 33.40 26.39 20.53 18.94 23.11
50.91 51.20 50.90 51.43 51.14 50.76 50.69 50.71 50.71 51.16 50.84 50.15 50.40 46.30 45.11 47.25 48.23 46.51 39.83 24.56 26.07 31.48 36.42 37.76 39.30 35.76 35.83 39.21 38.29 38.74 37.47 37.14 39.33 39.26 31.46 30.98 28.79 37.93 39.19 39.73 39.27 36.90 32.93 34.09 26.25 24.76 18.99
50.52 50.76 50.53 50.86 50.82 50.59 50.60 50.58 50.57 50.81 50.32 50.02 42.36 42.46 43.79 48.79 47.61 44.29 34.45 28.23 30.99 38.52 40.33 39.99 33.65 34.54 32.14 35.46 36.70 37.52 36.63 39.62 38.31 40.68 40.92 36.72 30.33 36.48 38.67 41.23 40.90 37.70 39.18 30.78 27.73 17.56 19.04
50.16 50.14 50.26 50.25 50.38 50.57 50.39 50.55 50.09 49.85 50.00 49.91 41.64 38.78 45.01 48.82 46.22 41.16 27.92 28.05 37.89 42.50 42.01 37.90 36.27 33.84 33.05 32.86 35.34 33.91 33.53 38.83 41.08 40.59 40.78 38.36 34.86 33.96 37.37 36.06 35.17 35.19 32.68 33.04 31.62 26.00 20.11
49.66 49.74 49.73 50.34 50.20 50.38 49.95 49.83 49.98 49.77 49.76 44.96 39.45 39.08 45.52 47.53 37.21 35.68 29.98 37.13 41.92 41.20 42.13 40.30 38.65 37.38 34.47 34.96 33.77 33.45 32.97 36.41 42.01 41.26 37.23 39.04 34.44 30.74 34.13 39.65 41.33 38.51 34.35 33.38 26.80 24.62 24.04
49.47 49.38 50.20 50.14 49.96 49.95 49.44 49.49 49.68 49.34 48.80 43.15 36.12 37.93 45.90 45.72 36.29 32.66 37.25 40.12 41.38 40.34 39.62 39.28 37.89 39.24 38.41 35.45 32.42 34.63 35.41 40.13 41.36 39.75 37.18 38.41 31.96 26.59 29.26 34.39 37.48 34.51 35.85 37.00 33.45 31.59 26.00
49.12 49.31 49.98 50.05 49.70 49.69 49.16 49.26 49.37 48.93 49.13 42.76 39.05 36.35 41.56 41.48 42.95 40.56 36.10 36.58 37.70 41.66 40.54 40.51 38.77 39.02 36.60 34.32 35.73 33.91 34.75 39.48 39.99 39.75 43.84 41.33 33.74 27.54 23.70 26.18 32.64 30.01 34.19 36.64 34.33 28.57 28.42
48.50 49.56 49.78 49.87 49.51 49.40 48.99 49.00 49.25 49.19 49.67 41.82 37.67 36.87 39.08 35.58 36.16 36.80 40.49 40.46 38.73 38.32 40.86 40.22 37.62 37.76 36.85 31.97 33.19 33.29 35.52 36.02 39.07 41.75 38.46 36.73 25.88 27.42 31.32 33.89 32.97 32.54 32.79 33.04 29.33 31.55 26.56
48.16 49.12 49.67 49.44 49.43 49.03 48.77 48.81 49.09 49.13 47.16 36.15 35.56 33.85 37.73 33.80 37.10 35.48 36.97 38.76 38.44 38.63 38.65 36.99 37.88 38.23 36.88 36.54 34.93 32.39 35.44 33.62 33.26 35.65 34.89 35.91 25.48 27.26 23.12 33.14 32.21 28.86 32.55 33.25 33.97 33.51 32.64
48.46 49.34 49.32 49.17 48.98 48.74 48.70 48.62 48.71 48.61 44.09 32.36 33.63 36.29 37.06 36.85 34.91 34.18 37.25 38.06 39.16 39.08 40.47 41.43 40.58 38.95 37.11 38.18 39.51 38.66 37.79 38.13 37.12 35.27 33.47 33.54 26.90 21.93 20.01 29.83 28.88 24.56 30.06 32.15 33.27 35.42 34.61
48.56 49.24 49.31 49.07 48.85 48.84 48.48 48.30 48.49 47.93 45.65 36.01 34.57 34.57 31.54 30.05 30.41 32.91 34.61 37.26 37.01 37.64 37.25 40.47 42.03 39.20 40.53 42.84 41.59 39.22 38.63 38.05 37.93 35.68 37.04 33.03 30.29 24.41 18.77 24.65 16.37 29.32 34.70 35.69 34.35 35.63 35.74
48.04 49.23 49.44 48.88 48.77 48.82 48.28 48.05 48.07 48.07 47.78 37.67 37.13 34.37 30.93 26.32 29.66 30.74 31.60 31.41 34.38 37.56 38.04 40.44 42.36 42.90 43.68 41.25 35.47 33.49 33.45 35.28 35.87 36.37 34.88 36.88 32.55 24.65 21.75 21.21 28.03 32.24 34.32 33.31 32.27 32.65 37.31
47.85 48.65 49.26 48.47 48.59 48.43 48.06 47.73 47.91 47.89 47.73 39.66 37.46 37.24 33.61 27.71 26.29 31.57 29.30 31.33 30.34 31.32 37.66 40.50 43.20 44.61 42.33 38.92 35.19 30.25 28.40 30.47 30.46 34.39 36.90 36.62 37.31 30.05 29.61 22.16 21.95 33.54 36.16 38.68 38.00 29.50 38.95
47.80 48.14 49.01 48.40 48.45 48.09 48.33 48.16 47.92 47.86 47.42 42.19 40.61 39.13 33.68 28.91 32.89 32.63 28.12 30.76 31.96 30.18 31.75 36.80 36.89 39.13 40.87 34.50 31.06 30.14 29.68 32.73 27.23 27.63 30.39 32.83 30.72 27.19 29.50 27.35 28.72 35.92 38.16 40.04 29.68 32.19 38.41
48.37 48.49 49.25 48.64 48.18 47.78 48.11 47.67 47.69 47.48 47.18 42.63 40.16 41.55 34.07 29.07 30.96 34.81 34.76 29.60 30.87 29.45 26.30 31.65 33.90 38.02 38.16 33.14 30.53 30.06 29.76 31.40 28.77 30.24 30.00 28.38 26.40 26.53 27.84 26.19 21.76 39.91 39.11 34.86 38.31 39.39 39.89
48.70 49.17 49.96 49.36 47.95 47.59 47.88 47.69 47.47 47.48 47.30 45.10 40.21 42.91 42.05 33.80 31.35 36.43 37.65 38.22 36.31 35.65 30.36 29.68 30.45 35.24 35.49 35.76 35.53 32.69 31.18 29.34 29.12 26.24 31.63 28.09 31.07 28.14 29.75 29.83 36.83 40.28 39.22 41.25 41.54 40.50 40.28

GFSGBSN_sfc_wetblb_042.txt.gz
Wetbulb
56.48 56.14 55.98 55.55 55.07 54.79 54.92 55.05 55.44 55.80 54.87 54.66 54.53 54.81 54.38 53.72 53.18 52.58 52.37 51.75 51.85 51.58 51.95 51.82 52.31 53.36 49.51 41.67 41.39 51.96 58.41 57.37 56.01 57.42 54.31 48.26 48.27 47.23 44.04 45.48 47.87 45.35 48.22 50.43 51.50 52.26 52.19
56.30 56.00 55.63 55.28 54.82 54.51 54.31 54.52 54.96 55.36 54.24 54.00 53.68 53.51 53.24 52.92 52.43 51.93 51.71 51.54 51.76 52.06 52.02 52.45 52.89 51.97 46.08 37.48 49.63 50.18 53.57 54.24 55.90 55.87 53.43 49.79 47.90 49.70 46.80 45.93 45.89 47.72 48.00 49.17 50.59 50.61 51.03
55.92 55.83 55.50 55.29 54.74 54.27 53.82 54.10 54.36 54.80 54.47 53.47 53.37 53.44 52.78 52.43 51.90 51.85 52.09 51.50 51.37 51.96 52.03 51.85 52.59 48.68 43.92 41.63 50.07 49.55 53.42 53.26 56.10 55.41 51.80 52.65 49.78 48.79 46.63 44.79 48.00 47.63 44.46 45.81 45.76 47.88 47.49
55.65 55.47 55.27 55.19 54.64 54.08 53.74 53.28 53.49 54.25 54.75 53.90 52.84 52.70 52.75 52.44 51.84 51.56 51.08 51.13 51.26 51.41 51.27 51.22 51.25 47.47 39.01 49.07 48.81 48.60 52.25 51.88 54.47 55.57 54.85 53.74 52.28 48.26 45.72 47.11 45.34 42.93 42.83 37.78 44.06 46.39 48.00
55.12 55.11 54.81 54.84 54.41 53.96 53.83 53.23 52.89 52.90 53.73 53.98 53.59 52.59 52.32 52.52 52.15 51.51 51.70 51.24 50.53 51.06 51.21 50.71 45.74 42.79 36.62 50.52 45.42 47.51 49.67 48.97 51.99 53.91 55.14 55.38 51.24 45.70 44.76 41.82 37.90 39.70 34.69 36.95 40.43 46.69 46.05
54.83 54.56 54.52 54.23 53.94 54.24 54.34 53.91 53.01 52.81 52.28 52.45 52.69 53.59 52.53 52.02 52.38 52.40 52.71 51.81 50.95 49.83 49.00 49.49 47.15 38.24 41.57 40.38 46.11 46.55 49.49 51.64 49.33 50.73 50.06 49.33 46.22 40.17 39.68 40.09 32.30 34.84 34.62 38.23 38.35 43.35 44.73
54.39 54.19 54.03 54.04 53.91 53.62 53.11 53.40 53.18 53.55 52.51 51.83 51.44 52.14 52.87 52.78 52.41 52.83 50.26 44.49 39.70 37.46 41.41 37.80 38.58 38.51 40.77 44.56 49.58 48.35 50.53 46.68 47.71 47.55 38.65 45.52 39.44 36.00 36.77 39.08 38.49 38.27 36.56 36.41 39.35 43.75 42.58
53.86 53.90 53.71 53.79 53.57 53.52 53.42 53.10 52.48 52.30 53.34 51.77 51.43 50.84 52.06 52.67 52.57 52.72 46.80 39.79 41.80 41.11 35.16 42.40 42.08 41.28 43.12 45.89 41.88 46.10 49.25 39.48 43.22 38.08 39.80 40.69 36.61 39.33 41.84 42.07 39.28 38.33 36.02 35.03 38.65 42.92 42.24
53.41 53.64 53.29 53.34 53.48 53.36 53.09 52.83 52.82 52.62 52.07 51.87 50.82 50.70 51.27 51.93 52.65 46.95 43.57 43.54 48.09 46.85 37.36 39.94 42.85 41.57 43.52 45.36 41.36 42.82 46.38 41.40 41.42 38.24 37.71 36.87 39.31 42.53 41.23 39.11 38.14 34.60 34.42 34.44 35.46 39.11 39.38
53.01 53.27 52.92 53.11 53.03 52.81 52.59 52.50 52.48 52.33 51.77 51.29 50.89 50.55 50.98 51.40 46.36 43.61 41.66 47.06 47.29 46.80 31.19 34.99 38.90 41.98 43.75 43.95 39.61 47.50 47.85 44.58 41.99 38.76 39.66 38.68 42.88 40.67 39.50 37.99 37.80 31.87 37.66 37.20 37.42 35.01 30.42
52.50 52.85 52.72 52.55 52.79 52.84 52.46 52.39 52.33 52.02 51.67 51.10 50.59 50.48 51.06 50.61 42.70 42.47 44.59 46.83 45.80 42.71 20.59 36.62 39.88 46.89 44.29 40.15 41.13 42.28 48.59 44.50 39.41 39.57 38.70 35.73 39.61 39.50 38.12 38.48 39.07 35.41 39.38 37.40 36.17 33.20 32.13
52.04 52.35 52.18 52.20 52.33 51.73 52.32 51.89 51.66 51.51 51.60 50.97 50.15 50.34 50.75 47.58 46.46 46.54 46.61 45.37 45.00 24.78 19.02 32.98 38.47 36.13 36.50 39.59 40.18 43.38 43.72 45.93 45.33 39.70 41.16 39.04 42.13 40.20 38.91 41.03 40.71 40.49 36.91 35.42 33.44 30.79 23.39
51.48 51.82 51.64 51.56 51.90 51.43 50.91 51.12 51.24 51.27 51.02 50.35 49.83 50.77 49.28 48.25 42.51 47.01 46.26 42.33 24.39 21.34 34.75 34.54 37.38 34.99 35.44 35.25 38.06 38.87 38.01 38.13 36.58 31.04 32.98 36.93 37.21 40.25 40.02 37.34 41.36 37.40 31.55 22.06 24.20 20.59 22.28
51.03 51.42 50.82 51.04 51.02 50.74 50.92 50.65 50.92 50.54 50.42 50.02 50.26 50.99 49.61 48.73 46.61 46.22 45.22 35.41 20.68 31.62 33.78 40.97 39.89 39.30 35.27 38.32 38.07 38.17 37.42 35.90 38.00 34.93 34.62 30.63 30.59 37.33 38.75 36.33 34.63 33.19 31.22 23.14 19.22 19.45 21.69
50.56 50.93 50.53 50.59 50.66 50.66 51.08 50.59 50.27 50.55 50.79 50.54 49.52 44.72 44.84 46.94 47.30 45.54 39.33 20.39 23.09 26.56 34.88 37.51 37.65 34.46 35.55 38.60 38.58 37.84 36.60 36.30 39.17 36.71 31.78 28.49 28.74 38.65 39.49 39.25 38.28 34.91 31.53 32.71 24.73 22.17 18.23
50.09 50.27 50.37 50.67 50.59 50.94 50.82 50.48 50.54 50.39 50.46 49.74 41.39 40.98 42.60 47.74 46.74 43.56 31.12 27.30 29.04 37.43 38.81 38.61 32.07 33.97 31.88 35.93 36.83 36.78 36.57 39.49 38.69 38.90 38.46 33.46 28.77 37.05 38.55 40.96 39.09 36.01 37.47 28.29 24.43 16.75 17.49
49.57 49.89 50.02 50.40 50.41 50.49 50.09 49.97 50.20 50.07 49.76 48.77 41.29 38.12 44.01 47.52 45.83 39.04 24.28 26.41 36.35 41.37 40.96 36.89 34.15 32.51 32.58 32.22 34.94 33.24 34.80 39.11 40.49 39.06 38.92 36.13 32.23 33.42 37.85 36.86 35.29 34.16 32.12 31.67 31.36 28.09 20.54
49.08 49.46 50.24 50.34 50.09 50.11 49.62 49.73 50.08 49.55 50.03 44.17 37.52 34.80 44.77 46.64 38.94 33.25 28.37 36.07 41.56 39.95 40.97 39.26 37.39 36.02 33.00 33.60 32.29 31.82 32.73 36.24 42.23 40.57 36.49 36.84 34.67 30.51 33.61 39.75 41.22 38.50 34.11 34.55 29.72 23.77 22.72
49.14 49.36 49.97 50.13 49.63 49.56 49.11 49.57 49.93 49.30 49.19 40.74 37.76 36.51 44.60 44.78 29.00 30.71 35.81 38.87 40.06 39.13 38.19 37.89 36.50 37.88 36.82 33.70 31.27 33.08 34.15 38.77 41.62 40.21 37.38 37.41 31.33 25.21 29.36 34.02 37.63 36.40 36.55 35.84 33.42 29.77 21.78
48.58 49.41 49.81 49.68 49.54 49.31 49.31 49.53 49.62 49.16 48.97 41.52 37.12 34.81 38.05 42.58 40.49 36.04 34.42 35.15 36.50 40.41 39.31 39.20 37.36 37.91 35.66 33.18 35.33 32.92 33.37 38.18 39.24 39.18 43.51 41.21 32.18 26.35 24.68 28.03 33.88 31.71 34.60 35.51 32.61 24.01 27.21
48.29 49.11 49.60 49.35 49.32 49.25 49.14 49.23 49.32 48.50 47.32 40.38 35.15 35.83 38.18 34.51 37.76 37.36 38.52 38.08 37.26 37.55 39.45 39.02 36.35 36.37 34.66 30.40 31.99 31.91 34.21 35.15 38.42 41.14 37.93 35.68 26.57 26.83 30.76 33.19 31.64 31.53 33.40 34.75 32.37 34.29 30.68
48.56 49.15 49.19 49.13 49.20 49.24 48.83 48.96 48.51 48.79 44.52 33.34 31.41 33.59 35.74 34.50 36.42 35.44 37.74 37.56 38.43 38.23 37.42 36.26 37.56 38.00 36.47 34.42 33.36 31.40 34.06 32.78 32.42 34.96 34.01 34.44 24.93 26.60 23.14 31.35 30.57 28.93 31.87 34.40 35.54 35.56 34.10
49.08 48.98 49.03 49.03 49.03 48.90 48.57 48.60 48.53 48.19 41.94 31.84 32.55 34.19 35.49 35.39 32.53 36.18 36.31 37.45 37.87 37.75 39.45 40.33 41.02 37.70 35.68 36.45 37.73 37.98 36.86 36.98 35.71 34.33 32.56 32.28 26.46 21.12 18.58 29.03 28.48 24.42 29.80 31.32 32.80 34.50 34.65
49.29 49.31 49.07 48.82 48.72 48.62 48.11 48.18 48.37 48.35 42.77 34.77 33.54 32.07 28.52 26.85 31.20 31.50 31.89 34.78 32.85 35.52 36.58 39.16 41.71 39.28 39.58 42.83 40.54 38.17 36.72 36.36 36.43 34.50 35.80 31.34 27.67 22.84 17.32 23.47 14.23 28.59 33.07 34.90 33.90 34.63 36.61
49.29 49.37 48.83 48.76 48.52 48.34 48.07 48.17 48.30 47.98 47.45 36.92 35.50 32.78 28.62 24.38 27.53 29.49 30.28 31.30 33.05 35.32 36.45 39.27 41.38 42.28 43.16 40.40 34.05 31.53 31.39 32.20 33.65 34.95 33.82 34.83 30.88 23.08 20.97 18.59 25.84 30.07 32.53 31.99 30.58 30.94 36.33
48.94 49.12 48.73 48.46 48.26 48.03 48.32 47.95 47.92 47.82 47.77 38.60 36.27 35.67 31.73 25.65 25.44 30.37 28.16 31.94 28.50 29.66 35.01 39.60 41.24 40.77 41.30 37.61 33.86 26.86 24.31 29.08 29.64 33.88 35.52 36.93 36.35 28.05 26.20 22.13 20.95 30.04 34.65 36.64 36.22 27.74 36.68
48.54 48.58 48.96 48.29 47.89 47.87 47.87 47.67 47.79 47.50 47.68 40.64 37.84 37.10 32.30 27.22 30.35 31.20 27.58 28.34 30.75 27.65 27.19 35.28 32.87 36.15 39.28 33.12 30.51 27.78 24.38 32.20 27.47 27.02 28.24 32.40 32.04 29.53 27.04 27.41 27.63 33.79 37.51 39.25 28.11 30.15 38.54
48.75 48.69 48.87 48.99 47.70 47.50 47.75 47.58 47.81 47.29 47.30 41.02 38.64 39.56 34.21 28.16 29.60 32.80 33.93 29.37 30.11 28.94 24.90 30.11 32.66 36.83 36.81 31.24 30.11 28.61 27.96 29.42 26.93 29.11 28.87 27.62 25.68 26.42 29.00 26.04 20.41 36.99 38.06 33.74 37.42 38.84 38.88
49.19 49.31 49.47 49.53 48.13 47.55 47.62 47.36 47.84 47.89 47.36 44.04 35.80 40.64 41.80 32.24 30.15 35.09 36.08 36.89 36.31 34.44 30.16 28.78 28.20 34.31 34.61 34.56 34.81 33.88 32.13 31.25 27.50 25.30 29.52 27.83 30.51 27.96 29.26 29.39 35.82 38.25 38.63 40.57 40.75 40.25 40.04

GFSGBSN_sfc_wetblb_045.txt.gz
Wetbulb
56.28 55.94 55.74 55.38 55.14 54.76 54.27 54.67 54.81 55.64 54.71 54.14 54.23 53.75 53.38 52.96 52.67 52.80 52.50 52.44 52.56 52.08 52.58 52.09 52.09 53.29 49.65 42.20 41.65 51.35 55.05 53.43 56.10 54.83 53.01 47.46 47.37 48.29 44.40 45.34 47.30 45.65 48.29 50.23 52.05 52.02 51.68
55.98 55.84 55.50 55.20 54.79 54.74 54.26 53.75 54.06 54.85 55.59 54.24 53.67 53.77 53.10 52.73 52.38 52.37 52.53 52.04 52.10 52.22 52.12 52.28 52.37 51.81 45.86 37.32 49.56 50.34 49.10 52.83 53.84 53.30 52.84 48.39 48.08 50.47 46.50 44.99 45.79 47.40 48.94 49.43 50.52 50.18 50.86
55.77 55.49 55.33 54.90 54.67 54.34 54.32 53.74 53.15 53.36 54.36 54.83 53.75 53.06 53.25 52.96 52.39 52.14 51.80 52.10 51.73 51.85 52.00 52.00 51.11 48.31 43.61 41.23 49.75 48.95 50.20 53.19 53.77 54.09 51.82 51.35 50.55 48.15 46.08 43.81 47.42 47.05 45.30 47.55 48.73 49.43 49.25
55.56 55.17 54.87 54.84 54.35 54.42 54.23 54.41 53.37 52.83 53.03 53.88 53.82 53.51 52.64 52.75 52.60 52.08 52.21 51.73 51.51 51.70 51.28 51.07 51.30 48.18 38.72 49.21 49.11 48.34 51.16 52.48 55.83 56.13 54.89 54.54 51.24 48.07 45.06 45.90 44.72 41.88 43.71 39.30 45.34 48.17 48.82
55.33 54.83 54.64 54.56 54.27 53.91 53.45 53.44 53.97 54.01 52.87 52.53 52.22 53.08 53.52 52.52 52.52 52.45 52.84 52.43 51.51 51.56 51.59 50.62 44.38 41.98 35.74 49.88 45.46 47.54 47.80 49.55 52.62 53.85 54.91 54.97 50.60 45.16 43.66 39.95 36.76 37.30 33.56 35.99 40.12 46.97 46.37
55.02 54.55 54.21 54.29 53.89 53.94 53.87 53.08 52.73 52.87 53.97 52.46 51.86 51.40 52.18 53.02 52.74 52.78 53.07 51.54 51.37 50.02 48.56 49.08 46.73 36.76 40.41 39.47 45.00 47.80 49.70 50.32 49.40 50.02 50.01 48.60 45.39 39.47 38.15 37.35 31.57 33.79 31.94 36.82 37.63 43.04 45.11
54.62 54.31 54.24 53.82 53.63 53.44 53.97 53.83 53.36 53.34 52.60 53.09 51.88 50.91 51.24 52.10 52.80 52.88 48.85 43.16 39.30 36.13 40.86 36.57 37.62 37.47 39.79 43.59 48.56 48.31 48.61 47.45 47.27 47.05 39.88 45.42 38.11 36.03 35.97 37.40 36.78 37.24 34.89 34.97 38.67 43.75 42.54
54.03 53.93 53.81 53.14 53.51 53.83 53.60 53.42 53.37 52.63 52.53 52.30 52.06 50.82 50.95 51.54 52.08 52.90 45.24 38.55 41.39 40.07 34.19 41.71 41.09 40.82 42.92 45.83 41.44 45.11 46.75 41.69 42.15 37.97 39.05 38.86 35.44 39.05 41.39 41.56 38.26 37.66 34.15 33.44 38.14 42.64 42.67
53.45 53.43 53.42 53.01 53.12 53.56 52.77 53.16 52.95 52.60 52.09 51.61 51.43 50.83 50.45 51.18 51.78 46.53 42.35 42.47 47.29 45.87 37.14 39.17 42.15 41.16 42.91 44.72 40.86 42.13 43.83 40.67 39.88 37.56 37.39 35.01 39.13 41.51 40.83 39.44 37.50 33.55 33.82 32.74 34.42 38.79 39.18
52.92 52.98 52.69 52.55 52.69 52.87 52.57 52.58 52.17 51.89 51.57 51.35 51.03 50.46 50.19 51.17 45.88 42.78 40.90 46.19 46.67 45.68 28.49 34.73 38.42 41.05 43.82 43.32 39.01 47.17 46.41 42.42 41.88 37.19 37.83 35.46 42.59 39.99 38.49 38.33 37.65 31.22 36.40 36.56 36.30 34.44 30.67
52.17 52.36 52.36 52.19 52.41 52.39 52.24 51.20 51.76 51.40 51.34 51.23 50.75 50.34 50.30 50.74 42.10 41.76 43.73 46.13 44.99 42.54 20.57 36.92 39.17 46.19 43.34 40.45 40.57 41.90 48.46 43.91 38.95 38.84 38.96 35.39 38.49 37.77 36.67 37.55 38.90 35.08 37.73 35.86 35.04 31.97 31.17
51.49 51.78 51.58 51.67 51.76 51.83 51.20 51.31 51.00 51.48 50.70 50.65 50.28 50.02 50.41 47.50 47.69 45.72 45.77 45.01 44.82 22.87 15.12 31.86 38.08 36.91 36.60 39.85 39.87 43.00 42.85 46.36 45.20 40.03 40.62 39.01 41.71 40.78 37.98 39.73 40.12 39.46 36.07 34.18 32.25 29.99 24.22
50.96 51.22 51.11 51.06 51.32 50.98 50.78 51.11 50.66 50.64 50.82 50.50 50.27 50.66 49.19 47.69 41.55 46.89 46.73 41.59 25.43 18.46 33.90 32.83 34.13 35.95 35.75 35.70 37.16 39.17 37.36 37.61 35.41 31.73 32.32 37.23 37.91 40.50 39.90 36.88 38.57 38.60 31.75 27.65 23.59 20.37 20.97
50.47 50.82 50.70 50.73 50.79 51.08 51.11 50.76 50.44 50.68 50.51 50.15 50.37 50.78 49.34 47.87 46.04 45.65 44.04 33.34 16.63 30.16 34.15 40.32 36.31 35.52 33.61 36.32 35.59 35.90 35.38 34.58 38.65 35.66 34.05 31.80 29.38 36.87 38.72 35.87 33.90 32.94 31.44 23.35 19.79 19.67 21.66
50.04 50.25 50.43 50.57 50.67 50.96 50.95 50.13 50.22 50.21 50.70 50.70 48.70 43.76 44.54 46.51 46.40 45.51 38.33 17.14 22.06 24.91 33.94 36.71 35.85 33.17 34.77 37.74 35.84 35.91 34.33 35.37 37.89 37.46 31.87 28.35 31.27 39.10 38.63 39.85 37.29 34.51 27.58 30.92 23.34 20.04 17.69
49.73 49.65 49.96 50.37 50.73 50.69 50.20 49.87 50.01 50.22 50.43 50.06 40.55 40.62 42.03 47.15 47.89 44.64 30.91 26.56 27.88 35.93 37.72 37.67 31.23 34.21 32.94 34.72 34.37 35.96 35.22 38.25 38.04 39.35 37.87 32.93 28.85 37.42 38.94 40.24 38.81 34.74 35.69 26.97 22.55 13.87 16.91
49.48 49.08 50.01 50.48 50.16 50.14 49.53 49.84 50.12 50.22 49.87 48.45 40.21 38.32 43.23 46.44 47.22 39.92 22.94 26.33 35.05 40.19 39.98 35.90 33.06 31.55 32.44 34.75 36.54 34.51 35.21 38.90 41.36 38.64 38.43 34.92 31.18 33.37 38.24 36.76 33.66 32.84 30.92 29.95 29.49 24.32 18.47
49.25 48.90 49.97 50.19 49.67 49.74 49.78 49.91 49.98 50.16 49.61 43.15 37.04 33.45 44.02 45.57 39.41 36.60 26.25 34.70 41.10 38.82 39.92 38.35 36.19 35.06 32.08 33.37 32.88 32.46 34.02 35.57 42.09 39.74 34.81 35.65 32.92 29.19 33.85 39.68 41.17 37.20 32.60 31.95 24.31 21.65 21.50
49.15 49.02 49.77 49.57 49.50 49.49 49.39 49.58 49.93 49.49 48.94 39.39 36.84 35.87 44.52 45.78 28.50 29.73 34.83 37.88 39.01 38.22 37.44 36.85 35.51 36.79 35.63 32.05 30.62 32.16 33.96 38.84 42.06 39.58 36.11 36.43 29.27 27.98 29.75 35.60 37.98 36.11 35.71 34.07 31.78 28.17 21.98
48.85 49.09 49.44 49.28 49.28 49.15 49.14 49.49 49.46 49.00 48.08 40.54 35.59 30.58 36.23 42.43 38.49 33.73 33.52 34.50 35.64 39.73 38.28 38.31 36.27 36.68 34.02 31.85 34.27 31.69 32.58 37.37 40.22 40.71 43.70 40.77 31.92 26.91 23.67 26.46 34.13 32.99 35.61 35.25 32.02 25.38 28.07
49.22 49.21 49.04 49.02 49.35 49.03 49.05 49.15 49.21 48.57 46.14 38.77 34.05 33.12 34.93 28.92 35.82 36.76 35.90 37.10 36.21 36.58 38.38 38.27 35.57 35.70 33.38 29.30 30.99 31.46 33.48 34.46 37.52 40.86 37.71 36.49 29.80 27.59 30.75 33.30 32.19 31.15 33.35 35.38 31.93 34.04 28.27
49.34 49.14 48.94 48.89 49.18 48.84 48.72 48.85 48.89 49.22 43.35 33.11 30.10 30.69 33.98 33.12 35.68 36.12 37.54 36.90 36.95 38.42 36.84 35.61 36.23 36.58 35.32 32.89 32.14 31.27 33.22 32.03 32.44 33.93 33.64 33.58 25.27 26.20 22.79 30.56 31.03 29.18 31.21 34.18 34.97 35.09 34.45
49.59 49.14 48.84 48.62 48.81 48.59 48.56 48.73 48.59 48.36 41.29 31.10 31.12 33.18 33.74 32.19 32.57 35.92 32.66 36.15 35.70 38.04 38.78 39.78 40.35 36.14 34.39 35.34 36.72 36.79 36.05 35.65 35.11 33.68 32.01 31.15 26.25 21.79 19.07 27.46 27.60 23.73 28.75 30.46 33.14 36.10 35.60
49.68 49.27 48.70 48.53 48.41 48.31 48.35 48.37 48.34 48.36 42.11 33.83 32.47 30.71 28.44 25.46 31.36 29.88 30.36 32.60 32.52 33.73 36.30 37.68 41.31 37.66 38.97 42.59 39.61 37.10 35.84 34.80 35.40 32.99 34.96 29.59 26.49 21.92 17.14 23.22 15.01 28.03 31.64 33.36 32.63 34.53 36.84
49.92 49.34 48.84 48.44 48.23 48.41 48.27 48.06 48.05 48.33 46.37 36.17 34.11 31.18 27.64 23.58 25.49 27.72 30.42 31.51 33.44 34.32 36.04 39.32 40.31 40.32 41.95 38.90 33.26 30.67 30.14 31.34 32.45 33.62 33.21 33.43 29.31 22.58 19.02 18.99 24.83 28.97 30.98 30.77 29.66 30.47 35.19
49.98 49.26 48.80 48.39 47.99 48.10 47.74 47.85 47.96 48.02 47.40 37.49 35.07 34.28 30.32 25.72 25.12 29.61 27.20 29.85 26.99 27.98 33.89 36.16 38.25 36.41 40.20 36.89 32.83 25.20 23.67 26.73 27.05 32.45 35.94 36.62 35.63 27.35 25.13 20.72 18.92 27.62 34.92 34.96 34.11 26.45 34.82
49.75 49.68 48.94 48.39 47.78 47.75 47.51 47.69 47.77 47.63 47.17 39.37 36.69 35.54 31.18 27.26 29.07 29.68 26.04 25.87 28.40 27.57 28.64 32.94 31.58 34.12 37.75 32.33 30.79 27.39 24.26 30.10 26.25 26.27 27.69 31.34 31.82 27.76 28.48 27.20 27.16 32.41 34.69 36.83 25.16 28.05 37.65
49.14 49.40 49.59 48.65 47.71 47.72 47.45 47.63 47.85 47.68 47.23 39.94 37.36 38.36 32.72 27.86 28.78 32.26 32.81 28.36 28.37 27.53 26.03 29.39 31.25 32.27 34.67 30.08 29.51 28.35 27.27 27.93 25.35 27.85 28.28 28.06 25.27 26.28 28.92 27.26 21.53 34.75 36.34 31.83 35.26 38.03 39.06
49.19 49.48 49.81 49.53 47.95 47.76 47.25 47.41 47.59 47.13 46.43 42.24 34.17 39.04 40.17 30.98 29.82 33.95 34.78 35.51 34.15 32.92 29.55 28.53 27.02 33.71 33.40 32.83 32.43 33.78 30.53 30.53 26.04 24.38 28.29 26.89 29.88 27.70 29.22 28.77 35.73 36.72 38.37 39.66 39.80 38.86 39.85

GFSGBSN_sfc_wetblb_048.txt.gz
Wetbulb
56.44 56.19 55.80 55.60 55.31 55.03 54.83 54.51 53.45 53.71 54.99 55.58 54.20 53.48 53.47 53.20 52.94 52.86 53.04 52.88 52.92 53.12 53.09 52.56 52.36 53.06 49.07 42.48 42.37 51.16 54.72 52.68 52.96 54.07 52.16 49.52 45.56 43.79 43.16 46.85 47.97 46.10 47.45 49.59 51.07 50.79 51.16
56.43 55.92 55.53 55.36 55.07 55.08 54.51 54.46 53.80 53.20 53.34 54.51 54.84 53.45 52.90 52.78 52.92 52.53 52.26 52.44 52.59 52.87 52.70 52.33 52.12 51.74 46.21 37.17 49.18 51.16 50.36 51.43 52.22 52.66 51.43 50.01 46.47 47.84 45.37 46.95 47.15 48.30 47.89 49.54 50.66 50.53 50.97
55.90 55.67 55.57 55.09 54.66 54.07 54.10 54.27 54.66 54.44 53.61 52.89 53.89 54.18 53.57 52.77 52.98 52.55 52.66 52.06 52.23 52.24 52.43 52.22 51.28 48.68 43.71 41.41 49.80 49.32 49.02 51.77 53.69 52.38 51.05 50.11 50.32 47.11 45.42 45.24 48.14 48.11 45.83 47.63 48.42 48.97 48.56
55.60 55.54 55.12 54.77 54.39 54.65 54.34 53.84 53.20 53.52 53.95 53.68 52.26 52.72 53.32 53.73 52.60 52.73 52.91 53.27 51.45 51.37 51.95 51.43 51.60 46.15 38.74 48.81 48.55 49.06 49.32 52.15 54.07 53.91 53.78 53.80 51.76 48.16 44.40 45.75 44.25 43.61 45.13 41.15 46.66 47.69 49.26
55.23 55.42 54.89 54.35 54.32 53.94 54.43 54.45 53.97 53.55 53.83 53.20 52.96 51.50 51.89 52.59 53.25 52.63 53.12 53.33 51.49 50.92 51.65 50.93 43.46 41.05 34.61 49.64 45.47 48.24 48.40 49.72 53.21 53.46 54.35 55.06 50.74 45.35 43.24 40.01 36.21 37.11 33.53 37.30 42.20 47.38 47.23
54.91 55.07 54.56 54.32 54.04 54.09 54.47 54.18 54.20 53.80 53.48 53.30 52.74 52.08 51.05 52.00 52.58 52.98 53.06 51.88 51.48 49.35 47.99 48.28 46.40 35.68 39.62 38.69 44.69 47.19 50.20 50.76 49.25 49.68 48.14 49.09 46.66 40.57 37.80 37.50 30.74 32.63 30.78 34.95 37.30 44.22 45.51
54.70 54.68 54.35 53.83 53.55 53.85 54.27 54.14 53.91 53.70 53.45 52.85 52.02 51.88 50.72 51.46 51.68 52.56 48.80 42.07 38.11 35.13 39.47 35.73 37.02 36.69 39.33 43.57 49.06 46.39 47.36 47.62 48.23 45.66 37.77 42.44 38.60 35.36 35.56 36.87 35.51 35.93 34.07 34.04 37.29 44.04 42.73
54.38 54.24 54.05 53.60 53.45 53.74 53.40 53.08 53.54 53.30 52.99 52.42 51.59 51.56 50.60 50.83 51.34 52.19 44.11 37.97 39.60 39.14 32.93 40.83 40.33 40.14 42.43 45.51 40.28 44.28 46.37 42.69 42.65 37.41 36.34 37.00 34.41 38.41 40.73 39.91 37.57 36.30 33.18 32.53 36.86 42.43 42.18
53.93 53.81 53.66 53.19 52.85 52.96 53.34 52.83 52.58 52.62 52.37 52.16 51.86 51.22 50.06 50.80 51.03 46.17 41.22 40.81 46.52 44.76 35.47 38.16 41.10 40.93 42.32 44.12 40.17 41.60 43.39 41.82 38.20 35.66 33.60 36.20 37.46 41.55 40.72 38.95 35.70 32.51 33.08 32.32 34.23 38.07 39.24
53.44 53.08 53.24 52.26 52.41 52.75 52.33 52.18 51.89 52.18 51.98 51.74 51.13 50.63 50.21 50.90 45.36 42.18 40.20 45.64 45.87 44.58 29.96 33.59 37.78 39.92 43.19 42.50 38.27 46.21 45.82 43.65 40.82 34.97 36.89 37.10 41.33 39.52 38.50 37.81 36.67 31.31 36.48 36.04 35.66 34.50 29.89
52.85 52.40 52.45 51.86 51.92 52.24 51.57 51.50 51.81 51.53 51.28 50.97 50.54 50.41 49.69 50.90 41.56 40.99 42.92 45.63 44.32 41.19 20.25 36.18 38.24 45.49 43.17 39.63 39.21 41.46 46.57 43.89 36.88 37.86 37.76 34.56 39.04 37.36 36.47 37.98 39.91 34.22 37.46 35.32 34.34 31.10 30.69
52.29 51.84 51.90 50.96 51.46 51.53 51.01 51.58 51.69 51.27 51.17 50.61 50.24 50.21 50.12 47.91 47.66 44.97 45.16 44.55 44.07 21.98 19.88 32.45 37.52 36.77 35.88 38.83 39.24 42.25 42.29 46.06 45.00 39.82 39.91 39.19 42.35 39.35 37.89 38.79 39.41 38.14 34.85 33.57 32.50 29.49 22.29
51.54 51.26 51.11 50.70 51.20 51.10 51.13 51.12 50.72 50.90 50.54 50.01 50.06 50.99 49.35 47.28 41.46 46.03 46.06 40.81 24.76 18.79 34.06 32.13 33.73 35.60 34.54 34.74 36.55 38.53 37.51 35.88 35.48 30.98 32.04 36.59 37.85 39.18 39.10 36.06 37.39 35.23 30.76 21.81 20.16 19.06 20.36
51.29 50.74 50.54 50.73 50.90 50.86 50.77 50.55 50.28 50.51 50.17 49.85 50.18 49.81 49.08 46.66 45.20 45.07 42.77 31.10 17.26 28.81 33.61 37.28 35.20 35.32 32.23 35.23 35.17 35.43 34.24 34.09 38.16 36.86 32.30 32.23 28.02 36.87 38.19 34.91 32.66 32.59 31.50 23.09 19.12 19.33 21.27
50.93 50.19 49.89 50.33 50.61 50.34 50.18 50.00 50.05 50.45 50.12 50.19 48.09 43.19 43.89 47.22 47.03 46.57 37.79 16.79 20.48 22.78 34.67 36.37 35.41 33.28 31.82 35.90 34.81 34.38 33.81 34.39 37.82 37.78 31.45 31.29 31.08 38.99 38.55 38.70 36.37 32.55 26.60 30.02 22.09 18.43 16.50
50.61 49.68 49.30 50.15 50.36 50.13 49.89 49.94 50.04 50.37 49.98 49.40 40.31 39.90 41.46 46.42 48.00 44.54 33.58 26.53 27.99 34.47 36.98 37.94 33.09 35.45 31.52 33.81 31.35 32.50 32.60 37.87 38.08 38.40 36.39 31.97 30.45 37.93 39.07 39.32 38.13 34.00 35.10 29.37 23.55 14.20 16.70
50.55 49.19 49.43 50.11 49.69 49.68 49.51 49.94 50.34 50.14 49.61 47.83 39.78 39.96 42.81 47.15 46.99 39.61 22.58 27.88 33.61 38.92 39.15 35.27 33.57 32.42 34.94 33.47 34.30 33.62 31.98 37.58 39.51 37.78 36.72 33.30 32.03 34.23 38.48 35.19 33.07 32.94 28.70 28.93 28.55 23.77 18.19
50.22 49.13 49.27 49.45 49.27 49.43 49.55 49.92 50.04 49.69 48.81 43.03 36.84 36.01 43.33 46.94 38.93 36.83 25.38 33.02 40.61 37.95 38.98 37.27 35.98 35.11 33.51 35.57 33.55 30.91 32.01 34.71 41.01 39.77 34.34 35.13 31.94 30.34 34.47 39.30 38.69 34.02 30.84 30.54 23.25 20.79 20.90
50.01 49.58 49.11 48.76 48.97 49.06 49.39 49.65 49.74 48.96 47.86 39.03 34.68 38.05 45.76 45.82 33.33 28.83 33.21 36.42 38.07 36.92 36.72 35.99 34.96 35.92 34.66 31.70 30.61 32.72 33.00 37.63 41.20 38.52 35.66 36.59 31.21 27.29 28.22 34.72 36.43 36.01 36.00 33.30 30.50 26.64 20.96
49.92 49.74 48.88 48.45 49.00 48.86 49.16 49.37 49.35 48.17 48.01 40.16 34.01 29.54 36.89 42.51 39.97 32.07 31.28 33.56 34.53 38.49 37.15 37.22 35.40 35.79 33.16 32.06 33.20 30.80 32.62 39.09 41.33 40.71 43.55 40.11 30.77 26.54 23.50 25.64 31.65 31.06 34.69 35.39 32.25 29.50 30.03
50.02 49.69 48.90 48.64 48.81 48.69 49.04 49.06 48.96 47.21 46.74 38.31 32.67 31.84 33.16 27.55 33.40 33.31 34.27 35.52 34.74 35.64 37.39 37.73 35.23 34.82 32.25 28.72 30.16 30.29 32.63 34.37 38.87 42.54 39.19 36.20 25.78 25.93 29.55 31.44 32.05 30.88 31.34 34.27 33.35 33.38 29.59
50.07 49.56 48.96 48.77 48.40 48.53 48.79 48.71 48.65 46.63 43.19 32.67 29.97 30.07 32.78 30.86 32.24 31.26 33.79 34.46 35.15 37.06 36.65 35.07 35.84 35.71 34.47 31.89 31.06 30.33 32.68 30.64 31.93 33.10 34.30 34.11 26.67 26.48 24.12 30.24 31.08 29.19 30.82 33.01 34.60 34.93 34.34
49.95 49.46 49.00 48.71 48.18 48.26 48.38 48.42 48.48 46.37 40.05 30.54 30.14 32.22 31.60 29.22 29.95 35.05 30.30 33.49 32.32 34.90 37.97 40.47 40.25 36.53 34.49 35.29 36.13 35.31 35.25 34.54 33.87 33.15 31.72 31.04 25.53 21.02 18.77 26.69 26.92 23.49 29.10 30.35 31.60 34.88 34.89
49.84 49.43 48.97 48.54 48.11 48.19 48.01 48.18 48.41 46.50 40.42 33.68 31.35 29.39 28.21 25.47 26.61 28.98 30.65 32.00 31.96 33.08 35.40 37.39 40.55 37.17 38.63 41.42 39.54 36.47 34.91 34.13 34.38 32.25 33.88 28.25 25.85 22.51 17.06 22.23 13.22 26.82 30.26 32.57 31.46 33.63 36.24
49.98 49.47 48.99 48.50 48.38 47.82 47.80 47.89 48.16 47.49 44.40 35.12 32.85 30.44 26.41 23.67 25.42 26.53 29.32 30.36 32.14 32.33 35.26 39.63 37.47 36.35 36.96 37.90 33.25 30.59 29.54 30.37 31.23 32.16 30.88 31.96 27.95 21.83 18.92 18.26 24.07 26.96 30.13 29.62 29.07 29.71 32.67
50.01 49.48 48.95 48.35 48.08 47.54 47.66 47.64 47.84 47.41 45.30 36.51 33.88 33.16 29.07 25.58 25.02 28.29 26.14 27.69 24.90 25.80 33.57 35.33 36.39 34.66 37.83 35.92 32.02 25.09 23.09 26.17 26.77 31.00 35.99 35.79 34.26 27.29 24.13 19.55 18.21 26.15 33.00 34.32 33.23 25.71 33.83
49.91 49.50 48.91 48.36 48.02 47.48 47.60 47.58 47.67 47.44 45.74 38.48 35.52 34.06 30.51 27.11 28.31 27.83 24.73 25.14 27.09 26.00 27.51 30.45 31.08 33.78 35.93 31.15 30.15 27.29 24.03 28.38 25.84 25.73 27.47 30.77 31.66 25.88 25.03 24.15 26.45 31.71 34.06 35.39 24.09 26.98 36.11
50.08 49.58 49.01 48.33 47.98 47.45 47.67 47.78 47.35 46.81 45.71 39.26 36.24 37.29 31.67 27.81 28.63 31.63 32.22 27.84 27.29 26.06 24.09 27.86 30.73 31.66 32.19 29.29 29.38 27.52 26.77 26.59 24.36 26.19 26.54 27.76 24.89 25.15 26.72 25.25 18.87 33.58 34.55 29.33 34.18 36.70 37.93
50.18 49.82 49.34 48.51 48.07 47.47 47.49 47.61 47.07 46.38 45.40 40.44 33.72 37.99 37.44 30.39 29.89 33.00 33.57 34.09 33.18 31.76 28.34 28.14 27.46 32.93 31.70 32.97 32.32 31.00 28.28 30.23 24.38 23.20 26.89 25.69 28.93 28.29 27.95 27.11 33.54 34.01 36.43 38.43 38.46 37.93 38.15

GFSGBSN_sfc_wetblb_051.txt.gz
Wetbulb
56.51 56.40 55.81 55.77 55.15 55.00 55.18 54.99 55.23 54.56 54.27 53.39 54.73 55.10 54.22 52.70 53.39 52.97 52.86 53.25 53.16 53.37 53.13 53.55 52.99 52.66 48.97 42.42 42.04 51.17 53.62 52.89 51.13 52.32 51.29 49.31 46.41 45.72 44.26 46.52 48.66 46.42 47.94 49.77 50.89 50.83 51.16
56.57 56.33 55.85 55.43 55.00 54.91 54.61 54.62 53.96 54.08 54.67 54.85 52.75 53.69 54.32 53.64 52.54 52.86 52.95 52.54 53.06 52.92 52.92 52.44 51.87 51.97 46.14 37.17 49.24 50.83 50.62 49.41 49.68 51.11 50.90 50.77 47.08 47.10 45.44 46.57 46.21 48.17 48.68 48.30 49.83 49.86 50.56
56.69 56.09 55.61 55.21 54.80 54.78 54.83 54.76 54.37 53.89 54.22 54.05 54.49 52.13 53.01 53.36 54.03 52.82 52.92 53.50 52.47 51.82 51.95 51.93 52.49 49.24 43.86 41.33 49.45 49.85 49.79 48.22 51.87 52.93 49.81 51.84 50.62 47.60 47.38 44.92 48.96 48.28 45.28 47.98 48.60 49.52 48.87
56.92 55.82 55.59 55.21 54.31 54.54 54.30 54.73 54.80 54.70 54.31 54.04 53.65 53.23 51.73 52.52 52.90 53.37 52.89 53.51 52.66 51.27 52.00 51.15 51.31 45.87 38.63 48.79 50.34 49.50 49.46 48.21 52.43 54.35 53.77 53.23 52.44 48.57 46.78 47.56 46.30 44.85 45.40 40.58 46.70 48.41 49.40
57.04 55.60 55.42 54.96 54.28 54.54 54.54 54.75 54.25 54.39 54.42 54.00 53.39 52.97 51.76 51.73 52.67 52.91 53.22 53.35 51.94 51.08 51.58 50.76 44.00 41.48 35.80 49.16 46.09 48.04 48.64 49.00 51.72 52.50 54.08 53.46 51.53 46.74 45.39 41.91 39.72 41.81 37.05 39.65 43.22 48.22 47.48
56.96 55.52 55.10 54.59 54.00 53.98 54.41 54.40 54.04 54.31 53.99 53.68 52.67 52.56 51.98 51.16 52.06 52.14 53.10 52.21 51.32 48.83 47.62 47.80 46.08 36.18 39.44 38.36 44.18 47.32 50.30 51.56 48.50 49.54 48.41 48.92 46.61 40.85 39.88 39.29 31.61 35.27 35.59 37.81 39.80 45.08 45.77
56.85 55.17 54.78 54.33 54.06 53.69 54.17 53.49 53.50 53.65 53.37 53.07 52.37 51.96 52.10 50.68 51.42 51.78 48.76 41.52 38.35 35.21 39.60 36.00 37.02 36.66 39.48 43.87 48.93 46.05 47.45 48.10 48.24 45.32 39.85 43.66 39.62 35.41 38.73 38.57 38.09 36.88 36.78 36.13 40.11 46.00 43.97
56.53 54.86 54.39 54.00 53.71 53.39 53.20 53.42 53.31 52.82 52.85 52.69 52.35 51.82 51.71 49.97 51.05 51.07 43.88 37.26 39.05 39.32 32.52 40.35 39.92 39.93 42.44 45.68 39.95 43.77 47.53 41.33 42.93 36.73 39.17 36.51 35.10 39.16 41.55 40.17 38.11 37.54 35.07 36.07 39.39 44.76 43.78
56.38 54.40 53.78 53.63 52.87 52.86 52.90 52.73 52.31 52.35 52.30 52.11 51.82 51.17 51.22 49.88 51.34 46.12 40.72 40.13 46.32 44.78 35.16 38.03 40.80 40.92 42.34 44.10 40.28 41.47 44.10 42.00 39.03 35.67 36.29 35.78 37.88 41.95 41.33 38.24 36.69 35.12 34.42 34.20 35.99 41.34 41.85
56.01 54.00 53.15 53.21 52.30 52.23 52.23 51.73 51.78 52.43 51.76 51.71 51.38 50.91 50.67 49.84 44.58 41.99 39.84 45.14 45.89 44.65 29.19 33.52 36.80 39.63 42.91 42.57 38.31 45.59 46.16 43.28 38.93 35.23 35.85 35.83 41.33 40.77 40.12 37.80 37.52 33.80 37.80 37.50 36.88 37.13 33.00
55.20 53.28 52.65 52.34 51.75 51.66 51.47 51.59 52.01 51.54 51.39 51.32 50.47 50.30 50.06 49.73 41.31 40.54 42.40 45.40 44.59 40.35 17.53 36.15 38.21 45.16 42.94 39.20 39.11 40.26 46.46 43.88 37.05 36.51 36.96 34.45 38.84 38.71 37.86 38.41 39.13 35.85 38.12 36.78 36.24 33.47 33.51
54.09 52.84 52.12 51.55 51.19 51.42 51.16 51.40 51.17 51.17 51.09 50.28 49.99 50.19 50.07 48.48 47.09 44.16 44.89 43.69 43.87 22.14 18.60 32.42 37.11 35.99 36.11 38.38 39.34 42.06 41.99 46.11 44.67 38.34 38.48 38.17 42.37 40.60 39.28 40.72 38.99 37.85 35.78 35.10 34.44 33.78 28.71
53.28 52.27 51.53 50.98 51.06 51.12 50.64 50.82 50.68 50.71 50.07 50.00 50.10 51.39 49.14 46.70 40.98 45.50 44.58 40.11 25.54 16.82 33.67 31.47 33.13 34.88 34.22 34.56 36.59 37.40 37.80 37.20 34.65 31.18 31.83 36.91 38.05 39.53 39.54 36.87 39.11 36.55 32.31 27.50 26.65 25.25 25.30
52.72 51.89 51.05 50.53 50.63 50.61 50.12 50.37 50.23 50.36 50.09 49.77 49.83 49.56 48.74 46.29 44.89 45.65 43.02 31.28 20.19 28.12 32.97 36.36 35.01 34.55 32.36 34.97 34.63 35.51 35.90 35.14 38.05 36.56 33.62 31.96 29.72 36.97 38.47 37.20 35.70 34.68 32.47 25.94 20.09 21.52 25.07
52.34 51.49 50.48 49.97 50.29 50.09 50.01 49.81 50.09 50.23 50.02 49.76 48.52 42.93 45.83 47.16 47.14 46.48 37.82 17.54 19.46 27.10 37.10 33.83 34.09 30.40 29.87 34.65 33.35 33.56 33.27 34.41 37.52 37.79 31.39 31.90 31.53 39.02 38.79 39.10 37.71 34.67 32.45 31.90 23.69 22.11 22.19
52.00 51.17 50.02 49.68 49.73 49.38 49.62 49.82 50.02 50.18 49.61 48.39 40.31 39.60 40.86 46.74 47.79 44.43 33.63 26.46 29.45 34.39 38.23 36.12 31.85 33.37 26.75 31.78 29.55 31.38 31.70 36.85 37.69 39.33 37.27 33.78 30.59 38.33 38.89 39.56 38.05 35.30 35.77 29.04 25.99 17.96 19.33
51.71 50.84 50.00 49.67 48.92 49.05 49.42 49.78 50.08 49.98 48.76 48.00 39.58 39.79 42.30 47.62 46.88 39.94 27.18 28.81 33.56 38.60 39.13 36.36 34.44 34.43 32.79 30.89 30.85 30.30 30.78 37.66 40.26 38.25 36.72 34.39 33.16 34.51 38.34 35.81 33.12 33.23 30.75 30.62 30.14 26.27 22.40
51.40 50.45 50.21 49.19 48.52 48.66 49.27 49.56 49.85 49.18 48.03 43.24 37.27 37.37 44.32 47.17 38.68 37.05 29.21 31.71 40.09 37.43 38.98 38.39 37.11 35.96 35.92 36.26 32.55 30.21 31.60 35.47 41.00 39.19 34.35 35.32 32.89 30.96 34.34 39.43 39.08 35.61 32.21 31.46 26.14 23.57 23.28
51.21 50.53 50.11 49.02 48.33 48.32 49.02 49.35 49.46 48.25 47.96 38.68 34.50 40.28 45.99 45.81 32.59 28.53 32.09 35.38 37.38 36.05 35.91 35.79 34.44 35.98 36.38 35.04 31.49 32.72 33.57 38.52 40.40 38.10 35.31 36.28 29.61 27.87 30.26 34.35 36.69 36.44 35.39 33.26 30.60 28.13 22.94
50.91 50.61 49.76 49.06 48.25 48.10 48.82 48.91 48.85 47.32 48.31 39.15 34.01 29.69 38.89 42.51 40.71 34.25 31.64 33.22 33.58 38.22 36.68 36.42 34.74 35.13 32.50 31.58 33.03 32.09 32.53 39.61 40.60 40.44 42.74 39.26 30.89 27.11 23.98 26.43 31.69 31.55 34.49 34.70 31.32 25.38 27.40
50.79 50.52 49.71 49.19 48.26 48.10 48.42 48.65 48.47 45.84 48.80 37.98 32.28 30.31 32.56 34.41 34.22 31.33 32.79 34.35 33.86 34.82 36.61 37.90 34.59 34.42 31.58 29.20 29.76 30.28 32.53 36.80 39.77 42.26 38.48 35.80 26.78 27.41 30.07 31.40 32.96 32.22 32.33 34.44 32.90 33.45 30.10
50.76 50.34 49.72 49.28 48.27 47.97 48.11 48.35 47.68 44.84 43.66 32.81 31.02 30.96 31.63 29.36 30.48 30.44 32.84 32.94 33.72 35.08 36.18 34.44 34.75 34.30 33.80 31.58 30.50 30.05 32.49 32.40 34.67 36.48 38.09 35.11 27.32 28.11 25.50 30.11 31.43 30.31 31.51 32.35 34.32 34.47 34.04
50.65 50.06 49.68 49.19 48.39 47.95 47.89 48.18 46.93 45.22 39.91 30.13 29.49 31.49 31.22 28.01 28.72 32.92 30.14 31.42 32.01 34.26 36.95 40.16 39.21 35.54 34.79 35.33 36.13 35.42 34.80 34.14 34.13 33.20 31.61 32.39 29.82 26.30 23.42 27.11 27.47 25.10 29.74 30.62 32.00 34.71 35.04
50.35 49.96 49.57 49.00 48.47 47.92 47.86 47.91 46.44 45.12 39.47 32.98 30.53 29.79 28.47 25.17 25.65 27.14 31.31 33.04 32.48 32.83 34.57 37.19 39.28 36.79 38.45 39.51 38.98 35.28 34.38 33.80 34.02 32.28 33.23 28.33 26.15 22.97 17.82 22.81 14.91 28.03 31.76 32.55 31.60 33.01 34.99
50.31 49.94 49.38 48.98 48.39 47.94 47.79 47.72 47.04 45.05 43.59 33.63 31.84 29.66 26.99 23.66 25.54 26.69 29.14 29.89 31.19 32.46 34.32 37.83 35.69 34.05 34.81 36.76 33.00 30.86 29.53 30.43 31.23 32.47 31.41 31.41 27.84 22.88 20.18 18.97 24.04 27.73 31.03 30.41 29.51 30.64 33.65
50.21 49.84 49.21 48.95 48.10 47.93 47.57 47.64 47.11 45.84 43.91 35.16 33.21 32.02 28.83 26.45 24.78 28.00 25.61 26.74 25.91 27.43 33.31 34.46 35.52 35.32 38.36 35.55 31.70 25.81 23.65 26.78 26.75 30.65 35.91 35.11 33.99 28.92 24.95 20.41 19.07 26.85 32.61 34.56 33.59 26.80 35.85
50.19 49.67 49.06 48.61 48.00 47.93 47.63 47.42 46.98 45.98 44.47 38.20 35.33 33.18 30.93 26.70 27.35 26.08 24.46 24.74 26.56 25.01 26.89 29.01 30.45 32.63 35.57 32.49 30.59 27.18 23.64 27.70 25.39 25.80 27.35 30.68 31.52 27.68 27.21 26.35 26.70 31.66 34.04 35.28 25.42 28.13 36.12
50.27 49.48 48.91 48.50 47.99 47.99 47.88 47.29 46.70 46.01 44.49 39.20 35.56 35.76 31.22 27.95 28.10 30.63 31.37 25.87 26.71 25.24 25.46 27.78 29.41 30.73 31.57 30.32 29.35 27.04 26.34 25.47 23.84 25.54 26.07 27.50 25.45 25.75 27.62 26.51 20.10 33.75 34.81 31.89 33.48 35.98 36.86
50.60 49.40 48.81 48.36 48.00 47.93 47.78 47.15 46.40 45.70 44.71 40.17 33.70 37.22 35.76 30.65 29.92 32.38 32.45 32.78 32.31 30.77 27.62 26.33 27.54 32.24 30.36 33.13 32.28 30.41 28.04 29.00 23.47 22.28 27.40 25.68 29.55 27.54 28.25 27.24 32.96 34.54 34.97 35.94 35.42 34.62 35.61

GFSGBSN_sfc_wetblb_054.txt.gz
Wetbulb
58.04 57.01 56.76 56.46 55.91 55.35 55.03 55.12 54.65 54.26 54.60 54.89 55.40 53.19 53.78 54.67 53.63 52.86 53.26 53.24 53.64 53.62 53.51 53.00 53.16 53.46 50.83 44.09 43.86 52.55 53.60 54.16 52.12 53.69 51.52 50.21 49.12 48.80 45.65 48.96 50.08 47.09 47.57 50.15 51.51 51.73 52.09
58.24 57.37 56.62 56.19 55.40 55.17 55.12 54.89 55.34 55.02 54.84 54.90 54.80 54.38 52.24 53.30 53.94 53.81 53.08 53.27 53.42 52.61 52.87 53.05 52.85 51.72 47.55 38.24 50.78 52.07 51.28 50.98 50.75 51.10 50.48 51.19 49.76 50.67 48.19 48.56 48.49 50.64 50.17 48.85 50.37 50.67 50.36
58.91 57.69 56.53 56.08 55.56 54.75 55.05 54.77 54.95 54.78 55.07 54.69 54.46 53.97 52.96 51.84 53.02 53.77 53.14 53.15 54.03 52.30 52.57 52.39 52.29 49.84 45.01 42.28 51.36 51.68 50.90 49.20 50.13 51.65 49.55 52.19 52.64 49.98 49.90 47.54 51.59 50.75 46.96 48.49 48.98 49.66 48.01
59.58 58.04 56.58 56.05 55.37 54.76 54.93 54.87 55.28 54.86 55.06 54.82 54.14 53.63 52.94 51.54 52.21 53.17 53.58 53.30 53.67 51.81 51.93 52.36 51.50 48.38 40.82 49.65 51.83 50.29 50.56 48.71 50.07 52.34 53.25 54.11 53.38 50.90 49.65 51.22 49.29 46.59 46.89 41.42 47.92 49.53 49.98
60.12 58.44 56.66 56.02 55.33 54.57 54.50 54.61 54.72 54.47 54.81 54.53 53.58 53.09 52.62 51.72 51.48 52.59 52.67 53.56 53.09 51.88 51.73 51.91 47.75 45.35 39.17 50.80 46.12 48.25 50.40 48.54 50.68 52.30 53.71 53.78 52.09 47.76 48.75 44.73 42.29 44.24 39.22 41.19 43.69 49.46 48.78
60.73 58.75 56.75 55.71 55.19 54.62 54.19 54.42 54.28 54.22 53.97 53.32 53.27 52.69 52.51 51.51 50.99 52.25 52.16 52.68 51.47 50.22 49.52 49.54 48.13 40.99 42.79 40.47 44.95 47.94 51.03 51.65 48.80 49.46 48.79 47.91 46.98 43.76 44.13 41.83 34.39 37.61 39.70 42.05 41.56 45.69 47.14
60.99 58.93 56.53 55.40 54.91 54.45 53.95 53.57 53.96 53.74 53.13 53.05 53.08 52.34 52.03 51.50 50.34 51.78 51.18 48.49 44.55 41.69 43.44 39.44 39.74 39.28 41.12 46.84 49.45 46.55 49.10 48.67 48.24 46.61 41.20 43.70 38.80 38.29 41.06 43.16 42.57 42.98 41.44 41.10 42.36 47.26 45.19
60.68 58.46 56.13 55.15 54.46 53.85 53.39 53.28 53.30 52.69 52.85 52.62 52.27 51.67 51.45 51.20 50.10 51.47 49.84 43.21 42.16 43.98 36.49 42.66 42.29 42.37 44.61 47.17 40.87 44.47 49.43 39.72 42.29 38.58 40.59 37.55 34.82 42.93 44.62 43.66 42.61 42.26 40.80 40.92 43.97 46.71 45.32
60.17 57.94 55.85 54.83 54.09 53.08 52.62 52.67 52.35 52.35 52.89 52.15 51.97 51.30 51.19 50.74 50.32 49.66 46.68 43.73 49.40 47.57 39.37 39.58 42.71 42.52 43.71 45.81 40.87 42.02 45.34 40.15 40.57 38.00 37.81 35.77 38.37 44.02 42.88 41.99 39.72 40.89 39.87 40.71 40.70 44.89 46.13
59.73 57.44 55.51 54.19 53.58 52.30 51.88 51.86 52.08 52.19 51.68 51.72 51.08 50.76 50.58 49.66 46.75 47.56 44.54 48.30 49.61 48.22 34.89 34.07 37.89 41.45 44.19 44.56 39.33 46.23 46.87 41.23 39.70 36.95 37.90 36.96 42.11 41.93 41.04 40.01 41.12 36.36 42.81 42.48 41.17 40.24 35.43
58.63 56.80 54.59 53.59 52.54 51.59 51.51 51.39 51.81 51.56 51.20 50.87 50.68 50.54 50.22 49.22 47.01 44.78 45.97 49.57 49.11 45.92 24.47 36.42 38.01 46.87 44.67 40.61 41.09 41.48 47.19 43.93 37.76 37.68 39.08 34.78 39.34 40.24 39.73 40.63 42.89 38.99 42.83 42.02 41.43 39.57 38.73
58.15 55.78 53.97 53.08 51.74 51.42 50.94 51.08 51.11 51.04 50.68 50.45 50.56 50.76 50.10 49.28 48.57 48.06 49.48 48.83 47.35 32.40 23.74 32.69 38.15 37.16 37.81 40.10 40.20 42.23 43.27 46.58 44.82 39.92 39.74 38.46 43.60 42.54 42.07 42.89 43.13 42.52 41.57 41.33 41.18 39.86 31.95
57.42 54.92 53.36 52.67 51.51 51.08 50.78 50.55 50.72 50.35 50.34 49.86 50.55 50.67 49.61 49.31 45.38 49.77 49.18 45.33 32.50 29.26 35.00 30.64 32.37 36.66 36.27 35.67 37.51 37.89 38.52 37.53 36.02 32.79 33.17 37.74 38.36 41.53 43.93 38.95 41.67 42.49 39.30 31.21 29.36 30.09 29.89
55.90 54.07 52.95 52.16 51.30 50.78 50.12 49.93 50.19 50.40 50.34 49.80 49.69 50.04 49.05 48.92 49.15 49.16 47.31 36.83 29.06 32.22 32.55 36.74 35.67 36.02 32.69 35.90 35.58 36.69 36.53 35.26 38.84 37.88 34.19 33.32 30.47 38.36 41.96 41.02 38.46 38.70 39.19 33.07 24.48 26.36 30.62
55.02 53.43 52.61 51.64 50.95 50.33 49.81 49.86 50.16 50.17 50.27 49.66 49.77 49.60 48.53 48.00 48.30 48.85 40.47 33.00 31.59 33.08 36.21 34.51 35.06 30.95 32.32 35.59 35.05 35.00 35.12 35.98 38.54 38.92 34.55 33.15 32.31 40.64 41.29 42.07 42.11 37.86 34.82 37.21 32.09 29.65 31.56
54.42 53.02 52.10 51.23 50.85 49.95 49.44 49.89 50.11 50.17 49.85 49.17 48.10 47.18 46.49 48.45 48.99 46.73 37.91 32.72 34.82 37.03 37.98 36.54 30.92 33.47 30.25 33.38 32.23 33.80 34.69 38.90 38.17 41.25 41.87 37.44 31.86 39.50 39.74 42.55 41.77 40.30 41.05 33.25 34.95 26.26 24.55
53.84 52.67 51.68 51.07 50.44 49.55 49.17 49.54 49.92 49.97 48.84 48.83 47.15 43.37 47.16 48.98 49.37 41.83 33.25 34.13 36.60 40.38 40.78 36.57 35.74 33.63 34.62 33.26 33.80 33.01 33.93 38.80 41.39 40.33 40.70 39.86 37.30 35.33 40.33 38.53 37.47 37.34 36.58 36.92 36.64 33.74 29.09
53.39 52.40 51.57 51.07 49.96 49.33 48.92 49.20 49.56 49.22 48.70 47.29 46.31 39.97 47.56 48.55 40.41 39.26 35.30 36.88 40.86 40.69 42.03 40.56 39.29 37.69 36.66 36.06 33.42 34.43 34.31 37.75 43.54 42.71 37.86 39.43 38.45 32.30 34.95 40.44 41.70 39.94 38.67 39.14 33.12 30.61 32.72
53.03 52.10 51.63 50.62 49.70 49.04 48.79 48.94 48.98 48.28 48.40 45.94 43.55 41.72 47.65 46.45 36.52 37.64 38.33 38.33 40.67 39.61 39.20 38.99 37.97 38.74 39.63 37.26 33.44 35.69 37.20 41.56 43.20 41.63 39.24 40.30 35.33 29.59 31.68 35.63 39.21 37.93 38.64 38.49 37.67 35.69 32.03
52.57 51.70 51.29 50.22 49.58 48.94 48.72 48.50 48.54 47.36 48.44 45.94 43.17 36.97 41.03 43.17 42.25 37.16 37.57 37.97 37.96 41.70 40.32 39.96 38.85 40.13 37.73 35.94 37.60 35.51 36.86 41.10 42.73 42.51 42.39 42.97 36.35 33.74 31.68 33.77 37.80 34.84 37.57 38.43 37.28 33.16 33.65
52.26 51.62 50.90 50.21 49.49 49.02 48.37 48.10 47.63 45.87 49.32 44.83 41.24 38.91 39.89 35.77 38.48 38.59 38.79 38.64 37.43 37.22 40.93 41.90 38.92 37.96 37.21 34.51 35.42 35.29 37.29 38.92 41.11 42.82 41.10 40.40 34.08 33.62 34.35 35.68 36.43 36.30 36.82 38.00 35.05 36.69 33.90
51.78 51.43 50.66 50.22 49.44 48.99 48.11 47.83 46.39 46.44 46.72 41.68 38.70 38.68 38.78 36.96 36.34 38.32 37.55 36.78 36.99 38.13 39.51 38.67 37.34 38.39 38.59 36.09 35.79 35.05 37.31 37.26 38.08 40.54 39.59 39.13 33.64 33.25 31.24 33.38 34.67 33.31 36.06 36.46 37.52 37.85 37.28
51.65 51.00 50.58 49.98 49.38 48.75 48.19 47.57 45.96 45.80 43.28 40.31 37.81 39.28 40.08 32.46 35.88 37.50 35.67 34.86 35.25 37.78 40.57 41.64 41.07 39.64 38.79 39.33 41.57 41.52 40.83 41.12 41.00 40.05 37.45 37.59 34.72 32.54 28.99 30.91 31.36 28.90 33.18 34.89 36.20 37.95 38.09
51.34 50.79 50.50 49.78 49.16 48.57 48.23 47.32 45.98 44.26 42.84 41.14 39.05 39.91 38.30 31.95 35.55 34.14 33.98 35.75 36.06 37.09 38.23 39.57 41.36 40.50 40.76 41.83 43.42 41.24 40.70 39.90 39.98 38.22 40.02 35.70 33.91 32.91 29.43 29.61 22.98 31.88 35.98 36.34 35.42 36.83 38.56
51.17 50.65 50.33 49.65 48.97 48.47 48.17 47.38 45.98 44.83 42.39 40.38 38.20 37.56 37.65 30.63 33.34 32.76 33.57 33.88 36.45 38.24 39.22 38.99 38.01 38.44 41.02 41.33 38.72 35.67 35.70 35.86 35.92 37.60 37.36 38.61 35.65 30.08 28.53 27.94 30.99 33.63 35.78 35.62 34.73 35.76 39.46
50.88 50.58 50.00 49.46 48.66 48.34 48.04 47.45 46.60 44.87 43.45 40.54 38.45 37.01 38.98 34.47 30.71 31.29 32.04 31.42 35.40 34.78 37.73 37.32 39.10 41.15 42.22 40.87 37.29 30.76 30.05 32.04 31.44 33.97 37.24 37.13 37.61 34.69 30.60 24.88 23.95 33.34 37.49 39.56 38.91 32.37 39.13
50.89 50.91 49.81 49.01 48.55 48.20 48.07 47.51 46.68 45.93 44.01 42.02 39.26 37.48 38.96 32.65 32.97 32.19 32.33 31.58 32.39 32.73 34.87 33.38 32.76 37.21 40.90 38.75 34.86 32.87 31.40 33.32 30.53 30.29 31.67 33.34 34.00 31.17 30.69 28.51 31.79 36.59 38.65 39.68 30.18 31.86 38.41
51.25 50.68 49.60 48.68 48.44 48.26 47.87 47.31 46.51 45.35 44.18 42.21 39.10 39.21 38.83 33.89 33.52 34.36 34.45 32.32 32.07 32.48 35.05 32.24 34.57 36.25 38.28 35.33 34.88 33.75 33.14 33.03 32.11 32.78 32.60 31.94 31.08 31.21 31.62 28.15 24.96 36.04 39.11 34.45 34.82 36.91 36.06
50.91 50.49 49.57 48.75 48.37 48.21 47.81 47.22 46.60 45.32 44.30 42.49 38.35 39.87 39.88 36.99 34.02 36.76 36.70 37.28 36.55 35.48 34.21 33.61 34.34 33.89 35.90 36.08 35.21 34.70 31.57 33.25 30.89 29.68 34.35 31.03 33.01 32.46 32.63 32.30 35.74 35.93 37.21 36.98 37.10 35.65 35.85

GFSGBSN_sfc_wetblb_057.txt.gz
Wetbulb
60.03 59.08 57.79 57.17 56.76 56.03 55.49 55.39 55.17 55.63 55.64 55.56 55.14 55.20 54.32 52.85 53.89 54.52 53.69 53.52 54.19 53.34 53.30 53.50 53.34 53.00 52.24 45.33 44.70 54.00 53.36 54.45 54.71 53.22 51.74 50.42 49.75 49.83 46.24 47.41 46.29 47.52 50.11 51.69 51.96 52.72 53.42
60.84 59.90 58.46 57.40 56.73 56.30 55.55 55.53 55.16 55.37 54.98 55.34 55.34 54.77 53.79 53.08 52.30 53.49 54.29 53.34 53.83 54.03 52.45 52.90 52.97 52.74 48.79 39.78 51.71 52.61 52.41 51.94 53.24 51.18 50.65 51.51 50.05 52.06 48.26 48.00 45.43 48.35 49.93 51.08 52.19 51.98 52.20
61.14 60.54 59.32 57.78 56.92 56.32 55.53 55.47 55.33 55.54 55.02 55.36 55.29 54.26 53.45 53.02 52.14 52.70 53.75 54.20 53.48 53.92 51.99 52.93 52.55 51.15 45.65 42.86 51.93 52.51 51.51 50.04 52.96 51.34 47.41 52.28 53.46 50.42 50.00 47.10 50.95 47.65 43.79 49.11 49.50 50.61 49.51
61.81 61.18 60.11 58.42 56.76 56.29 55.56 55.09 55.10 55.10 54.79 54.77 54.46 53.78 53.26 52.79 51.86 51.83 53.11 53.39 53.76 53.40 51.65 52.60 52.10 49.48 41.39 50.61 53.11 50.86 51.58 50.40 52.00 52.37 50.94 52.50 53.15 50.35 49.23 50.77 48.80 45.65 46.27 40.99 47.68 49.01 50.20
62.85 62.19 60.63 58.63 56.76 56.24 55.58 54.87 54.72 54.72 54.64 54.03 53.70 53.39 53.18 52.53 52.04 51.31 52.53 52.67 53.59 52.98 52.03 52.33 49.51 46.41 39.84 51.54 46.79 49.98 50.69 47.80 50.05 50.78 51.19 53.01 52.62 49.03 49.38 44.47 42.23 44.10 37.90 40.76 44.35 49.71 49.00
63.89 63.10 60.99 58.50 56.65 55.96 55.51 54.90 54.12 54.34 54.02 53.20 53.31 53.01 52.40 52.07 51.61 50.99 52.30 52.45 52.25 52.00 50.67 50.25 48.74 42.35 44.15 41.54 44.90 47.42 50.71 49.34 48.50 47.72 46.03 47.08 46.54 44.37 44.51 42.46 34.70 38.34 39.31 41.54 42.26 46.92 48.10
63.78 63.79 60.98 58.13 56.55 55.47 55.24 54.59 53.86 53.71 52.93 52.95 52.80 52.24 51.98 51.59 51.21 50.64 51.34 50.43 46.00 43.74 44.82 40.67 40.90 40.45 42.14 47.88 49.96 46.81 49.77 48.67 47.94 45.25 39.98 40.86 39.17 38.25 42.03 44.13 43.67 42.70 41.34 40.82 44.26 47.80 45.96
63.56 63.72 60.79 57.45 56.24 55.37 54.65 54.01 53.34 52.75 52.32 53.07 52.20 51.93 51.75 51.50 50.84 50.81 50.88 45.39 44.42 46.08 38.59 43.56 43.29 43.19 45.13 48.00 41.29 44.15 49.13 39.43 42.73 39.04 41.57 38.47 35.15 42.94 44.67 44.60 42.76 42.41 40.80 40.42 44.44 47.42 45.93
63.46 63.32 60.13 57.16 56.10 54.94 53.85 52.99 52.76 52.33 52.47 51.93 51.69 51.30 50.97 50.78 49.88 49.84 48.40 45.35 50.67 49.03 40.25 40.99 43.41 43.02 44.03 46.65 41.17 42.15 45.67 41.31 41.07 39.59 39.45 36.85 38.46 43.84 43.50 42.35 40.50 42.07 40.66 41.16 41.23 44.78 46.21
63.34 62.58 59.35 56.94 55.62 54.41 53.27 52.23 51.97 52.01 51.71 51.43 51.05 50.80 50.44 50.39 45.96 49.37 45.98 49.26 51.25 49.83 35.28 35.25 39.14 42.38 45.09 45.36 39.80 45.65 46.73 41.40 40.53 37.20 39.03 37.78 41.43 41.28 42.26 40.63 42.16 37.74 44.38 43.51 42.55 41.24 36.29
63.06 61.25 58.18 56.56 54.66 53.77 52.63 51.98 51.73 51.39 51.17 51.03 50.57 50.63 50.83 50.13 47.68 46.12 47.92 51.08 50.74 47.61 26.13 37.16 38.69 47.45 45.54 41.27 41.67 41.86 47.96 43.66 38.92 39.34 39.42 36.21 38.37 39.81 39.88 41.11 43.35 39.68 44.28 43.16 42.76 40.94 39.73
62.71 59.59 57.60 55.55 54.25 53.05 52.25 51.48 51.25 50.74 50.81 50.45 50.23 50.92 50.71 48.64 49.15 49.54 51.10 50.24 48.45 32.21 23.86 33.97 38.80 38.18 38.66 40.80 41.10 42.83 43.47 46.12 45.81 41.51 39.52 39.18 43.84 43.15 42.45 44.48 44.42 44.47 41.95 41.75 41.50 39.64 32.51
60.69 59.04 56.74 54.98 54.00 52.58 51.91 51.02 50.43 50.55 50.12 50.10 50.34 50.60 49.58 50.07 45.53 51.37 50.67 46.46 33.59 29.20 35.21 31.53 33.82 37.67 37.48 36.55 37.23 38.82 38.83 38.18 36.38 33.17 32.30 36.22 37.17 42.46 44.88 40.89 43.46 43.31 39.30 31.68 29.38 30.25 30.24
59.98 58.73 55.98 54.44 53.65 52.41 51.71 50.63 50.09 49.62 50.02 49.68 49.45 49.95 49.20 50.39 52.45 50.96 48.39 38.48 29.73 33.01 32.67 37.98 37.00 37.19 33.88 37.09 36.29 37.62 36.58 35.12 39.80 39.30 34.54 33.08 29.56 38.98 43.95 41.58 38.88 39.92 39.36 32.69 24.94 27.44 31.34
59.49 57.39 55.35 54.04 53.13 52.30 51.39 50.49 49.72 49.68 49.60 49.43 50.04 50.35 49.64 49.47 50.62 51.02 42.37 33.24 32.88 34.53 37.05 35.31 36.23 33.33 33.81 36.37 36.37 36.94 36.13 36.58 39.35 41.04 34.65 33.72 33.22 40.76 43.53 43.86 43.25 38.96 36.25 39.47 34.15 35.62 33.25
58.92 56.67 54.77 53.61 52.60 52.08 51.06 50.36 49.89 49.70 49.30 50.06 48.95 47.99 47.99 49.81 50.76 47.89 39.39 34.52 36.48 38.74 39.64 38.38 32.25 35.20 32.30 34.69 35.19 36.40 36.19 39.50 38.62 41.83 42.51 38.48 32.71 39.97 41.35 43.22 43.06 41.69 42.89 33.52 35.93 26.78 25.75
58.00 55.98 54.33 53.16 52.17 51.71 50.61 50.21 49.88 49.54 48.84 50.25 48.38 43.86 48.57 51.40 50.56 43.56 36.18 37.07 38.41 41.80 40.26 36.89 35.10 33.60 36.04 34.95 36.39 35.24 35.90 40.03 41.76 40.88 42.73 41.56 38.04 36.47 40.10 38.83 37.89 38.46 36.76 38.48 38.34 35.23 29.93
57.20 55.38 54.20 52.58 51.93 51.10 50.32 50.01 49.93 49.03 49.98 48.68 47.95 39.86 48.84 51.06 40.24 42.42 37.47 40.16 41.29 41.35 43.56 40.76 40.20 38.39 37.45 36.93 35.23 35.90 35.75 39.27 44.65 43.61 38.44 41.47 38.36 32.59 35.64 40.99 43.16 41.89 39.29 39.38 33.12 31.20 34.39
56.65 55.16 53.50 52.16 51.62 50.56 50.11 49.94 49.89 49.22 50.64 49.88 43.39 43.35 48.79 48.31 37.03 37.95 41.03 40.72 42.02 40.88 41.05 40.51 38.68 40.13 40.95 38.29 34.38 37.96 39.03 42.91 44.62 42.94 39.79 41.91 36.48 30.41 31.32 37.13 40.94 38.55 40.36 40.25 40.05 37.86 33.24
55.94 54.48 52.79 52.16 51.06 50.26 49.96 49.81 49.63 48.97 49.69 49.52 45.26 37.48 42.53 44.34 43.11 40.24 39.77 39.46 38.96 43.19 41.57 41.72 40.42 42.13 40.04 38.33 40.22 37.08 38.40 42.00 44.20 43.71 42.52 43.65 38.00 34.89 30.99 34.78 38.61 34.81 37.81 39.38 37.95 33.01 33.37
55.17 53.82 52.53 51.98 50.78 50.18 49.87 49.45 49.17 48.02 49.35 48.87 45.30 42.20 43.28 36.28 39.55 41.46 41.61 41.01 38.78 38.20 42.60 42.97 40.18 40.08 38.90 36.30 37.40 36.51 38.69 40.49 42.96 42.93 43.01 42.36 36.04 34.97 36.44 38.09 38.39 37.89 37.59 38.62 35.93 37.00 33.68
54.68 53.21 52.43 51.54 50.73 50.09 49.56 49.06 47.73 47.92 49.43 46.19 42.10 41.25 42.60 42.49 42.88 41.63 39.43 39.65 39.03 40.22 41.04 39.18 39.01 40.03 40.35 38.03 37.87 36.39 38.77 39.10 38.57 42.16 41.28 41.82 34.29 35.61 33.70 35.77 36.25 34.50 37.61 38.58 39.18 39.26 38.75
54.06 52.78 51.98 51.04 50.47 49.93 49.11 48.27 47.16 49.93 48.60 44.90 43.79 44.41 43.74 38.61 41.13 40.80 39.98 39.45 39.32 41.51 42.56 43.46 42.14 41.46 40.03 40.55 42.68 43.33 42.98 43.53 42.38 40.22 39.84 39.05 36.19 33.90 31.00 33.11 33.00 30.14 34.97 36.72 37.78 39.40 38.61
53.39 52.29 51.37 50.97 50.09 49.47 48.95 47.42 46.77 49.24 47.02 46.66 45.65 46.24 41.79 37.13 40.53 40.02 38.84 40.43 40.23 40.39 40.21 41.57 43.18 41.71 42.11 44.64 44.52 44.18 43.24 42.25 42.13 41.33 42.98 38.55 36.48 35.25 30.98 31.33 24.02 32.82 38.19 37.43 35.97 37.71 39.35
52.89 51.86 51.11 50.56 49.91 49.25 48.63 46.90 46.28 46.94 46.37 44.96 44.16 43.83 43.09 37.87 39.93 37.47 39.17 39.48 41.03 42.13 41.08 40.70 40.35 41.44 44.19 43.23 39.60 36.04 36.89 37.01 37.74 39.79 39.75 41.01 37.91 32.40 30.02 29.24 32.89 34.43 36.96 36.75 35.84 35.15 39.60
52.78 51.60 50.84 50.19 49.41 48.99 48.37 47.17 45.75 45.51 44.53 44.44 42.97 42.94 44.10 38.33 35.99 38.35 38.08 40.31 39.50 39.24 39.85 39.56 41.84 44.55 44.64 42.38 38.40 31.68 29.72 33.69 31.88 34.78 39.12 38.73 39.60 34.92 31.43 26.16 24.84 33.76 38.35 41.04 40.36 31.98 38.93
52.49 51.48 50.81 50.38 49.18 48.87 48.26 47.53 46.12 45.63 44.90 45.04 41.64 42.60 43.47 35.64 35.56 36.09 37.89 37.55 38.77 38.86 39.71 38.25 37.86 41.10 43.82 40.01 35.01 33.19 32.26 35.97 30.91 30.91 31.87 33.73 34.61 31.45 31.33 28.86 32.60 35.97 39.15 41.29 30.06 31.56 37.30
52.04 51.46 50.85 49.96 49.04 48.73 48.26 47.49 46.99 45.47 45.16 45.58 41.00 43.03 42.98 35.48 35.28 37.05 36.71 35.59 35.56 37.20 38.82 36.32 37.96 39.25 40.93 37.22 36.08 35.27 34.14 35.60 34.53 35.40 34.25 32.87 31.28 30.73 32.14 28.85 25.85 36.90 39.81 34.12 35.96 38.53 38.24
51.52 50.97 50.36 49.63 49.16 48.45 47.95 46.88 46.14 45.08 44.60 45.39 39.28 42.30 44.76 39.31 35.77 39.31 38.22 38.93 38.06 37.19 37.92 38.21 37.65 37.18 39.19 37.88 37.99 37.13 34.01 35.92 34.79 30.55 37.21 31.63 35.61 33.55 34.03 33.85 37.80 38.42 37.68 38.93 39.02 36.54 37.42

GFSGBSN_sfc_wetblb_060.txt.gz
Wetbulb
61.13 61.20 60.71 59.53 58.31 57.56 57.03 56.12 56.13 55.84 56.13 55.85 55.77 56.09 55.08 54.25 53.74 53.10 53.75 54.97 53.85 54.59 53.74 53.32 53.55 54.03 50.95 44.92 44.25 53.48 53.48 55.01 54.65 53.77 49.82 49.99 48.98 48.11 45.18 45.78 49.09 46.97 48.68 51.46 52.65 52.71 52.00
62.22 61.52 61.42 60.37 58.95 57.72 57.09 56.24 55.90 56.06 56.03 55.73 55.65 55.48 54.56 53.82 53.59 52.92 53.02 54.24 54.39 53.87 54.31 52.82 53.50 53.10 47.85 39.03 51.54 52.69 52.26 51.88 52.64 51.89 49.36 50.26 49.28 50.63 47.65 47.05 46.56 46.53 47.85 48.90 50.98 50.89 51.94
63.50 62.67 61.90 61.41 59.69 58.00 57.00 56.57 55.63 55.79 55.61 55.54 54.90 54.44 54.23 53.81 53.50 52.57 52.37 53.78 54.06 54.01 53.78 52.57 53.43 50.27 44.99 42.74 51.40 52.03 51.60 50.23 51.96 51.45 47.92 49.76 50.73 48.95 48.39 45.95 49.86 46.94 43.70 46.28 48.91 49.68 49.30
63.88 63.80 63.38 62.29 60.68 58.08 56.91 56.67 55.46 55.35 55.50 55.25 54.50 53.96 53.84 53.57 53.22 52.54 51.72 53.06 53.28 53.88 53.55 52.42 53.39 48.70 41.08 50.73 51.82 50.62 51.31 49.63 51.19 52.66 50.65 50.94 51.50 49.26 48.13 49.71 46.34 42.05 42.26 37.61 46.59 49.14 48.91
63.96 63.93 63.80 63.44 61.46 58.22 57.10 56.41 55.73 55.14 54.87 54.69 53.63 53.65 53.24 52.84 52.59 52.32 51.34 52.53 53.03 53.69 53.46 52.60 48.72 46.36 39.78 51.12 46.36 48.77 50.05 46.95 48.92 50.38 50.24 50.46 50.00 47.71 47.82 42.78 39.97 41.33 33.63 35.24 41.66 48.61 47.28
63.90 63.79 63.53 63.31 61.41 58.29 57.05 56.23 55.77 54.76 54.38 53.66 53.10 53.35 52.61 52.23 52.12 51.76 51.09 52.45 52.82 52.18 51.89 50.06 48.04 41.20 44.45 41.85 46.00 47.38 50.46 49.37 46.56 47.11 45.69 43.01 44.58 42.68 42.67 40.10 32.80 35.81 36.04 37.29 37.89 44.61 45.73
63.78 63.81 63.50 63.26 60.47 57.68 56.72 56.03 55.39 53.92 53.69 52.71 53.35 52.51 52.30 52.10 51.87 51.22 50.27 49.60 44.87 42.77 44.78 40.29 40.45 40.30 42.34 47.52 49.46 46.63 49.32 46.52 47.29 44.56 35.23 39.13 37.30 35.72 38.50 41.53 41.83 41.36 38.94 37.15 40.44 45.90 43.67
63.37 63.63 63.41 62.71 59.58 57.43 56.07 55.68 54.36 53.34 52.86 52.94 52.30 51.94 51.59 51.24 51.27 50.40 49.90 44.54 44.78 45.99 38.54 43.52 43.39 42.95 45.05 47.46 41.50 44.65 48.52 40.71 40.27 37.06 38.13 35.53 34.51 40.08 43.43 43.79 42.00 41.01 38.61 38.34 43.23 46.39 43.85
63.13 63.48 63.37 62.18 58.94 57.34 56.10 54.78 53.33 52.78 52.44 52.23 51.67 51.30 50.99 50.77 50.41 48.73 46.82 46.58 50.96 49.34 39.72 40.69 43.15 43.08 43.60 46.22 41.08 42.08 45.13 40.62 38.75 36.75 36.55 35.36 38.82 42.88 42.05 41.65 39.46 39.31 38.01 39.12 40.05 44.07 44.91
62.91 63.23 63.08 61.83 58.56 57.08 55.52 54.06 52.51 52.00 51.78 51.45 51.17 50.72 50.51 50.81 46.05 47.71 45.78 49.71 51.51 50.10 34.02 35.44 39.23 42.51 44.97 45.23 39.62 46.06 45.88 41.56 40.90 36.53 39.20 37.31 40.97 40.18 40.29 39.42 40.44 35.94 42.30 43.28 41.85 39.09 33.36
62.44 62.67 62.52 61.02 58.09 56.81 54.93 53.51 52.25 51.47 50.90 51.08 50.60 50.26 50.82 50.66 46.51 45.20 48.00 51.20 50.87 46.92 23.64 36.63 38.72 47.20 45.54 41.06 41.36 41.98 47.75 44.37 38.84 38.56 39.29 35.30 37.61 37.71 38.90 40.29 42.16 38.69 43.93 41.79 41.92 38.52 36.05
61.32 62.14 62.10 60.23 57.90 55.71 54.47 52.92 51.78 50.89 50.54 50.37 50.32 50.93 50.83 47.85 48.40 49.41 51.26 50.81 47.30 31.57 21.61 32.38 38.87 38.27 38.59 40.91 40.40 42.96 42.88 45.91 46.11 39.92 40.55 39.32 44.10 42.24 41.82 43.34 43.52 43.10 40.64 40.08 38.46 35.88 25.06
58.60 61.55 61.53 59.02 57.43 55.11 53.70 52.58 51.25 50.36 50.09 49.55 50.28 50.86 49.44 49.94 45.50 51.37 50.54 45.67 32.22 26.80 34.81 31.28 33.80 37.73 37.61 35.69 37.51 39.69 38.40 37.89 35.82 29.27 32.20 36.09 37.51 42.38 43.93 39.19 42.14 40.44 35.82 25.99 24.86 22.82 23.54
58.08 60.86 60.47 58.87 56.72 54.93 53.29 52.36 50.90 50.19 49.80 49.43 49.69 49.93 49.29 50.05 51.78 50.90 47.64 38.63 28.24 31.78 32.91 37.81 36.92 37.14 34.45 37.17 36.21 38.18 35.78 34.29 39.28 37.86 33.94 32.23 28.36 38.73 43.89 40.42 37.43 37.10 36.23 28.55 22.06 21.04 25.56
57.43 58.78 59.91 58.26 56.32 54.75 53.17 52.20 50.97 50.45 50.15 49.97 50.24 49.27 48.39 49.29 51.18 50.46 42.33 32.05 31.75 34.06 36.51 35.27 36.54 33.15 33.75 36.10 36.51 37.05 36.11 35.77 38.29 40.13 32.87 32.91 32.16 41.14 42.78 43.26 41.36 36.83 31.42 36.76 29.99 29.65 25.87
55.30 58.57 59.39 57.47 55.89 54.16 52.91 51.96 50.90 50.61 50.31 50.58 48.28 47.38 46.55 50.29 51.14 47.37 39.13 34.70 35.77 39.63 39.46 38.01 32.10 34.95 31.17 33.90 34.19 35.70 35.61 39.11 38.38 41.68 41.26 36.83 32.13 39.35 41.50 42.94 41.93 38.98 39.87 29.81 30.07 20.31 21.43
54.42 56.12 58.73 56.97 55.22 53.38 52.71 51.71 51.17 50.86 50.33 50.78 47.63 43.47 47.45 51.26 50.16 43.02 34.58 36.19 38.74 42.00 41.00 37.45 35.16 33.91 35.13 34.02 36.01 34.35 35.74 38.56 40.98 40.51 41.16 39.74 36.07 35.65 39.35 37.39 35.83 36.12 34.21 35.58 34.96 30.08 25.65
53.81 54.48 58.21 56.45 54.29 52.70 52.25 51.32 51.15 50.83 50.15 49.12 47.68 39.40 48.31 50.53 39.94 41.20 37.33 40.01 41.27 40.70 42.75 40.38 39.90 38.39 37.12 36.53 34.70 35.18 35.65 38.62 43.51 41.94 37.85 40.56 36.39 30.85 34.84 40.75 41.89 39.61 37.08 36.32 27.93 26.51 28.69
53.14 54.32 57.47 55.56 53.33 52.54 51.78 51.12 50.99 50.33 50.98 48.34 43.39 41.80 48.63 47.79 36.42 36.25 40.73 40.56 42.14 40.54 40.80 40.32 38.73 39.74 40.57 37.08 33.27 37.11 38.37 42.80 44.69 42.52 39.42 40.84 34.33 26.67 28.84 35.40 39.22 36.73 38.29 38.67 36.99 34.15 27.75
51.68 52.66 56.43 54.70 52.79 52.03 51.28 50.88 50.81 50.52 51.92 48.24 43.46 36.02 41.12 43.91 42.49 38.73 38.56 38.70 38.16 43.39 41.47 41.95 40.87 41.97 39.75 37.45 39.70 36.32 37.29 42.22 43.28 43.51 43.24 41.77 36.68 30.74 25.91 29.73 34.94 31.91 35.85 37.65 34.72 26.35 29.55
50.18 53.08 55.60 53.86 52.56 51.97 51.06 50.65 50.60 50.18 51.64 47.61 44.32 39.86 41.12 35.02 37.40 39.82 41.64 40.31 37.96 37.44 42.48 42.64 39.53 39.90 38.66 35.40 36.21 35.33 38.00 39.75 42.37 42.20 41.20 40.29 32.77 30.34 34.67 37.07 36.44 35.72 35.05 35.73 31.81 33.73 27.83
49.19 53.00 54.79 53.61 52.49 51.17 50.89 50.93 50.67 49.81 50.56 45.01 40.59 39.82 41.84 40.55 41.41 39.96 39.85 39.25 39.08 39.81 40.81 38.70 38.61 39.91 39.19 36.72 36.97 35.26 37.67 37.94 35.84 39.23 38.02 39.46 31.22 31.01 27.45 34.75 34.32 30.93 35.50 37.04 37.68 37.64 36.65
48.86 50.06 54.24 53.29 51.93 50.85 50.63 50.55 50.26 49.22 49.90 44.13 42.49 43.76 41.92 40.58 40.08 38.85 38.85 39.48 39.95 41.53 41.87 42.82 41.93 40.36 38.63 39.49 40.20 41.16 40.68 41.65 41.04 39.13 37.71 36.48 30.99 27.44 25.18 30.27 29.57 24.55 31.30 34.57 35.59 36.58 35.93
48.24 52.61 53.85 52.62 51.36 50.89 50.79 49.91 48.64 50.25 50.10 44.76 43.11 43.91 39.71 34.56 38.86 38.92 40.55 40.70 40.20 40.87 39.37 41.02 42.40 40.48 40.39 43.16 42.86 40.34 40.04 40.07 39.90 39.74 41.28 37.21 34.13 30.11 23.37 25.53 16.66 29.10 34.76 35.75 34.74 36.55 37.02
48.40 49.43 53.45 52.14 51.26 50.71 49.90 48.87 48.21 50.56 50.52 43.49 43.41 42.37 39.90 36.13 37.81 38.67 39.80 39.71 40.37 41.18 39.92 39.37 39.35 40.34 42.64 41.31 36.95 33.60 33.98 34.07 35.53 37.46 36.06 38.31 35.81 28.68 25.67 23.43 28.30 31.11 34.11 33.97 33.02 33.35 36.75
48.04 49.04 52.39 51.63 50.87 50.06 49.37 48.12 48.03 50.14 50.39 43.51 42.41 41.39 41.35 37.89 33.33 39.85 38.57 39.92 37.61 36.90 37.60 38.11 40.80 42.78 42.01 39.60 35.76 27.22 27.26 31.24 29.82 32.82 36.09 37.20 36.01 29.93 26.25 22.23 19.75 30.21 36.17 38.40 36.95 27.95 35.06
48.55 52.59 52.76 51.20 50.44 49.77 48.34 47.39 47.25 48.31 48.12 44.20 40.30 41.82 41.21 33.45 33.93 35.07 34.83 35.77 38.90 37.44 37.20 36.74 37.00 38.75 40.70 36.51 31.86 29.03 27.58 33.39 27.67 27.49 28.12 30.54 30.84 26.62 26.72 24.16 28.21 32.57 36.48 38.61 26.31 26.84 34.86
47.60 51.90 51.74 50.72 50.11 49.45 48.26 46.91 46.61 46.53 46.69 44.42 40.18 42.05 40.37 34.23 33.48 36.88 36.72 33.92 34.87 35.05 34.28 33.90 35.08 36.70 37.30 34.29 32.55 31.16 29.83 30.64 29.56 31.73 29.99 29.42 26.29 26.47 28.29 26.30 21.34 34.66 35.84 30.41 31.64 34.90 34.93
47.81 49.52 51.25 50.22 49.73 49.18 48.29 47.24 46.70 46.30 46.48 46.01 37.81 42.14 42.44 36.30 33.86 37.44 37.22 37.79 36.79 36.47 34.28 36.05 35.56 36.43 35.80 35.66 33.80 33.01 30.25 31.35 30.48 26.14 32.42 27.43 30.56 28.34 30.17 29.21 34.07 35.11 34.19 35.80 35.68 34.33 34.82

GFSGBSN_sfc_wetblb_063.txt.gz
Wetbulb
63.50 63.16 62.55 61.94 61.85 60.44 59.00 57.93 57.00 56.54 56.78 56.58 56.46 56.01 55.81 55.13 54.34 54.02 53.52 53.45 54.88 54.55 54.37 54.54 53.26 53.86 50.26 44.37 43.87 53.18 53.91 54.84 54.75 53.71 49.32 47.77 46.70 46.54 43.45 44.61 47.96 46.53 48.57 50.51 51.93 52.80 50.89
64.04 63.89 63.51 62.95 62.25 61.38 59.55 58.25 57.34 56.73 56.30 56.29 56.18 55.42 54.64 54.56 54.16 54.02 52.84 52.70 54.43 54.68 53.94 54.18 52.82 53.47 46.76 38.47 50.61 53.35 51.80 51.51 52.28 51.52 48.38 47.70 47.61 49.38 45.51 44.88 46.64 47.97 48.71 50.23 51.25 51.31 51.53
64.10 64.15 63.90 63.79 63.21 62.51 60.28 58.41 57.39 56.75 56.00 56.23 55.89 55.21 54.22 54.12 54.02 53.79 52.59 52.19 53.60 53.78 54.12 53.78 52.57 50.26 43.83 41.11 49.85 51.82 51.01 50.04 51.62 50.95 47.75 49.36 50.39 47.43 47.78 45.22 48.50 47.96 44.94 46.26 49.20 50.19 49.34
64.13 64.03 63.84 63.87 63.69 63.16 60.88 58.20 57.01 56.53 56.01 55.46 55.37 54.15 53.84 53.47 53.13 53.26 52.45 51.83 52.53 53.29 53.75 53.64 52.52 47.95 39.15 50.40 48.94 49.13 50.27 49.67 51.27 52.10 50.69 51.03 50.47 47.98 47.52 48.91 46.27 43.91 43.29 38.18 45.02 47.46 48.99
63.89 63.96 63.79 63.62 63.61 63.48 61.35 58.05 57.13 56.70 55.92 54.89 54.49 53.32 53.73 53.02 52.53 52.41 51.95 51.70 52.25 53.18 53.69 53.31 46.91 44.38 38.29 51.16 45.80 47.48 47.95 46.66 48.90 50.14 49.79 50.14 47.42 46.05 47.12 42.23 39.33 40.32 34.18 36.63 38.48 46.66 47.02
63.28 63.57 63.43 63.35 63.37 63.41 60.90 58.14 57.06 56.46 55.28 54.36 53.12 53.31 52.93 52.71 52.34 52.11 51.44 52.02 52.09 52.21 50.36 50.71 47.85 38.65 42.68 41.38 45.76 47.99 49.34 48.83 46.19 46.60 44.26 44.05 41.69 41.00 41.92 38.99 32.31 34.66 32.57 36.53 36.88 43.94 44.90
60.47 62.81 63.08 63.09 63.13 62.82 60.22 58.06 56.61 56.42 54.32 53.71 52.86 52.39 52.00 51.91 51.32 51.05 48.56 46.21 42.80 40.29 42.92 38.36 39.07 39.43 41.87 47.36 49.02 46.50 48.74 46.16 46.17 43.75 35.52 39.46 34.91 33.62 35.58 39.04 40.10 39.66 36.68 35.88 39.77 44.87 43.50
57.97 59.99 62.20 62.89 62.79 62.09 59.68 57.66 56.39 55.53 53.71 52.91 52.47 51.64 51.39 50.87 50.78 49.91 47.65 42.30 42.78 43.11 37.04 42.54 42.92 42.25 44.35 47.47 41.59 44.46 47.91 40.17 40.82 36.44 38.16 35.81 32.96 38.64 41.21 41.11 41.02 40.01 37.09 36.41 40.77 43.63 43.58
56.67 59.05 60.39 62.23 62.55 61.96 59.15 57.40 56.21 54.51 53.08 52.43 51.66 50.93 50.42 50.42 50.03 46.51 44.20 44.92 48.43 46.80 37.63 40.81 43.22 42.39 43.49 46.05 40.77 41.89 44.74 41.36 38.15 35.85 36.01 34.15 37.45 41.88 40.55 39.42 39.39 37.33 36.35 37.91 39.02 43.21 44.33
54.98 56.79 59.12 60.39 62.04 61.20 58.83 57.03 55.31 53.60 52.38 51.74 50.94 50.31 50.14 50.40 45.01 45.16 44.59 48.34 48.61 46.58 31.24 33.36 39.21 42.08 44.42 44.23 39.05 46.63 46.04 42.03 39.92 34.43 37.31 37.66 41.59 40.39 39.15 38.86 39.65 33.54 40.46 41.54 41.39 38.95 34.86
53.76 55.18 57.04 59.67 60.71 60.75 58.56 56.61 54.60 52.94 51.93 50.90 50.58 49.91 50.29 50.54 43.67 44.95 46.75 48.48 47.12 43.32 11.86 34.60 37.79 46.75 44.82 40.92 41.13 42.40 47.67 43.65 37.39 37.22 38.50 34.64 38.13 38.75 38.59 39.73 41.44 37.94 41.06 41.43 41.11 38.33 36.07
53.05 54.73 56.15 58.92 58.64 60.07 58.12 56.00 54.03 52.53 51.43 50.52 49.87 50.38 51.06 47.09 47.12 48.70 48.05 46.77 44.27 27.95 9.07 26.53 38.80 37.89 38.52 40.53 40.17 43.22 43.02 45.56 45.31 39.83 39.66 39.02 43.54 42.33 41.20 42.87 42.82 42.22 39.19 38.51 38.69 36.50 26.67
53.51 54.47 55.61 56.71 57.84 59.51 57.22 55.10 53.50 52.11 51.15 50.12 50.18 51.22 49.53 49.38 44.73 47.75 46.99 42.27 31.02 14.78 33.35 28.17 33.29 37.29 36.77 35.31 37.90 39.16 37.96 36.84 35.45 29.75 31.62 35.83 35.57 42.25 43.05 37.26 40.64 38.74 33.11 26.91 25.98 22.53 24.76
52.46 54.07 54.99 56.48 57.62 59.02 56.11 54.15 53.27 51.78 51.02 50.22 50.85 50.86 48.98 49.88 48.61 47.00 43.90 37.57 17.86 30.49 28.04 36.44 36.40 36.19 33.29 36.52 36.33 36.53 35.07 32.25 38.85 37.19 33.66 30.87 28.67 38.28 42.08 39.44 34.97 34.30 32.77 25.24 22.34 20.38 23.83
51.88 54.01 54.53 54.63 55.10 58.36 55.77 53.69 52.86 51.44 50.88 50.46 50.78 45.94 47.38 46.69 48.35 47.23 41.65 31.60 30.08 29.69 34.51 34.56 35.78 31.16 31.58 35.17 35.13 35.49 34.54 35.53 38.18 39.05 31.74 32.64 31.95 40.83 41.52 41.40 39.32 34.85 27.51 34.09 27.50 26.57 22.30
50.97 53.99 53.76 53.83 54.45 57.41 55.11 53.47 52.22 51.29 50.92 50.88 44.18 44.22 45.91 47.84 47.79 44.10 38.17 33.68 34.79 37.97 38.19 36.75 29.62 32.81 28.23 31.83 31.86 33.91 33.70 36.89 37.73 40.69 39.10 36.29 30.85 38.71 40.57 41.59 40.72 37.61 37.97 28.82 25.49 17.60 19.89
50.55 52.45 52.92 54.02 54.09 56.23 54.26 53.43 52.15 51.55 51.01 51.60 44.26 42.00 46.42 48.43 46.30 42.05 33.64 35.00 38.21 40.96 39.69 36.25 32.12 31.27 31.60 31.11 33.28 34.01 33.70 36.57 39.31 39.73 39.43 37.57 34.83 34.74 37.22 36.15 34.44 34.91 33.11 34.19 32.72 29.14 23.16
49.26 51.34 51.18 51.47 54.35 55.21 53.87 52.37 52.10 51.58 51.17 48.84 42.68 35.57 47.33 46.67 38.56 39.41 35.16 39.22 41.69 40.00 42.11 38.74 37.59 36.12 34.50 33.44 32.76 33.21 35.17 35.89 40.93 40.02 35.05 38.42 34.83 31.44 34.15 39.93 40.89 38.19 35.93 35.20 26.57 26.10 26.61
49.48 50.94 50.68 50.91 51.80 54.51 53.26 51.82 52.12 51.66 51.58 44.59 40.06 40.52 47.56 46.71 31.17 34.06 39.03 39.93 42.11 40.09 40.38 39.25 36.99 37.97 38.04 34.88 31.02 37.04 37.06 41.58 44.21 40.49 36.56 38.09 33.32 27.80 28.99 33.80 37.21 35.90 37.24 37.73 35.99 33.00 26.45
50.10 50.78 50.12 50.31 51.89 53.89 52.83 51.59 51.95 51.78 52.03 45.84 39.43 34.58 40.93 42.67 40.74 36.35 35.18 36.37 36.95 43.08 41.50 42.24 39.23 39.32 38.19 34.99 36.51 35.36 36.25 41.84 43.28 40.90 43.74 41.17 33.96 27.57 24.27 29.37 33.87 31.71 35.24 36.75 33.30 25.39 29.37
49.91 50.61 49.45 49.84 53.33 53.74 52.30 51.39 52.21 51.90 52.13 45.16 40.19 34.48 37.52 33.40 33.50 36.64 39.80 38.00 36.31 36.14 40.19 40.16 37.75 38.42 36.20 32.41 35.43 35.18 37.71 39.93 40.94 42.11 40.18 38.21 28.83 27.70 33.32 35.97 35.50 34.19 33.81 34.85 31.48 32.35 28.01
49.84 50.42 49.25 49.61 54.41 53.23 51.43 51.76 51.88 51.50 51.95 42.24 38.30 36.75 36.98 34.57 36.94 37.48 37.84 37.90 36.90 38.73 38.25 37.11 37.73 37.93 37.57 34.63 35.49 34.03 36.87 37.02 36.92 37.69 36.60 37.28 27.60 29.20 25.21 33.74 33.20 30.57 34.04 34.63 34.95 34.83 34.22
49.40 49.85 48.98 49.42 51.06 52.74 51.46 51.05 51.13 51.31 49.53 40.58 39.52 39.45 37.86 36.81 35.27 34.47 34.92 36.85 38.42 39.48 39.67 40.43 40.48 37.99 36.73 37.23 37.19 38.52 39.59 38.63 39.30 36.43 35.17 34.39 28.35 24.56 21.84 29.24 28.31 24.26 30.50 32.47 34.23 35.56 36.18
48.71 49.77 48.42 49.80 52.50 52.40 50.95 50.01 50.89 51.10 49.68 41.30 38.77 38.98 34.87 32.41 35.51 35.90 38.58 39.55 38.60 38.40 37.41 38.17 39.98 37.49 38.95 40.70 40.50 39.04 38.17 37.87 38.03 38.97 39.68 34.34 30.44 25.72 19.51 23.61 14.81 27.72 32.85 34.31 33.82 34.75 35.37
48.05 49.44 48.49 49.50 53.21 51.69 50.57 49.94 50.64 50.92 50.93 40.36 39.30 39.29 35.24 31.23 34.12 37.68 39.73 37.63 38.18 37.90 36.67 36.81 37.24 38.27 40.63 38.73 33.93 31.27 31.17 31.99 33.72 35.16 34.47 36.57 32.83 25.01 22.25 19.43 25.64 29.40 32.61 32.20 31.22 30.67 33.47
47.97 49.09 48.38 49.39 49.73 51.44 50.45 50.07 50.71 49.90 50.50 40.26 37.52 37.98 37.17 33.59 29.17 31.41 37.29 37.10 33.86 32.54 34.44 35.43 38.57 40.87 40.15 37.26 33.71 25.89 24.43 29.81 27.80 30.62 34.98 35.60 33.86 28.23 24.59 21.23 19.43 28.25 34.36 37.52 35.44 26.24 32.77
47.89 48.37 48.69 50.05 51.35 51.16 49.94 49.49 49.20 50.14 50.85 40.43 36.65 38.91 35.40 29.50 30.38 32.19 33.05 33.94 35.76 34.17 32.22 33.89 35.24 36.97 38.84 33.66 29.78 27.07 24.42 31.61 26.14 26.37 27.05 28.51 28.45 24.40 23.92 21.55 26.26 30.95 33.39 37.25 24.44 24.31 32.70
47.96 47.95 48.28 51.86 51.13 50.40 49.72 49.04 48.59 50.42 50.40 40.57 36.68 39.03 35.60 29.74 30.36 33.32 33.72 31.10 32.76 32.77 31.30 32.52 33.77 35.00 34.95 31.38 30.55 28.46 27.33 28.69 27.91 30.42 29.04 27.62 23.96 24.59 26.02 26.14 22.48 33.17 33.30 29.76 30.26 32.71 33.63
48.28 47.65 47.80 47.69 50.26 49.81 48.77 47.80 48.05 50.34 47.16 42.27 35.07 39.36 39.09 32.51 30.28 34.80 35.14 35.67 34.68 33.77 33.38 33.96 33.28 33.88 34.41 33.19 31.63 30.48 28.58 28.88 27.81 24.37 30.31 26.49 29.57 27.62 27.93 27.06 33.05 32.93 32.11 33.75 33.96 32.47 32.07

GFSGBSN_sfc_wetblb_066.txt.gz
Wetbulb
64.08 63.92 63.82 63.82 63.80 63.27 62.95 61.47 59.41 58.34 57.70 57.10 56.92 56.41 55.83 54.97 54.89 54.36 54.28 53.17 53.38 54.92 54.42 54.13 54.10 53.47 49.64 43.69 43.27 52.31 54.25 53.53 54.86 52.72 48.25 46.62 46.47 46.28 43.30 44.85 46.11 45.92 47.31 49.77 51.16 52.18 50.77
63.68 63.89 63.75 63.85 63.66 63.59 63.60 63.05 60.22 58.49 57.79 57.00 56.73 56.13 55.57 54.32 54.46 54.43 54.07 52.35 52.65 54.33 54.36 54.12 53.13 53.00 45.66 37.64 49.15 53.04 51.79 50.97 51.36 50.37 48.42 47.02 47.40 48.50 45.87 44.93 42.63 47.77 49.08 49.08 50.60 50.98 51.06
61.44 63.11 63.24 63.56 63.68 63.35 63.48 63.40 61.45 58.80 57.75 57.04 56.26 55.71 54.50 53.91 53.72 53.44 53.83 52.40 52.21 53.05 53.78 53.98 52.66 50.01 43.07 39.81 48.29 50.24 50.28 48.81 51.21 50.67 47.05 49.33 49.35 46.56 47.39 43.59 48.59 48.54 44.64 46.94 49.01 49.35 49.54
59.42 61.12 61.97 62.87 63.00 63.18 63.04 62.93 61.56 58.58 57.74 56.89 55.69 54.85 53.63 53.75 53.39 52.72 52.30 52.33 51.98 52.45 53.41 53.66 52.15 47.01 38.33 49.40 47.82 48.25 48.19 48.69 51.02 51.96 50.39 51.26 49.91 46.52 46.35 47.39 46.26 43.66 43.00 38.99 42.52 48.46 49.32
57.24 58.36 58.99 60.26 62.04 62.89 62.95 62.80 60.93 58.28 57.51 56.93 55.01 53.43 53.25 53.48 52.96 52.77 52.20 52.10 52.13 52.26 53.35 53.22 46.22 43.36 37.83 50.55 45.21 47.07 46.92 45.77 48.62 49.45 49.86 50.48 47.75 44.21 46.54 42.27 39.82 40.96 33.47 37.41 37.63 45.93 46.97
54.83 55.76 57.43 58.81 60.16 61.41 62.70 62.77 60.12 58.35 57.15 56.38 54.14 52.46 52.81 52.13 52.12 51.70 51.47 51.73 52.07 51.52 49.52 50.42 47.85 37.50 41.14 40.22 44.82 47.43 48.75 47.87 45.97 46.15 44.14 44.28 42.24 39.37 41.11 39.88 32.12 34.08 33.91 35.70 35.10 43.22 43.93
53.61 54.21 55.89 57.25 58.43 59.99 61.60 62.38 60.14 58.31 57.05 55.00 53.58 52.55 51.68 51.44 51.14 50.84 47.79 45.18 41.43 39.34 41.80 37.99 38.59 38.50 40.88 46.45 49.10 46.56 48.48 45.41 45.19 42.73 35.85 40.50 36.28 34.47 36.63 39.90 38.61 38.23 36.59 36.09 39.88 45.14 43.06
52.15 53.01 54.11 56.19 56.35 57.91 59.66 61.93 60.17 57.88 56.85 54.07 52.68 51.78 50.95 50.61 50.46 50.14 46.42 41.33 41.62 42.24 36.01 42.56 41.14 41.39 43.32 46.33 40.66 44.36 46.96 41.28 39.96 36.20 37.90 35.91 33.58 38.03 39.82 41.07 40.40 39.41 36.52 36.01 40.75 44.00 42.53
52.15 52.60 53.13 54.20 55.56 56.42 57.42 60.49 59.97 57.83 55.80 53.45 52.39 51.34 50.44 50.04 49.90 46.06 42.97 44.18 47.43 45.71 36.13 40.06 42.26 41.20 42.87 44.32 39.82 41.52 44.10 41.58 38.55 35.94 35.64 32.84 34.75 40.16 39.35 39.20 39.21 38.10 36.07 36.29 36.45 41.57 43.77
51.78 52.53 52.60 53.97 54.12 55.80 56.93 59.18 59.44 57.61 54.68 52.75 51.93 51.19 50.33 50.07 44.80 44.23 42.80 47.61 47.37 45.58 24.17 31.05 38.30 41.49 43.70 44.27 39.24 46.63 46.16 42.35 38.81 35.74 37.44 37.14 40.86 38.31 38.36 37.98 38.50 34.75 40.41 41.21 39.53 37.94 33.06
51.27 50.97 51.59 52.47 54.72 55.15 56.21 57.23 59.09 56.54 53.54 52.37 51.58 50.86 50.24 50.56 43.22 42.86 45.46 47.49 46.01 41.11 8.52 32.71 36.62 45.90 45.11 40.60 40.84 42.67 47.27 43.41 36.58 36.50 38.15 34.69 38.24 37.45 36.25 38.28 40.15 37.05 41.58 41.03 40.65 37.68 37.06
50.54 50.68 50.66 51.50 53.63 54.26 55.60 57.04 58.57 55.14 52.99 51.58 51.15 50.61 50.77 48.34 44.68 47.02 47.01 45.49 43.20 22.23 8.28 25.75 37.86 36.70 37.77 39.91 40.43 41.38 42.82 45.63 44.81 38.66 39.61 39.07 43.48 39.73 40.24 41.66 41.24 41.66 38.16 37.66 38.65 36.44 29.72
49.87 50.41 50.05 50.99 51.97 53.87 55.47 55.80 57.26 54.22 52.63 51.42 50.78 50.86 49.06 47.67 42.75 46.98 45.91 41.49 22.67 13.16 30.24 26.73 32.21 36.12 35.80 35.32 37.80 38.47 37.81 36.67 33.42 29.92 31.51 36.39 36.43 41.95 43.12 37.73 41.73 40.19 34.15 27.75 27.20 27.12 26.18
49.45 49.88 49.39 50.43 50.75 54.14 55.44 55.09 55.95 53.51 52.31 50.95 51.24 51.40 49.19 48.95 47.28 46.01 42.86 33.91 13.55 26.36 26.03 35.12 35.17 35.02 32.12 35.56 35.74 36.18 33.73 33.54 39.05 36.88 31.79 30.76 28.99 38.07 41.70 38.61 36.26 36.36 33.66 27.02 22.73 22.06 25.64
49.70 49.31 48.93 49.82 50.32 54.56 54.58 55.19 54.49 52.76 51.72 51.06 51.59 45.36 45.23 46.03 47.51 46.03 36.79 22.24 23.21 25.68 33.15 33.45 34.31 29.88 29.94 34.10 35.18 34.14 33.91 35.27 37.87 38.12 31.66 30.63 31.96 40.65 41.15 40.78 39.58 35.65 31.32 35.97 27.94 26.27 22.96
50.36 50.35 50.00 49.54 51.74 52.32 53.29 54.85 53.64 51.87 51.38 51.59 45.00 43.21 43.70 46.96 47.04 42.64 34.51 31.94 31.48 35.70 37.11 35.86 28.39 31.73 26.76 30.34 31.25 33.20 33.01 37.17 37.55 39.42 38.86 34.80 29.94 38.19 39.63 39.93 39.09 35.51 37.01 28.26 28.23 18.81 20.62
49.57 49.86 50.15 49.46 51.09 51.72 52.30 55.49 52.37 52.06 51.31 50.91 44.27 39.29 45.03 47.41 45.94 38.61 28.36 34.07 36.49 39.67 38.78 35.00 31.00 29.98 30.31 30.29 32.66 32.46 31.96 36.94 38.54 38.76 38.73 35.93 32.22 33.64 35.41 35.17 33.40 34.00 31.27 32.34 30.92 28.12 21.71
49.70 49.59 49.93 50.41 50.92 50.74 52.05 54.17 52.06 51.47 51.86 49.09 42.91 34.37 45.22 46.28 37.27 38.25 34.76 38.60 41.34 38.27 39.64 37.47 36.49 35.01 32.56 32.01 31.54 32.35 33.31 34.95 39.46 38.99 34.95 36.50 33.39 29.48 30.44 37.47 39.84 38.02 34.39 32.08 23.60 23.71 24.42
49.13 49.45 50.28 50.60 50.76 50.21 51.04 52.96 51.99 52.38 51.75 45.87 39.43 40.65 46.58 45.50 33.07 33.20 39.08 40.16 40.51 38.74 38.72 37.85 35.93 37.07 36.71 33.46 31.36 36.01 36.42 40.33 41.80 38.77 35.06 36.53 31.07 20.92 26.44 31.70 36.08 35.51 36.24 37.01 34.92 31.49 27.21
48.96 48.96 50.15 50.42 50.37 50.43 50.40 52.81 51.96 52.54 51.88 46.54 38.62 34.51 40.55 42.29 40.23 36.25 36.05 37.38 37.87 41.51 39.81 40.62 37.93 37.84 35.45 33.81 35.06 35.40 36.56 41.80 42.56 39.31 44.04 40.65 31.79 26.95 22.69 26.78 33.06 30.63 34.65 35.40 32.39 25.83 28.06
48.75 48.72 49.41 50.21 50.21 49.43 52.98 52.38 51.84 52.20 52.07 45.57 38.11 33.28 37.56 33.10 35.20 34.49 35.88 36.92 36.25 35.73 38.75 38.73 35.94 37.06 34.67 30.40 32.40 33.55 38.07 39.17 40.20 41.71 38.83 36.60 27.35 26.73 31.81 33.92 33.36 32.26 33.34 34.34 31.09 32.26 29.60
48.65 48.48 48.49 49.57 49.89 49.23 52.96 52.39 52.02 51.65 52.41 44.95 37.60 34.76 35.46 32.65 35.42 34.28 36.63 35.28 35.56 37.20 36.54 35.39 35.04 36.45 35.75 33.30 33.00 31.95 36.98 35.07 33.80 36.85 35.30 35.54 25.89 28.23 24.96 32.33 31.89 30.31 32.90 33.35 33.87 33.18 32.94
48.44 48.76 48.43 48.45 49.66 49.21 50.03 51.79 51.46 51.53 50.86 42.23 39.91 38.42 37.18 35.17 33.21 33.43 35.25 37.78 37.53 38.40 38.19 39.40 39.26 36.72 35.14 35.45 36.13 36.88 37.59 37.33 37.36 35.59 33.90 32.74 28.13 23.79 22.59 27.93 27.99 24.51 29.06 31.71 33.62 33.93 33.93
48.31 48.45 47.86 48.83 48.92 48.71 51.54 51.41 51.45 51.61 48.78 42.23 38.64 37.97 35.01 31.78 33.99 34.48 37.38 39.07 38.43 37.51 36.23 36.75 39.66 36.58 38.45 40.11 38.89 38.31 36.86 36.33 36.47 35.53 37.49 32.23 28.71 24.66 17.94 23.10 14.92 27.27 32.36 34.24 32.93 32.84 33.67
48.47 48.49 47.62 49.23 48.79 50.07 52.00 50.91 50.74 51.23 48.25 40.27 38.25 38.09 34.68 30.47 33.77 35.81 37.94 36.72 36.27 36.22 35.07 35.81 36.52 37.63 39.91 37.99 33.22 30.47 30.05 31.37 33.00 33.95 35.02 35.36 30.82 24.38 20.80 18.75 24.56 28.01 31.17 30.63 30.01 27.98 30.73
48.47 48.17 47.41 49.31 48.36 49.00 49.84 50.30 50.10 50.85 51.83 40.31 36.78 37.55 36.40 33.43 29.14 30.33 36.58 37.64 32.65 30.94 32.47 34.55 38.37 40.07 40.14 35.56 32.12 24.71 23.43 26.67 26.39 29.12 33.83 33.42 32.39 26.90 23.93 20.61 19.49 27.29 32.10 33.91 33.69 25.56 30.90
48.37 47.87 47.52 48.50 48.10 50.18 50.37 50.38 49.95 50.66 50.73 39.84 36.52 38.23 35.02 29.11 29.37 30.69 34.10 34.24 35.10 32.63 31.10 32.83 34.63 35.95 37.80 32.11 29.02 26.81 24.48 30.02 25.56 25.81 26.33 27.65 26.97 24.20 23.56 21.09 25.22 30.58 32.26 34.60 23.90 25.05 31.50
48.08 47.40 47.84 47.88 48.41 50.86 51.13 49.88 49.66 50.24 48.37 39.63 36.32 38.08 34.83 29.18 29.66 32.05 32.68 31.48 32.50 32.94 31.32 32.87 33.99 34.87 34.05 29.96 29.56 27.81 26.37 27.87 26.65 28.17 27.47 26.84 23.79 24.02 24.89 22.12 22.55 31.44 31.86 29.54 29.97 31.92 32.51
47.88 47.16 47.82 47.73 48.60 50.84 49.94 49.25 49.32 49.71 47.50 41.75 34.92 38.20 37.70 31.83 30.47 33.81 33.87 34.54 34.16 32.97 32.89 32.67 32.28 33.24 34.20 31.44 30.44 29.05 28.18 27.13 26.31 24.08 28.51 26.29 28.63 26.67 27.25 26.81 30.02 31.44 31.19 32.26 33.02 31.71 31.21

GFSGBSN_sfc_wetblb_069.txt.gz
Wetbulb
60.28 61.15 61.57 62.50 62.99 63.17 63.28 63.20 63.02 62.93 60.94 59.61 58.08 57.46 56.86 56.34 55.12 54.71 54.90 54.79 53.42 53.17 54.58 54.32 54.08 53.05 48.76 42.59 42.33 50.85 54.66 52.96 53.31 52.44 47.99 45.75 44.03 43.89 41.63 42.32 45.05 43.96 45.93 49.40 50.78 51.45 50.88
58.25 58.65 59.30 59.82 60.28 61.44 62.65 62.98 62.62 62.57 61.91 59.69 58.14 57.32 56.51 55.45 54.28 54.13 53.87 54.09 53.02 52.71 53.80 54.22 53.75 52.39 44.54 36.27 47.42 50.78 51.28 49.70 50.30 49.64 47.67 46.45 45.28 47.41 45.37 44.23 42.47 46.35 45.75 48.32 50.30 50.71 50.71
56.22 56.46 57.12 57.84 59.01 59.78 60.74 61.82 62.13 62.21 62.18 59.81 58.13 57.11 55.55 54.37 54.00 53.70 53.11 52.94 53.01 52.33 52.73 53.85 53.45 49.46 42.38 39.11 47.06 48.89 48.94 47.92 49.63 49.87 46.50 47.34 48.17 45.78 46.31 43.57 45.62 46.56 42.50 47.24 48.34 49.40 48.95
54.77 55.33 55.59 56.09 56.60 57.82 59.67 60.21 60.91 62.01 62.17 59.73 57.67 56.58 54.83 53.58 53.90 53.28 52.75 52.36 52.25 52.18 52.53 53.45 52.69 46.20 37.80 48.20 46.55 47.49 47.48 46.88 49.71 51.40 50.16 50.16 49.79 45.38 45.94 47.32 44.23 41.09 39.47 39.50 43.51 46.90 49.40
53.55 53.63 53.40 54.09 55.19 56.18 56.92 58.55 59.34 60.55 61.75 59.39 57.32 55.38 53.84 53.34 53.16 52.50 52.21 52.04 52.02 52.20 52.36 53.25 45.59 42.07 36.96 49.45 44.25 46.03 46.24 44.84 47.65 49.27 50.00 50.15 47.60 43.70 45.00 40.20 38.67 38.65 32.18 37.12 38.98 45.78 45.96
52.88 53.13 53.39 52.98 53.75 54.55 55.47 56.93 58.18 59.27 61.00 58.71 57.17 54.19 53.11 52.88 51.79 51.33 50.97 51.25 51.63 50.84 49.33 50.07 47.43 37.25 39.87 39.14 44.01 46.39 47.75 47.63 45.02 45.53 43.99 43.91 42.21 39.22 39.48 39.47 31.55 33.20 32.29 37.01 37.39 42.44 44.26
52.61 52.37 52.66 53.09 53.20 53.33 53.82 54.83 56.61 57.63 60.31 57.72 55.69 53.39 53.18 51.95 51.09 51.07 47.10 44.25 40.97 38.52 41.05 37.49 38.17 37.38 39.94 45.64 47.75 45.01 47.67 44.42 44.49 42.16 35.96 40.02 36.46 31.06 37.03 37.76 38.41 37.72 36.30 35.65 39.55 44.13 42.01
51.25 51.42 52.04 51.81 52.41 53.56 53.01 53.62 55.50 56.06 58.73 57.51 54.71 53.37 52.60 51.58 50.86 50.31 45.84 40.31 40.54 41.35 34.78 42.04 41.21 40.05 42.47 44.91 39.78 44.33 46.28 40.60 39.21 35.05 38.02 35.72 33.93 37.41 39.29 39.52 38.88 38.46 36.07 35.91 40.96 43.82 41.77
50.88 51.18 51.16 51.34 52.05 51.57 53.11 52.91 54.48 55.12 57.01 57.05 53.97 53.10 51.91 50.86 50.08 46.09 42.63 43.29 46.63 44.51 34.99 38.75 40.85 40.15 42.06 44.15 39.35 41.15 43.57 41.22 37.62 35.52 35.44 31.99 35.40 39.82 38.61 36.28 36.29 37.43 34.91 35.37 36.58 41.17 43.08
50.28 50.61 50.92 52.15 52.25 51.50 51.59 52.39 52.91 54.79 55.92 56.00 53.71 52.69 51.54 50.45 44.83 43.87 41.80 46.48 46.69 44.02 20.41 29.59 36.83 40.68 43.91 44.23 39.31 46.56 46.13 42.01 38.34 34.81 34.99 35.67 39.64 38.65 36.09 33.37 38.55 33.43 39.75 39.20 39.17 35.98 31.31
49.97 49.86 50.25 50.31 50.68 51.15 50.97 52.25 52.26 54.11 55.15 54.45 53.30 52.20 51.25 50.45 43.67 42.38 44.47 46.61 45.38 38.15 6.71 30.58 35.42 44.89 44.63 40.12 40.52 42.24 47.12 43.05 35.92 36.96 37.45 34.93 36.24 36.35 34.62 36.44 40.46 36.70 42.48 39.97 39.51 36.88 36.33
50.48 50.20 49.86 50.06 50.30 50.20 49.93 50.71 51.67 53.47 56.04 53.53 52.76 51.68 50.97 48.12 44.69 45.95 46.02 45.35 41.05 21.04 6.63 24.15 36.73 35.86 37.49 39.67 39.58 40.98 41.89 45.12 44.28 39.14 39.92 38.82 42.66 39.73 38.94 41.62 41.31 41.97 39.60 38.80 38.27 36.14 29.65
50.25 50.23 50.19 50.26 49.96 49.63 49.81 50.24 51.37 54.13 55.27 53.02 52.13 51.33 49.48 47.52 41.99 46.25 45.26 40.33 21.59 12.43 28.17 25.69 31.04 34.90 35.90 35.39 37.46 38.82 37.79 37.67 35.01 30.59 31.42 36.19 36.41 40.42 42.74 37.31 40.22 39.65 34.44 28.25 26.10 27.38 26.76
50.09 49.78 49.96 50.22 49.93 49.53 49.79 50.10 52.25 54.28 54.99 52.03 51.52 50.92 49.65 47.97 46.84 45.40 42.08 31.85 11.97 23.74 24.81 33.55 33.86 34.05 31.08 34.66 34.16 35.61 35.34 34.53 38.32 36.07 33.07 30.82 28.25 35.92 41.14 37.12 35.70 35.90 32.35 26.87 21.64 23.55 25.49
49.90 49.85 49.59 49.91 50.40 50.65 49.91 50.88 53.22 53.32 52.76 51.49 51.26 46.49 46.05 47.04 46.70 45.05 35.57 20.46 20.84 24.68 31.86 32.33 33.10 28.86 29.56 32.98 33.74 34.05 34.67 34.84 38.21 36.83 31.10 30.95 31.09 40.70 41.04 39.56 38.48 35.43 30.13 35.35 26.62 24.99 25.51
49.60 49.60 49.90 50.14 50.40 50.47 49.69 51.83 52.55 53.33 51.30 51.82 45.82 44.37 44.20 47.17 46.43 42.35 35.94 28.52 30.24 33.48 35.64 34.43 27.85 30.50 25.62 28.94 29.84 31.19 32.19 35.73 36.78 38.33 37.65 34.59 30.89 37.57 39.84 40.90 38.81 36.07 36.73 29.60 28.66 21.20 20.35
49.41 49.42 49.56 50.26 50.45 50.53 50.84 52.17 54.01 51.83 51.67 50.54 44.89 40.19 44.40 47.15 45.56 39.98 30.66 28.83 35.08 38.32 37.62 32.59 29.59 28.51 29.17 29.02 30.84 31.42 30.92 35.03 37.83 37.48 36.92 34.22 31.46 31.86 35.21 35.70 32.18 32.81 30.90 31.47 30.70 28.54 22.10
49.23 49.43 49.48 50.40 50.38 50.27 50.74 51.06 53.54 51.46 52.28 49.11 43.64 35.83 45.10 45.32 36.87 36.62 31.84 35.88 40.05 37.38 38.19 36.59 34.90 33.77 30.50 31.25 30.49 30.45 31.71 34.30 39.39 38.20 33.39 34.80 32.00 28.80 29.94 36.37 37.98 35.30 32.14 30.47 23.88 24.37 23.03
48.59 49.26 49.25 50.22 50.19 50.05 50.42 50.14 51.63 52.02 52.02 46.25 40.20 39.80 45.44 45.07 30.30 30.94 37.82 38.33 38.52 37.02 37.45 36.49 34.70 35.91 35.76 31.83 30.24 34.57 34.58 39.47 40.52 37.35 33.74 35.21 27.89 19.48 23.77 29.63 35.04 34.11 34.74 33.69 31.69 28.52 23.78
48.59 48.95 49.05 49.97 49.84 50.22 50.23 49.81 51.80 51.74 52.42 46.59 40.12 34.48 40.33 42.27 37.69 34.57 36.50 35.79 35.39 39.95 38.54 39.11 36.41 36.66 34.24 32.46 34.19 34.03 34.54 39.70 40.01 38.89 43.53 39.22 30.07 25.61 21.12 25.12 31.18 29.35 33.20 33.23 30.19 22.45 25.73
48.87 48.95 48.91 49.29 49.96 49.57 50.31 49.66 52.01 51.19 52.51 47.37 38.81 34.25 38.37 32.93 34.47 36.19 36.30 37.89 35.37 34.74 37.43 38.81 35.39 35.61 33.28 29.11 31.63 34.14 37.97 36.93 38.82 40.82 37.47 34.66 26.44 26.36 30.22 32.38 32.13 31.24 32.44 33.53 29.59 31.71 26.74
48.74 48.83 49.04 49.12 49.20 48.44 50.19 49.48 51.28 51.00 52.34 45.48 38.16 34.18 36.32 34.45 34.49 35.52 36.69 34.86 36.11 35.70 35.25 34.20 34.32 35.53 34.49 31.59 31.56 31.32 37.10 34.20 32.20 36.16 34.08 34.12 24.92 27.54 24.00 29.87 30.23 29.52 31.30 32.73 32.86 31.90 31.64
48.74 48.83 48.89 49.08 48.62 48.22 49.38 49.05 49.31 51.16 51.09 43.71 41.72 38.27 36.22 36.57 32.17 33.74 33.80 34.88 35.98 37.23 36.79 37.79 37.42 35.28 33.85 34.44 35.52 35.30 36.63 37.31 35.94 33.58 32.66 31.25 27.76 23.07 21.27 26.45 27.47 23.86 26.69 29.95 31.57 32.02 32.02
49.29 48.90 48.85 49.10 48.00 48.75 48.78 49.63 50.91 51.54 50.08 43.59 39.25 37.02 33.76 31.26 32.98 33.82 36.89 37.75 37.05 36.53 35.36 35.80 37.98 35.94 37.64 39.86 37.35 37.12 36.10 35.25 34.93 33.90 35.88 30.58 27.50 23.91 17.94 22.60 14.89 25.64 30.89 32.36 30.69 30.47 31.58
48.84 48.91 48.86 48.80 48.00 49.59 49.14 51.95 51.63 50.70 48.27 41.42 38.10 36.68 34.69 29.80 32.82 34.61 38.02 36.63 36.13 34.85 33.95 35.09 35.99 36.51 39.20 36.24 32.40 30.03 29.28 31.57 32.21 32.81 33.44 33.26 29.24 23.58 19.37 17.78 23.42 26.70 30.74 30.62 29.41 28.67 30.03
48.68 48.73 48.80 48.44 47.72 49.01 49.11 50.41 50.71 51.00 49.34 40.64 37.08 36.70 36.05 34.09 28.73 29.73 36.70 35.53 31.97 30.07 31.82 34.31 38.08 39.23 38.47 34.41 30.75 24.29 22.66 25.53 25.75 27.67 34.60 32.23 30.61 26.55 23.64 19.92 18.83 25.86 31.36 32.71 33.10 25.21 30.90
48.79 48.64 48.59 47.86 48.81 48.79 50.82 50.51 50.64 50.47 51.08 41.93 36.44 37.20 34.61 28.66 28.28 31.92 35.15 35.56 35.67 31.77 30.42 32.28 33.65 35.73 36.78 30.72 28.85 26.33 23.76 28.67 24.45 24.95 25.78 27.95 26.28 23.49 22.65 20.40 25.02 29.64 31.49 32.97 23.23 24.65 30.96
48.42 48.35 48.18 47.60 48.67 48.82 50.80 50.59 49.97 49.65 49.63 42.02 35.74 37.13 34.30 28.39 29.04 31.89 33.04 32.75 32.93 32.69 31.44 32.98 33.77 34.50 33.39 29.79 29.06 27.53 25.97 27.26 24.93 26.13 25.79 26.07 23.05 23.29 23.92 21.20 19.42 30.46 31.41 28.61 29.49 30.80 31.70
47.79 48.17 47.84 47.83 48.24 49.78 50.90 50.31 49.82 49.81 47.33 42.96 36.36 37.41 37.08 31.63 29.99 32.99 32.79 33.33 33.22 32.59 32.71 31.70 31.89 32.72 33.89 30.86 29.44 28.43 27.79 25.81 25.37 23.61 26.86 25.45 27.63 26.14 26.89 26.16 29.14 29.86 29.97 31.37 31.99 31.13 30.29

GFSGBSN_sfc_wetblb_072.txt.gz
Wetbulb
56.49 56.73 56.97 57.24 57.84 58.46 59.06 60.32 61.03 61.34 62.17 62.84 62.92 60.16 58.13 57.79 57.11 55.76 54.72 54.70 54.60 53.73 53.11 54.45 54.43 53.09 47.83 41.55 41.24 49.80 55.65 52.90 53.00 52.19 47.86 45.35 42.83 42.19 37.83 39.27 41.74 41.57 42.77 45.99 48.62 49.80 50.77
54.86 54.89 55.17 55.26 55.64 55.97 56.87 57.89 58.97 59.31 60.52 61.56 62.56 59.87 57.44 57.56 56.20 55.03 54.23 53.63 54.35 53.04 52.40 53.43 53.96 51.94 43.56 34.68 45.67 48.99 50.08 49.56 48.88 48.58 46.87 46.07 43.60 45.95 40.21 40.54 40.46 42.42 43.22 44.98 48.27 48.36 50.43
53.76 53.91 54.18 54.24 54.11 54.54 55.36 56.15 57.19 58.19 59.40 60.56 62.01 59.96 57.34 56.29 55.49 54.45 54.02 53.12 52.78 52.98 52.01 52.71 53.49 48.96 41.90 37.60 45.80 47.53 48.11 47.05 48.26 48.24 45.22 47.10 47.14 44.10 43.70 40.78 44.00 43.16 40.53 43.26 46.04 47.81 48.19
53.53 53.76 53.59 53.14 53.55 53.51 53.73 54.11 54.77 55.90 56.97 59.11 60.57 59.13 56.95 55.55 54.80 54.19 53.44 53.01 52.56 52.31 51.94 52.43 52.64 45.46 37.24 46.43 45.75 46.30 46.49 46.09 47.97 50.02 48.72 49.16 48.77 44.99 42.67 45.13 43.74 39.71 40.60 36.68 43.58 47.50 49.08
52.06 52.48 52.43 52.76 53.21 53.05 53.21 52.96 53.34 54.28 55.65 57.54 59.45 57.86 56.13 54.70 53.91 53.47 52.61 52.13 52.07 52.37 52.09 52.33 45.55 41.09 35.61 48.40 43.84 45.18 45.46 44.56 46.01 47.79 48.51 49.44 46.75 43.10 43.66 37.17 37.28 38.70 31.56 33.69 37.46 46.28 45.26
52.19 52.05 51.94 52.08 52.18 52.32 52.89 52.53 53.14 53.30 54.66 56.08 57.37 57.56 55.22 53.79 53.56 52.20 51.23 51.34 50.87 51.10 49.33 49.68 46.75 37.54 38.72 37.88 43.23 45.60 46.79 46.52 44.67 44.15 43.80 43.39 41.71 39.31 38.10 34.75 28.41 32.88 30.80 34.54 34.96 42.71 43.34
51.88 51.60 51.32 51.56 51.71 51.77 52.28 51.98 52.21 52.47 52.96 55.23 56.07 57.02 54.26 53.64 52.42 51.50 47.59 44.65 40.91 38.21 41.01 36.28 37.32 36.92 39.17 44.55 47.17 45.19 46.91 43.57 43.20 41.05 35.60 40.06 35.57 33.00 34.22 34.46 38.65 35.87 34.81 32.84 39.20 43.61 42.10
51.00 51.16 51.10 50.78 50.74 51.16 51.26 51.78 51.76 51.81 52.58 53.78 54.22 55.96 53.78 53.35 52.06 50.89 45.57 40.55 40.91 41.43 33.91 40.75 40.59 39.79 41.82 44.37 39.75 43.38 45.64 38.95 37.29 34.09 37.53 35.93 33.60 36.97 39.57 39.50 39.35 36.98 34.68 33.96 39.28 43.27 41.93
50.55 51.07 51.79 51.58 50.65 50.65 50.59 50.61 51.44 51.18 51.64 52.86 54.06 55.60 53.86 52.38 51.10 47.41 42.56 42.98 46.35 44.00 34.34 37.58 40.45 39.17 40.80 43.77 39.25 40.57 43.14 40.21 37.15 34.90 35.28 32.81 35.73 39.50 38.56 36.98 37.66 36.92 34.90 35.12 33.89 39.30 41.77
50.62 51.39 51.62 51.41 51.32 50.71 51.09 50.41 50.76 50.74 50.78 52.21 52.75 54.72 53.21 51.59 46.05 43.89 41.38 46.03 46.72 42.65 21.09 28.91 35.25 39.50 43.13 43.69 39.16 46.19 46.00 40.30 37.43 34.17 35.78 35.44 39.56 37.55 35.98 34.81 37.19 34.21 39.47 38.79 37.26 34.80 30.45
50.64 51.11 51.08 50.76 50.84 51.47 51.63 51.10 50.50 50.15 50.20 51.64 52.31 54.46 52.72 51.01 44.26 42.89 44.80 46.64 45.21 37.56 8.07 29.17 34.00 43.98 43.91 39.89 40.33 41.98 46.98 42.41 35.83 35.74 37.55 34.46 36.59 36.02 34.24 35.48 39.39 36.18 40.56 38.77 38.61 36.31 35.32
50.53 50.88 50.74 50.79 50.44 51.43 50.44 50.80 50.48 50.27 49.47 50.51 51.64 54.19 52.13 48.41 45.54 46.32 46.57 45.29 40.46 21.51 7.52 22.84 35.75 35.15 37.30 39.75 39.43 40.83 41.55 44.23 43.15 39.03 39.75 38.27 41.26 40.09 36.56 38.54 39.70 41.38 38.46 38.71 37.85 36.01 27.86
49.87 50.30 50.34 50.35 50.24 50.62 50.52 50.52 50.31 50.14 49.52 50.39 51.80 52.78 50.27 48.73 42.25 46.21 45.52 40.03 21.07 14.62 27.15 25.51 30.31 34.29 36.27 35.38 37.71 38.60 37.59 37.02 35.20 27.80 31.42 35.47 36.74 40.13 41.75 38.47 40.93 39.46 34.97 28.10 26.99 27.19 25.91
49.34 49.88 50.00 50.09 50.11 50.42 50.92 50.85 50.05 49.64 50.09 52.16 52.76 51.66 49.66 47.86 47.61 45.95 41.74 30.81 14.16 23.21 23.57 32.13 32.95 33.29 30.52 35.10 35.82 37.44 36.44 34.84 36.83 34.80 33.15 26.37 22.82 36.99 40.73 38.20 36.37 34.64 33.09 26.48 21.90 23.75 26.66
49.33 49.55 49.61 49.64 50.14 50.34 50.75 51.12 51.32 51.01 51.85 51.98 51.56 48.09 46.38 47.56 46.71 44.49 35.96 17.77 21.18 23.85 30.71 31.18 32.53 28.54 28.55 32.03 33.46 35.24 34.42 35.98 37.92 36.63 30.15 31.54 31.12 40.00 39.73 38.67 37.73 35.12 30.14 33.46 26.30 27.07 25.85
49.25 49.46 49.34 49.77 49.98 49.87 50.37 51.23 51.16 52.05 52.99 51.67 46.15 44.43 44.18 47.35 47.04 42.48 32.94 27.58 29.73 31.91 34.30 32.87 27.38 28.98 25.18 28.21 29.63 30.66 32.09 35.63 37.16 39.45 37.79 34.08 30.69 37.37 39.18 38.60 38.79 34.77 36.18 28.10 27.33 19.87 19.78
49.44 49.32 49.47 49.62 49.95 49.73 50.28 50.73 52.53 52.35 51.45 50.30 44.85 39.70 45.23 47.59 45.63 39.63 27.19 27.84 33.95 36.52 36.42 31.48 28.47 27.90 27.70 28.27 29.84 28.83 30.10 36.73 38.39 36.64 37.32 34.37 31.53 33.18 34.47 33.44 31.35 32.53 31.14 31.12 29.38 26.64 23.44
49.21 49.72 49.80 49.54 49.82 49.46 50.28 50.52 50.49 51.09 51.02 48.61 43.49 34.31 45.72 45.88 37.20 37.04 31.75 33.98 39.13 36.18 37.18 35.93 33.73 32.79 29.33 29.94 29.25 29.28 30.81 34.23 39.00 37.44 32.44 33.31 30.75 28.79 29.53 34.54 36.99 36.72 31.11 28.80 23.32 24.09 22.78
49.08 49.72 49.76 49.55 49.27 49.34 50.04 50.20 51.06 51.64 50.97 46.38 38.89 39.03 45.94 45.21 31.67 32.51 34.81 36.50 36.84 35.67 35.62 35.33 33.85 35.08 34.53 30.99 29.33 32.14 33.54 38.73 38.91 36.50 32.47 33.84 26.74 18.13 23.55 28.92 33.21 31.78 33.07 32.16 29.55 26.41 22.16
49.15 49.47 49.49 49.23 49.69 49.46 49.85 49.87 50.04 51.85 51.20 46.51 39.64 32.85 39.28 41.72 39.04 30.06 32.70 33.92 33.58 38.39 37.37 37.53 35.09 36.03 33.16 30.84 33.02 32.24 32.97 38.46 39.00 38.58 42.25 37.81 28.47 24.82 20.15 24.63 30.08 29.76 31.39 31.62 28.82 21.26 24.90
49.30 49.09 49.25 49.24 49.43 49.44 49.32 49.62 50.18 51.92 51.36 46.38 39.69 35.51 39.04 32.86 35.22 32.05 34.00 35.55 33.56 33.80 36.74 37.48 34.50 34.30 32.26 28.42 30.03 31.79 34.83 35.17 37.42 39.62 35.97 33.50 26.14 24.93 27.83 31.03 31.23 31.34 31.34 31.78 26.73 28.85 24.53
49.21 49.34 49.35 49.38 49.52 49.59 48.69 49.92 50.52 51.95 52.28 45.01 38.08 35.87 36.65 35.02 33.40 32.24 36.70 33.65 33.89 34.62 34.75 33.14 33.36 34.75 33.36 30.96 30.28 30.60 34.61 31.99 30.69 35.05 32.39 32.93 24.11 26.70 24.04 28.40 29.16 29.25 30.15 31.63 31.30 30.90 30.57
49.03 49.11 49.42 49.36 49.53 49.35 49.18 49.57 49.36 50.08 50.96 44.06 41.76 40.07 37.14 36.23 31.69 31.45 33.31 35.79 36.23 36.34 36.17 36.84 36.21 34.08 33.16 33.77 34.43 34.08 35.85 35.18 34.36 31.80 31.31 29.88 27.03 22.42 20.83 25.62 26.66 23.61 26.38 29.37 30.30 30.47 31.63
49.14 49.19 49.30 49.51 49.33 49.04 48.72 49.68 50.15 50.16 49.80 44.34 41.12 38.11 34.40 31.82 31.77 32.85 35.18 36.32 35.67 35.25 34.57 34.95 36.63 34.89 36.10 37.59 36.05 36.08 35.32 34.53 34.01 32.85 33.99 29.32 26.61 23.21 17.82 22.47 15.25 25.71 29.76 30.89 30.42 29.84 29.96
48.78 49.04 49.47 49.33 49.25 48.60 49.57 49.93 50.98 49.76 49.53 42.86 39.55 38.26 34.41 31.82 31.12 33.48 36.33 34.34 33.97 33.78 33.34 34.30 35.50 35.57 38.02 34.93 31.86 29.71 29.09 31.11 31.54 31.75 32.12 31.98 27.85 22.56 18.92 17.11 22.68 25.19 29.48 29.22 28.06 28.87 30.12
48.61 48.94 49.12 49.16 48.85 48.61 49.77 50.94 51.91 51.47 48.05 41.12 38.30 37.87 33.76 32.53 31.45 28.55 36.22 34.10 31.21 29.31 31.28 34.41 37.55 38.52 37.26 33.00 29.69 23.72 22.02 24.61 25.07 26.67 31.48 31.23 29.71 26.24 23.08 19.38 18.02 24.04 30.20 32.38 32.10 24.24 29.87
48.58 48.96 48.55 48.98 48.52 48.61 50.17 51.50 51.14 50.63 48.69 41.79 37.79 36.36 33.04 28.18 27.53 29.52 34.58 33.34 33.56 31.37 29.92 31.52 32.87 35.17 35.48 30.33 28.62 25.78 22.70 26.14 23.64 23.89 24.63 27.03 25.36 22.81 22.34 19.95 24.06 28.14 31.07 32.22 22.73 24.10 29.76
48.54 48.63 48.56 48.80 48.14 48.62 50.38 51.35 51.28 50.12 47.90 42.31 35.83 35.74 33.37 28.38 28.71 32.68 33.30 32.46 32.56 32.72 31.28 32.74 33.43 34.22 32.75 29.30 28.63 27.07 25.48 25.69 23.19 23.83 23.82 25.79 22.56 22.55 23.08 20.12 17.84 29.42 30.75 26.88 28.82 29.20 30.77
48.57 48.46 48.74 48.28 48.29 49.01 51.14 50.91 51.21 50.35 47.71 43.25 34.85 36.71 36.18 31.24 29.61 34.12 34.34 34.89 32.42 31.79 32.64 31.16 31.70 32.11 33.27 30.38 28.84 27.96 26.87 24.68 24.23 22.07 25.44 24.36 27.03 25.36 26.24 25.58 28.62 28.57 28.48 29.84 31.06 30.41 28.72

GFSGBSN_sfc_wetblb_075.txt.gz
Wetbulb
54.65 54.20 54.23 54.60 54.75 54.74 54.92 55.46 56.20 56.58 57.24 58.32 59.48 60.84 61.73 59.91 58.57 57.15 56.47 55.27 54.42 54.16 53.41 53.03 54.36 52.74 47.98 41.89 40.85 49.11 54.02 53.35 53.73 51.66 47.73 45.24 42.39 41.73 38.16 39.80 40.79 39.71 41.23 44.37 45.84 46.58 48.86
53.42 53.62 53.95 53.81 53.69 53.83 54.07 54.05 54.29 54.54 55.17 56.18 57.70 59.50 59.92 58.88 57.89 56.50 55.46 54.65 53.68 53.82 52.68 52.78 53.50 51.90 44.60 32.67 45.15 48.99 49.30 50.20 49.13 49.59 47.21 46.46 43.22 44.30 39.99 40.11 38.90 41.38 41.67 42.08 44.52 45.44 48.06
53.15 53.21 53.16 52.64 52.62 53.31 52.95 53.30 52.87 53.20 53.99 55.01 56.88 57.67 60.34 58.09 56.98 55.69 54.99 54.24 53.00 52.58 52.55 52.75 53.29 48.90 42.49 36.45 45.75 46.81 47.95 47.27 48.57 48.14 44.96 47.43 46.93 43.17 42.14 38.43 42.87 42.08 38.35 39.93 42.28 44.65 45.94
53.10 52.81 52.80 52.54 52.47 52.60 52.46 52.70 52.99 53.04 53.46 53.97 55.14 56.55 59.35 57.56 55.64 55.03 54.46 53.23 52.72 52.05 51.73 52.65 53.00 45.82 36.08 45.63 46.42 46.43 47.29 46.62 47.84 48.71 48.66 48.91 48.40 44.10 40.77 42.51 40.94 37.53 38.16 32.57 39.52 44.33 47.00
52.38 52.72 52.63 52.30 52.12 51.96 52.27 51.90 52.37 52.57 52.65 53.15 53.39 54.73 55.66 56.60 54.91 54.02 53.25 52.07 51.69 51.89 51.89 52.31 47.34 41.10 34.26 47.72 44.07 45.94 46.65 44.91 46.32 47.13 48.25 49.24 46.34 41.26 40.99 36.20 33.82 36.91 30.22 30.92 38.03 45.43 45.93
52.04 52.01 51.88 51.61 52.16 51.86 51.65 51.64 51.39 52.27 52.04 52.22 53.29 53.12 54.68 55.81 54.01 53.63 51.65 50.80 50.98 50.96 49.89 49.99 46.24 37.63 38.71 37.71 43.37 45.71 47.22 46.73 44.16 44.16 43.24 42.93 40.96 36.81 38.25 35.60 28.68 30.64 32.64 35.22 35.61 41.96 42.71
51.88 51.58 51.35 52.00 52.55 52.58 52.10 51.67 51.38 51.53 51.87 51.71 51.87 52.40 54.01 54.45 53.56 52.58 48.81 46.89 41.84 39.09 42.04 37.48 36.74 36.16 39.10 44.05 47.19 44.68 46.94 44.30 44.00 41.17 34.71 39.40 34.91 31.67 35.76 36.01 34.21 35.30 34.41 33.68 38.37 42.48 40.68
51.43 51.51 51.69 52.02 52.25 51.97 51.60 51.76 51.26 51.05 51.16 50.96 51.06 51.39 52.67 53.52 53.27 51.96 46.62 41.91 42.34 41.71 34.64 41.09 40.68 40.06 41.72 44.30 39.65 42.87 46.05 39.25 37.85 33.20 37.36 34.90 32.67 37.21 38.82 36.64 34.36 36.17 34.72 35.37 38.21 42.89 41.46
50.66 51.16 51.57 51.71 51.72 51.66 51.46 51.55 51.36 51.29 51.02 50.50 50.51 50.95 51.80 53.63 52.48 48.82 44.12 43.02 47.09 44.41 35.49 38.04 40.41 39.05 40.30 43.57 39.23 40.35 43.35 40.43 36.95 34.15 35.45 33.18 35.42 39.47 37.28 33.10 35.58 36.24 34.58 34.99 34.09 38.43 40.16
50.12 50.53 50.96 51.43 51.31 51.20 51.19 51.07 51.05 51.24 51.11 50.62 50.26 50.18 50.40 52.94 46.64 44.85 42.67 46.23 47.00 43.11 26.42 30.34 35.06 39.28 42.35 43.12 38.67 45.79 45.66 40.72 37.43 33.70 35.95 35.48 39.54 37.58 36.37 36.01 38.14 33.85 39.26 37.51 36.37 34.96 30.62
49.88 50.07 50.02 50.69 50.84 50.92 50.92 50.89 50.95 50.96 51.59 51.23 50.02 50.32 50.14 51.56 44.47 42.14 45.59 47.04 44.72 38.79 16.22 29.67 33.81 44.12 43.53 39.56 40.70 41.64 46.85 41.50 36.22 35.81 36.54 33.63 36.80 36.22 33.77 36.10 39.20 36.25 40.95 38.45 37.70 35.72 34.63
49.62 49.88 49.85 50.19 50.44 50.62 50.64 50.74 50.70 50.68 50.88 51.03 49.85 49.82 49.92 48.45 46.21 47.01 47.35 45.28 40.45 25.66 12.97 23.27 35.67 35.04 37.37 40.11 39.95 41.24 41.37 44.10 42.98 38.28 39.08 37.67 41.42 40.07 36.91 38.28 39.04 40.97 39.31 38.54 37.83 36.18 28.76
48.85 49.21 49.85 50.17 50.23 50.31 50.99 50.57 50.55 50.49 50.93 51.09 49.91 49.51 49.64 48.35 43.17 48.12 45.92 39.37 26.58 18.34 27.72 26.16 30.18 33.79 35.20 34.92 37.22 38.65 36.48 35.92 33.77 26.97 31.42 34.72 36.57 41.02 39.22 38.34 40.99 39.40 35.04 27.83 25.84 25.77 26.74
48.67 49.18 49.97 50.27 50.12 50.20 50.64 50.93 50.42 49.99 50.09 50.18 49.67 50.93 50.55 47.82 48.49 46.77 41.59 33.10 20.71 23.81 23.89 31.54 32.43 33.09 30.80 35.18 35.89 37.65 36.63 35.26 37.79 34.95 32.44 24.22 26.27 36.53 40.97 38.26 36.51 35.49 33.85 26.33 22.77 23.87 28.83
48.75 49.67 49.77 50.09 50.23 50.11 50.17 50.34 50.30 49.90 50.99 51.63 50.44 48.33 45.93 47.41 48.19 45.92 37.19 27.36 23.59 25.93 29.57 30.39 32.10 28.70 29.06 32.50 35.23 35.33 34.79 35.25 37.38 37.47 30.13 31.95 31.72 40.15 40.21 39.98 39.35 36.29 31.37 34.62 28.58 29.38 28.37
49.02 49.62 50.34 50.00 50.13 50.04 50.04 50.14 50.80 49.17 52.18 51.59 45.83 43.82 43.13 48.04 48.00 43.02 34.83 29.28 29.89 30.44 32.90 32.26 27.10 28.65 25.82 29.30 31.04 32.13 31.52 36.35 37.75 39.78 38.99 35.33 31.11 37.35 38.71 39.34 39.02 36.88 36.77 28.93 30.16 24.19 23.07
49.36 49.99 50.18 50.07 49.77 49.84 49.93 50.21 50.22 49.79 50.85 50.18 43.83 38.08 44.98 48.11 46.79 38.89 30.23 28.81 33.38 34.86 35.14 31.06 28.26 27.91 27.93 28.89 30.98 29.52 30.70 36.81 37.83 37.40 37.35 34.02 31.93 33.83 34.71 33.99 32.63 33.32 31.68 31.09 30.41 28.68 25.76
49.79 50.00 50.17 49.99 49.89 50.06 49.89 49.98 50.12 50.72 50.18 48.26 42.39 33.87 45.93 47.05 35.48 36.81 31.15 33.12 38.51 35.26 36.51 34.75 33.78 32.20 29.58 29.60 30.05 30.32 31.05 34.51 38.53 38.45 32.79 34.86 32.40 28.33 31.30 35.39 37.00 36.18 32.36 29.63 27.43 25.04 24.25
49.04 49.74 50.02 49.79 49.87 49.80 50.01 50.03 49.58 51.04 50.25 45.45 37.30 38.37 46.21 45.27 32.04 32.71 35.29 35.21 35.86 34.73 34.37 33.93 33.56 34.77 33.91 31.26 29.71 32.87 35.72 39.08 38.62 36.61 33.22 34.17 28.16 20.56 26.33 30.67 33.96 33.39 34.09 31.65 29.39 27.96 23.99
48.84 49.50 49.86 50.00 49.95 50.27 50.24 49.71 49.93 51.05 50.64 46.03 38.88 32.09 37.99 41.47 39.15 33.86 34.56 32.04 32.22 37.17 36.54 36.19 34.75 35.38 32.78 31.09 32.60 32.76 32.89 38.03 38.41 38.44 41.31 36.89 28.96 25.72 22.35 26.70 31.29 31.42 32.73 32.13 29.66 24.94 26.43
48.95 49.44 49.66 49.72 50.05 49.99 50.03 49.59 50.25 51.02 50.17 45.40 39.19 35.43 38.17 32.08 35.01 34.66 35.29 33.67 32.55 32.33 36.19 36.53 34.26 33.61 31.84 28.07 29.17 31.54 34.44 35.07 36.96 38.61 35.51 33.58 26.84 25.33 27.80 30.33 32.69 32.32 32.40 32.02 28.50 29.34 27.17
48.60 49.28 49.50 49.81 49.88 49.96 49.78 49.92 50.08 50.66 50.66 44.19 37.34 36.03 38.28 34.98 35.21 34.23 35.97 30.87 32.63 32.93 33.84 32.49 33.22 33.68 32.57 30.04 29.88 29.04 33.88 32.09 30.90 34.51 32.71 32.54 25.02 27.00 24.00 28.88 30.47 30.38 31.75 32.04 32.59 31.31 30.63
48.57 48.86 49.37 49.73 49.88 49.82 49.82 49.34 49.96 50.24 50.24 43.65 42.15 40.82 37.59 35.91 33.58 33.61 34.27 32.87 34.25 35.15 35.77 35.83 35.62 33.51 32.58 33.14 34.09 34.00 35.12 34.13 33.87 32.55 30.87 29.65 27.06 22.74 21.48 25.67 27.30 24.47 27.34 30.89 31.84 32.00 31.48
48.60 48.84 49.24 49.56 49.81 49.67 49.27 49.46 50.51 51.10 49.20 44.82 40.65 38.16 35.17 32.06 33.84 34.05 36.57 35.78 34.27 33.96 33.65 34.10 35.69 34.16 34.96 36.54 35.79 35.65 34.61 33.72 33.81 32.92 32.75 29.18 26.51 23.46 19.44 23.82 16.90 26.47 30.81 31.45 31.60 31.54 31.68
48.55 48.80 49.32 49.66 49.45 49.43 49.09 49.94 51.33 51.40 48.97 42.71 38.71 38.42 36.11 32.09 32.94 35.47 36.93 34.81 32.78 33.12 32.52 34.03 35.14 34.77 37.08 34.28 31.52 29.76 28.92 30.30 30.81 30.81 30.68 31.27 27.62 22.99 20.82 18.82 23.64 26.04 30.01 29.91 29.20 29.40 31.15
48.51 48.70 49.51 49.13 50.00 49.78 49.45 50.71 51.03 50.79 47.88 41.43 38.18 37.93 37.37 33.21 31.19 29.15 35.05 34.75 30.36 27.85 31.20 34.24 36.97 37.64 36.38 31.97 29.24 23.56 21.49 24.45 25.67 28.31 31.05 31.13 29.50 26.48 23.49 20.03 18.54 25.69 30.58 32.76 32.64 25.03 30.79
48.49 48.90 49.19 49.31 49.40 48.81 49.89 51.41 51.08 50.07 48.05 41.72 37.13 35.15 33.35 29.17 30.26 31.16 33.27 32.80 31.78 30.69 29.81 30.57 32.21 34.62 34.49 30.16 28.39 25.41 22.20 25.77 23.47 23.82 25.16 26.48 25.26 23.38 23.36 21.05 24.68 28.74 31.22 32.71 24.04 25.34 31.08
48.23 48.97 48.94 49.28 48.68 48.94 51.42 51.30 50.13 49.15 47.25 41.85 35.12 34.63 33.47 28.33 30.10 32.73 32.17 31.56 32.27 32.33 31.34 32.74 33.09 34.41 32.24 29.06 28.28 26.56 25.11 24.83 22.95 23.31 23.60 25.63 22.95 23.01 23.52 21.11 17.86 29.39 31.05 28.02 29.86 30.41 31.70
48.58 48.79 48.92 49.47 48.34 48.73 51.44 51.22 50.64 50.11 47.43 43.12 36.73 36.71 36.07 31.06 29.73 32.75 32.84 32.90 31.16 31.32 32.54 30.77 31.78 31.47 32.81 29.87 28.32 27.78 26.20 23.80 23.06 21.74 24.95 24.37 27.06 25.41 26.25 25.94 29.28 29.99 30.18 31.08 31.50 31.33 31.25

GFSGBSN_sfc_wetblb_078.txt.gz
Wetbulb
53.94 53.92 53.55 53.93 53.75 53.39 53.77 53.38 53.97 53.79 53.91 54.87 55.37 56.31 58.31 58.28 60.93 59.98 57.93 57.02 54.83 54.15 54.25 52.75 52.75 52.99 49.43 42.93 42.30 50.74 53.94 54.81 54.68 52.24 47.26 45.02 43.27 42.61 38.80 40.63 42.32 40.59 42.39 44.79 45.44 46.63 47.56
53.78 53.89 53.81 53.76 53.62 53.26 53.52 53.45 52.88 53.69 53.33 53.73 53.89 54.42 57.09 57.53 61.07 58.95 57.20 55.64 54.00 53.11 53.53 52.51 52.29 52.71 46.26 38.17 48.07 51.51 51.40 52.55 51.41 50.27 47.62 47.01 43.60 44.79 41.48 40.59 39.56 42.61 42.93 43.22 44.64 45.45 46.99
53.53 53.18 53.40 53.45 53.33 53.08 52.95 52.95 53.04 52.46 53.09 53.42 53.67 53.35 55.25 56.30 59.93 57.95 55.85 54.62 53.67 52.62 52.52 52.40 52.17 50.19 44.06 42.84 48.49 50.70 49.37 49.89 50.59 49.67 46.09 48.09 47.75 44.11 42.91 38.79 43.00 41.69 38.02 41.09 42.55 43.88 44.83
53.36 53.15 52.76 52.91 52.72 52.76 52.80 52.21 51.72 52.46 51.97 52.92 52.89 52.92 53.51 55.04 58.52 55.99 55.14 54.89 53.66 52.65 51.68 51.85 52.77 48.23 41.21 47.65 50.87 49.63 50.30 48.95 50.43 50.33 49.14 49.61 49.37 45.49 42.31 43.54 40.47 37.86 36.81 33.56 41.42 42.66 44.59
53.04 52.90 52.71 52.67 52.75 52.71 53.23 52.73 52.35 51.91 51.97 52.47 52.45 52.24 52.67 54.11 56.61 54.90 54.43 53.27 52.53 52.23 51.96 52.69 48.81 45.69 38.20 48.93 45.86 49.51 50.14 46.53 48.11 48.94 49.38 49.68 47.39 43.04 41.87 36.46 33.66 35.78 31.97 33.53 36.57 42.69 43.07
52.71 51.88 52.19 51.99 52.41 52.80 52.94 52.85 52.21 52.06 51.56 51.56 52.00 51.83 51.81 53.29 55.26 54.01 53.14 51.79 51.86 51.98 51.31 50.85 47.38 40.45 42.56 40.10 45.57 47.68 49.95 48.55 45.37 45.55 44.19 43.93 42.51 38.18 37.05 34.88 27.65 32.64 31.94 34.07 34.23 40.77 42.00
51.84 52.17 51.75 51.57 52.22 52.48 52.65 52.22 51.92 51.98 51.82 51.72 51.83 51.13 51.45 52.66 53.91 53.48 50.69 48.99 41.89 41.07 45.55 40.86 40.50 38.58 40.81 45.54 48.80 45.99 48.61 46.48 45.51 42.67 36.83 40.87 35.44 31.86 35.55 36.37 37.36 34.05 34.32 34.11 35.44 39.46 41.70
51.49 51.48 51.06 51.36 51.56 51.89 52.15 52.11 51.72 51.50 51.24 51.44 51.53 51.00 50.72 51.89 53.85 52.54 48.18 43.55 42.24 44.27 38.00 43.33 42.57 41.59 44.43 45.22 40.46 44.18 48.40 41.37 39.76 35.45 38.15 36.08 32.81 37.67 38.99 38.94 36.96 35.07 33.74 35.73 39.20 42.46 42.27
51.14 51.18 50.90 51.16 51.27 51.44 51.65 51.63 51.36 51.34 51.39 51.17 51.12 51.11 50.69 51.25 52.91 49.84 45.40 44.00 48.31 47.66 38.95 39.31 41.77 40.74 42.46 44.50 40.91 41.62 44.89 42.28 38.44 35.35 35.34 33.27 35.91 39.13 38.78 35.45 34.99 34.46 36.51 35.98 35.44 39.42 41.01
50.99 50.22 50.46 50.64 50.79 50.98 51.04 51.07 51.06 51.12 50.79 50.70 50.67 50.85 50.23 50.46 48.20 46.97 43.97 47.19 48.24 46.60 34.10 33.92 38.11 41.20 43.73 44.29 39.09 46.31 46.70 42.29 38.35 34.45 36.04 35.12 39.62 37.85 37.60 34.01 37.89 33.70 40.00 37.12 35.20 34.80 33.65
50.81 50.09 49.49 49.96 50.49 50.79 50.68 50.82 50.98 50.83 50.46 50.30 50.36 50.37 50.29 49.46 45.79 43.67 45.77 47.86 47.98 44.55 23.56 34.26 37.24 46.61 44.53 40.41 41.92 42.08 47.06 41.69 36.49 35.87 35.86 34.97 36.82 37.00 35.62 35.33 40.30 36.96 40.93 37.54 37.28 36.46 36.99
49.87 49.60 49.74 50.11 50.60 50.76 50.84 50.65 50.81 50.41 50.25 50.14 50.04 50.08 50.06 48.05 47.55 47.36 47.92 47.21 44.63 32.09 21.89 29.46 37.46 37.19 37.75 40.58 40.71 41.44 41.80 44.03 42.92 37.20 38.44 37.74 42.67 41.01 38.39 39.93 40.93 41.61 40.32 39.32 39.12 37.45 31.26
49.71 49.64 49.92 50.62 50.66 50.86 50.89 50.65 50.43 50.52 50.21 49.80 49.32 49.10 48.21 48.83 43.11 48.63 47.02 42.55 31.55 25.77 30.47 29.62 33.20 36.19 37.61 35.98 38.43 39.18 37.00 36.21 34.93 31.87 33.33 36.32 36.83 38.75 38.74 38.34 41.14 40.25 37.44 30.79 30.00 31.15 29.38
49.68 49.80 50.06 50.63 50.95 50.81 50.57 50.27 50.56 50.31 49.98 49.48 49.38 49.34 47.92 48.59 49.20 47.63 44.86 36.58 26.04 28.84 28.55 34.80 35.85 36.24 34.83 37.46 35.12 36.47 35.99 33.96 38.27 37.11 34.17 31.65 30.23 35.56 40.76 38.87 37.97 38.11 36.39 31.91 25.26 28.24 30.03
49.44 49.63 50.42 50.58 50.65 50.60 50.33 50.48 50.44 50.12 49.37 50.31 50.89 48.92 46.20 48.91 48.82 47.28 39.41 30.31 30.32 30.19 33.28 34.19 35.31 33.38 33.30 35.69 36.44 34.94 34.43 36.10 37.97 39.05 33.07 33.69 31.86 40.02 40.80 41.84 41.62 37.55 34.84 37.91 33.96 33.80 30.61
49.32 49.72 49.89 50.34 50.52 50.32 50.40 50.56 50.52 49.78 50.80 50.11 46.05 44.04 43.92 48.49 48.54 44.17 36.47 31.27 32.20 33.72 36.23 37.64 31.99 34.29 31.45 33.98 34.38 34.63 34.45 37.80 37.86 40.77 40.99 37.38 31.97 38.81 40.23 41.44 41.46 39.21 39.95 34.41 35.59 27.73 24.95
49.04 49.42 49.74 50.03 50.29 50.08 50.26 50.54 50.34 49.89 50.21 49.99 45.14 37.25 44.96 48.61 47.26 39.19 32.02 32.77 35.31 37.24 38.46 35.46 33.82 33.19 34.40 33.84 35.53 33.99 34.06 37.61 40.06 39.93 41.14 38.71 36.31 35.49 39.40 37.29 36.18 37.41 36.89 35.66 35.93 32.94 29.84
48.86 49.62 49.86 50.15 50.02 50.46 50.20 50.38 50.11 50.66 49.80 47.42 42.60 33.83 44.93 47.92 35.15 36.49 34.39 35.73 39.02 38.25 40.38 38.54 38.45 36.39 35.67 36.03 35.45 35.20 34.99 37.39 42.01 41.28 37.09 39.49 37.82 32.91 34.80 39.30 39.87 39.58 37.20 36.04 34.60 28.84 30.72
48.87 49.47 49.70 49.99 50.46 50.78 50.59 50.26 49.88 50.64 50.09 46.02 37.67 38.14 46.48 46.15 32.16 33.70 37.36 37.10 38.53 37.63 37.73 37.88 36.99 38.69 38.39 36.57 34.18 37.18 37.80 41.88 42.45 40.88 38.56 39.41 35.65 32.09 33.55 37.42 39.35 37.91 37.58 36.37 35.54 36.10 29.85
48.97 49.31 49.64 50.37 50.58 50.90 50.70 50.56 51.18 50.73 50.37 47.38 40.28 32.60 37.41 39.81 40.35 36.73 35.71 35.34 35.07 40.32 39.18 39.44 38.20 39.69 38.05 36.67 39.03 36.67 37.50 40.91 42.04 41.80 40.82 40.60 35.42 32.01 30.75 31.89 36.37 35.52 36.61 37.45 36.74 34.36 33.32
49.06 49.26 49.66 49.87 50.36 50.40 50.21 49.86 50.96 51.11 51.49 47.89 40.02 35.36 38.06 33.62 36.03 36.74 36.87 36.70 35.13 35.12 40.16 40.23 38.24 38.30 37.38 34.66 36.06 36.19 38.61 39.21 40.86 40.73 40.17 39.83 33.05 32.60 33.93 34.78 36.32 36.24 36.18 36.91 34.96 34.76 33.87
48.75 49.25 49.48 49.48 50.11 50.25 50.02 49.92 50.24 50.81 50.89 45.44 38.06 37.54 39.16 38.12 38.58 35.60 37.31 36.01 35.74 36.67 37.81 37.01 36.99 37.61 39.17 35.82 36.70 35.55 38.07 38.35 37.37 40.78 38.44 39.00 34.13 32.98 32.86 34.79 36.28 34.36 36.27 37.02 36.77 35.85 35.87
48.82 49.11 49.45 49.90 49.93 50.04 50.33 49.80 50.60 51.28 50.25 44.63 43.59 43.02 41.10 36.94 36.82 36.11 36.56 37.47 37.41 39.39 39.51 39.50 39.88 39.13 37.65 37.61 40.69 41.22 42.20 40.62 39.62 38.68 36.41 36.25 35.03 33.47 29.82 32.03 33.38 32.26 32.22 35.17 36.16 36.92 36.49
48.99 49.09 49.43 49.94 49.82 50.09 50.45 49.91 51.18 51.05 49.23 47.30 43.83 43.05 39.54 33.50 36.77 36.28 37.65 39.07 37.89 38.19 37.82 38.27 40.47 39.83 39.55 42.40 41.81 42.91 41.98 41.01 40.59 38.56 38.82 36.06 33.96 33.19 31.56 31.79 26.33 32.30 36.58 35.59 34.82 36.06 37.01
49.03 49.07 49.41 49.74 49.95 49.89 49.55 50.92 51.66 50.31 48.18 45.30 42.73 42.52 40.46 34.29 37.36 37.41 37.76 37.48 38.81 39.23 37.76 38.10 39.22 40.71 42.56 40.85 38.58 35.14 36.23 36.65 36.90 36.99 37.33 38.38 35.62 31.20 31.26 30.65 30.20 31.36 34.42 34.55 34.21 34.41 36.69
48.77 48.94 49.59 49.73 50.51 49.90 50.93 51.85 51.34 48.30 46.45 43.21 40.02 41.40 42.96 39.17 33.43 31.21 36.38 38.90 38.27 37.67 38.14 38.64 42.06 43.49 41.88 39.13 36.23 29.69 29.12 30.64 31.36 33.96 37.65 37.46 37.79 35.94 31.73 26.85 25.68 32.49 35.90 37.97 37.94 31.94 36.76
48.76 49.24 49.33 49.74 49.42 49.50 51.54 51.76 50.71 50.01 46.69 43.50 39.36 39.90 41.75 35.63 33.23 33.01 35.69 36.26 38.12 38.51 37.60 38.88 39.60 40.96 41.36 38.45 33.76 31.96 30.58 32.33 29.99 29.92 31.12 33.57 34.00 31.59 31.96 30.16 32.06 35.13 37.04 37.74 29.84 32.06 36.94
48.66 49.09 49.22 49.39 49.03 50.06 51.22 51.02 50.63 48.18 46.37 43.01 38.96 39.76 40.81 35.36 33.62 34.36 34.46 35.42 38.46 39.18 38.85 39.03 39.26 40.39 39.93 35.52 34.90 33.50 33.05 32.79 31.95 32.06 32.07 32.00 31.83 31.71 30.89 29.13 26.23 36.48 36.41 33.49 36.34 35.88 37.91
48.36 48.83 49.13 49.05 48.81 50.84 51.03 50.58 49.72 47.91 46.20 43.69 39.78 40.02 40.18 38.02 34.69 36.51 36.28 37.19 35.66 36.04 39.02 37.95 38.12 37.89 39.72 37.73 36.67 35.62 32.99 33.09 31.99 30.65 33.56 30.88 34.38 33.63 33.57 34.04 35.50 36.91 37.34 37.62 37.65 37.93 37.07

GFSGBSN_sfc_wetblb_081.txt.gz
Wetbulb
54.67 54.28 54.09 54.19 54.22 54.00 53.89 53.37 53.41 53.62 53.58 53.87 54.51 54.09 54.58 55.34 57.18 57.93 60.84 59.00 57.41 55.41 55.17 54.22 52.96 53.72 51.25 45.70 45.42 53.76 53.81 55.28 55.37 51.81 47.95 45.74 43.51 43.30 39.44 41.16 42.45 40.66 42.25 44.23 45.85 46.67 45.69
54.47 54.07 54.07 53.74 53.54 53.40 53.24 53.42 53.20 52.77 52.95 53.45 53.07 53.95 53.11 54.66 55.07 56.84 59.93 58.15 55.76 54.45 54.75 53.78 53.26 53.64 48.82 40.29 49.88 51.32 51.80 52.03 52.07 50.57 47.99 47.37 44.47 45.33 41.91 41.08 40.24 42.36 42.13 42.75 44.44 43.71 45.87
53.57 53.91 53.73 53.23 53.57 53.12 53.30 53.26 53.43 52.99 52.45 52.88 52.98 53.13 53.03 53.04 53.71 55.96 58.42 55.55 54.87 53.74 54.25 53.46 52.98 51.93 45.84 44.91 50.08 51.56 50.88 50.51 51.54 50.24 46.81 48.56 48.07 43.98 43.83 38.84 43.58 42.08 37.37 40.01 41.49 42.64 41.95
53.49 53.33 53.05 53.09 52.16 52.76 53.03 53.23 53.14 52.92 52.89 52.96 52.43 52.49 52.42 52.60 53.70 55.52 55.86 55.40 54.54 53.37 52.86 52.55 53.04 50.24 43.03 50.05 51.04 48.78 49.36 48.19 50.56 51.18 49.58 49.98 49.16 45.49 42.04 43.09 41.49 37.66 37.72 31.71 40.35 42.50 43.85
53.14 52.99 52.72 52.39 52.32 52.54 52.95 52.98 53.11 52.64 52.64 52.66 52.36 52.37 52.42 52.04 53.44 55.85 55.05 54.85 53.79 52.83 52.38 53.31 50.07 47.50 41.48 49.94 45.42 48.91 50.80 47.02 48.48 49.47 49.69 49.48 47.42 42.71 42.45 36.49 33.03 35.65 30.12 33.29 36.55 43.00 42.03
53.46 52.72 51.86 51.85 51.86 51.94 52.34 52.53 52.76 52.44 52.26 52.32 52.37 52.18 52.12 51.83 53.60 54.67 54.18 53.06 52.38 52.00 51.46 51.61 48.91 42.81 44.04 41.73 46.85 47.74 50.07 48.69 46.27 45.78 44.40 44.06 41.56 37.38 37.18 34.34 25.96 30.94 32.60 33.94 34.65 40.43 41.09
52.63 52.81 52.00 51.49 51.56 51.36 51.96 52.04 52.32 52.15 51.97 51.65 51.83 51.74 51.82 51.69 51.89 54.21 51.65 49.38 42.33 41.68 45.01 42.49 43.01 41.06 41.91 46.49 49.12 46.67 49.25 47.50 46.81 42.98 36.47 41.14 34.57 32.42 36.12 37.48 36.94 34.78 33.86 33.25 36.81 41.25 39.57
51.83 52.25 52.00 50.96 50.95 51.06 51.32 51.68 51.70 51.71 51.63 51.54 51.37 51.38 51.61 51.72 51.47 52.67 50.40 42.36 42.37 44.84 39.06 45.31 43.54 43.35 45.09 46.56 41.50 45.07 49.21 41.89 40.95 35.74 39.86 36.32 32.42 38.20 39.35 38.65 36.92 34.61 33.49 34.10 37.56 40.73 39.87
50.87 51.67 51.46 50.72 50.69 50.98 51.20 51.57 51.39 51.38 51.22 51.09 50.83 51.00 51.14 51.13 51.67 50.15 45.99 44.81 49.06 47.94 40.91 40.96 43.70 41.97 43.28 45.36 41.39 42.56 46.31 43.10 38.51 36.29 36.50 34.05 36.92 39.85 37.91 36.61 35.98 35.08 32.38 34.11 34.26 39.36 41.19
50.04 50.91 50.64 50.86 50.98 51.08 51.27 51.24 51.27 51.23 50.95 50.67 50.43 50.57 50.65 50.63 47.60 47.18 43.99 47.61 48.94 49.60 36.20 36.49 39.01 42.12 44.32 45.07 39.56 47.22 46.95 43.09 39.58 35.75 37.30 36.11 39.87 38.07 37.47 34.07 35.28 31.38 38.36 36.87 36.67 37.28 33.27
49.73 50.66 50.73 50.67 50.81 50.94 51.22 51.18 51.17 51.18 50.77 50.31 50.26 50.32 50.47 50.00 46.85 43.03 47.60 49.39 48.19 46.36 26.45 37.70 38.69 47.50 45.18 41.14 41.93 42.86 47.27 42.88 37.15 36.94 36.61 35.47 36.72 37.51 36.51 35.72 39.97 36.44 40.61 38.87 37.01 36.22 35.52
49.49 50.45 50.51 50.55 50.94 51.00 51.03 50.97 50.77 50.53 50.32 49.90 49.97 49.87 49.91 48.56 48.20 48.24 48.91 47.80 45.62 32.77 25.44 31.57 38.47 38.03 38.11 40.41 41.38 42.54 42.42 44.31 43.76 38.22 38.06 37.00 43.42 41.10 39.26 41.19 41.76 41.60 38.84 38.41 38.08 37.56 31.02
49.14 50.07 50.51 50.93 50.83 50.83 50.83 50.75 50.66 50.56 50.17 49.62 49.45 49.52 48.58 49.05 43.03 50.61 47.91 42.66 32.21 28.70 32.83 30.42 33.58 37.73 37.33 36.33 38.53 38.41 37.10 36.91 35.50 32.23 31.06 37.21 37.29 39.07 40.06 37.32 40.59 40.51 36.53 31.18 31.16 31.09 28.92
48.85 50.13 50.08 50.65 50.78 50.99 50.66 50.64 50.71 50.55 50.43 49.80 49.20 49.42 48.14 48.01 49.85 49.48 44.75 34.54 28.47 31.94 29.61 36.45 37.40 37.92 34.59 37.46 35.45 37.45 36.66 34.80 38.87 37.43 34.88 32.44 30.83 36.48 40.92 39.60 38.25 38.95 36.76 31.09 26.18 28.59 29.09
49.24 49.77 50.14 50.45 50.85 50.74 50.88 50.87 50.71 50.26 50.77 50.30 51.29 46.65 45.08 47.53 48.89 48.36 37.92 30.62 31.80 31.94 33.93 35.57 37.33 33.64 33.93 37.59 37.01 36.15 36.33 36.25 38.33 39.80 34.36 33.31 32.23 40.07 41.96 42.91 41.81 38.36 35.49 40.12 35.07 36.26 31.16
49.47 49.64 50.09 50.48 50.56 50.65 51.01 50.92 50.24 50.65 50.47 50.84 45.39 44.04 43.19 49.17 49.26 44.14 34.68 32.69 32.55 35.75 39.00 39.46 33.47 36.24 32.81 35.26 35.54 36.37 36.51 38.99 38.30 41.51 41.78 37.19 32.82 39.31 41.57 42.86 43.02 39.45 41.30 35.14 37.48 28.12 25.61
49.43 50.18 50.32 50.44 50.66 51.13 50.80 50.34 51.51 51.00 50.68 50.65 45.63 38.67 45.60 49.77 47.13 38.07 32.84 33.97 34.67 38.95 41.31 37.69 36.00 35.17 36.71 35.85 37.51 36.25 34.68 38.50 40.81 41.28 41.89 39.53 37.21 36.23 41.05 38.51 36.93 38.85 37.23 37.95 37.48 34.48 30.69
49.55 50.11 50.25 50.48 50.82 50.73 51.14 51.41 51.51 51.02 50.13 48.55 43.88 32.90 45.82 47.18 34.79 36.20 34.82 37.00 40.09 39.68 42.05 40.10 40.00 38.96 37.97 38.02 36.61 36.96 35.63 38.38 43.37 42.80 38.66 40.96 38.90 34.05 35.71 41.06 41.84 41.08 38.05 38.32 34.50 31.75 34.78
49.48 50.06 50.31 50.53 51.16 51.40 50.88 51.32 51.73 51.62 50.19 47.58 38.10 36.21 44.16 45.90 33.74 35.11 38.58 37.95 40.34 39.43 39.76 39.53 38.49 40.16 41.09 38.60 35.51 38.72 39.45 43.05 43.88 42.21 40.11 40.97 37.76 33.54 34.75 38.83 42.16 39.02 40.05 40.36 38.99 39.19 32.28
49.43 49.85 49.96 50.93 51.07 51.23 50.59 50.54 50.96 51.74 51.78 48.69 41.38 33.45 38.30 39.48 41.28 38.07 36.78 36.70 36.74 42.42 41.10 41.41 40.21 41.93 40.43 39.05 41.56 38.42 39.12 42.09 43.44 43.03 41.26 42.87 38.00 34.56 31.77 33.47 38.11 36.52 38.37 39.85 39.06 35.03 34.88
49.70 49.57 50.04 50.52 50.81 50.60 50.49 50.21 50.90 51.66 51.71 48.93 42.05 36.81 38.98 35.17 38.06 39.75 39.48 38.73 36.92 37.05 41.74 42.59 39.84 40.03 39.15 36.75 38.74 37.93 40.37 41.30 42.91 42.04 42.14 42.51 34.32 35.27 36.79 37.91 38.41 37.83 37.68 38.37 36.08 37.49 34.19
49.74 49.76 49.97 50.41 50.33 50.57 50.38 50.34 51.06 51.68 51.47 45.84 40.71 40.06 41.80 38.01 38.87 39.30 38.57 37.80 37.23 38.83 39.85 38.65 38.52 40.39 41.39 38.11 39.80 37.29 39.60 40.27 39.25 42.79 40.89 42.13 35.72 35.63 35.37 37.27 38.02 35.36 37.93 38.80 38.23 38.46 37.80
49.55 49.55 49.96 50.07 50.52 50.47 50.02 50.49 51.31 51.77 51.01 46.08 46.90 46.52 44.00 38.63 39.37 38.44 38.28 38.37 38.84 41.21 41.35 42.64 41.99 40.95 39.16 40.36 43.61 44.13 44.24 43.38 41.96 40.64 39.64 39.35 37.39 36.28 31.48 35.43 35.27 33.06 33.70 36.39 37.72 39.15 38.35
49.28 49.37 50.10 50.15 50.44 50.12 50.05 51.19 51.86 50.99 51.16 49.27 47.08 46.41 42.31 37.10 39.29 37.59 39.95 40.95 39.87 41.07 39.47 41.42 43.10 41.41 41.46 45.31 46.01 45.78 44.70 43.47 42.68 41.69 42.35 38.42 36.73 36.63 33.29 34.71 28.05 33.62 38.20 37.37 36.50 38.34 39.68
49.26 49.58 50.00 50.23 50.14 50.22 51.77 51.72 51.49 49.83 48.69 48.16 46.74 46.15 43.97 37.64 40.18 40.40 40.75 40.45 41.78 42.37 40.50 40.37 41.34 43.99 45.09 42.99 40.51 37.18 37.63 38.37 39.13 40.35 40.46 41.39 38.48 33.89 32.74 31.99 32.94 34.20 36.31 36.38 35.66 36.26 39.88
49.27 49.48 49.72 50.12 50.45 52.04 52.52 51.85 49.11 48.27 47.58 46.85 43.77 45.01 47.12 41.36 36.42 35.40 40.45 42.21 40.45 40.46 40.50 40.28 43.90 46.15 44.59 41.70 38.43 32.18 31.37 32.80 33.24 36.05 40.91 40.88 40.63 37.08 34.04 28.68 27.41 34.59 38.01 40.02 39.73 33.12 39.71
49.21 49.17 49.61 49.78 49.93 51.76 51.50 50.69 49.18 48.00 47.09 46.78 43.29 44.00 47.14 40.23 36.98 37.46 39.59 39.19 42.17 42.43 40.38 41.20 42.13 43.04 44.25 40.09 35.55 33.92 32.54 34.90 31.84 31.48 32.72 35.31 36.12 33.77 33.59 31.83 33.90 37.86 39.16 40.06 31.03 33.09 39.63
48.76 49.05 49.50 49.30 49.89 51.34 50.89 50.87 49.94 48.67 46.29 46.58 42.36 44.28 45.15 40.49 36.86 37.98 37.84 39.75 41.74 42.99 40.51 42.16 41.37 42.36 41.93 37.25 36.62 35.59 35.12 35.55 34.12 34.90 34.01 33.68 33.47 33.33 33.48 30.72 27.89 39.52 38.04 34.58 38.07 39.16 40.45
48.37 49.01 49.23 48.82 49.71 51.45 50.23 50.47 49.82 48.69 46.32 45.68 43.38 44.00 45.33 42.34 37.97 39.93 39.41 39.69 38.01 38.35 40.89 42.55 41.24 41.32 42.65 39.75 39.43 38.70 35.31 36.43 34.85 32.69 36.73 32.91 36.44 34.51 35.05 35.37 38.80 41.06 40.58 40.62 40.87 40.25 39.89

GFSGBSN_sfc_wetblb_084.txt.gz
Wetbulb
55.04 54.55 54.76 54.87 54.51 54.42 54.31 54.09 53.92 53.97 54.38 53.78 53.56 53.43 54.06 53.82 54.05 54.08 54.91 57.37 59.67 57.71 56.17 56.42 54.38 54.65 51.07 45.46 45.09 55.37 57.29 57.66 55.27 51.43 47.34 45.02 42.27 41.55 37.63 39.50 40.77 38.57 40.64 42.78 43.86 44.10 43.81
54.89 54.74 54.23 54.31 54.01 53.77 53.32 53.65 53.78 53.82 53.91 53.92 53.69 53.56 52.99 53.28 53.31 53.66 55.65 56.45 59.42 56.68 55.60 54.82 53.92 54.24 48.11 39.22 50.29 53.35 53.10 52.68 51.61 50.05 47.25 46.48 43.48 44.84 40.39 39.35 37.99 40.46 40.30 40.33 41.63 41.61 42.78
54.49 54.16 54.09 53.66 53.43 52.76 53.06 53.16 53.49 53.58 53.58 53.60 53.56 53.33 52.67 53.01 53.28 53.86 55.05 57.54 56.96 55.33 55.66 54.64 53.85 51.55 46.03 43.70 50.53 51.09 50.74 49.61 51.16 49.81 45.93 48.04 47.31 43.28 42.43 37.96 42.30 40.74 36.04 38.70 39.48 40.00 39.13
53.22 53.59 53.96 53.85 52.51 52.92 52.39 52.62 52.83 53.13 53.33 53.31 53.07 52.76 52.85 53.12 53.15 53.55 55.96 56.61 55.29 54.44 54.76 54.26 53.88 50.08 42.12 50.91 51.01 49.14 49.39 47.69 49.55 50.34 48.94 49.45 48.64 44.28 41.08 42.59 39.56 35.74 36.03 29.74 37.47 39.71 40.60
52.59 52.57 53.55 53.32 52.92 52.32 51.95 52.07 52.33 52.54 52.97 52.85 52.91 52.66 52.50 52.75 52.67 54.64 56.32 55.37 54.59 53.95 53.32 53.22 49.44 46.51 41.58 49.65 44.11 47.57 47.89 45.71 48.12 48.68 49.02 48.86 46.64 41.21 41.18 35.52 32.08 33.94 27.31 29.57 33.70 41.02 40.61
52.85 51.97 52.79 52.80 52.81 52.22 51.32 51.81 51.89 52.02 52.25 52.29 52.31 52.13 52.19 52.25 52.32 52.33 55.11 54.35 53.36 52.39 51.42 51.31 48.79 41.76 44.70 41.29 46.53 48.12 50.07 48.32 45.18 45.76 43.82 43.08 41.56 36.35 36.65 33.17 23.77 25.51 29.22 32.83 32.84 38.28 39.92
52.94 51.79 51.48 52.04 51.94 51.65 51.02 51.50 51.73 52.02 51.82 51.79 51.83 51.70 51.62 51.71 51.94 52.17 51.31 48.33 43.35 42.04 45.95 41.64 41.86 41.06 42.60 46.46 48.52 46.10 48.98 47.01 45.79 42.08 35.23 40.34 34.54 29.84 33.02 34.69 34.54 32.80 31.42 30.86 34.39 38.60 37.67
52.76 52.09 50.82 51.68 51.62 51.19 51.60 51.81 51.86 51.81 51.83 51.50 51.49 51.38 51.27 51.53 51.48 51.49 50.77 42.63 43.16 44.96 38.87 44.58 44.40 43.68 45.58 46.99 42.00 45.03 49.18 41.45 40.50 34.53 37.98 35.79 32.26 35.93 37.76 37.75 35.87 34.04 31.87 31.39 35.97 38.95 38.21
52.46 51.97 50.55 51.52 51.51 51.58 51.48 51.17 51.04 51.89 51.44 51.32 51.10 51.08 50.96 51.12 50.91 50.62 46.90 45.38 49.43 48.02 39.26 41.12 43.82 42.11 42.84 44.81 41.48 42.48 45.65 43.10 38.08 35.01 35.36 32.68 34.79 38.62 36.78 35.85 35.09 33.46 32.42 33.53 32.41 36.65 38.84
51.97 50.92 50.46 51.48 51.49 51.08 51.12 51.35 50.77 51.33 51.15 50.91 50.76 50.72 50.49 50.57 47.10 47.01 43.84 48.99 49.50 48.77 33.49 34.95 38.46 41.31 43.93 45.14 39.96 47.59 47.44 43.14 39.71 34.89 37.20 36.14 39.63 37.28 35.87 35.34 36.21 31.22 37.15 36.32 34.52 32.58 27.44
51.23 50.18 50.65 51.16 50.97 51.34 51.46 51.37 51.17 50.99 50.64 50.41 50.39 50.50 50.30 50.02 46.15 42.58 45.91 48.91 48.85 45.62 22.53 37.44 38.20 47.37 44.78 41.24 42.03 42.37 47.35 42.37 36.02 36.90 37.11 32.34 36.19 36.55 36.50 36.82 38.47 34.49 40.45 35.38 36.95 35.30 34.50
50.29 50.15 50.82 50.73 51.02 51.15 51.25 51.30 51.21 51.00 50.70 50.37 49.36 48.79 49.84 48.25 48.05 47.49 48.65 48.11 44.98 30.94 23.32 31.16 38.09 37.52 38.05 40.25 40.92 42.94 42.36 44.56 43.01 38.33 38.46 36.99 40.92 39.86 38.71 40.55 41.07 41.19 38.79 37.55 36.56 35.57 28.45
49.72 50.39 50.67 50.94 51.21 51.18 51.14 51.19 51.13 50.93 50.58 50.41 49.72 49.57 48.13 48.75 43.37 48.80 47.69 42.24 29.39 25.50 33.03 29.60 32.80 37.17 37.45 36.18 37.68 37.97 36.93 36.10 35.14 31.61 31.05 36.16 37.30 40.11 40.67 37.09 41.08 39.62 36.37 29.40 27.56 27.67 26.44
49.66 50.17 50.83 51.28 51.34 51.34 51.20 51.02 51.51 51.24 50.74 50.72 50.63 49.58 48.49 48.13 49.81 48.20 44.76 34.81 24.43 29.11 30.18 36.63 36.99 37.41 34.46 37.16 36.21 37.99 36.44 34.24 38.65 36.51 34.40 31.35 30.11 36.89 40.65 37.06 38.22 36.66 35.87 29.39 24.77 25.85 27.10
49.71 50.45 50.84 51.13 51.30 51.38 51.33 51.12 50.00 50.07 50.78 50.71 50.72 46.62 45.64 47.44 49.35 48.18 37.83 27.35 29.44 31.15 35.21 35.30 36.85 33.51 33.78 36.68 36.61 35.88 35.11 36.37 38.51 39.64 33.04 32.40 31.93 40.88 40.80 42.12 40.83 37.23 34.14 37.95 34.05 33.58 29.04
49.84 50.56 50.69 51.13 51.24 51.47 52.24 52.82 51.68 51.50 50.58 50.42 45.15 43.14 43.15 48.62 49.43 44.09 34.10 31.75 31.44 35.79 38.95 39.02 32.07 35.89 30.93 34.09 34.41 34.90 35.55 38.62 38.14 41.62 41.08 37.26 32.04 39.36 41.11 42.74 42.75 38.65 40.60 32.39 34.46 27.07 24.68
49.67 50.42 50.81 51.00 51.33 51.61 51.53 52.45 52.31 51.82 51.29 50.63 44.16 39.12 44.30 49.50 47.06 38.56 31.16 33.10 33.87 39.83 41.50 37.38 35.96 35.12 35.88 35.11 36.26 35.35 34.25 38.35 40.92 40.51 41.30 39.02 36.73 35.78 40.22 37.11 35.35 36.41 34.03 35.10 33.60 30.81 25.99
50.47 50.33 50.76 50.70 51.66 51.92 51.58 51.71 52.35 52.88 52.08 48.45 41.50 33.51 45.90 47.67 35.59 35.94 32.94 36.73 40.20 39.88 42.71 40.27 40.03 39.16 37.17 37.32 35.94 36.11 35.84 38.29 42.99 42.04 37.21 38.56 36.11 30.71 34.69 39.87 41.20 38.93 35.55 34.52 28.00 27.32 29.69
50.55 50.76 50.66 51.02 51.86 51.80 51.36 51.06 52.08 52.42 51.61 45.94 37.40 36.99 45.66 45.65 32.95 33.41 37.90 38.46 40.63 39.71 39.84 39.96 38.46 40.30 40.24 37.96 34.32 37.58 38.36 42.37 43.56 41.64 37.23 38.47 33.15 28.25 27.87 34.38 38.71 36.49 37.45 37.75 36.91 34.72 27.51
50.20 50.68 50.50 51.52 51.50 51.63 51.60 50.90 51.78 52.45 52.27 48.70 40.69 32.74 39.34 41.30 41.72 36.64 36.11 36.86 36.79 42.70 41.19 41.88 40.25 41.32 39.85 38.50 40.03 37.56 37.59 41.73 42.01 41.91 42.08 40.69 34.51 30.16 25.34 28.42 34.86 32.22 35.51 36.76 34.52 26.59 28.17
49.80 50.50 50.29 51.32 51.14 51.57 51.55 50.65 51.30 52.28 52.29 48.86 42.27 37.08 39.44 34.72 37.91 38.66 38.63 39.09 37.31 36.94 41.61 42.05 39.26 39.83 38.81 36.40 37.01 36.37 38.81 39.60 41.42 42.54 39.87 39.16 29.79 30.15 33.77 36.29 36.13 35.15 35.07 35.47 32.41 32.88 27.79
49.65 50.24 50.51 50.94 50.89 50.93 51.26 51.32 51.62 52.40 52.00 45.98 40.15 39.25 41.11 38.21 39.14 37.95 38.05 37.53 37.54 38.55 39.33 38.25 38.11 40.18 40.31 36.71 37.60 35.33 37.95 37.41 36.06 38.89 37.32 39.45 29.64 30.87 27.74 35.44 35.17 31.30 34.35 35.87 35.79 35.64 34.69
49.40 50.18 50.59 51.00 51.01 51.00 51.44 51.70 52.22 52.41 51.31 45.45 45.77 45.85 42.20 39.68 38.61 36.65 36.73 38.36 38.99 40.86 40.73 41.59 40.92 39.26 37.17 38.60 40.99 39.82 40.49 39.72 37.67 36.58 36.45 35.97 32.26 28.69 25.06 32.08 31.86 26.46 30.74 33.17 35.26 36.17 34.74
49.17 50.05 50.32 50.71 51.23 51.95 52.65 52.30 52.24 51.32 50.69 48.33 45.94 45.07 40.78 35.86 37.61 37.05 39.84 40.58 39.73 40.22 38.44 40.66 41.43 39.24 39.88 43.61 43.19 41.03 40.09 40.25 39.67 38.17 38.66 34.91 32.60 30.13 25.10 26.84 19.22 29.14 35.10 35.58 34.37 36.90 37.21
49.25 49.81 50.16 50.56 51.07 53.00 52.59 51.99 50.12 49.98 50.24 46.58 45.90 43.88 42.05 35.84 38.84 39.16 39.92 39.84 40.50 40.70 39.23 39.30 40.17 41.05 42.95 40.44 36.96 33.95 33.49 34.53 36.09 37.07 37.06 37.40 33.85 26.46 23.86 22.94 27.87 30.16 33.57 33.40 32.01 32.44 36.79
49.05 49.47 50.09 50.20 51.25 51.77 51.02 49.67 49.38 48.91 49.35 46.30 43.11 43.58 44.10 38.21 33.64 36.35 39.19 40.60 37.00 36.91 37.32 39.11 42.55 43.52 41.43 38.42 34.59 26.52 25.37 28.79 28.41 31.80 36.83 38.23 36.52 30.64 27.95 23.67 20.86 29.48 34.84 37.10 36.16 27.13 35.95
49.16 49.13 49.89 49.78 50.86 51.84 51.76 51.04 50.40 48.50 48.71 46.58 42.47 43.56 42.87 36.50 35.54 36.54 36.47 36.71 40.12 38.97 36.79 37.95 39.13 39.79 40.44 35.56 30.60 28.33 26.12 31.02 26.68 26.30 27.17 30.43 30.58 26.76 27.09 24.47 28.39 34.09 35.84 36.68 24.77 27.67 35.43
48.84 49.01 49.72 49.29 50.36 51.23 50.75 50.41 50.11 49.17 47.78 46.16 41.44 43.56 42.04 36.94 34.81 38.41 38.48 36.96 38.60 39.22 36.41 38.76 37.74 38.72 37.93 32.61 31.01 29.40 28.51 29.96 28.27 29.68 28.53 28.75 26.68 26.51 27.24 23.10 20.94 36.05 34.34 29.97 33.46 34.53 36.18
48.47 48.87 49.40 48.96 49.91 51.28 50.94 50.94 50.82 50.39 49.40 48.20 42.00 44.33 44.24 39.01 35.43 39.55 38.91 38.70 37.52 36.92 35.25 39.38 37.76 38.47 38.07 34.42 33.17 32.04 28.94 30.13 29.65 25.62 31.29 26.85 31.30 28.36 29.64 29.55 35.03 35.94 35.21 36.07 36.68 36.29 35.33

GFSGBSN_sfc_wetblb_087.txt.gz
Wetbulb
55.04 55.00 54.66 55.08 54.81 54.27 53.98 53.65 53.57 53.93 54.60 54.65 54.44 54.44 54.13 53.70 53.56 53.35 53.50 54.52 56.29 58.06 58.43 57.58 56.20 55.27 51.00 44.64 44.10 55.94 59.05 58.74 54.70 52.11 47.72 44.52 40.43 39.27 35.47 36.68 38.59 36.05 39.35 41.80 42.53 41.83 41.57
54.27 53.92 53.71 54.28 54.47 54.39 53.30 53.37 53.00 53.27 53.89 54.29 54.13 53.84 53.62 53.36 53.43 53.67 53.79 54.51 56.41 57.76 57.69 57.13 55.40 54.89 47.41 39.15 52.65 55.58 54.33 55.18 52.45 49.67 46.37 44.63 41.66 43.47 38.58 37.45 35.79 38.68 38.96 39.06 40.40 40.02 40.50
54.50 54.03 53.57 53.45 54.18 53.76 53.49 52.94 52.51 52.78 53.20 53.70 53.69 53.28 53.28 53.09 53.31 53.57 54.01 56.20 56.03 58.05 57.19 55.73 55.19 51.42 45.34 43.03 49.45 52.18 51.32 50.08 50.45 49.42 45.45 46.81 45.75 41.30 40.39 35.86 39.81 39.18 34.31 36.79 37.38 39.34 38.53
54.83 54.28 53.83 52.75 53.54 53.07 53.13 52.72 52.04 52.33 52.49 52.68 53.07 53.02 52.76 52.90 53.02 53.14 53.31 57.18 58.17 56.34 56.14 55.33 55.07 49.63 40.81 50.53 47.60 48.68 48.38 47.42 48.51 49.12 48.12 47.67 47.04 42.73 38.74 40.38 37.93 34.05 33.56 26.90 36.22 38.71 39.83
55.15 54.82 53.80 52.57 52.28 52.72 52.38 52.19 51.28 51.94 52.06 52.38 52.44 52.55 52.33 52.45 52.52 52.96 54.09 55.77 55.37 55.79 55.56 54.49 49.62 46.32 39.82 49.52 44.81 46.83 46.27 44.94 45.81 46.91 47.86 48.46 46.35 39.20 39.49 33.81 28.53 31.08 19.86 27.19 31.26 39.43 38.87
55.30 54.51 52.76 52.46 51.34 52.32 52.29 51.98 51.91 51.95 52.14 52.13 51.97 52.10 51.98 51.85 51.98 52.75 54.39 55.01 54.36 52.88 51.68 51.15 49.11 41.07 43.63 40.42 44.74 45.72 46.62 47.72 44.64 44.16 44.04 42.14 38.62 35.44 35.45 29.83 17.53 19.37 20.74 28.98 29.50 36.41 37.78
52.01 52.50 52.37 51.47 51.21 52.08 52.18 51.96 51.66 52.06 51.81 51.80 51.56 51.55 51.43 51.35 51.54 51.53 49.18 48.33 43.30 41.69 46.07 42.21 41.36 41.26 43.03 46.00 47.73 45.96 48.30 46.00 45.04 41.80 33.43 38.95 32.67 29.24 30.41 32.74 32.68 30.16 28.84 27.75 31.91 36.66 36.27
52.10 52.07 52.16 50.97 51.74 51.90 51.98 51.82 51.36 51.06 51.20 51.70 51.10 50.99 50.92 50.93 51.29 51.24 49.42 43.19 43.39 44.72 38.32 45.18 44.83 43.59 45.14 46.32 40.89 44.43 48.87 41.29 39.43 32.62 36.02 34.59 29.86 34.22 35.91 35.37 33.84 33.63 31.60 29.88 33.32 37.02 37.42
52.20 52.49 51.18 51.18 51.57 51.66 51.73 51.74 51.54 51.52 51.45 51.12 51.07 50.86 50.42 50.43 50.71 48.53 46.07 45.59 49.33 48.06 38.41 41.16 43.86 42.41 42.40 44.52 41.61 41.89 45.27 42.26 36.55 33.50 33.42 29.23 32.63 37.85 35.76 34.14 33.09 32.71 32.19 30.79 30.76 35.80 37.50
51.59 51.21 51.17 51.72 51.60 51.65 51.69 51.69 51.46 51.48 51.16 50.59 50.48 50.42 49.93 50.09 45.44 45.63 43.72 48.85 48.63 48.27 32.69 35.12 38.24 41.08 43.50 44.20 40.28 47.31 46.87 42.16 38.26 33.72 35.73 33.78 38.48 36.77 35.39 33.58 35.34 31.61 37.42 36.30 34.76 33.87 25.75
51.08 50.86 50.98 51.35 51.71 51.86 51.69 51.65 51.75 51.55 51.21 50.54 50.25 49.52 49.63 49.32 44.73 42.20 45.30 49.05 49.02 44.36 19.64 35.89 37.82 46.86 44.27 40.99 41.61 42.39 46.04 41.16 34.76 35.50 35.98 28.86 34.38 34.70 34.68 36.24 38.41 34.72 38.93 37.29 35.39 33.38 33.85
50.75 50.86 51.32 51.69 51.85 51.74 51.73 52.27 51.92 51.72 50.55 50.59 50.06 49.38 49.43 46.44 45.09 46.16 48.16 47.41 44.44 27.96 18.70 31.41 38.13 37.47 37.25 40.38 40.92 42.86 41.85 43.16 41.86 36.82 36.91 35.57 40.20 38.07 38.38 39.63 40.01 40.90 38.69 36.78 36.76 35.14 26.16
50.42 51.05 51.56 51.85 52.12 52.85 53.44 51.92 51.81 51.84 50.40 49.91 50.00 49.23 47.27 47.77 41.06 47.38 45.79 40.39 21.90 16.89 32.11 30.03 32.52 36.73 36.65 35.98 36.98 37.08 36.52 34.41 32.75 31.23 29.91 33.75 36.56 40.23 40.67 36.13 40.54 38.88 34.33 28.25 26.19 25.56 26.67
50.76 51.04 51.54 51.68 52.23 52.91 53.27 52.58 51.79 51.61 50.24 50.56 50.37 49.36 47.50 47.67 48.44 45.93 41.91 29.87 21.21 28.99 28.64 35.53 35.88 36.32 33.75 37.13 36.34 36.94 34.64 30.79 36.52 34.72 32.37 29.54 22.38 36.90 40.70 37.08 36.70 37.29 35.10 28.11 23.56 23.45 26.52
50.92 51.26 51.41 51.74 52.46 52.73 52.92 53.32 51.50 51.79 51.23 51.26 49.62 46.48 43.56 47.26 47.33 44.98 36.05 25.68 26.90 29.74 34.85 34.78 35.87 32.20 32.38 36.06 34.53 33.30 31.73 35.47 37.38 38.92 32.63 30.63 31.31 41.05 40.42 41.44 40.63 35.91 33.66 37.75 32.99 31.18 28.55
51.09 51.42 52.10 51.88 51.59 51.74 52.45 53.37 51.38 50.37 51.04 49.66 43.86 42.86 41.74 47.27 47.12 43.06 31.36 30.75 31.19 35.49 37.71 37.75 30.52 33.57 29.30 32.52 31.72 32.48 34.55 37.47 37.93 41.41 40.79 37.16 31.07 38.36 40.92 42.36 42.13 37.78 39.66 30.85 32.39 25.67 24.57
50.33 51.47 52.07 52.02 52.39 52.21 52.33 52.68 52.75 50.43 50.79 50.05 40.13 36.65 43.88 47.62 46.30 36.28 28.61 32.02 35.00 40.65 40.82 37.05 34.18 33.14 31.88 33.02 34.64 34.90 32.52 36.88 40.42 40.04 40.78 38.06 36.53 34.81 39.25 35.72 34.95 35.98 32.84 34.11 33.93 30.79 25.22
50.38 51.26 51.40 51.63 52.36 52.36 52.75 52.18 52.78 52.99 51.55 45.33 37.91 32.57 45.53 46.87 35.13 35.43 32.87 35.12 38.39 39.60 41.33 39.00 37.85 36.95 33.98 35.07 33.86 34.04 33.61 37.91 42.41 40.54 36.71 38.91 34.57 26.87 32.15 38.77 39.32 36.59 34.39 31.79 26.36 26.20 26.50
50.19 50.99 51.21 52.14 52.26 52.33 52.25 51.67 52.32 53.08 52.38 40.72 37.36 38.10 43.33 42.54 27.01 30.76 37.18 38.20 39.53 38.48 38.30 38.24 36.95 38.50 38.08 36.17 32.55 34.90 36.08 41.38 42.29 39.92 36.12 36.57 31.53 24.71 27.73 32.17 36.30 33.90 35.31 34.56 34.51 30.37 25.38
49.80 50.65 51.02 51.97 52.06 52.17 52.01 51.53 52.10 52.74 52.86 44.40 38.41 32.03 37.01 40.83 38.05 35.24 32.48 34.31 35.44 40.90 39.55 40.36 38.57 38.96 37.03 35.57 36.64 34.94 36.88 40.64 40.87 40.19 43.23 39.70 31.93 27.96 23.08 28.08 32.93 30.56 33.39 34.99 31.04 23.97 25.35
49.78 50.52 50.86 51.32 51.51 52.03 51.94 51.77 52.10 52.58 52.67 43.69 38.21 31.12 35.01 28.73 33.19 34.82 35.09 36.76 35.60 35.33 39.25 39.54 37.14 38.29 37.73 33.44 34.22 33.58 36.21 37.53 39.81 42.48 38.39 36.64 28.02 27.12 31.58 34.25 33.75 31.93 32.48 33.53 30.64 29.60 25.21
49.62 50.30 50.75 51.22 51.59 52.00 52.71 52.46 52.54 52.53 52.33 41.20 35.23 34.27 36.05 33.92 35.89 33.46 35.66 34.91 35.62 36.75 37.10 36.15 36.03 37.31 36.77 33.44 33.92 32.53 35.24 34.16 33.49 36.96 35.02 36.64 27.11 29.11 25.79 32.88 32.26 28.69 31.65 33.40 33.77 33.35 31.94
49.51 49.95 50.53 51.05 52.09 53.18 53.00 52.56 51.64 51.07 49.92 40.18 40.69 40.59 36.84 36.27 33.84 31.57 33.62 36.25 37.20 38.05 38.72 39.34 38.14 36.41 35.12 36.12 37.06 37.07 37.05 37.03 35.69 33.98 33.70 33.73 29.12 24.71 22.57 29.86 29.48 24.98 28.96 31.07 32.85 33.79 32.67
49.13 49.72 50.61 51.11 52.26 52.39 51.70 50.78 50.61 50.52 49.13 42.81 40.76 39.86 35.06 31.62 33.85 33.99 37.70 38.37 37.54 37.66 36.07 38.16 38.22 36.28 38.23 40.95 40.30 38.56 37.49 36.65 36.71 35.78 35.62 32.62 30.05 25.73 21.24 25.34 16.74 28.37 32.81 33.84 32.39 34.87 35.10
49.00 49.84 50.55 50.78 51.83 51.59 51.08 51.05 50.36 50.19 50.55 41.77 40.19 39.00 36.12 30.94 33.96 35.66 37.56 37.35 37.29 37.53 36.94 37.16 38.29 38.68 40.12 38.16 34.37 31.34 30.82 32.31 33.66 34.56 35.15 34.90 31.12 24.05 21.49 19.58 25.09 27.92 31.99 31.66 30.36 30.53 34.39
48.73 49.59 50.19 50.26 52.15 52.02 51.41 50.79 50.47 49.70 50.48 41.44 38.62 39.21 37.97 32.94 30.82 33.62 34.41 36.59 33.03 32.17 34.48 37.33 40.63 41.07 39.29 36.32 31.36 24.24 23.23 26.53 27.06 30.12 35.60 35.81 33.60 28.26 25.03 22.33 19.92 28.16 32.92 35.41 34.21 25.72 33.61
48.52 49.27 50.06 49.81 51.68 51.69 50.85 51.10 51.01 50.21 49.68 41.94 38.48 39.60 38.41 31.47 31.56 33.19 32.85 33.72 36.49 34.81 33.33 35.23 37.61 37.76 38.73 31.84 28.23 26.14 23.44 29.52 25.19 24.71 25.44 27.67 27.65 24.92 24.35 22.31 26.68 32.03 34.64 35.37 23.45 26.10 34.23
48.16 48.92 49.57 49.50 51.04 50.95 50.88 51.47 51.24 51.01 50.45 41.91 38.35 39.65 38.40 31.40 31.56 35.34 36.08 33.10 35.47 35.69 33.16 36.27 36.20 36.44 35.05 29.87 28.68 27.00 26.16 27.97 25.86 28.39 26.09 26.90 23.85 24.65 24.75 21.19 19.20 34.81 33.03 29.39 32.22 33.49 35.17
47.64 48.41 49.10 49.20 49.92 51.34 51.25 51.84 51.10 50.91 50.19 46.49 37.84 41.69 41.23 35.17 33.40 36.73 36.03 36.49 35.53 35.07 33.78 36.11 35.88 35.74 35.55 32.05 30.11 28.87 27.58 27.14 26.64 22.93 29.13 24.55 29.14 27.37 27.76 27.70 33.40 34.35 34.52 34.81 35.31 34.56 34.36

GFSGBSN_sfc_wetblb_090.txt.gz
Wetbulb
55.51 55.24 54.83 54.75 53.98 54.27 54.78 54.60 53.96 53.57 53.51 53.91 54.35 54.63 54.25 54.17 53.77 53.69 54.02 54.10 54.09 55.14 56.56 59.19 57.60 56.40 51.40 44.10 43.05 53.78 57.86 57.35 53.94 51.03 46.85 43.29 39.44 38.98 34.91 35.34 37.58 34.82 37.36 40.27 40.84 40.56 39.84
56.30 55.91 55.43 54.99 54.08 53.27 54.26 53.89 53.70 53.24 52.98 53.17 53.64 53.78 53.57 53.68 53.53 53.29 53.65 53.88 54.81 55.45 56.24 58.56 56.80 55.70 47.44 38.37 51.31 55.79 55.67 52.68 51.52 48.10 45.07 43.35 40.35 42.24 37.44 36.19 34.61 37.49 38.03 37.93 39.30 38.83 39.55
57.10 56.07 56.42 54.45 53.60 53.26 52.84 53.09 53.01 52.49 52.19 52.40 53.02 52.97 53.02 53.16 53.32 53.39 53.57 53.90 54.72 55.59 56.65 58.73 56.68 51.53 45.52 43.21 52.86 53.39 55.05 52.16 50.85 48.43 44.27 45.65 44.59 40.24 39.38 34.84 38.87 38.24 32.86 35.50 36.35 37.31 37.00
57.03 56.21 53.81 53.65 53.12 52.01 52.42 52.77 52.74 52.27 52.03 51.94 52.46 52.73 52.51 52.73 52.70 52.82 53.56 55.64 56.75 56.86 57.55 57.09 55.92 49.33 41.17 50.21 50.75 49.52 48.93 47.24 48.95 48.71 47.07 46.75 46.02 41.54 37.94 39.24 36.72 32.56 31.80 26.66 34.37 37.26 38.17
54.31 53.91 53.73 52.78 52.78 51.69 52.44 52.57 52.37 52.16 52.22 52.13 52.15 52.26 51.98 52.20 52.01 52.49 52.50 56.23 58.05 57.40 56.41 56.00 49.66 46.28 39.72 49.89 45.16 47.06 46.90 44.72 45.11 45.99 46.52 48.11 44.54 37.98 37.89 31.30 25.52 29.28 19.56 26.06 30.11 38.00 36.89
54.30 53.16 52.83 52.66 51.82 52.19 52.46 52.23 52.04 52.07 52.03 51.78 51.78 51.85 51.52 51.65 51.57 51.85 50.90 54.01 53.98 54.41 52.20 50.78 48.80 42.30 42.94 40.42 44.17 45.46 45.03 46.14 43.83 43.01 43.30 40.86 37.66 32.61 32.41 29.88 15.47 20.28 25.76 26.88 27.54 34.95 35.38
53.54 52.60 52.08 51.77 52.13 52.38 52.42 52.23 52.18 51.95 51.10 51.35 51.52 51.18 51.19 51.10 51.06 51.08 47.98 45.88 42.66 41.44 45.43 41.74 41.39 41.15 42.26 45.48 47.25 45.26 47.23 45.03 43.84 40.01 31.86 37.50 30.08 28.56 29.74 31.29 30.34 27.36 26.05 26.76 30.74 35.17 33.68
52.52 52.09 51.71 51.87 52.43 52.42 52.50 52.36 52.15 51.94 51.67 51.42 50.98 50.86 50.39 50.40 50.48 50.71 47.53 39.82 43.14 44.20 36.31 45.16 44.31 42.96 44.77 46.13 40.17 44.07 47.74 39.95 38.45 31.65 35.42 34.55 29.85 33.16 34.66 33.98 32.20 30.76 29.76 29.25 32.80 36.22 36.37
51.71 51.73 52.10 52.38 52.71 52.63 52.71 52.05 51.95 51.70 52.04 50.86 50.67 50.52 49.89 49.86 50.17 47.83 44.09 43.67 49.16 48.09 38.50 39.59 43.74 41.66 42.55 44.78 40.65 41.24 44.35 41.63 36.29 32.72 32.50 28.32 31.03 36.56 34.43 32.25 31.20 30.92 30.40 30.90 31.04 34.88 35.86
51.45 52.00 52.38 52.77 52.68 52.65 52.81 53.35 52.44 52.13 50.53 50.68 49.67 49.90 49.80 49.51 44.28 45.03 42.43 48.33 48.86 47.34 32.55 34.86 37.80 41.03 42.98 44.06 39.98 46.83 45.84 41.26 37.17 32.71 33.90 31.98 36.64 34.69 33.35 32.92 34.01 30.38 35.82 36.15 35.70 33.02 27.25
51.94 51.79 52.43 52.70 52.57 52.87 53.59 52.47 53.02 51.84 51.80 50.39 50.33 50.35 50.03 48.25 42.51 41.45 45.43 48.83 48.79 45.07 20.01 35.18 36.97 46.76 43.45 40.84 41.14 42.27 45.33 40.20 34.20 35.05 33.89 27.13 33.09 33.28 33.69 34.18 37.57 33.60 38.73 37.50 36.48 32.72 31.69
52.03 52.35 52.41 52.47 52.97 53.29 53.72 53.05 52.29 51.66 51.42 50.62 50.74 50.08 49.51 45.69 44.36 45.94 48.13 47.15 44.96 27.79 19.18 32.88 37.34 37.01 37.10 40.58 40.86 42.20 40.73 42.41 40.88 36.02 35.67 34.38 39.18 37.54 36.77 39.64 39.48 39.75 37.33 37.79 36.40 33.79 25.57
52.07 52.19 52.26 52.39 53.21 53.55 53.62 52.44 52.33 51.67 50.75 51.14 50.19 49.15 46.52 47.05 41.12 46.89 45.00 40.42 23.37 18.06 32.61 30.04 33.74 35.28 36.42 36.19 36.40 36.71 36.09 34.05 32.07 29.39 28.52 34.21 35.49 39.89 40.94 35.99 39.85 38.17 34.22 26.95 25.50 22.64 24.82
51.65 52.31 52.30 52.31 52.94 53.52 53.02 52.89 52.31 51.50 51.18 50.47 49.98 48.65 47.99 47.67 47.76 45.45 41.74 29.16 15.26 28.96 27.04 35.64 35.44 35.83 32.81 36.61 35.16 35.09 33.77 29.36 34.63 34.41 32.27 29.83 24.33 37.09 40.74 37.45 36.25 37.11 34.11 28.44 23.01 23.64 23.67
51.19 51.98 51.99 52.38 52.58 52.96 51.90 52.43 52.23 51.95 50.76 49.99 48.98 42.75 42.34 45.16 46.40 42.94 33.20 22.11 22.11 29.03 34.42 33.81 35.91 31.82 31.68 36.03 33.01 32.81 32.14 34.83 37.45 38.97 31.90 31.39 29.47 38.82 40.29 41.35 40.38 36.36 33.56 37.78 32.84 30.42 24.98
50.97 51.69 51.91 52.20 52.43 52.69 52.53 51.16 51.05 50.43 49.92 49.21 40.42 39.68 41.50 46.18 45.64 39.35 29.24 28.62 30.04 36.14 37.77 37.35 29.14 31.84 27.83 31.85 30.62 31.24 32.91 36.15 37.99 40.90 40.55 36.95 30.17 37.73 40.46 41.77 41.49 38.26 39.33 31.15 32.42 24.08 23.80
50.67 51.26 51.88 52.05 52.08 52.30 52.24 52.46 51.22 51.19 50.48 48.65 38.77 34.99 41.49 45.79 43.70 37.15 28.82 31.55 35.49 40.31 40.58 36.53 33.09 31.34 31.55 32.97 34.34 33.68 31.12 36.17 39.44 39.22 39.05 35.92 35.63 32.98 38.76 36.04 34.78 35.56 34.21 34.34 32.64 31.10 25.83
50.12 51.25 51.52 51.83 52.03 52.20 52.07 52.36 53.02 53.25 49.95 44.52 38.36 32.19 42.40 43.94 32.26 34.90 32.72 34.86 38.60 38.44 40.70 38.48 36.41 35.55 33.38 34.64 33.04 33.44 32.68 35.56 41.14 39.80 35.48 37.67 33.30 26.85 31.91 37.12 38.70 36.50 33.92 31.67 26.96 24.99 24.84
50.16 51.17 51.19 51.80 52.11 52.34 52.14 52.02 52.71 53.19 49.78 40.22 35.49 35.10 42.12 42.99 25.66 28.71 35.77 37.01 38.07 37.67 37.54 37.71 35.69 37.20 37.61 35.31 31.86 34.17 35.25 40.48 41.27 38.85 35.01 34.91 30.31 24.83 27.57 30.45 35.06 32.82 34.17 33.34 31.91 28.54 23.54
49.82 50.72 50.89 51.82 52.72 52.96 52.38 52.17 52.47 52.82 52.68 42.29 35.86 28.06 34.44 38.33 36.73 31.86 31.74 33.57 34.83 39.77 38.36 38.82 37.33 38.28 36.04 34.70 35.61 33.68 35.02 39.70 39.88 39.23 43.13 39.13 30.75 27.33 21.15 27.42 31.48 29.79 31.92 33.34 29.25 22.41 24.63
49.93 50.37 51.28 51.89 53.07 53.35 52.64 52.48 52.68 52.65 52.45 41.93 34.60 28.80 33.02 29.50 32.70 33.88 33.16 35.41 34.44 34.32 38.19 38.99 36.98 36.65 35.42 32.07 32.64 32.20 34.89 35.98 38.46 41.47 37.57 35.45 27.71 26.54 29.87 33.09 31.41 29.86 30.38 31.99 28.76 27.85 24.70
49.72 50.27 51.22 52.49 53.19 52.81 52.20 51.49 51.54 51.96 50.30 40.04 33.92 33.21 34.70 32.79 34.35 31.28 34.40 34.25 34.73 35.75 36.14 35.37 34.80 35.90 35.17 32.15 31.81 30.70 33.57 33.02 32.42 35.18 33.93 34.94 26.22 28.69 24.99 31.23 30.37 27.93 30.45 31.99 32.20 31.87 30.77
49.42 50.16 51.25 52.28 51.15 51.19 51.60 51.20 50.96 51.34 47.71 38.82 39.11 39.13 36.00 35.10 32.01 31.39 33.18 34.95 36.24 36.72 37.60 37.66 36.67 34.76 34.20 34.78 35.85 36.21 36.04 35.63 34.13 32.83 32.71 32.60 28.20 23.78 21.43 28.13 29.10 23.09 27.44 29.56 31.00 32.31 31.26
49.27 49.90 50.96 51.89 51.60 52.04 51.61 51.20 50.66 51.16 47.30 41.22 38.84 38.67 34.00 31.33 32.63 33.55 36.55 37.02 36.53 36.58 34.97 36.98 36.94 34.51 36.91 39.84 38.79 37.34 35.77 35.87 35.39 34.35 34.27 31.27 28.74 24.25 19.60 24.41 15.17 26.44 31.76 32.47 31.16 33.09 33.22
48.97 49.66 50.49 51.00 51.68 51.39 51.54 51.33 50.60 50.80 48.18 39.83 38.42 38.29 34.74 30.39 32.33 34.59 36.03 35.64 35.59 36.32 35.55 35.82 37.11 38.38 39.15 37.43 32.85 29.95 29.64 31.23 31.92 32.86 33.28 33.47 29.58 22.93 20.67 18.84 24.18 27.47 30.41 30.71 29.61 30.18 32.83
48.35 49.37 50.08 50.24 51.91 51.62 51.43 51.70 51.66 51.20 48.82 39.87 37.43 38.40 37.15 32.41 30.82 31.97 33.12 35.04 32.02 30.55 33.13 36.09 39.45 39.91 38.65 34.79 29.95 23.83 22.85 25.38 26.22 29.12 32.00 33.49 31.51 27.14 23.45 21.30 19.20 26.71 32.01 34.33 33.03 24.75 33.74
47.80 49.04 49.61 49.72 51.12 51.38 51.51 51.63 51.45 51.15 49.84 40.54 37.59 38.59 36.67 31.97 31.24 31.74 32.14 32.64 35.14 33.11 31.75 33.68 36.50 36.79 37.11 30.22 27.61 25.38 22.95 27.81 24.39 23.66 24.73 26.63 26.32 24.28 23.55 21.28 25.46 30.93 33.67 34.13 22.48 24.87 33.39
47.13 48.57 49.02 49.35 49.93 51.10 51.22 51.52 51.07 50.66 49.66 41.59 37.81 39.12 37.39 31.82 31.19 34.43 34.92 32.14 34.84 34.69 32.13 35.13 35.19 35.37 33.77 29.22 28.01 26.22 25.34 26.60 23.96 26.40 24.53 25.23 22.75 23.76 23.78 20.84 18.44 33.76 32.58 28.09 30.45 32.12 34.26
46.71 47.94 48.61 49.07 49.11 50.09 51.44 51.56 50.91 50.17 49.02 44.23 37.53 39.98 39.67 35.25 33.70 36.00 35.85 36.39 35.74 35.05 34.33 34.88 34.35 34.31 34.50 31.19 29.06 27.78 27.11 25.56 24.71 22.03 27.39 24.85 28.05 26.15 26.96 26.48 31.89 33.52 32.34 33.99 33.93 33.80 33.69

GFSGBSN_sfc_wetblb_093.txt.gz
Wetbulb
57.08 57.30 57.18 56.36 55.35 54.13 53.82 53.92 53.87 53.68 53.79 53.60 53.38 53.80 54.22 54.21 53.93 53.83 53.79 53.79 54.22 54.58 54.67 55.73 57.73 57.18 51.20 43.41 41.47 52.60 59.39 58.39 53.25 50.77 45.91 42.18 39.41 38.19 34.08 34.28 36.50 33.42 35.97 38.76 39.49 39.61 38.97
55.66 55.45 54.96 54.59 54.24 53.94 53.41 52.97 53.10 52.69 52.31 51.88 52.47 53.31 53.15 53.45 53.59 53.51 53.68 53.80 54.04 54.30 54.87 55.62 58.03 55.92 47.73 39.09 49.60 53.37 53.07 51.66 50.16 46.91 43.74 42.37 39.43 40.98 36.40 35.03 33.56 36.05 37.13 36.71 38.19 37.76 38.15
55.41 54.18 54.13 53.68 53.13 52.83 52.32 52.71 52.82 52.85 52.78 52.55 52.17 52.46 52.76 52.98 53.13 53.17 53.11 53.44 54.15 54.46 54.76 55.42 57.78 51.35 46.16 43.17 53.39 54.67 53.02 50.13 49.36 47.14 43.12 44.56 43.46 39.50 38.16 33.72 37.67 37.21 31.70 34.04 35.12 36.07 35.35
54.90 53.15 53.04 53.16 52.54 52.22 52.63 52.60 52.49 52.41 52.49 52.31 52.22 52.25 52.46 52.52 52.59 52.44 52.83 53.03 54.35 55.76 55.74 56.13 55.95 49.60 41.20 50.28 53.30 52.49 50.30 48.33 48.62 47.90 46.25 45.89 44.94 40.72 37.15 38.09 35.44 31.79 30.17 25.80 32.91 36.33 37.06
53.98 52.58 52.62 52.13 52.53 52.41 52.59 52.82 52.61 52.45 52.25 52.09 51.82 51.76 51.69 52.08 51.87 51.92 51.92 52.08 56.61 57.31 56.85 56.67 49.55 46.15 38.96 51.62 48.62 47.41 47.43 43.86 44.79 45.31 45.80 47.72 43.43 36.91 36.89 29.86 22.83 27.30 21.30 25.32 29.11 36.40 35.69
52.88 52.26 52.32 52.28 52.63 53.22 53.28 53.13 52.95 52.85 52.27 51.60 51.18 51.39 51.60 51.30 51.11 51.39 50.23 50.33 53.69 52.59 50.93 50.26 48.64 41.83 42.26 41.37 44.89 45.07 44.94 45.71 42.40 42.14 42.02 40.01 36.81 31.12 30.46 25.49 12.78 17.23 18.75 26.45 26.35 32.90 34.08
52.20 52.35 52.43 52.98 53.18 53.22 53.32 53.12 52.85 51.70 52.41 51.58 51.44 51.11 50.85 50.47 50.51 49.97 45.65 44.60 42.28 42.25 44.55 40.48 39.91 41.44 41.92 44.77 47.31 44.33 46.89 44.42 42.77 38.97 30.63 36.11 27.92 23.52 27.78 29.58 27.87 24.91 23.95 25.37 29.77 34.04 32.71
52.44 52.72 52.93 53.32 53.35 53.35 53.36 53.66 53.41 51.50 51.31 51.73 51.03 50.62 50.16 49.93 50.27 50.05 46.00 38.56 41.04 43.78 38.22 44.77 43.78 42.34 44.32 45.55 39.72 43.56 46.69 38.78 37.09 30.85 33.89 30.51 24.88 31.82 33.53 32.99 31.03 29.73 28.03 27.33 31.40 35.03 35.76
52.81 53.27 53.21 53.44 53.24 53.38 53.63 53.68 53.21 52.04 51.25 50.34 50.00 49.76 49.72 49.67 50.28 46.86 43.78 42.26 48.98 48.21 36.81 38.94 42.60 40.36 42.46 43.98 39.33 40.33 43.55 40.83 35.25 31.71 31.10 26.66 29.85 35.87 33.33 30.65 30.01 29.44 29.14 29.30 28.39 34.25 36.64
53.26 53.35 53.28 53.45 53.44 53.78 53.49 52.62 52.23 51.64 51.44 49.49 50.47 49.63 50.04 49.38 44.77 44.89 42.64 47.93 48.96 47.69 32.01 32.50 36.78 41.05 42.56 44.28 39.35 45.61 44.92 40.19 35.85 32.03 32.49 31.44 34.50 33.61 32.42 31.82 33.09 29.39 34.99 34.43 33.33 33.55 24.18
52.91 53.44 53.13 53.30 53.69 53.31 54.11 52.90 52.32 50.94 50.11 49.25 50.61 50.15 50.21 47.42 42.57 41.60 45.53 48.60 48.79 44.95 18.68 35.01 37.59 46.44 42.73 40.81 40.49 41.87 44.64 39.82 33.50 34.85 35.75 27.43 31.75 31.83 32.52 33.35 36.63 33.05 37.63 36.38 36.31 34.30 31.27
52.19 53.15 53.06 53.53 53.34 54.06 53.42 52.30 52.08 51.98 50.88 51.04 50.51 50.28 48.95 44.45 43.81 45.27 48.25 47.68 45.19 26.06 19.52 32.60 37.16 36.77 37.78 39.99 40.51 41.38 40.15 41.57 40.34 34.95 34.41 33.47 38.13 37.07 35.28 38.53 39.02 39.01 36.99 36.65 36.49 34.29 25.34
51.75 52.86 53.04 53.34 52.88 53.55 52.07 51.64 52.04 51.84 51.30 50.23 49.90 50.41 47.00 46.44 40.43 45.78 45.77 40.73 23.14 16.77 32.61 31.74 33.45 35.98 36.06 35.24 36.00 35.88 34.94 32.23 30.78 29.06 25.95 34.33 34.94 38.90 39.58 36.22 39.48 37.27 33.42 22.11 22.17 23.96 21.38
51.60 52.59 52.78 52.81 52.89 52.11 52.00 51.59 51.82 51.38 50.71 50.27 49.82 48.12 47.58 46.32 45.03 43.58 40.35 30.11 21.47 29.14 28.52 35.66 34.64 35.12 31.80 35.08 33.79 34.70 32.67 30.14 33.22 35.11 32.06 29.92 21.03 36.80 40.43 37.54 36.19 36.06 34.62 27.95 21.39 21.56 22.55
51.16 52.27 52.60 52.66 52.75 51.94 51.36 51.04 50.68 50.55 50.06 49.49 47.65 41.70 41.60 44.80 45.93 42.30 32.35 24.88 23.03 29.63 33.93 33.18 35.20 29.45 30.13 34.98 32.94 30.66 32.80 34.23 37.05 36.65 32.30 31.09 29.31 38.61 39.66 40.12 39.64 36.77 33.60 37.91 32.08 30.88 23.24
50.86 51.82 52.42 52.62 52.67 52.31 51.34 50.43 50.07 49.90 49.94 48.84 39.03 38.31 38.76 44.95 44.59 38.18 29.77 29.40 30.54 35.70 36.86 36.08 27.86 30.54 26.90 30.82 28.95 28.85 31.50 35.65 37.91 40.44 40.38 36.55 29.79 36.44 39.28 41.06 41.37 38.76 40.30 31.84 32.68 25.39 22.07
50.54 51.60 52.29 52.82 52.64 52.34 52.19 52.80 52.34 52.01 50.10 47.89 37.91 33.23 39.96 44.40 42.07 35.89 29.67 32.47 35.64 40.02 40.24 36.74 32.91 30.51 30.70 30.84 32.60 31.40 30.41 35.27 37.91 39.01 38.66 37.61 35.23 31.94 37.85 35.66 34.47 36.00 34.05 35.01 33.46 32.06 26.44
50.67 51.21 52.17 52.77 52.71 52.44 52.23 52.71 53.27 53.31 49.58 43.96 37.51 28.70 41.38 43.03 31.72 35.79 33.37 36.22 39.23 38.55 39.78 38.00 35.88 34.52 32.60 33.65 33.35 34.25 31.24 34.42 40.12 39.54 34.69 37.14 32.85 26.96 31.63 35.70 36.49 35.08 32.73 31.20 25.75 24.95 25.34
50.38 51.04 52.12 52.78 53.33 52.89 52.39 52.57 52.90 53.07 48.02 39.26 33.13 32.92 40.77 39.72 26.23 31.02 34.39 36.35 37.54 36.92 36.47 36.47 35.20 37.09 37.07 34.64 30.35 33.36 34.76 39.32 40.88 38.11 34.30 34.76 29.42 23.29 26.36 30.15 34.12 31.89 32.47 32.35 30.79 27.50 23.96
50.23 50.88 52.20 53.73 53.67 52.93 52.47 52.48 52.47 52.47 51.74 40.57 33.32 28.49 34.42 36.25 33.92 30.78 30.73 33.11 33.85 38.52 37.17 37.76 36.95 37.56 35.15 33.16 34.70 32.09 33.91 38.52 39.07 38.54 42.94 38.39 29.53 26.84 20.62 27.31 30.69 29.19 30.55 31.84 27.78 21.51 24.19
50.00 50.86 52.45 52.54 51.78 51.24 51.25 51.82 52.12 52.09 51.65 40.60 33.80 29.03 31.99 29.34 32.46 32.91 31.92 34.21 33.56 33.77 37.36 37.82 35.39 34.79 33.99 31.48 31.38 30.71 33.45 34.82 37.26 39.40 36.82 34.07 27.19 24.92 28.73 31.34 30.66 28.76 28.92 30.61 27.82 26.48 22.71
49.77 50.57 52.03 51.71 51.88 51.46 51.17 51.35 51.73 51.76 48.99 39.17 33.81 32.91 33.90 31.73 32.80 31.65 34.36 33.55 33.95 34.93 35.13 34.63 33.93 35.14 34.18 31.37 30.75 29.64 31.97 31.65 30.95 34.38 32.66 33.74 25.80 28.06 24.16 29.90 29.79 28.59 28.91 30.66 30.80 30.05 30.23
49.45 50.07 51.46 52.30 51.90 51.14 50.86 50.77 51.40 51.02 46.78 38.36 37.63 37.82 35.72 34.10 31.38 30.33 32.63 34.23 35.22 35.74 36.15 36.61 35.65 33.87 33.35 34.05 35.39 35.64 35.58 34.85 33.40 31.09 31.81 31.39 27.43 23.64 20.46 26.80 27.99 22.74 26.20 29.04 30.31 30.92 29.76
48.97 49.85 50.83 51.87 51.81 51.54 51.48 50.80 51.26 49.68 46.68 40.59 38.24 37.49 33.75 30.65 32.00 31.97 35.91 36.25 35.40 36.01 34.17 36.16 36.29 34.30 36.50 39.22 37.36 35.21 33.42 34.58 34.74 32.19 33.34 30.12 27.68 23.63 19.95 23.70 15.94 25.25 30.71 31.90 30.60 32.79 32.52
48.26 49.29 50.28 51.01 52.05 51.69 51.77 51.87 51.06 48.86 47.03 39.44 37.56 37.95 34.31 29.88 31.03 33.37 33.87 35.00 34.46 34.83 34.58 35.33 36.84 37.59 38.25 35.82 32.09 29.23 28.55 29.56 30.27 31.44 30.94 32.11 28.53 22.37 19.85 18.53 23.94 25.68 29.22 29.96 29.41 29.63 33.48
47.44 48.89 49.67 50.20 51.40 51.83 51.69 52.15 51.47 49.69 46.97 38.98 36.89 38.05 36.12 32.49 30.13 32.18 32.10 33.02 30.88 30.29 32.14 34.52 38.47 39.23 36.97 32.51 29.02 24.08 22.15 24.14 25.62 28.34 31.25 31.49 30.22 26.68 22.91 20.41 18.13 25.62 30.81 33.83 32.05 23.42 32.81
46.75 48.43 49.09 49.85 50.28 51.25 51.40 51.96 51.91 50.67 47.29 40.11 37.24 38.29 36.63 32.17 31.25 30.80 32.29 32.51 33.65 31.47 30.91 32.18 35.30 36.18 35.47 29.47 27.44 24.83 22.49 25.73 22.96 23.06 24.00 25.45 25.27 23.64 23.20 21.36 24.68 28.99 32.87 33.70 21.96 24.65 32.92
46.32 47.64 48.61 49.43 49.45 50.40 50.94 51.71 51.69 51.42 48.16 41.30 37.29 38.35 37.86 32.51 31.46 34.60 35.22 31.90 33.54 33.48 31.98 34.76 33.60 34.40 32.38 28.59 27.73 25.90 24.72 25.32 22.96 24.70 23.08 24.07 21.57 22.68 22.73 20.09 18.06 32.58 31.73 27.52 29.87 30.79 32.91
46.79 47.15 48.07 48.75 49.28 49.67 50.93 51.87 51.55 51.54 50.09 43.68 36.63 39.16 38.50 36.07 34.33 35.68 36.07 36.37 36.13 35.02 34.69 33.61 33.85 33.15 33.72 30.32 28.27 27.20 26.82 24.35 23.74 22.00 25.48 24.63 27.18 24.60 26.40 25.79 30.71 32.88 31.37 32.68 33.19 33.37 33.19

GFSGBSN_sfc_wetblb_096.txt.gz
Wetbulb
55.93 55.48 53.94 54.02 53.91 53.62 53.22 52.90 52.30 52.94 53.12 52.65 52.71 52.84 52.95 53.37 53.70 53.27 53.84 53.98 53.97 53.93 53.71 54.69 55.47 57.53 50.12 43.71 41.87 51.01 59.68 58.74 52.69 49.05 44.68 42.01 39.13 37.31 33.24 33.54 35.42 32.39 34.92 37.85 38.40 38.49 37.89
55.71 55.08 53.69 53.54 53.58 53.27 52.74 52.84 52.77 52.81 52.90 52.96 52.85 52.65 52.26 52.71 53.03 52.35 53.25 53.54 53.66 53.85 53.64 54.01 55.50 56.57 47.96 41.12 50.43 52.98 51.92 50.50 48.70 45.77 42.75 41.50 38.78 39.82 35.57 34.08 32.45 34.87 36.01 35.90 36.79 36.68 36.74
55.63 54.23 53.38 53.28 52.62 52.14 52.59 52.97 52.81 52.48 52.34 52.57 52.37 52.28 52.02 52.28 52.65 52.66 52.86 52.89 53.25 54.08 54.18 54.30 55.19 51.81 46.31 43.11 53.02 52.04 51.45 48.38 48.13 46.13 42.42 43.67 42.36 38.94 36.78 32.67 36.60 35.84 30.38 32.80 33.47 34.49 34.35
54.24 53.47 53.29 53.14 52.88 53.04 53.07 53.06 52.97 52.92 52.62 52.65 52.32 51.80 52.02 51.48 51.89 52.17 52.09 52.45 52.94 53.54 53.84 54.35 55.47 49.79 42.65 51.21 52.32 51.21 50.30 47.27 47.25 47.34 45.46 44.73 44.24 39.99 36.30 36.96 33.50 30.75 28.93 24.05 31.22 34.79 36.36
53.24 53.30 53.61 53.49 53.79 53.91 53.82 53.57 53.46 53.11 52.77 52.52 51.82 51.28 51.57 51.48 50.90 51.24 51.15 51.50 51.16 55.94 55.87 54.77 50.02 46.20 41.51 52.07 49.71 47.61 47.82 44.47 45.06 45.43 46.05 47.14 42.63 36.32 35.87 28.89 21.39 25.94 17.22 24.68 28.34 35.27 34.63
53.41 53.88 53.91 53.99 54.39 54.30 54.24 53.87 53.67 53.52 52.97 51.70 51.04 51.02 51.25 50.86 50.76 50.55 49.38 50.20 49.59 53.83 52.50 51.05 49.16 41.62 42.75 43.64 44.88 45.28 46.22 45.80 42.48 42.63 41.48 39.52 35.50 30.52 29.21 24.43 12.76 18.02 17.67 25.31 25.49 31.50 33.09
53.41 54.10 54.06 54.13 54.43 54.35 54.19 54.11 53.67 52.74 52.69 50.51 50.75 50.55 50.70 50.27 50.51 48.48 45.14 41.25 39.01 41.54 45.03 40.66 41.60 40.81 41.74 46.59 47.25 44.53 46.92 44.40 42.48 38.78 31.02 35.70 28.07 21.57 26.16 28.48 25.87 23.28 22.71 23.88 28.81 33.39 32.53
53.52 54.22 54.27 54.41 54.42 54.06 53.91 53.96 53.06 51.26 50.43 51.23 50.95 50.72 50.12 50.34 50.58 48.59 45.15 36.31 37.56 43.66 36.49 43.41 42.68 42.39 44.36 45.89 39.33 43.44 46.80 38.63 36.21 30.50 33.70 29.19 25.63 30.16 32.60 31.85 29.32 27.22 27.62 27.58 30.44 33.90 35.19
53.34 54.18 54.35 54.60 54.07 53.32 53.25 53.50 52.47 51.92 51.39 50.59 50.73 50.43 50.37 50.62 50.74 46.13 42.74 40.96 46.31 47.90 34.90 38.31 41.22 41.38 42.07 43.62 38.46 40.13 43.01 39.54 33.67 30.55 29.61 25.59 28.44 34.55 32.79 29.27 28.74 29.55 28.34 28.59 29.78 33.33 35.45
53.09 54.03 54.37 54.15 53.84 52.86 53.98 52.96 52.57 52.26 51.02 51.05 50.35 50.53 50.10 49.60 44.90 44.72 42.73 47.50 49.07 48.01 30.59 32.40 37.13 39.97 42.73 43.62 38.41 44.95 44.51 39.67 35.41 30.81 31.93 29.77 33.66 32.51 31.22 31.65 32.83 28.27 34.25 33.74 32.74 32.82 27.05
52.82 53.76 54.07 53.66 53.28 52.85 53.70 53.12 51.92 51.30 51.25 50.89 50.73 50.59 49.99 47.94 42.82 41.92 45.47 48.63 48.51 45.27 18.34 33.61 36.50 46.18 43.92 40.05 39.16 40.65 43.99 39.16 32.84 34.34 33.55 26.24 30.34 31.23 31.90 32.70 35.43 32.14 37.57 35.39 34.52 32.76 32.65
52.54 53.55 53.80 53.34 52.80 52.70 52.61 52.37 52.06 51.54 50.87 50.59 50.27 49.58 48.06 43.57 43.73 45.38 48.11 47.66 44.55 27.23 19.26 32.11 37.30 36.81 37.49 39.64 39.84 40.71 39.17 40.94 39.35 33.78 32.86 32.52 36.74 35.89 35.17 37.40 38.05 38.84 36.16 35.86 35.42 34.09 24.61
51.99 53.20 53.58 53.46 52.48 52.04 51.88 51.96 51.39 51.00 51.00 50.70 50.48 50.17 47.20 46.68 41.67 46.01 45.20 38.95 25.30 20.14 32.61 31.73 32.50 36.24 35.52 34.48 35.02 34.98 33.61 31.11 30.35 27.41 21.16 31.68 33.52 38.59 38.92 35.47 39.07 37.52 34.06 24.77 18.30 20.22 18.61
51.77 52.87 53.44 53.40 52.30 51.42 51.22 51.08 50.97 50.73 50.41 49.90 49.28 47.59 46.94 46.10 44.66 42.75 38.07 28.31 19.86 29.73 29.97 35.41 34.31 35.12 31.89 34.12 32.64 33.03 31.18 28.86 32.88 32.52 30.10 26.19 20.79 35.85 40.09 37.37 36.50 36.62 34.67 26.35 15.05 21.95 24.56
51.50 52.45 53.10 53.24 52.84 51.16 50.64 50.43 49.99 50.44 51.15 50.69 47.05 40.78 40.24 42.91 44.83 40.84 33.19 24.97 21.47 27.78 33.57 32.32 33.99 29.03 29.19 33.57 32.59 29.88 30.58 33.12 35.84 36.38 31.60 30.30 29.24 37.16 39.02 40.61 39.73 36.85 33.25 37.93 31.42 32.90 26.82
51.05 52.15 52.87 53.18 52.89 52.57 52.01 51.50 52.22 52.75 51.21 48.34 37.91 36.98 37.74 43.30 43.33 37.11 31.60 30.54 31.46 35.59 36.57 36.32 28.64 30.30 26.72 29.53 28.63 28.07 28.99 34.01 36.79 39.11 39.01 36.26 30.36 35.23 38.42 40.37 40.95 38.61 39.67 32.63 32.32 23.80 22.92
50.92 52.12 53.11 53.49 52.95 52.28 52.43 53.08 53.26 53.19 51.56 48.16 37.35 33.85 39.78 43.33 41.37 36.81 29.88 32.32 35.73 39.21 38.92 34.32 30.49 28.77 28.54 28.84 30.20 29.53 28.37 34.17 37.51 39.75 39.73 37.52 34.80 30.88 36.63 34.95 33.94 35.49 33.01 34.78 34.00 32.21 25.97
50.67 52.16 53.57 54.00 53.31 52.34 52.37 52.76 53.05 53.24 49.94 43.15 34.92 30.27 41.41 41.94 32.81 33.99 32.74 36.06 39.60 37.17 38.67 36.89 34.76 33.60 31.61 32.34 31.67 33.05 30.09 33.85 39.37 39.69 34.89 36.56 32.63 26.54 30.58 35.16 36.15 34.85 32.14 30.70 24.71 23.68 25.15
50.65 52.12 53.49 53.19 52.99 52.62 52.55 52.59 52.66 52.80 48.20 38.18 32.55 32.25 40.32 39.85 27.46 29.40 32.92 36.05 37.19 36.61 36.00 35.62 34.21 36.07 35.84 33.52 29.88 31.98 33.71 38.43 40.16 38.03 34.27 35.63 28.98 21.28 25.03 28.83 32.76 31.02 31.88 31.39 29.85 26.50 23.70
50.41 51.67 52.70 51.67 52.43 52.01 51.60 51.73 51.90 51.94 49.74 39.13 33.37 29.50 35.03 35.89 32.53 29.42 30.88 32.32 33.06 37.37 36.34 36.84 35.36 36.35 34.75 32.74 33.23 30.73 32.52 37.63 38.96 38.42 43.05 38.11 29.34 27.37 21.24 26.44 29.56 28.10 28.69 30.20 27.68 20.57 23.34
49.99 51.04 52.49 52.20 52.27 52.09 52.05 51.72 52.02 52.01 49.64 39.82 33.84 29.47 31.80 27.76 32.09 30.78 30.80 33.58 32.83 33.05 36.56 36.97 34.68 33.93 32.30 29.53 29.85 29.27 32.32 33.76 36.57 38.76 35.85 33.44 26.34 24.73 28.17 29.59 29.94 29.33 28.27 29.13 26.53 25.84 22.01
49.50 50.56 51.90 52.45 51.94 51.84 51.99 51.58 52.04 51.62 48.12 38.74 34.50 33.19 32.61 30.77 31.20 31.33 34.05 32.75 33.28 34.37 34.57 34.13 33.45 34.53 33.51 30.53 29.59 27.89 31.10 29.46 29.57 33.10 31.46 32.73 25.73 27.59 23.62 29.29 28.42 28.24 29.16 29.02 29.78 29.25 27.90
48.83 50.00 51.07 52.15 51.82 51.88 52.40 52.21 51.77 50.93 46.23 38.21 36.41 36.63 34.68 33.02 30.72 30.55 31.50 32.98 34.14 34.79 35.48 35.70 34.81 32.72 31.94 33.18 35.16 35.37 35.16 34.07 32.44 29.67 30.80 30.27 26.80 23.22 21.30 25.35 26.74 23.01 26.03 28.69 29.87 30.45 29.87
48.34 49.38 50.43 51.40 52.07 51.71 51.95 52.28 52.04 50.49 47.00 40.21 37.68 36.74 33.62 30.16 31.53 31.60 33.98 34.58 33.98 34.24 32.63 35.34 35.01 32.63 35.58 37.67 36.19 33.53 32.26 33.41 32.41 32.42 32.19 28.89 26.81 23.24 19.54 22.12 14.72 24.96 29.05 30.55 29.95 31.24 32.35
48.26 48.61 49.86 50.77 51.50 51.87 51.38 51.98 52.15 51.34 48.08 39.06 37.38 37.73 34.04 29.63 30.65 31.45 33.18 32.41 32.59 33.28 32.70 34.36 35.82 37.04 37.35 34.14 31.07 28.64 27.54 28.13 29.23 29.74 29.70 30.89 27.43 22.02 18.42 17.34 23.48 24.39 27.58 28.80 27.88 28.85 32.63
48.19 47.74 49.28 50.10 50.36 51.40 51.48 51.67 51.70 51.90 48.86 38.53 36.65 37.88 36.31 32.12 29.97 32.79 31.79 31.43 30.33 28.69 31.68 33.60 36.89 37.69 35.67 31.36 28.54 23.53 21.41 22.77 24.29 26.60 30.01 30.22 29.05 25.87 22.28 19.61 17.50 23.70 29.25 32.54 30.30 23.25 31.39
47.77 47.31 48.44 49.28 49.96 50.49 51.03 51.61 51.63 51.72 48.34 39.73 37.03 36.86 36.45 32.14 31.61 32.32 32.39 32.64 33.30 30.50 30.17 30.12 33.97 35.21 33.92 28.90 27.27 24.18 21.81 24.56 22.07 22.05 22.48 24.35 24.10 22.90 22.71 20.60 24.42 27.52 32.06 32.67 20.70 24.71 31.89
48.16 46.69 47.65 48.73 49.54 49.81 50.68 51.45 51.58 51.53 49.95 40.89 37.30 37.57 36.20 32.46 31.48 33.78 35.22 32.87 32.62 32.50 31.29 33.71 31.97 32.92 31.13 28.05 27.26 25.85 24.27 24.21 21.52 23.78 22.03 23.58 20.59 21.76 21.85 19.08 17.86 31.90 30.59 27.05 29.71 29.29 32.16
49.41 46.89 46.96 47.92 48.79 49.49 50.46 52.05 51.66 50.83 48.00 42.66 36.40 38.52 37.68 35.23 33.69 34.89 35.75 35.01 35.23 35.06 35.12 32.46 32.80 32.70 33.05 29.48 27.63 26.92 26.33 22.51 22.20 21.89 23.46 23.03 26.47 23.68 25.82 25.53 30.30 31.77 31.68 32.05 32.20 32.69 32.32

GFSGBSN_sfc_wetblb_099.txt.gz
Wetbulb
56.36 55.54 54.60 54.15 54.02 53.35 53.51 52.78 53.31 53.19 53.44 53.46 53.15 53.09 52.98 52.78 52.88 53.13 52.64 52.86 54.24 54.33 53.39 52.25 54.47 56.24 50.75 44.14 43.11 51.11 59.56 58.84 51.54 48.63 45.56 43.46 40.86 39.42 35.33 35.91 37.21 35.34 36.14 38.26 39.18 38.83 38.56
54.04 54.02 54.00 53.97 53.76 53.82 53.87 53.86 53.76 53.28 53.26 52.99 52.78 52.46 52.19 52.02 52.47 52.25 51.59 52.28 53.17 53.77 53.19 52.53 52.99 55.14 48.67 42.52 51.64 53.86 51.51 49.76 48.19 45.90 43.68 42.94 40.72 41.29 37.11 35.89 34.70 36.56 36.78 36.62 37.29 37.25 37.30
53.95 54.11 54.28 54.75 54.57 54.34 54.50 54.22 54.02 53.82 53.48 53.27 52.90 52.38 52.18 52.06 52.04 51.47 51.82 51.37 51.99 53.17 53.27 53.22 53.54 52.76 47.12 43.40 53.10 52.22 50.83 48.49 48.31 46.50 43.14 44.59 43.37 40.18 38.78 34.93 37.97 36.54 32.30 33.89 34.53 35.83 35.97
53.96 54.88 55.29 55.34 55.03 54.64 54.74 54.19 54.07 53.93 53.63 53.22 52.68 51.56 51.35 51.53 50.82 51.03 51.58 51.69 51.95 53.12 52.86 53.53 53.69 50.17 43.90 51.94 53.47 50.09 49.14 46.82 47.87 47.55 45.43 45.27 44.67 40.79 38.28 38.97 33.78 31.54 30.85 27.39 32.79 35.51 36.98
54.12 55.16 55.32 55.40 55.17 54.86 54.62 54.27 53.85 53.70 53.61 53.07 52.05 50.74 50.70 51.02 50.71 51.22 50.09 50.21 51.16 53.26 54.74 54.04 50.51 47.55 42.02 53.57 47.71 47.89 48.49 44.65 45.92 46.52 46.67 46.66 43.03 37.45 36.56 30.71 25.67 27.86 23.47 26.22 29.76 35.93 35.58
54.41 55.19 55.33 55.10 54.61 54.12 54.39 54.16 53.90 52.97 52.30 51.80 51.29 51.30 51.18 51.22 51.49 49.05 48.68 50.43 51.62 52.73 51.74 51.09 49.38 42.42 45.12 44.27 45.19 45.56 47.17 46.43 43.70 43.40 42.14 40.21 36.68 32.82 31.37 27.75 20.36 22.91 23.52 26.46 26.82 32.79 33.52
54.41 55.15 55.26 54.95 54.46 54.45 54.24 53.80 52.32 51.94 52.47 51.87 51.72 51.21 51.04 51.31 49.64 48.19 44.65 43.32 40.28 41.94 43.92 41.24 41.67 41.15 44.06 46.71 47.87 44.80 47.16 44.41 43.11 39.62 33.53 37.18 30.88 26.40 28.25 29.90 26.66 24.98 26.13 25.73 29.09 33.77 32.00
54.08 55.03 54.90 54.22 54.12 54.19 53.96 53.46 52.78 52.44 52.27 51.77 51.38 51.05 50.88 51.27 49.62 48.18 43.73 37.83 37.59 41.35 34.61 43.54 44.00 44.02 45.30 45.93 39.46 43.12 46.71 39.13 37.41 32.24 35.03 30.83 27.52 31.92 32.98 32.29 30.69 29.43 27.33 26.95 31.30 34.17 34.92
54.02 54.88 54.46 54.04 53.72 53.35 53.15 52.90 52.67 52.44 51.90 51.32 51.07 50.75 51.00 50.92 49.32 45.10 42.15 41.84 47.09 47.16 34.51 35.63 42.08 41.54 42.24 43.85 38.84 40.29 43.33 39.80 34.59 32.01 31.19 27.80 31.15 34.65 33.34 31.07 29.95 29.27 28.09 28.07 28.76 33.92 36.24
53.52 54.63 54.01 53.84 53.45 52.96 52.60 52.22 52.04 51.84 51.45 51.19 50.85 50.26 50.04 50.69 44.98 44.97 42.87 47.71 48.98 47.66 30.41 30.75 36.57 39.46 42.35 42.95 37.63 44.94 44.59 39.94 36.05 30.76 31.54 31.22 34.50 33.08 32.25 30.29 31.92 27.47 33.67 33.29 32.33 32.16 28.34
53.56 54.33 54.05 53.41 53.17 52.61 52.26 51.83 51.68 51.47 51.11 50.64 50.42 50.20 50.19 48.91 43.60 42.08 44.76 48.56 48.42 45.35 17.96 34.25 37.06 45.12 43.99 39.41 39.16 40.69 44.41 39.97 33.39 33.78 32.03 27.71 31.66 32.81 31.77 31.96 35.09 31.06 36.84 35.49 34.68 32.98 32.19
52.96 53.97 54.19 52.66 52.25 51.90 51.87 51.80 51.67 51.44 51.27 51.06 50.68 50.26 48.53 44.69 44.21 45.38 47.98 47.59 44.36 26.83 18.12 30.57 37.94 38.01 37.85 39.30 39.07 40.36 39.62 41.26 39.68 34.41 34.27 32.80 36.85 35.98 34.54 36.52 36.89 37.98 35.72 35.89 35.53 33.74 26.62
52.28 53.65 53.92 53.57 51.74 51.52 51.46 51.12 50.91 50.85 50.59 50.19 50.15 49.83 46.77 46.09 40.55 45.45 43.95 38.24 26.73 20.08 32.66 30.17 34.30 36.83 35.19 34.01 34.83 35.09 33.85 32.08 29.77 21.86 20.46 30.51 33.54 37.94 38.91 35.05 38.70 36.97 33.78 23.04 19.44 24.24 21.73
52.08 53.14 53.79 53.68 52.51 51.01 50.73 50.74 51.35 52.34 51.68 51.07 48.90 46.97 45.83 45.62 44.91 43.48 38.11 30.30 21.90 29.51 29.45 35.30 35.28 34.60 31.63 33.05 32.41 33.29 31.98 29.39 32.73 32.74 29.62 23.97 22.24 34.48 38.35 36.87 36.32 36.25 35.17 26.91 17.64 20.53 24.48
52.10 52.62 53.79 53.73 53.04 52.52 52.06 52.40 52.99 53.08 52.31 50.15 46.00 39.50 39.35 41.59 43.89 40.54 33.65 25.49 23.63 27.11 32.97 32.64 33.08 28.87 30.67 33.13 32.02 30.45 29.90 32.14 35.22 34.67 29.42 27.83 24.29 37.13 38.91 40.66 39.62 36.37 32.00 37.38 31.12 31.25 28.12
51.92 53.11 54.45 54.25 53.53 52.78 52.65 53.07 53.27 53.60 53.48 49.04 37.49 36.29 37.63 41.94 41.69 37.22 32.37 30.54 31.58 34.49 35.49 34.95 28.24 29.82 26.23 29.54 28.75 29.56 29.71 33.76 37.32 38.18 38.65 35.99 30.59 35.38 38.56 40.27 40.68 38.26 39.54 31.71 32.60 22.90 22.88
51.60 53.28 53.74 53.64 53.24 52.89 52.94 53.14 53.21 53.31 53.24 47.38 36.51 34.93 40.62 42.21 41.39 36.73 28.94 30.53 34.85 38.72 38.16 33.85 29.49 28.92 28.48 28.51 29.93 29.24 29.68 33.69 37.87 38.78 39.68 37.68 34.77 30.75 36.49 35.47 33.53 35.76 32.96 33.91 33.96 32.04 25.83
51.57 52.93 52.86 52.38 52.31 52.26 52.38 52.70 52.79 53.27 51.48 41.91 34.82 31.88 42.31 41.38 33.25 31.05 32.43 35.33 39.31 36.47 37.91 36.05 34.26 33.14 30.94 30.97 30.29 31.60 30.99 33.83 39.44 39.86 34.85 36.32 33.84 27.77 30.25 35.48 36.65 35.66 32.55 31.51 26.27 24.86 26.96
51.05 52.28 52.88 52.54 53.03 52.90 52.90 52.64 52.29 52.73 49.75 37.65 32.50 32.11 40.66 40.97 28.30 24.44 31.34 34.96 36.22 35.24 34.82 34.99 34.16 36.06 35.07 32.93 30.13 32.66 34.31 38.70 39.73 38.12 34.81 35.74 29.57 22.88 25.15 29.35 33.31 31.64 32.38 31.89 30.34 27.82 24.76
50.27 51.30 52.63 52.80 52.88 52.81 52.67 52.57 52.43 52.51 50.59 37.78 34.09 30.19 35.45 35.17 31.81 29.89 30.55 31.78 32.81 37.24 35.96 36.00 34.77 35.64 33.88 31.68 33.41 31.02 32.77 37.40 38.99 38.65 42.56 38.42 29.48 27.06 21.60 26.37 30.51 29.32 29.94 30.68 28.78 23.20 25.20
49.79 50.96 51.69 52.63 52.29 52.38 52.41 52.74 52.50 52.25 49.62 39.42 34.11 29.75 31.27 28.33 31.82 30.53 30.67 32.45 31.85 32.46 35.76 36.18 33.70 33.17 32.05 28.94 29.18 28.87 31.60 33.03 36.20 38.62 36.51 33.68 26.88 25.72 28.50 29.36 30.40 30.30 29.77 29.49 26.38 27.28 24.62
49.55 50.19 51.04 51.84 52.32 51.84 52.16 52.45 52.29 51.37 49.90 38.46 34.54 32.93 31.26 30.10 29.78 29.70 33.39 31.59 32.35 33.35 33.84 33.37 32.59 33.51 32.61 29.88 30.00 28.10 30.80 29.64 29.32 32.37 31.90 32.21 26.75 28.66 24.53 29.57 29.33 28.08 29.42 28.69 30.46 30.71 29.81
49.31 49.35 50.59 51.29 52.13 52.18 52.06 52.13 52.21 50.39 46.97 37.62 35.36 35.63 34.15 32.73 30.12 29.27 29.90 31.34 33.02 33.45 34.84 35.05 33.67 31.85 31.19 32.50 34.52 34.88 34.79 33.74 32.28 29.68 30.11 30.04 27.33 23.59 21.52 25.47 26.34 23.60 26.29 28.88 31.07 31.48 30.78
49.04 48.78 49.88 50.73 51.22 51.99 52.02 52.02 52.05 50.55 45.26 38.48 37.01 35.96 32.84 30.22 31.08 31.41 32.76 33.27 32.92 32.99 31.92 34.58 34.28 31.71 35.36 36.80 34.92 32.91 31.06 32.75 31.94 31.35 31.81 28.72 27.01 24.02 21.40 22.65 15.29 26.19 29.82 31.81 31.01 31.88 32.48
49.01 48.48 49.11 50.04 50.67 51.04 51.62 51.90 51.97 51.32 47.70 38.57 36.41 36.35 33.58 29.40 30.83 30.89 31.97 31.03 31.79 31.74 31.72 33.62 35.34 36.99 36.37 32.58 30.18 28.10 26.62 27.06 28.24 29.95 30.03 30.37 27.23 22.81 19.08 17.97 23.92 24.31 27.86 29.30 28.81 29.37 31.93
49.13 48.10 48.48 49.27 49.95 50.22 50.88 51.54 51.99 51.03 48.02 38.29 36.33 36.05 35.11 31.08 29.91 32.74 32.18 30.55 30.18 27.64 30.44 32.47 35.62 36.62 33.76 30.53 28.33 23.21 21.04 22.12 23.97 25.89 29.36 29.39 28.64 26.05 21.91 19.41 18.09 24.76 29.47 32.74 31.00 24.06 31.12
49.81 48.15 47.99 48.62 49.36 49.82 50.19 51.04 51.94 51.34 48.26 40.08 36.48 36.37 35.25 31.31 31.30 32.74 31.95 31.91 32.76 29.47 29.44 29.24 32.82 33.36 32.54 28.56 26.92 24.01 21.24 24.71 21.90 21.44 22.20 23.90 23.78 23.26 23.34 21.17 24.39 27.81 31.90 32.61 22.38 25.94 31.90
50.73 48.83 47.63 47.95 48.73 49.51 49.85 51.08 51.97 50.72 48.48 40.83 36.91 36.80 36.64 31.66 31.58 33.27 34.65 32.62 32.00 32.00 30.08 31.48 30.91 31.23 30.08 27.62 26.82 25.24 24.08 23.64 21.40 23.21 22.27 23.37 20.55 21.24 21.66 19.73 18.26 31.48 31.32 28.07 30.85 30.85 33.42
51.49 49.80 47.97 47.52 48.08 48.93 49.60 51.11 51.54 50.64 47.80 43.51 36.36 38.02 37.03 35.00 34.34 34.23 35.23 34.42 34.54 35.74 34.57 31.90 31.05 31.42 31.80 28.52 27.55 26.84 26.46 21.22 21.33 21.63 22.63 22.40 26.24 23.90 25.42 25.42 30.29 31.49 32.30 32.53 31.69 33.47 33.27

GFSGBSN_sfc_wetblb_102.txt.gz
Wetbulb
54.47 54.95 55.46 56.01 55.83 55.47 55.15 54.91 54.51 54.17 53.83 53.67 53.29 52.95 52.70 52.69 52.15 52.45 52.66 52.69 53.12 53.93 53.73 52.40 53.99 55.97 51.57 45.02 45.00 53.87 59.90 58.44 54.30 52.07 50.12 48.29 45.27 44.21 40.96 41.57 41.79 40.01 40.70 41.40 42.59 42.30 41.98
54.64 55.69 56.06 56.20 55.90 55.59 55.56 55.26 54.70 54.52 54.02 54.10 53.42 52.63 51.94 51.60 51.60 51.62 51.80 52.58 52.79 53.05 53.80 53.27 53.99 55.63 49.17 41.91 52.32 54.95 52.91 51.74 50.96 50.38 47.99 48.21 46.03 45.98 42.08 40.12 39.40 40.39 39.92 40.22 40.67 40.23 40.41
55.12 56.10 56.11 55.85 55.44 55.12 54.95 54.89 54.35 54.47 54.32 54.35 53.72 52.67 52.14 51.80 51.57 51.37 51.91 51.90 51.21 51.73 52.41 53.01 53.96 53.18 48.38 46.62 53.27 54.12 52.95 50.48 50.45 50.35 46.59 47.69 47.76 44.07 43.30 39.19 41.46 39.60 36.62 38.39 38.44 39.25 38.92
55.55 56.05 55.87 55.17 55.34 54.86 54.53 54.41 54.32 53.68 53.59 53.35 53.29 52.82 51.03 51.33 51.29 51.42 52.09 51.58 52.05 52.42 53.27 52.34 53.87 51.14 44.36 52.82 53.88 50.73 51.12 48.71 50.61 50.61 48.73 49.14 48.83 44.83 42.30 42.45 38.61 36.37 36.73 35.30 37.02 39.21 39.49
55.62 55.92 55.05 55.07 55.22 54.59 54.23 54.05 52.60 53.51 53.27 51.73 52.44 51.70 50.74 51.07 51.12 51.43 50.24 50.20 50.69 52.96 53.73 53.34 50.82 47.95 43.31 54.07 47.58 49.16 50.74 47.04 48.26 48.91 48.86 48.32 46.22 41.57 40.82 37.60 35.42 35.80 32.49 32.62 35.40 39.42 38.82
55.70 55.44 54.94 54.57 54.60 54.58 54.08 53.92 53.47 52.97 52.96 51.71 50.82 51.09 51.66 51.81 51.11 49.65 49.89 52.00 53.36 54.24 52.25 49.67 49.20 43.34 46.85 43.26 45.98 48.16 50.69 49.43 45.74 45.45 43.95 42.85 41.48 38.37 37.73 36.71 32.65 29.71 29.76 32.44 33.07 37.32 38.05
55.45 54.97 54.73 54.01 53.93 53.67 53.69 53.55 53.44 53.38 52.87 52.36 51.88 51.67 51.56 50.04 49.10 48.60 48.22 47.07 44.31 41.56 45.49 39.28 38.75 42.62 42.98 45.39 48.90 46.54 48.82 46.90 45.14 42.25 36.75 39.32 36.48 33.18 33.77 34.32 34.16 32.74 31.69 30.64 34.91 37.76 36.10
55.17 54.76 54.31 54.18 53.41 52.89 52.70 52.93 52.80 52.44 52.21 51.76 51.40 51.37 50.99 49.87 49.35 48.08 47.40 42.10 41.33 43.47 35.05 42.79 43.78 43.56 45.36 46.68 41.05 44.40 48.34 41.23 39.90 35.40 37.39 36.26 32.43 34.94 36.51 35.60 34.30 33.47 32.00 33.38 36.61 37.74 37.80
54.88 55.04 53.68 54.00 53.47 53.02 52.83 52.39 52.35 52.23 51.93 51.29 50.95 51.21 50.50 49.68 49.45 47.76 45.00 43.92 47.56 45.91 35.17 36.62 41.23 41.20 42.08 44.40 40.19 41.10 44.79 41.68 37.90 35.02 34.34 33.75 34.04 37.08 35.68 34.13 33.41 34.84 33.47 32.92 33.01 37.35 40.31
54.42 54.82 53.84 53.34 53.48 52.50 52.53 52.41 52.09 52.07 51.52 51.25 51.07 50.80 50.22 50.10 46.00 45.73 43.27 48.33 49.41 48.30 32.72 31.44 35.96 39.14 42.15 43.57 38.23 46.21 46.57 42.19 38.36 34.22 35.65 35.42 36.66 35.10 34.35 33.52 35.31 31.84 37.18 35.91 35.17 34.68 31.32
53.77 54.60 54.14 52.54 52.27 52.19 52.17 51.78 51.71 51.55 51.42 51.26 51.23 49.97 50.75 49.53 44.98 43.46 45.60 48.98 49.41 46.02 21.83 34.74 37.49 45.49 43.33 39.23 39.72 41.21 46.43 43.07 36.88 35.96 36.68 33.47 35.01 34.94 34.31 34.73 37.47 35.15 38.14 37.17 36.37 33.69 33.08
53.31 54.28 54.44 53.46 52.02 51.83 51.53 51.67 52.13 52.49 51.60 50.81 50.91 50.35 48.38 47.34 47.07 46.16 48.50 48.77 45.78 33.77 21.78 32.24 37.80 37.51 38.17 40.02 39.36 41.61 41.75 44.78 42.55 37.55 37.63 36.38 39.29 38.31 38.00 38.94 39.26 39.94 37.54 37.24 37.62 33.67 28.32
52.81 53.67 54.45 54.04 52.96 51.48 51.36 51.72 52.54 53.29 52.54 51.48 50.04 49.69 48.40 48.36 43.85 48.07 47.47 43.63 33.79 26.50 33.26 32.45 35.20 37.27 36.13 35.16 36.62 37.66 36.67 36.25 35.35 32.45 31.90 35.01 36.44 39.55 40.00 37.44 40.30 38.03 33.52 30.13 28.81 26.39 28.64
52.62 53.83 54.60 54.55 53.87 53.34 53.19 53.22 53.54 53.61 53.59 53.54 50.66 47.62 47.16 47.62 48.44 47.54 44.64 37.48 25.51 30.12 31.71 36.90 36.81 37.08 33.34 35.49 35.55 36.06 35.48 35.00 36.77 36.68 32.73 32.28 31.28 37.14 40.54 39.03 36.24 35.68 35.73 30.49 24.23 27.54 30.10
52.63 54.30 53.98 54.10 53.78 53.51 53.50 53.50 53.57 53.93 53.95 53.13 46.58 47.30 46.82 46.67 47.08 46.24 41.16 30.20 29.63 32.21 35.84 35.40 35.59 33.24 32.83 35.62 36.13 35.80 35.97 36.44 38.14 38.34 32.66 32.85 32.97 39.39 40.48 42.56 40.53 36.61 34.30 37.70 32.12 32.03 28.96
52.49 53.88 53.08 53.08 52.98 52.83 52.77 53.16 53.29 53.85 53.74 49.43 45.98 44.65 45.38 45.99 46.93 43.90 40.26 31.35 34.27 37.52 38.37 37.49 31.61 34.33 31.58 33.55 34.16 34.74 35.14 38.28 38.37 39.98 41.71 36.80 32.80 38.35 40.60 41.92 42.35 38.92 41.11 32.20 33.12 26.41 25.80
51.92 53.02 53.20 53.11 52.90 53.10 52.58 52.47 52.65 53.28 53.18 46.79 45.24 45.55 47.77 47.00 47.30 44.41 34.83 35.37 37.47 40.46 40.58 36.93 34.41 33.86 34.24 33.90 35.29 34.94 34.75 38.18 41.00 40.55 41.60 40.14 36.86 35.39 39.18 37.90 37.18 37.42 35.86 35.41 34.89 32.48 29.21
50.99 52.21 53.15 53.18 53.24 53.18 52.73 52.92 52.60 53.31 50.53 46.07 45.06 41.46 50.12 49.14 42.75 40.03 36.87 38.33 40.30 39.28 41.44 39.73 39.28 37.87 36.46 36.35 35.92 36.44 35.82 38.13 42.84 43.14 38.04 39.85 36.17 31.69 35.06 39.45 40.57 39.94 36.93 35.27 31.14 28.74 32.57
50.63 51.69 52.77 53.07 53.19 53.13 52.87 52.93 52.74 53.37 48.94 45.95 42.88 42.61 49.72 50.43 38.82 37.61 38.21 38.34 39.43 38.82 38.44 39.07 38.46 40.25 39.84 37.61 34.86 37.34 37.92 41.95 43.01 41.69 39.07 40.10 35.34 30.96 30.56 34.99 38.02 36.19 36.99 35.81 34.75 34.01 31.21
50.57 50.68 51.56 52.71 52.97 52.71 52.78 52.86 52.37 52.08 50.69 45.73 44.48 40.81 45.72 43.97 40.11 38.68 37.55 37.24 37.16 40.60 39.35 39.41 39.05 40.47 38.90 36.97 38.77 36.53 37.33 40.54 42.56 42.32 42.34 41.80 36.08 33.44 31.12 32.79 36.32 33.87 34.97 34.95 34.95 31.56 32.45
50.88 50.13 51.05 51.54 52.57 52.18 52.21 52.61 52.28 50.69 50.68 46.52 43.31 39.27 38.57 39.28 39.38 38.84 39.24 37.73 36.72 36.67 40.71 40.88 38.86 37.63 37.04 35.42 35.71 35.42 37.17 38.12 40.45 41.21 41.06 39.58 33.85 33.46 35.13 36.04 35.54 35.12 35.10 34.91 32.04 34.49 31.74
50.75 49.91 50.68 51.16 52.27 52.29 51.99 52.18 52.20 50.58 48.60 45.76 42.88 41.02 38.82 38.36 36.14 38.76 38.30 36.69 36.26 37.34 38.04 37.92 37.29 37.56 38.31 36.33 36.53 35.22 36.69 36.82 36.86 38.33 38.37 37.86 34.65 33.60 30.89 34.35 34.55 32.37 35.06 35.36 35.26 35.19 34.62
50.48 49.93 49.84 51.18 51.72 52.13 52.01 52.03 51.93 49.96 48.77 45.26 42.93 42.67 42.14 36.67 37.92 38.54 37.35 36.73 36.62 37.86 39.36 39.38 38.50 38.03 37.30 38.50 40.49 41.48 41.43 40.17 39.26 37.30 36.40 35.75 35.07 32.38 30.02 31.75 32.02 29.91 34.17 34.81 35.71 37.46 37.39
50.33 49.80 49.53 50.14 51.10 51.40 51.73 52.13 52.10 50.74 46.46 45.85 43.22 42.98 41.68 37.44 39.02 38.34 37.76 38.01 37.29 37.56 37.59 39.48 39.57 38.19 39.80 42.89 41.03 40.41 39.51 38.95 38.62 38.62 38.63 35.06 33.78 32.80 30.69 31.45 25.00 33.37 36.52 37.04 36.76 38.00 39.24
50.48 49.53 49.42 49.28 50.26 50.76 51.27 51.63 52.13 50.74 47.21 45.54 43.50 43.58 41.69 38.12 37.92 36.96 37.13 37.93 38.04 38.20 37.85 38.47 40.50 41.53 42.33 40.03 37.49 34.93 34.79 34.32 35.07 36.51 36.68 37.58 35.31 32.36 28.96 28.60 33.34 32.64 32.81 34.77 34.25 35.86 39.91
51.33 49.58 49.01 48.80 49.23 50.20 50.51 51.32 51.86 50.76 47.70 44.83 42.74 42.95 42.61 39.61 38.16 38.97 38.56 38.19 38.38 38.26 37.95 37.87 41.01 42.68 41.31 38.30 36.02 30.64 30.24 29.98 31.04 31.79 34.98 34.86 35.31 33.25 29.43 25.90 26.12 33.13 35.90 38.42 38.31 32.29 38.70
51.86 50.51 48.77 48.53 48.52 49.40 50.09 51.15 51.96 50.51 48.18 45.63 42.67 42.24 43.47 40.12 39.56 39.66 39.50 38.70 39.28 38.06 37.61 37.06 38.71 39.45 39.70 37.41 33.58 31.80 31.27 31.77 29.47 29.07 29.10 31.45 32.21 30.23 30.93 28.87 32.63 37.00 37.93 38.80 30.40 34.09 38.10
52.07 51.33 49.61 48.37 48.12 48.73 49.59 50.65 51.67 50.65 47.82 45.20 42.29 42.12 43.21 40.65 40.83 38.25 40.05 39.30 38.43 39.14 37.96 37.71 37.96 37.51 37.57 34.71 33.73 33.57 31.78 32.72 30.13 32.63 31.36 31.58 29.87 29.28 29.89 27.88 25.81 37.35 36.28 33.84 38.54 36.99 39.89
52.20 51.91 50.79 48.83 48.07 48.19 49.06 50.03 50.97 50.33 48.05 44.45 42.95 41.90 41.62 41.66 41.32 39.03 40.62 41.15 41.76 42.54 41.49 38.55 37.65 37.62 39.37 36.90 35.37 35.24 32.72 31.62 30.65 30.01 31.43 29.33 34.08 33.31 33.61 34.76 37.21 39.37 40.46 41.91 38.69 40.11 39.90

GFSGBSN_sfc_wetblb_105.txt.gz
Wetbulb
56.56 56.73 56.43 56.02 56.29 55.81 55.48 55.25 54.84 54.96 54.82 53.68 52.87 52.63 52.22 52.22 52.15 52.20 52.37 52.88 53.82 54.21 54.04 52.69 53.96 55.99 52.58 46.86 46.71 55.00 59.98 59.68 55.16 53.48 50.75 48.48 45.92 45.51 42.61 43.96 43.71 42.21 43.22 43.60 44.39 43.60 43.16
56.88 56.41 55.89 55.85 55.85 55.22 55.23 54.99 54.10 54.17 54.51 53.49 52.89 52.31 52.05 51.54 51.38 51.89 52.16 53.03 53.63 54.01 54.01 53.70 54.25 55.75 50.26 43.43 52.94 55.83 57.48 54.78 52.84 51.99 50.43 49.73 47.20 47.88 44.55 43.28 42.53 43.19 42.47 42.06 42.35 41.83 42.19
56.62 55.71 55.44 55.57 55.47 54.97 54.81 54.84 54.08 53.46 53.09 53.76 52.94 52.27 51.91 51.81 51.64 51.94 52.40 51.93 51.67 52.72 52.91 53.34 53.46 53.62 48.46 46.79 54.01 55.65 51.94 51.80 52.74 51.77 48.43 49.93 49.69 46.11 46.00 41.21 43.57 41.76 39.19 41.07 40.97 41.17 40.89
56.17 55.58 54.91 55.05 54.77 54.80 54.72 54.39 54.59 54.44 53.95 53.56 53.30 51.47 51.60 51.68 51.50 51.45 52.10 52.45 52.46 51.42 50.77 52.67 53.64 52.15 45.75 53.71 55.11 52.32 52.63 50.73 51.95 52.00 50.24 50.07 49.78 46.25 44.42 44.34 41.27 39.50 38.91 37.49 39.80 40.84 41.97
55.92 55.52 54.87 54.66 54.14 54.37 54.37 53.95 53.39 53.40 53.32 52.82 53.27 52.21 51.45 51.74 51.42 51.85 50.64 50.47 51.21 52.05 52.74 53.02 50.59 48.26 44.12 52.73 48.04 52.06 51.82 48.33 49.36 49.44 49.44 49.18 47.70 43.37 42.77 39.93 38.30 38.35 36.95 36.35 38.15 41.60 41.02
55.84 54.91 55.06 54.10 53.46 53.66 53.70 53.62 53.43 53.33 53.10 52.56 52.16 52.39 52.45 51.66 50.83 50.55 51.78 52.13 52.79 52.09 51.62 51.93 50.12 43.12 46.22 41.95 46.41 50.07 51.69 50.36 46.69 46.54 44.30 43.39 43.22 40.39 39.93 38.37 34.99 35.77 34.59 35.42 36.14 40.47 40.76
55.72 54.30 54.63 53.73 53.45 53.33 53.31 53.28 53.02 52.81 52.60 52.29 52.24 51.58 50.71 49.87 49.22 49.47 50.38 48.82 45.00 41.35 44.92 41.42 39.60 42.23 42.94 45.89 48.78 47.27 49.47 47.49 46.50 43.60 38.45 41.21 38.50 35.95 37.45 37.20 37.20 36.14 35.04 34.63 38.61 40.54 38.78
55.50 54.96 53.91 53.79 53.32 53.12 52.91 52.68 52.47 52.23 51.85 51.60 51.49 50.99 50.79 50.58 49.01 48.47 49.01 44.37 43.49 44.15 35.83 40.76 44.11 43.51 45.51 46.84 41.18 44.43 48.78 42.08 41.49 37.76 39.54 38.03 35.35 37.54 38.25 37.63 36.69 36.06 35.34 36.58 39.22 39.97 39.18
55.15 55.38 53.66 53.38 53.12 53.10 52.88 52.79 52.78 52.49 52.04 51.69 51.36 50.54 49.93 50.43 49.86 49.47 45.54 44.32 48.59 47.50 35.71 35.92 41.40 41.31 42.62 45.11 40.81 41.38 45.60 43.11 40.46 37.29 37.21 36.64 36.63 39.08 37.82 35.55 35.61 37.23 36.07 36.16 34.69 39.78 42.52
54.44 55.20 54.69 52.96 52.89 52.67 52.45 52.68 52.82 52.45 51.84 51.61 50.67 51.18 49.95 49.88 46.19 46.51 44.23 49.01 50.29 49.22 33.57 31.53 36.51 39.49 43.04 43.83 38.62 46.95 47.50 43.40 40.04 36.38 39.26 37.29 38.75 36.95 35.80 34.75 37.21 34.43 38.77 37.62 36.82 35.60 33.52
54.10 54.60 55.14 54.21 52.60 52.37 52.17 52.36 53.06 53.54 52.19 51.24 51.34 49.94 50.81 49.35 46.10 44.23 46.61 49.69 50.11 46.96 22.98 34.77 37.86 45.23 43.98 40.22 41.06 42.18 47.73 44.67 38.13 37.56 39.06 35.03 35.98 35.95 35.69 36.65 38.98 37.06 39.86 38.62 38.27 34.24 33.09
54.20 55.11 55.22 54.67 54.09 53.64 53.45 53.55 53.81 53.76 53.54 52.49 51.02 50.88 50.07 50.29 49.51 48.38 50.50 49.95 47.45 33.52 22.90 32.57 38.79 38.28 38.07 40.00 39.74 42.60 42.77 46.11 44.53 39.87 40.25 38.22 41.36 39.84 39.95 40.49 40.46 41.42 39.35 38.11 37.28 34.35 29.16
54.00 54.49 54.45 54.35 53.95 53.74 53.64 53.75 53.79 53.94 53.66 53.56 52.29 49.51 49.62 49.80 46.29 50.31 49.87 45.86 33.99 27.86 34.55 32.95 34.94 38.16 37.30 35.97 37.42 39.21 38.74 38.49 37.53 33.20 32.51 37.44 38.06 41.16 41.45 37.96 40.79 38.73 35.32 31.61 29.21 29.20 30.79
53.88 53.84 53.63 53.59 53.48 53.23 52.92 52.96 53.22 53.65 53.63 53.70 50.63 49.27 48.66 49.16 50.13 49.12 46.55 39.54 28.54 31.60 32.80 37.95 37.63 37.81 34.38 37.43 37.04 37.78 37.61 36.76 39.29 39.20 35.56 33.79 31.39 38.71 42.29 39.87 36.74 36.18 35.69 31.68 25.24 28.58 30.76
53.12 54.07 53.57 53.52 53.41 53.36 53.08 53.04 53.16 53.39 53.96 51.95 47.40 50.00 50.04 49.74 49.77 49.34 42.48 32.52 31.42 33.60 37.41 36.17 37.52 34.39 34.48 36.91 37.85 38.14 38.01 37.83 39.81 40.52 33.92 33.73 32.95 40.99 42.34 43.50 42.19 36.31 34.86 39.14 32.54 34.06 28.76
52.46 53.30 53.35 53.51 53.40 53.13 53.13 53.28 53.39 54.23 53.35 49.26 50.17 48.95 47.78 49.30 50.36 46.65 41.33 33.28 35.85 39.85 40.24 39.07 33.52 37.06 33.48 35.63 36.58 37.25 37.34 40.56 39.19 41.71 43.21 38.99 34.01 40.44 41.87 43.18 43.91 40.00 40.99 32.66 33.54 25.80 26.40
51.34 52.66 53.26 53.12 52.98 52.84 52.84 53.24 53.09 53.57 51.42 47.63 50.52 47.58 50.21 50.77 49.07 46.24 36.97 37.31 39.41 42.38 42.37 38.90 36.91 36.24 37.30 36.29 38.16 37.19 37.12 40.01 42.62 41.67 43.23 41.65 39.14 37.23 40.95 39.54 38.33 37.75 35.54 36.19 35.63 33.54 28.13
51.00 52.23 52.81 53.09 52.76 52.63 52.64 53.09 53.23 53.49 51.50 49.11 51.50 43.31 52.43 51.67 45.41 44.13 39.21 40.26 40.66 41.32 43.36 41.76 42.10 40.51 39.22 38.94 38.36 38.50 37.93 40.58 44.89 44.13 39.25 41.85 38.56 34.56 37.00 42.25 43.05 41.81 38.58 37.49 31.99 31.79 34.62
51.26 51.14 51.83 52.51 53.27 52.99 52.57 52.47 52.17 52.04 51.46 48.82 47.06 47.65 53.98 53.94 41.37 40.97 41.98 40.60 41.93 41.47 40.99 41.53 40.82 42.38 42.11 39.51 36.63 39.43 39.64 43.57 44.12 42.89 40.59 41.72 37.61 32.64 33.10 37.07 39.67 37.33 39.65 38.83 37.42 36.10 32.21
51.48 50.61 51.41 51.76 52.80 52.92 52.84 52.85 52.55 51.65 51.31 50.13 49.06 43.46 48.16 47.74 45.10 42.84 41.24 40.29 39.17 42.74 41.72 42.18 41.51 42.81 40.91 39.21 40.98 38.34 39.12 42.03 44.01 43.53 42.66 42.45 38.29 34.68 32.00 34.09 37.33 35.24 37.09 37.50 36.26 32.87 34.78
51.56 50.71 50.78 51.73 51.84 52.43 52.60 52.76 52.26 51.66 50.18 50.67 47.68 43.37 43.12 42.54 41.79 42.99 42.81 41.10 39.53 38.80 42.87 43.16 41.00 40.62 39.52 37.45 38.16 37.73 39.63 40.32 42.36 42.76 42.47 41.17 35.00 36.49 36.79 37.56 37.52 36.41 36.22 37.40 34.00 35.31 32.33
51.49 50.98 50.40 51.23 51.79 52.15 52.13 52.51 52.25 51.14 51.33 49.97 46.40 45.20 44.42 43.31 41.01 42.45 41.17 39.48 39.32 39.73 40.71 39.73 39.17 39.87 40.96 38.34 38.50 37.12 38.77 39.24 38.59 40.84 40.07 40.70 35.41 36.07 32.03 37.02 36.12 34.19 36.80 37.23 37.31 37.16 36.56
51.46 50.76 50.51 50.29 51.37 51.63 51.88 52.25 52.35 50.80 51.43 48.87 48.38 47.55 44.75 39.61 41.69 41.72 40.79 39.91 39.46 40.86 41.40 42.07 41.28 40.65 39.43 40.33 42.37 43.39 43.79 43.16 41.86 39.57 38.30 37.52 36.51 34.01 30.71 34.97 34.82 30.78 35.42 36.19 37.44 38.95 38.17
51.86 50.76 50.45 49.92 50.40 51.09 51.40 52.02 52.41 50.94 48.73 50.82 47.78 46.67 44.33 40.65 41.79 40.82 40.23 40.44 39.66 40.60 40.32 41.94 42.16 40.77 42.51 45.02 44.62 42.68 42.32 41.82 41.88 41.28 41.96 37.66 36.00 34.90 31.24 33.78 25.98 35.76 39.08 38.84 38.20 39.39 40.79
52.23 50.80 50.12 50.01 49.40 50.49 50.93 51.56 52.16 51.19 48.63 49.63 48.73 47.87 44.61 41.32 41.43 40.60 40.04 40.43 41.17 41.25 39.99 40.83 42.81 44.12 45.54 42.92 39.15 36.76 36.68 36.39 37.90 39.97 40.02 40.34 37.75 33.23 29.66 30.47 34.80 36.18 35.38 36.33 36.35 36.74 41.85
52.22 51.39 50.05 49.58 49.07 49.50 50.29 51.15 52.05 50.84 49.00 49.24 47.33 47.16 47.15 42.11 40.74 41.14 40.99 41.34 40.21 40.74 40.91 40.68 43.26 45.22 44.25 41.09 37.80 32.35 31.52 32.85 32.55 33.35 37.18 38.97 38.98 34.73 32.86 26.96 26.90 35.14 37.66 40.49 40.23 32.75 41.94
52.18 51.96 50.62 49.14 49.06 48.79 49.73 50.62 51.92 51.03 48.73 47.90 47.07 46.60 46.82 42.98 43.63 42.80 41.44 41.16 42.47 41.49 39.90 40.93 41.29 41.91 42.70 39.47 35.12 33.58 33.31 34.76 31.19 31.44 30.94 32.48 33.59 30.89 31.52 29.96 34.19 39.64 39.47 41.36 31.32 34.91 40.63
52.86 52.22 51.52 49.69 48.60 48.48 48.88 50.00 51.48 51.21 49.28 46.58 46.46 46.26 45.13 44.20 44.68 42.26 43.57 42.13 41.85 42.11 38.85 41.45 40.59 40.36 40.42 36.14 35.51 36.13 33.99 35.92 32.81 36.19 34.34 33.62 31.85 31.07 32.57 30.17 26.40 40.85 38.51 34.84 39.74 40.35 42.24
53.36 52.80 52.33 50.95 48.71 48.26 48.17 49.15 50.87 51.00 48.94 46.06 45.67 45.40 44.38 43.17 44.38 43.45 45.47 46.25 45.63 45.70 43.84 42.68 41.12 40.62 42.44 38.52 38.48 37.98 34.78 36.29 34.46 31.04 36.75 31.19 36.40 35.48 35.86 35.99 39.92 41.61 42.53 43.86 41.89 41.56 42.26

GFSGBSN_sfc_wetblb_108.txt.gz
Wetbulb
56.37 55.54 56.06 56.01 55.99 55.52 55.57 55.52 54.55 54.08 53.90 54.16 53.29 53.00 52.84 52.63 53.09 52.89 52.54 52.97 54.94 55.23 54.86 53.18 54.28 56.70 53.75 48.16 47.05 54.64 59.86 59.40 54.99 53.87 50.47 47.87 45.20 44.78 41.62 42.83 43.24 40.27 42.52 44.04 44.37 43.52 42.03
56.22 55.48 55.31 55.24 55.55 55.11 54.81 55.42 55.35 54.91 54.20 54.48 53.51 53.22 52.96 52.77 52.56 52.34 52.99 53.64 54.52 54.72 54.65 53.47 54.34 56.50 50.40 43.75 53.08 56.43 57.83 55.86 52.57 52.03 50.26 49.32 46.63 47.87 43.57 42.64 40.97 42.92 43.40 42.41 42.34 41.83 41.54
55.87 56.04 55.31 54.62 54.33 54.86 54.81 54.37 54.29 54.82 54.30 53.71 53.53 53.18 52.80 52.72 52.50 52.31 52.16 52.46 53.27 53.91 53.78 53.84 53.26 53.90 48.42 46.75 54.69 54.74 53.35 52.73 53.30 52.70 49.39 50.10 49.51 46.47 44.79 40.31 43.41 41.95 37.49 39.65 40.37 41.14 40.27
55.40 55.84 55.00 54.29 54.30 54.20 53.94 54.19 53.74 54.18 54.14 53.96 52.95 53.17 52.83 52.60 52.05 51.91 51.95 52.58 52.35 52.25 52.67 53.64 53.61 51.96 45.28 53.97 54.28 52.61 51.84 50.52 52.11 51.94 49.89 49.90 49.46 45.83 44.06 43.03 40.84 37.88 35.67 31.22 38.25 40.52 41.12
55.29 55.44 54.48 54.12 54.03 53.96 53.89 53.68 53.57 53.59 53.37 53.11 53.11 53.08 52.84 52.45 52.31 51.88 51.00 51.51 52.15 52.40 51.88 52.79 50.41 48.03 42.82 52.81 49.04 51.86 51.61 47.79 49.08 49.25 49.22 49.05 47.82 42.22 41.67 36.93 33.01 34.00 30.36 31.76 35.44 41.29 40.97
55.44 54.72 54.18 53.88 53.81 53.57 53.40 53.24 52.95 52.88 53.14 52.77 52.27 51.76 51.51 51.34 51.21 51.39 52.42 51.49 52.26 51.97 51.43 51.35 48.95 44.03 45.26 42.49 48.13 50.36 51.39 50.26 46.49 46.30 44.88 43.88 41.88 36.89 36.62 34.53 28.38 29.99 29.58 33.03 31.21 38.83 39.12
55.99 54.52 54.11 53.85 53.74 53.76 53.69 53.30 53.05 52.97 52.55 52.40 51.50 51.46 50.83 50.04 50.10 50.92 51.08 48.96 43.81 41.36 42.32 40.64 40.50 41.54 42.51 46.03 48.70 47.83 50.12 47.72 46.27 43.59 37.14 41.62 35.80 32.68 35.29 35.54 36.00 34.21 31.92 30.95 36.37 40.51 36.88
55.78 55.37 53.62 53.54 53.45 53.46 53.58 53.41 52.85 52.73 52.05 51.94 50.91 51.27 51.41 50.09 50.12 49.91 49.94 43.69 43.15 44.13 35.45 42.31 43.55 43.70 46.14 46.84 41.53 44.94 49.49 42.60 41.26 36.70 38.96 37.09 33.70 37.04 38.40 38.16 36.83 35.92 34.51 33.97 38.54 40.33 38.11
54.93 55.65 54.96 53.40 53.05 53.04 53.07 53.22 53.66 52.71 52.15 51.10 51.40 50.35 50.89 50.51 50.76 49.05 46.06 44.48 49.83 48.34 35.60 37.21 41.65 40.97 43.11 45.61 40.61 41.03 46.02 43.83 40.36 36.74 37.06 34.00 35.26 39.03 38.03 35.03 35.44 34.46 33.60 34.21 33.30 38.86 39.98
55.02 55.66 55.52 54.85 54.11 53.46 53.38 53.68 54.02 53.77 52.73 51.56 51.08 51.17 50.43 50.08 47.25 47.50 44.33 49.09 50.66 49.63 32.96 31.35 36.81 39.87 43.56 44.16 39.18 46.74 47.43 43.74 41.02 36.02 37.99 35.62 38.41 37.13 35.79 34.74 36.91 32.99 38.55 37.96 36.90 32.93 25.96
55.69 55.24 54.86 54.61 54.40 54.09 54.03 54.15 54.09 54.09 53.75 53.07 51.22 50.78 50.24 51.14 46.14 44.61 46.57 50.01 50.22 47.24 21.50 34.79 38.05 45.51 44.36 40.05 40.09 41.85 48.11 44.72 37.55 37.15 37.89 33.52 34.31 34.58 35.51 36.67 38.89 35.97 40.01 38.16 37.59 34.03 32.50
54.90 53.98 54.15 53.93 53.74 53.50 53.39 53.45 53.57 54.03 53.87 53.71 52.28 50.49 50.73 50.33 49.02 48.43 50.45 50.25 47.09 32.56 22.26 32.36 38.53 38.16 37.88 40.11 40.13 42.80 43.02 46.52 44.65 39.71 39.14 36.99 41.47 39.63 39.39 40.69 40.05 41.10 38.36 37.83 37.32 34.21 26.66
54.36 53.70 54.22 53.98 53.85 53.65 53.54 53.64 53.75 53.74 53.77 53.67 52.65 49.62 50.09 49.99 45.45 50.53 49.74 44.89 32.09 25.56 34.63 32.81 35.59 37.80 36.92 36.08 37.81 39.79 38.46 37.53 35.49 30.91 30.73 36.91 37.43 40.87 41.71 38.18 40.61 38.67 34.58 27.80 25.27 25.73 21.27
53.63 54.11 53.67 54.01 53.89 53.61 53.63 53.77 54.02 54.17 53.86 52.69 50.12 49.53 48.19 48.90 49.84 49.47 46.02 37.86 25.84 32.16 32.40 38.19 37.14 37.32 34.34 37.70 37.31 38.08 37.62 34.00 38.35 38.13 32.71 31.36 23.41 38.00 41.14 39.28 37.00 36.42 34.96 28.80 18.49 25.47 27.13
53.05 53.79 53.38 53.55 53.60 53.55 53.61 53.79 53.65 53.82 52.46 50.44 49.92 49.53 49.24 49.58 50.05 48.46 40.29 30.68 30.84 33.36 37.53 36.19 37.59 34.12 34.16 37.01 37.70 38.09 37.46 36.86 38.63 39.43 33.06 31.89 30.83 40.91 41.68 42.96 41.32 35.65 33.42 38.28 30.00 30.34 23.25
51.94 53.02 53.37 53.11 53.33 53.27 53.39 53.55 53.32 53.45 52.36 49.81 49.14 48.96 47.41 49.99 49.89 45.80 39.12 33.17 34.81 40.34 40.28 39.48 32.94 36.46 32.09 35.10 35.50 36.44 36.52 39.10 38.89 41.41 41.48 37.45 31.33 39.60 40.95 41.98 42.03 39.84 40.00 31.74 32.25 24.78 22.97
51.43 52.28 52.79 52.79 53.12 52.89 52.97 53.29 53.35 52.93 52.39 48.38 48.86 46.02 49.44 50.98 48.84 44.31 35.01 35.26 38.72 42.46 42.58 38.61 36.96 36.08 36.29 35.54 37.71 35.71 35.80 38.90 42.04 40.85 41.64 39.94 37.63 35.00 39.54 37.22 36.43 36.82 34.77 35.24 34.63 32.33 26.16
51.89 51.55 52.09 52.45 52.88 53.19 53.28 53.27 53.35 53.36 52.92 47.15 51.04 41.50 51.05 50.38 43.67 42.41 37.60 40.09 40.48 41.59 43.95 42.33 41.87 40.34 38.20 38.32 37.71 37.04 36.77 39.14 44.03 42.95 38.77 39.27 36.04 29.22 34.42 40.50 40.87 38.11 35.85 34.94 25.90 29.34 29.79
52.16 51.33 51.55 51.71 52.84 53.26 53.09 53.20 52.95 52.59 52.18 48.68 46.20 46.21 53.21 50.88 39.30 38.57 41.11 40.28 42.11 41.80 41.10 41.81 40.68 42.02 41.51 38.42 34.76 37.86 38.47 42.64 43.61 41.48 37.88 38.45 34.14 24.92 27.05 33.19 36.45 34.34 36.63 37.07 34.72 32.04 25.93
52.01 51.62 51.05 51.52 52.65 52.97 52.84 53.03 52.92 52.29 52.01 49.68 47.68 39.08 47.64 46.51 43.82 40.80 39.65 39.91 39.22 43.03 42.04 42.69 41.42 42.43 40.19 37.79 39.06 36.61 38.00 41.79 42.77 42.47 43.44 41.14 35.29 30.29 25.24 28.41 33.74 31.18 34.53 36.33 32.87 25.20 28.15
51.91 51.61 51.04 51.04 51.77 52.32 52.69 52.72 52.58 51.89 52.22 50.30 46.74 41.13 41.69 41.04 40.00 41.19 41.12 40.96 39.50 38.94 42.30 42.59 39.90 40.06 38.61 34.95 36.09 35.55 37.83 38.73 41.51 42.97 39.78 38.09 30.19 31.26 33.79 35.27 34.79 33.25 33.24 34.32 31.20 31.62 26.03
51.93 51.45 51.32 50.51 51.28 51.89 52.20 52.49 52.34 51.33 51.59 48.72 44.18 42.11 42.31 40.66 40.85 40.55 39.68 38.72 39.38 40.06 39.82 38.72 38.09 39.46 39.41 36.04 36.65 34.68 36.63 35.95 35.37 38.50 36.78 38.26 30.07 30.75 25.53 34.01 33.91 30.62 33.61 34.43 34.59 34.66 33.41
52.29 51.45 51.10 50.68 50.12 51.31 51.57 52.28 52.41 51.15 51.67 47.59 46.94 45.72 42.60 39.93 40.19 38.40 37.71 38.81 39.58 40.61 41.06 41.58 40.18 38.91 37.54 38.97 39.99 39.95 39.87 39.78 38.01 34.74 35.31 34.53 31.45 27.81 24.56 32.12 31.29 24.89 31.70 32.78 33.80 35.25 35.50
52.56 51.70 51.05 50.77 49.79 50.40 51.06 52.11 52.36 51.14 49.55 48.70 46.07 45.11 41.89 37.27 38.93 38.59 40.12 40.11 39.48 39.60 38.33 41.11 40.47 38.06 39.92 43.04 42.10 39.62 38.23 38.71 38.70 37.69 38.21 33.86 32.01 28.99 24.37 27.79 17.76 31.17 34.75 35.28 34.35 36.53 37.05
52.29 52.10 51.25 50.51 50.10 49.51 50.59 51.55 52.24 51.37 49.83 47.92 47.01 45.01 42.08 37.28 38.55 39.24 39.55 39.01 39.50 39.81 38.28 39.70 41.13 41.25 42.51 39.23 34.98 32.33 31.91 31.84 34.93 36.72 36.40 36.96 32.95 26.05 22.32 23.03 29.03 31.62 31.90 31.84 31.62 31.97 37.24
52.28 51.97 51.63 50.45 49.85 49.41 49.78 51.25 51.74 51.07 49.52 47.58 45.30 45.27 43.94 38.77 36.86 39.94 38.60 38.85 36.07 35.39 37.29 39.13 41.14 42.09 40.39 37.30 33.59 25.60 24.70 26.49 26.77 29.59 33.58 36.01 34.94 29.15 26.46 22.65 19.99 29.47 33.19 36.36 35.38 25.87 36.27
53.12 51.93 51.60 50.82 49.72 49.47 49.17 50.29 51.51 50.79 49.07 45.77 44.67 45.20 43.79 38.99 39.98 39.04 37.22 37.79 39.61 37.16 35.47 36.57 38.10 38.59 39.05 34.04 29.60 26.93 25.94 30.38 24.83 25.21 25.27 27.57 28.73 26.65 26.34 24.32 28.91 33.95 35.45 36.93 23.85 28.83 34.92
53.69 52.85 52.09 51.17 49.87 49.28 49.08 49.22 50.96 50.71 48.86 45.68 44.73 44.97 42.19 40.10 40.48 40.80 41.77 38.57 38.80 37.98 34.21 37.42 36.88 37.05 35.88 31.18 29.34 29.45 27.38 29.64 26.55 30.11 28.88 27.91 25.42 25.06 26.07 23.70 21.39 36.35 34.45 30.21 34.10 34.16 36.90
53.91 53.53 52.71 52.15 50.44 49.00 48.99 48.89 49.93 50.72 48.92 48.43 43.46 44.45 43.27 39.61 40.94 41.94 42.44 42.09 41.24 40.44 39.70 39.07 37.36 37.38 37.71 32.87 31.73 30.92 28.34 29.70 28.28 23.87 31.24 26.25 31.30 28.71 30.17 29.46 35.48 37.39 36.42 38.23 37.62 37.21 36.92

GFSGBSN_sfc_wetblb_111.txt.gz
Wetbulb
56.57 55.75 55.07 55.28 55.16 55.11 54.98 55.22 55.49 55.23 55.35 53.85 53.15 53.76 53.60 53.61 53.68 53.22 53.08 53.32 55.23 55.58 55.00 53.96 54.81 56.98 53.11 48.16 45.71 54.76 59.63 58.97 55.29 53.19 49.44 46.00 42.36 41.28 38.61 39.29 40.32 38.04 40.07 42.62 42.56 42.04 40.38
56.35 55.18 54.63 54.93 54.92 54.43 54.64 54.62 55.14 54.95 54.47 54.02 53.80 53.71 53.45 53.11 53.08 53.36 53.64 53.98 54.64 55.03 54.35 54.03 54.12 55.83 49.91 42.71 53.32 55.44 56.58 55.59 52.63 51.17 47.99 46.72 43.13 44.71 40.78 39.83 38.01 40.63 41.24 40.31 40.41 40.17 40.05
56.09 54.91 54.38 54.12 53.90 53.74 54.11 54.43 54.31 54.53 54.45 54.50 54.06 53.53 53.32 53.12 53.10 53.19 53.25 53.73 53.51 54.22 54.39 53.90 53.72 53.66 47.79 46.90 54.36 54.44 52.67 52.19 51.73 50.76 46.64 47.03 45.57 43.65 41.30 37.92 41.04 39.92 35.67 37.14 37.99 39.36 38.39
55.52 54.81 54.52 54.38 54.14 53.97 53.68 53.45 53.88 53.93 54.12 54.24 53.55 53.14 52.98 52.50 52.70 53.10 53.40 53.08 52.74 53.21 54.15 54.07 54.42 50.85 44.29 53.49 54.18 52.15 51.82 49.22 49.93 50.36 48.49 48.06 47.35 43.24 40.69 40.25 38.61 35.24 33.54 28.39 36.22 38.76 39.68
54.90 54.44 54.40 54.38 54.34 54.11 53.84 53.56 53.00 53.31 53.25 53.31 53.30 53.39 53.03 52.88 52.40 52.21 52.45 52.72 52.94 52.71 53.72 53.06 49.15 48.17 42.68 53.64 49.27 51.61 52.17 47.79 47.63 47.61 47.58 49.09 45.82 39.56 39.12 33.45 28.17 30.83 25.16 28.98 33.03 39.71 39.33
55.08 54.17 54.07 53.86 54.03 54.23 54.10 53.50 53.15 52.87 52.72 52.12 51.87 51.50 51.43 51.50 51.67 52.72 52.07 52.01 51.99 50.24 49.61 50.72 49.14 43.40 44.40 44.20 48.90 50.11 50.55 50.24 46.36 44.49 43.62 42.02 38.95 34.08 33.57 31.43 20.37 25.38 25.34 30.79 29.19 36.71 37.29
55.97 54.52 53.54 53.27 53.60 53.56 53.83 54.33 52.95 52.41 52.43 51.64 52.09 51.84 50.68 50.73 51.91 52.99 50.00 45.38 42.88 41.00 43.49 40.91 41.85 41.40 43.45 46.82 49.44 47.27 49.96 47.48 45.65 41.58 33.01 39.61 32.15 26.80 31.64 33.29 33.74 31.48 30.23 29.12 33.87 39.02 35.31
55.76 55.72 54.61 53.58 53.16 53.28 53.75 54.22 53.58 52.53 51.70 51.70 51.04 51.51 50.54 51.33 51.67 51.05 47.41 42.38 43.10 43.81 35.59 42.39 42.70 44.25 46.29 47.22 40.83 44.79 49.34 41.90 40.23 34.43 36.59 33.47 28.86 35.24 37.68 37.41 35.47 34.09 31.85 31.53 37.03 40.16 37.12
55.66 55.60 55.33 54.89 54.54 54.56 54.65 54.38 54.19 53.26 52.00 51.42 51.20 50.86 50.84 51.17 51.20 47.53 44.00 44.23 48.72 46.53 35.30 37.30 41.79 41.19 42.80 45.26 40.61 41.35 46.39 42.92 37.86 34.74 33.98 29.83 33.11 38.35 37.10 34.18 34.27 31.83 30.89 32.22 30.82 37.06 38.04
55.06 54.38 54.64 54.39 54.21 53.76 53.86 53.97 54.56 54.12 53.22 51.58 51.35 50.98 50.30 50.12 45.37 44.11 42.49 48.26 49.39 49.27 29.80 31.13 37.37 40.56 43.86 44.56 39.41 46.96 47.31 43.34 38.37 34.06 35.57 32.84 36.49 36.17 34.93 34.19 35.37 30.96 37.48 36.88 36.19 29.81 22.88
54.82 54.32 54.50 54.42 54.24 54.03 53.91 53.86 53.78 54.27 53.88 52.25 51.20 50.74 49.87 49.91 42.94 41.91 45.55 48.59 48.51 44.77 14.55 34.71 37.70 46.10 44.33 40.04 40.20 40.80 46.92 43.28 36.38 36.55 35.05 29.94 32.52 32.86 34.21 35.47 37.41 34.44 39.29 37.08 36.02 31.25 27.73
54.74 54.40 54.05 54.44 54.26 54.06 54.21 53.94 53.73 53.89 53.92 53.69 51.00 50.79 51.13 48.03 45.22 46.54 48.46 46.97 44.87 24.05 19.67 32.25 38.60 38.42 38.12 39.71 39.82 41.93 43.32 44.90 42.67 37.72 36.84 34.93 39.18 37.80 37.49 39.45 38.81 39.91 36.46 35.48 34.45 32.82 19.06
53.69 54.40 53.66 53.99 54.13 54.06 54.16 54.14 54.39 53.93 53.72 53.21 51.60 50.80 49.14 49.11 42.73 47.85 46.75 41.46 25.72 21.13 34.28 32.73 35.23 37.39 36.66 35.97 37.35 39.29 38.16 36.05 32.92 23.93 26.23 35.06 35.50 39.08 40.60 36.14 38.88 36.67 29.44 19.26 18.17 18.04 17.72
53.40 53.79 53.34 53.32 53.88 53.97 54.09 54.03 53.84 53.39 52.58 52.12 50.86 50.22 48.06 48.01 47.91 47.50 43.38 33.71 22.52 32.04 33.34 38.08 36.90 37.16 34.19 37.11 37.02 38.08 35.33 31.36 36.06 35.49 27.77 24.33 19.77 36.17 39.45 37.97 33.35 36.37 34.54 20.38 11.35 16.63 19.19
52.08 52.94 52.99 52.82 53.55 53.60 53.81 54.03 53.77 53.43 51.71 50.14 50.45 44.62 44.42 46.06 48.12 45.68 37.64 28.53 26.18 30.97 36.82 35.22 36.26 33.33 33.24 36.95 36.99 36.21 36.31 35.02 36.55 36.84 27.78 28.39 28.88 39.38 39.47 42.59 40.73 33.80 32.41 37.30 24.94 25.93 19.21
51.74 52.39 52.58 52.89 53.36 53.28 53.34 53.68 53.70 53.20 51.13 49.99 43.31 43.30 43.06 47.29 46.70 42.50 33.20 29.29 32.53 39.28 39.41 38.12 30.11 34.50 30.05 33.49 33.23 33.98 32.78 36.52 36.91 39.59 39.05 35.31 27.48 37.90 39.43 40.85 41.03 39.30 39.82 30.93 29.48 16.38 21.87
52.04 51.86 52.51 52.31 52.89 53.36 53.17 53.27 53.32 53.23 51.61 50.36 42.58 40.00 45.45 47.73 44.56 38.34 27.09 29.68 37.21 41.42 41.28 37.33 34.79 33.32 32.74 33.02 34.40 32.88 32.20 36.67 40.22 38.93 39.20 37.97 35.75 33.74 37.87 35.31 34.92 35.78 32.73 33.28 32.46 31.60 23.82
52.49 51.60 51.97 52.25 52.56 52.97 53.34 53.14 52.90 52.97 51.23 46.53 43.31 34.49 45.71 46.29 35.97 35.61 28.98 37.23 40.80 39.97 41.49 39.91 39.34 37.72 34.52 36.34 34.69 33.79 33.96 36.53 41.75 41.03 35.93 36.98 34.36 26.82 32.28 38.49 40.04 36.70 33.56 32.93 24.75 26.20 29.86
52.43 52.00 51.36 51.82 52.32 52.94 53.12 53.14 53.09 52.74 52.14 43.48 40.46 40.10 46.36 45.99 30.64 28.47 36.85 38.78 39.90 39.59 38.98 39.49 38.44 39.64 38.75 35.60 32.31 34.99 36.08 40.71 42.24 39.66 36.23 36.72 31.55 21.22 25.86 31.15 34.82 32.89 34.78 35.33 32.27 29.15 23.85
52.22 52.06 51.27 51.16 52.02 52.51 52.61 53.00 52.83 52.52 52.74 45.00 41.50 32.59 41.19 40.23 38.74 34.22 35.16 36.46 36.69 40.67 39.70 40.48 39.00 39.60 37.10 34.55 36.14 34.40 35.60 40.06 41.36 40.62 43.59 40.43 33.11 28.40 24.80 27.40 31.91 29.61 33.01 34.34 31.27 21.81 23.89
52.09 51.88 51.79 50.69 51.41 52.05 52.03 52.74 52.37 51.78 52.63 45.49 39.50 33.90 37.30 30.72 35.32 35.74 37.00 37.58 36.45 36.08 39.64 39.64 36.90 37.21 35.24 31.61 32.78 32.59 35.94 36.25 39.65 42.50 38.41 36.46 28.32 28.23 31.62 33.00 32.83 32.06 31.42 32.37 30.11 31.09 26.22
52.36 51.72 51.63 51.04 50.43 51.62 51.86 52.53 52.17 51.17 52.27 42.11 37.95 36.90 37.25 35.43 36.67 35.65 36.60 34.75 36.51 37.56 37.28 36.03 35.31 37.24 35.80 32.81 33.27 31.49 34.00 33.40 34.18 36.16 35.33 36.05 27.76 29.54 24.28 31.79 31.28 29.03 31.37 32.43 32.69 33.71 32.36
52.61 51.71 51.33 51.16 50.14 50.70 51.61 52.41 52.03 51.18 49.64 40.44 40.76 39.93 38.31 36.65 34.81 32.72 32.99 34.66 36.74 37.83 38.46 38.90 37.09 35.65 35.01 36.60 36.62 36.63 36.86 36.32 35.46 34.01 33.30 33.12 28.72 24.99 22.01 28.76 28.44 23.09 28.25 31.33 31.90 32.96 34.31
52.61 52.13 51.40 50.95 50.48 49.80 51.05 52.35 52.04 51.42 48.32 42.55 40.71 39.86 36.73 32.89 34.15 35.06 36.90 37.07 36.58 36.69 35.71 38.29 37.64 35.03 37.97 40.06 38.77 36.40 34.76 35.59 35.52 35.37 35.74 31.70 29.78 25.94 21.67 25.07 15.99 28.19 33.66 34.29 32.77 34.16 35.95
52.81 52.33 51.78 50.81 50.39 49.82 50.10 51.64 51.66 51.22 50.52 43.11 41.66 39.97 36.33 32.50 34.43 35.39 36.15 35.69 35.71 35.79 34.76 37.05 38.44 38.70 39.34 37.35 32.22 28.65 29.19 30.02 32.52 34.18 33.98 34.65 30.91 23.73 20.90 20.94 26.27 29.51 30.99 30.88 30.36 30.25 35.66
53.45 52.35 51.94 51.11 50.16 49.91 49.44 50.72 51.56 50.84 50.12 43.43 40.11 40.82 39.33 33.15 31.90 36.22 35.21 35.77 32.46 30.46 33.52 36.26 38.65 39.94 38.66 34.73 30.81 23.89 22.35 24.79 25.11 28.39 32.28 33.94 32.72 27.39 24.17 21.82 19.58 28.01 31.29 34.72 33.44 24.67 33.24
53.90 53.21 52.08 51.51 50.34 49.74 49.48 49.51 51.09 50.70 50.06 43.26 40.64 41.01 39.92 34.90 36.28 35.72 32.87 34.24 36.38 33.18 31.59 33.79 35.16 36.46 37.25 30.95 27.61 24.56 22.51 28.16 23.21 23.21 23.76 26.70 26.73 24.99 24.07 23.03 26.65 32.84 33.50 35.59 22.22 27.44 33.33
54.04 53.81 52.91 52.03 50.72 49.65 49.46 49.23 50.13 50.64 49.92 43.36 40.80 40.96 38.83 34.43 36.06 38.53 38.62 35.61 35.83 34.58 30.99 34.25 33.20 34.59 33.20 28.76 26.99 26.02 25.15 27.17 24.56 26.51 26.38 25.60 23.31 23.65 24.56 22.88 20.52 34.55 33.54 29.63 32.22 33.87 34.35
53.27 53.97 53.54 52.28 51.43 49.83 49.21 49.27 48.91 50.21 50.05 47.62 39.15 42.19 40.93 36.51 35.63 40.08 40.03 39.93 40.47 39.57 37.80 36.24 33.89 34.63 35.27 30.32 28.39 27.54 26.55 25.98 25.01 22.50 27.76 25.01 29.60 27.16 28.49 28.53 34.29 34.95 34.00 36.83 35.62 35.11 34.32

GFSGBSN_sfc_wetblb_114.txt.gz
Wetbulb
55.03 54.86 54.64 54.72 54.80 54.24 55.12 55.38 54.99 54.50 54.19 53.98 53.87 54.01 54.03 53.88 53.60 53.51 53.46 53.33 54.49 55.63 54.48 54.19 55.15 57.61 53.24 46.20 46.48 54.50 59.79 58.84 54.21 52.16 48.38 44.71 41.13 40.33 37.40 38.44 39.01 37.45 39.13 41.62 41.55 40.67 38.81
55.03 54.92 54.66 54.62 54.48 54.28 54.28 54.85 54.65 54.40 54.50 54.28 53.98 53.79 53.47 53.41 53.72 53.82 54.14 54.37 54.58 54.87 54.09 54.10 54.34 55.56 49.71 41.03 53.30 54.67 54.86 54.85 51.96 50.03 46.18 44.98 41.83 43.11 39.55 38.02 36.76 39.55 40.11 39.30 39.31 38.80 38.94
54.91 54.81 55.02 54.74 54.56 54.29 53.94 54.13 54.12 54.05 54.14 54.25 53.78 53.49 53.40 53.34 53.60 53.70 54.14 54.63 54.54 54.67 54.58 54.05 54.62 53.32 47.63 47.02 53.71 55.05 52.66 50.04 49.91 49.46 45.03 45.64 44.49 42.28 39.71 36.76 39.56 39.06 34.71 35.98 36.64 38.10 37.12
54.75 54.07 54.43 54.68 54.87 54.46 53.89 53.51 53.34 53.47 53.23 53.46 53.35 53.04 52.93 53.31 53.45 53.44 53.53 53.62 53.28 53.62 54.00 54.66 54.70 50.20 45.24 53.11 54.96 51.37 52.21 49.00 48.48 48.69 47.62 47.42 46.10 42.11 39.52 39.18 37.53 33.93 32.11 27.76 34.88 37.36 38.40
54.46 54.21 54.08 54.28 54.44 54.43 54.44 53.51 53.10 52.61 52.53 52.65 53.08 53.05 52.81 52.58 52.91 52.75 53.19 53.51 53.24 53.42 53.79 53.44 48.49 45.96 42.22 53.58 48.65 51.37 51.66 47.60 47.27 46.62 46.80 48.53 44.56 38.38 38.09 31.94 26.76 29.35 21.98 27.03 31.87 38.21 37.93
56.24 54.74 53.99 53.72 53.81 54.13 54.48 53.51 52.78 52.52 52.11 52.25 51.58 51.26 51.45 52.67 52.93 52.64 52.53 52.34 52.35 50.50 49.58 50.22 48.75 41.93 45.21 44.60 48.48 49.65 50.86 49.71 45.62 43.25 42.01 41.45 37.76 32.92 31.81 28.05 19.45 23.73 24.99 29.13 28.23 35.00 35.87
56.90 55.78 55.19 54.79 54.66 54.79 55.03 54.41 52.71 52.01 51.58 51.76 51.88 50.75 51.65 52.59 53.30 53.27 48.73 45.63 41.98 41.20 43.73 41.72 41.93 41.96 43.79 47.24 49.77 47.19 49.48 47.03 44.91 40.23 32.68 37.86 30.92 25.95 30.38 32.43 33.20 31.16 29.43 28.38 32.31 37.48 33.98
55.96 54.65 55.14 54.90 54.76 54.54 54.66 54.73 53.53 52.13 51.40 50.74 51.10 50.75 52.18 52.57 51.79 51.47 46.30 41.76 43.19 43.91 36.38 42.64 43.74 44.31 46.59 46.89 41.10 44.80 49.57 41.36 41.26 33.00 36.24 32.14 26.98 33.73 36.96 36.49 34.54 33.14 30.40 29.19 34.82 38.39 35.99
55.08 54.54 54.92 54.75 54.55 54.40 54.21 54.26 54.05 53.08 51.58 50.68 50.64 51.10 51.05 51.44 50.92 46.76 43.68 44.19 47.98 46.28 35.63 38.00 42.42 41.36 43.04 45.23 40.29 41.90 46.06 42.52 37.91 34.05 33.41 29.12 32.29 37.48 36.04 33.45 33.08 31.60 30.79 31.52 30.09 36.36 36.68
54.77 54.42 54.39 54.69 54.61 54.25 54.20 53.92 54.26 53.84 51.84 51.36 51.16 50.78 50.25 50.67 44.95 43.34 41.91 47.54 48.89 47.79 27.81 31.20 37.50 41.13 43.98 44.77 39.26 46.10 47.20 43.25 38.66 33.86 34.41 31.78 35.49 35.46 33.93 32.96 33.87 28.63 36.43 36.16 35.40 29.06 22.21
54.81 54.38 53.92 54.23 54.52 54.09 54.32 53.78 54.07 54.00 53.31 51.32 50.87 50.30 50.94 49.18 42.41 40.51 44.50 47.71 47.09 42.85 15.38 34.39 37.75 45.52 45.02 39.73 39.50 41.60 46.54 43.46 36.91 37.16 33.97 28.61 31.63 32.26 33.60 34.04 36.49 32.87 37.85 35.83 34.80 29.87 26.11
54.24 54.31 53.70 53.59 53.85 54.21 54.04 53.85 53.81 53.80 53.48 52.30 50.69 50.89 51.35 46.45 44.42 45.76 47.77 46.70 43.33 22.99 18.66 32.73 39.24 37.93 37.71 39.57 39.57 41.14 42.46 44.59 42.94 37.00 35.72 33.27 37.39 36.77 36.15 38.20 37.80 38.69 35.08 34.36 32.66 27.61 17.42
53.41 53.64 53.27 53.31 53.32 53.81 54.11 53.77 53.61 53.26 53.09 52.77 50.40 52.00 48.47 48.53 41.64 47.39 46.13 40.98 25.06 20.49 33.64 33.42 34.51 37.03 36.54 35.31 37.17 38.42 36.76 35.13 32.87 24.20 23.19 33.39 34.28 37.78 39.49 35.01 37.69 35.39 26.86 15.28 16.43 20.28 16.06
52.45 52.89 52.98 53.47 53.50 53.16 53.71 53.55 53.89 53.56 52.41 52.60 51.22 49.90 48.07 47.53 47.24 46.27 42.17 31.38 21.78 31.51 33.08 37.40 37.02 37.14 33.49 36.57 36.88 36.94 34.14 30.81 34.86 32.86 25.84 20.00 19.72 34.63 38.37 35.83 32.40 32.70 28.64 18.05 12.44 16.77 18.28
51.83 52.09 52.44 53.05 53.51 53.47 53.15 53.54 53.26 53.48 51.35 51.05 50.40 43.76 43.58 45.16 47.81 45.37 35.94 27.03 24.62 31.01 36.15 35.29 35.80 32.84 32.41 36.29 36.09 35.19 33.20 33.43 34.94 35.35 27.55 25.21 25.53 38.09 38.46 42.30 38.49 31.89 25.53 34.20 23.98 23.23 20.97
52.12 51.86 52.63 52.83 53.26 53.27 53.30 53.54 53.44 53.31 51.66 50.67 42.84 42.24 42.48 46.29 45.96 41.13 31.62 29.18 32.05 38.06 38.30 37.63 30.30 34.65 30.34 33.48 33.58 33.49 33.28 36.21 35.95 38.06 37.33 33.67 25.61 36.53 38.08 40.21 40.30 36.17 38.06 27.52 26.76 17.26 17.94
52.28 51.85 52.25 52.62 52.80 52.91 52.90 53.23 53.30 53.21 51.99 49.96 42.03 38.46 44.57 46.36 43.74 37.06 25.74 29.01 36.27 40.22 40.31 36.58 33.81 32.40 32.15 32.19 33.54 32.30 31.61 35.99 38.65 37.56 38.33 36.02 32.20 34.16 38.55 34.40 33.05 34.91 31.29 31.99 29.71 26.17 18.74
52.37 52.19 51.66 52.13 52.64 52.76 52.61 52.76 52.71 52.92 50.93 45.88 41.13 34.59 44.60 45.26 34.99 32.97 27.98 36.05 40.63 38.76 40.17 38.55 37.61 36.37 33.43 33.94 32.56 31.87 32.24 35.16 39.85 39.52 35.05 35.92 32.59 26.28 32.04 36.53 38.48 35.48 32.83 31.46 23.67 23.52 25.73
52.43 52.25 51.73 51.19 52.09 52.47 52.50 52.66 52.35 52.40 51.40 42.32 39.19 38.84 45.11 43.47 30.71 27.84 35.68 37.71 38.79 38.49 37.80 38.14 37.40 38.51 37.66 34.37 31.20 33.97 34.78 39.76 41.25 38.74 34.63 35.26 30.50 20.69 26.01 30.62 33.36 33.41 33.98 33.37 30.52 27.64 23.56
52.35 52.25 52.03 50.92 51.32 52.14 52.36 52.66 52.58 52.26 52.89 44.16 38.95 32.52 39.12 38.58 36.66 33.81 33.45 35.03 35.34 39.56 38.60 39.01 37.66 38.57 36.23 33.54 34.83 32.99 33.88 38.79 39.85 39.69 42.97 39.91 31.62 27.08 21.98 26.27 30.50 29.32 31.47 33.44 30.84 21.79 23.69
52.47 52.07 52.00 51.36 50.72 51.79 52.18 52.56 52.45 52.37 53.05 43.11 36.57 33.15 35.96 29.83 34.24 34.20 34.88 35.68 34.77 34.63 38.25 38.35 35.53 35.67 33.59 30.10 31.38 31.60 34.80 35.23 38.66 41.93 37.54 35.70 27.75 26.57 30.12 31.60 31.66 31.43 31.10 31.65 29.72 32.32 25.82
52.62 51.98 51.85 51.66 50.46 51.01 51.97 52.58 52.27 51.83 51.16 40.71 37.15 35.14 35.50 33.75 34.98 33.19 34.76 34.00 35.06 35.84 35.59 34.25 33.70 35.50 34.21 31.36 31.97 31.18 32.91 33.04 33.54 34.88 34.39 34.75 26.87 27.51 24.00 29.78 29.61 28.34 30.48 31.90 32.17 32.77 31.67
52.56 52.13 51.74 51.45 50.90 50.21 51.48 52.32 52.15 51.37 47.49 38.63 38.92 38.37 36.48 34.57 33.13 31.15 32.06 34.40 35.85 36.98 37.47 37.79 36.18 34.21 33.29 35.04 36.22 35.22 35.46 35.31 33.72 33.68 32.74 32.05 28.11 24.12 21.54 26.23 27.22 22.87 28.41 30.52 30.18 31.15 33.43
52.59 52.32 51.92 51.28 50.92 50.03 50.55 51.96 52.09 51.61 47.29 40.93 39.44 38.52 35.53 31.28 32.64 33.31 35.02 35.70 35.71 35.80 34.68 36.96 36.31 34.39 36.91 38.60 37.12 35.08 32.70 34.39 33.96 34.06 34.10 29.97 28.26 24.84 21.10 24.28 15.61 27.48 30.29 31.87 31.89 33.40 34.78
53.33 52.48 52.06 51.36 50.64 50.39 49.78 51.17 51.56 51.34 49.91 40.46 39.09 39.04 35.17 30.52 32.33 33.87 34.42 33.83 34.67 35.06 34.14 35.03 37.08 38.04 38.20 35.56 30.47 27.38 26.95 28.36 31.14 32.64 32.72 33.23 29.43 23.33 19.66 19.98 25.45 28.34 29.05 30.19 29.26 29.53 34.03
53.72 53.24 52.12 51.65 50.67 50.20 49.80 49.91 51.26 50.78 50.10 41.57 38.38 39.07 37.62 32.09 29.70 33.87 34.17 33.84 30.98 28.97 31.91 35.05 37.49 38.56 37.05 33.19 29.35 23.06 21.67 24.38 24.47 26.85 31.26 32.53 31.38 26.71 23.56 21.21 18.69 26.62 29.56 33.53 31.31 24.43 30.24
53.85 53.59 52.65 51.72 51.21 50.23 49.95 49.59 50.51 50.64 50.10 42.28 39.13 39.41 39.20 33.68 34.82 33.78 32.07 32.81 34.54 31.12 29.78 31.62 34.06 34.91 35.13 29.26 26.95 23.79 21.83 26.29 22.74 22.97 24.14 26.55 25.75 24.41 23.37 22.41 26.01 32.15 32.49 33.15 22.96 27.44 32.25
53.12 53.93 53.55 52.38 51.38 50.49 49.85 49.70 49.33 50.36 50.09 43.00 40.26 39.56 37.22 33.11 34.18 37.53 37.39 34.55 34.45 33.17 29.86 32.03 31.93 32.91 32.02 27.98 26.68 25.17 24.04 25.74 23.12 25.18 25.38 25.16 22.71 22.61 23.15 21.41 19.72 33.50 32.49 29.49 32.23 32.23 33.44
52.41 53.38 53.55 53.06 52.11 50.94 49.77 49.64 49.03 49.39 49.77 45.40 38.75 41.69 40.32 35.68 34.96 38.61 39.78 38.39 38.12 37.77 35.06 34.41 31.56 33.31 33.56 29.08 27.63 26.09 25.93 24.22 23.85 22.17 25.45 24.45 28.48 25.93 27.52 27.35 33.15 33.49 33.64 35.04 34.08 33.71 34.01

GFSGBSN_sfc_wetblb_117.txt.gz
Wetbulb
55.24 55.05 55.25 55.35 55.22 55.04 54.71 55.11 54.98 54.71 54.55 54.67 54.44 54.19 53.99 53.85 53.76 53.54 53.65 53.63 54.38 55.08 54.45 55.08 55.28 56.92 53.48 46.33 46.69 55.04 59.53 56.72 53.21 51.04 47.01 44.01 40.48 39.39 36.31 37.38 38.72 36.42 38.22 40.77 40.71 39.61 38.06
54.97 54.83 55.17 55.45 55.50 54.87 54.49 54.31 54.42 54.48 54.22 54.34 54.13 53.74 53.59 54.03 54.04 54.20 54.07 54.12 54.60 54.79 54.60 54.27 55.28 55.50 48.54 39.72 53.47 54.78 56.04 52.19 50.38 48.51 44.67 44.00 40.92 42.11 38.29 36.81 36.06 38.07 38.95 38.08 38.33 38.07 38.27
54.74 54.63 54.66 55.10 55.00 54.88 54.64 53.92 53.51 53.66 53.83 53.89 53.61 53.32 53.37 53.81 53.97 54.16 54.56 54.76 54.79 54.89 54.54 55.12 55.24 52.74 47.83 44.79 53.81 54.53 53.11 50.45 48.36 48.15 43.61 45.12 43.60 41.13 38.98 35.85 38.13 37.63 33.82 34.95 35.92 36.82 36.36
55.17 54.84 54.65 54.51 54.53 54.71 54.37 53.61 53.10 52.95 53.48 53.73 53.58 53.46 53.51 53.14 53.29 53.70 53.66 53.99 54.22 54.03 54.62 54.73 55.03 49.18 45.08 53.20 54.60 52.06 52.14 49.27 47.60 47.52 46.27 46.53 45.39 40.97 38.36 38.14 36.15 32.53 30.97 27.23 33.83 36.24 37.53
56.96 55.84 55.47 55.24 55.16 55.16 55.11 53.32 52.87 52.45 52.69 52.42 52.59 52.55 52.32 52.57 52.73 53.32 53.74 53.90 53.80 53.72 54.16 53.12 47.99 46.42 42.96 53.38 48.54 51.17 51.72 47.35 47.37 45.36 45.91 47.34 43.55 37.44 37.27 31.05 25.90 28.39 21.50 27.00 30.55 36.82 36.77
56.15 55.54 55.50 55.18 55.16 55.20 55.21 53.23 52.60 52.24 52.43 52.48 51.36 51.52 52.45 52.21 52.42 53.29 53.34 52.50 52.84 50.68 49.37 49.98 48.09 40.34 45.25 43.71 47.91 49.70 51.80 48.91 44.12 42.04 41.72 40.71 35.85 32.10 31.25 26.89 20.88 24.11 25.46 27.69 27.89 33.66 34.53
54.85 55.19 55.02 55.36 55.26 55.10 54.91 54.27 52.60 51.97 51.44 51.70 51.14 51.52 52.61 52.75 52.33 52.23 48.24 44.56 40.66 41.55 43.81 41.97 42.43 41.92 43.60 47.41 49.58 47.32 49.75 46.17 43.70 38.60 32.40 36.39 29.40 24.19 29.34 30.73 30.08 29.32 28.21 27.80 31.05 36.13 32.68
54.96 54.99 54.96 55.15 55.46 55.36 55.10 54.63 53.54 51.90 51.29 51.10 51.12 51.62 52.46 51.99 52.16 51.38 46.31 41.61 42.43 44.15 36.65 43.12 43.84 44.19 46.24 46.77 40.54 45.08 48.56 40.80 38.61 32.13 35.13 30.57 26.42 31.90 35.45 35.24 33.01 31.03 28.07 28.00 33.62 36.70 34.79
54.67 54.75 54.48 54.72 55.10 55.29 55.01 54.31 54.26 52.42 51.55 50.53 50.32 51.05 51.68 51.58 50.54 46.40 43.69 44.33 48.29 46.54 35.61 37.75 42.60 41.75 43.65 45.32 40.64 41.87 46.02 42.16 37.18 33.91 32.70 28.20 31.05 36.50 34.84 32.34 32.26 30.65 28.94 29.36 27.75 34.58 34.74
54.51 54.27 54.43 54.32 54.48 55.09 54.95 54.30 54.30 53.23 51.72 51.31 50.36 50.53 50.82 51.06 44.48 42.52 41.42 47.27 48.02 48.17 28.84 31.49 38.11 41.60 43.67 44.83 38.97 46.24 46.86 42.15 38.26 33.07 33.48 31.44 35.01 34.77 33.22 32.05 31.98 27.64 34.86 35.20 34.06 27.43 21.13
54.39 53.71 53.53 53.73 53.87 54.66 54.73 54.45 53.93 53.76 51.67 51.17 50.69 50.94 50.98 48.11 42.10 40.15 44.25 46.97 47.33 41.61 18.51 34.88 37.71 46.39 45.01 39.82 39.47 42.14 45.52 43.01 36.90 35.13 32.33 28.80 30.90 32.36 32.50 32.79 35.35 31.38 36.71 34.75 33.23 28.54 23.34
53.00 53.21 53.51 53.60 53.38 53.65 54.38 53.98 53.35 53.67 52.82 51.14 50.75 51.02 50.92 46.22 44.08 45.05 46.92 45.34 40.71 23.96 19.23 32.76 39.26 38.16 37.81 39.29 39.30 40.88 41.37 43.61 42.49 35.94 34.70 32.74 36.29 35.98 34.72 37.15 36.88 37.83 34.41 31.46 30.74 26.43 16.99
52.65 52.58 53.09 53.33 53.80 53.34 53.61 53.53 53.04 53.09 53.04 52.38 50.62 51.83 48.34 47.81 41.18 47.15 45.27 38.77 24.51 19.91 32.95 31.30 34.91 37.26 36.59 35.35 37.22 38.57 37.02 36.15 31.17 23.85 22.68 31.66 33.38 37.00 38.47 33.72 36.60 33.55 26.69 13.82 14.57 15.83 15.79
52.17 52.32 52.87 53.28 53.58 53.58 53.38 53.67 53.31 53.58 52.26 52.93 50.90 48.41 47.23 47.29 46.39 45.78 41.48 30.98 23.85 31.13 32.02 36.99 37.06 36.52 33.39 36.36 36.07 36.47 33.73 31.14 35.55 32.88 25.61 19.99 18.44 33.49 37.27 34.60 31.38 31.34 27.96 16.72 11.62 15.53 17.93
52.21 52.24 52.34 53.08 53.45 53.48 53.44 53.29 53.74 53.56 51.41 51.75 49.97 43.21 42.94 44.37 46.83 43.97 35.96 24.11 23.83 30.21 35.82 34.98 35.58 31.10 31.55 35.99 34.76 33.98 32.34 32.58 34.02 33.74 26.02 24.13 22.86 36.85 37.38 39.48 36.76 30.50 24.51 31.93 22.51 21.28 22.01
52.24 51.99 52.09 52.44 53.14 53.32 53.23 53.32 53.26 53.39 51.84 50.53 42.17 41.45 42.18 45.55 44.84 39.27 31.79 28.40 31.59 37.16 37.94 36.64 29.19 33.35 28.99 31.17 31.31 30.99 31.30 34.87 34.71 36.95 35.95 32.04 25.42 35.27 37.29 40.16 38.15 34.52 36.30 24.93 25.49 15.31 17.54
52.52 52.20 51.91 52.09 52.29 52.77 52.96 53.14 53.07 52.57 52.24 49.41 41.37 38.09 43.65 45.46 42.76 36.65 25.48 28.43 35.21 39.54 39.88 36.06 33.96 32.62 32.97 32.24 32.70 31.03 30.62 35.26 37.19 36.67 37.18 34.36 30.81 33.37 37.77 33.37 31.88 33.35 29.99 30.02 28.12 24.54 17.88
52.65 52.52 51.93 51.56 52.12 52.51 52.67 52.80 52.71 52.05 51.32 45.22 39.92 34.13 43.96 44.28 34.90 31.57 27.37 34.91 40.24 37.70 39.03 37.63 36.50 35.70 32.90 33.00 31.81 31.33 30.68 33.63 38.71 38.26 33.50 34.37 31.50 25.88 30.53 35.32 36.87 34.35 31.77 30.20 23.35 22.20 24.51
52.55 52.59 52.29 51.22 51.48 52.24 52.51 52.56 52.59 52.45 49.78 41.68 38.11 37.76 44.10 42.17 30.27 26.93 34.78 36.62 37.72 37.15 36.62 36.87 36.10 37.18 36.05 33.39 30.49 32.59 33.99 38.54 40.00 37.87 34.18 34.29 29.45 20.23 25.36 29.92 32.89 32.23 32.89 32.24 29.11 27.09 23.35
52.54 52.34 52.27 51.54 50.95 51.90 52.38 52.37 52.27 52.40 52.75 43.29 37.45 32.14 37.66 37.30 34.99 33.20 32.67 34.07 34.16 38.43 37.14 37.69 36.32 37.00 34.51 32.29 34.32 32.04 32.86 37.82 39.35 39.00 42.65 38.92 30.17 26.53 20.83 25.26 29.85 29.39 30.56 31.98 30.24 21.39 23.25
52.64 52.18 52.09 51.90 50.80 51.35 52.22 52.21 52.46 52.31 53.57 42.46 35.40 32.45 34.14 29.42 33.78 32.74 33.34 34.82 33.52 33.24 36.79 36.61 33.93 34.15 32.59 29.29 30.56 30.60 33.61 34.43 37.63 41.34 36.08 34.36 26.96 25.69 28.56 30.21 30.59 30.12 29.85 30.51 29.20 31.30 26.13
52.60 52.23 52.01 51.75 51.25 50.61 51.79 52.21 52.14 51.90 51.97 39.40 36.50 34.17 34.06 32.37 33.80 31.64 33.96 31.73 33.38 34.44 34.95 33.41 32.21 34.07 33.33 30.91 31.79 30.70 33.23 31.83 32.00 33.49 32.79 33.52 26.30 26.96 22.86 28.75 28.91 28.47 29.64 31.02 31.36 32.45 32.31
52.51 52.32 52.02 51.54 51.27 50.39 50.90 52.16 51.94 51.67 46.24 38.00 37.21 37.02 35.27 33.14 31.75 29.90 30.11 32.56 34.04 35.57 36.08 36.33 34.92 33.18 32.47 33.83 34.66 33.65 34.15 34.14 32.98 33.73 32.06 30.85 27.53 23.77 21.13 24.87 26.27 21.93 26.06 29.26 29.56 30.62 32.93
52.82 52.36 52.04 51.47 50.93 50.70 50.06 51.61 51.81 51.51 45.69 39.56 37.70 37.50 35.09 30.23 31.81 32.25 33.72 34.49 34.06 34.82 33.47 36.17 35.64 32.72 35.43 37.87 36.41 34.16 31.58 31.97 31.68 31.80 33.25 28.95 27.23 24.48 20.36 22.94 14.88 26.21 29.56 31.26 30.79 32.25 33.51
53.20 52.71 52.03 51.50 50.75 50.56 50.12 50.39 51.15 51.11 48.37 39.41 37.66 37.51 33.97 29.47 31.52 32.22 34.36 33.68 33.27 33.31 33.04 33.64 36.10 36.85 37.34 34.40 29.27 26.81 26.23 27.68 29.10 30.66 30.64 31.63 28.52 22.63 18.40 18.81 24.26 26.09 28.00 28.56 28.14 28.84 31.64
53.75 53.30 52.39 51.57 50.88 50.34 50.22 49.84 50.55 50.53 49.27 39.95 37.36 37.72 36.15 30.10 29.00 34.03 33.56 33.29 30.24 28.00 30.29 34.49 36.85 37.36 35.72 31.41 28.16 22.06 20.75 22.57 23.56 25.42 30.90 31.30 30.24 25.59 23.03 20.10 17.75 24.15 28.58 31.45 29.85 24.38 28.45
53.08 53.82 53.12 51.99 51.13 50.36 50.09 49.88 49.81 50.26 49.61 41.07 38.64 38.32 37.91 31.85 32.59 32.36 31.25 31.71 33.13 29.80 28.78 29.56 32.44 33.59 33.76 28.33 26.15 23.27 21.49 25.11 22.21 22.82 24.20 26.19 25.05 23.99 23.38 22.04 25.12 30.78 32.37 32.61 23.29 27.29 29.97
52.00 53.27 53.65 52.96 51.66 50.53 49.88 49.90 49.37 49.79 49.52 42.79 39.64 39.30 36.58 32.31 32.99 36.19 36.99 33.67 34.13 32.30 29.02 30.57 30.99 31.17 30.84 27.57 26.23 24.54 23.18 24.47 21.68 22.97 24.43 24.72 22.61 23.33 23.93 21.30 19.38 32.60 31.09 28.85 31.59 30.70 33.36
51.75 52.74 53.15 53.13 52.46 51.25 50.00 49.68 49.27 49.10 49.31 44.29 38.80 41.03 39.88 35.52 34.91 37.53 38.48 38.08 37.12 36.56 33.70 33.07 30.63 31.48 32.50 27.95 26.94 25.62 25.61 23.30 22.86 21.70 23.87 23.79 27.38 25.07 26.72 26.67 31.91 32.28 31.80 32.94 33.51 32.92 33.77